<?xml version="1.0" encoding="UTF-8" standalone="no" ?><gpx xmlns="http://www.topografix.com/GPX/1/1" xmlns:gpxx="http://www.garmin.com/xmlschemas/GpxExtensions/v3" xmlns:wptx1="http://www.garmin.com/xmlschemas/WaypointExtension/v1" xmlns:gpxtpx="http://www.garmin.com/xmlschemas/TrackPointExtension/v1" creator="GuideVTT.com" version="1.1" xmlns:xsi="http://www.w3.org/2001/XMLSchema-instance" xsi:schemaLocation="http://www.topografix.com/GPX/1/1 http://www.topografix.com/GPX/1/1/gpx.xsd http://www.garmin.com/xmlschemas/GpxExtensions/v3 http://www8.garmin.com/xmlschemas/GpxExtensionsv3.xsd http://www.garmin.com/xmlschemas/WaypointExtension/v1 http://www8.garmin.com/xmlschemas/WaypointExtensionv1.xsd http://www.garmin.com/xmlschemas/TrackPointExtension/v1 http://www.garmin.com/xmlschemas/TrackPointExtensionv1.xsd">
<metadata><link href="http://www.garmin.com"><text>Garmin International</text></link><time>2013-06-22T15:13:50Z</time></metadata>
<trk><name>orsieres_-_grand-saint-bernard.gpx</name><extensions><gpxx:TrackExtension><gpxx:DisplayColor>Cyan</gpxx:DisplayColor></gpxx:TrackExtension></extensions><trkseg>
<trkpt lat="46.0288200378418" lon="7.14700603485107"><ele></ele><time>2013-8-4T18:31:25Z</time></trkpt>
<trkpt lat="46.0288200378418" lon="7.14700603485107"><ele></ele><time>2013-8-4T18:31:28Z</time></trkpt>
<trkpt lat="46.0288162231445" lon="7.14700269699097"><ele></ele><time>2013-8-4T18:31:31Z</time></trkpt>
<trkpt lat="46.0288047790527" lon="7.14699268341064"><ele></ele><time>2013-8-4T18:31:34Z</time></trkpt>
<trkpt lat="46.0287704467773" lon="7.14697313308716"><ele></ele><time>2013-8-4T18:31:37Z</time></trkpt>
<trkpt lat="46.0286827087402" lon="7.14701271057129"><ele></ele><time>2013-8-4T18:31:40Z</time></trkpt>
<trkpt lat="46.0286598205566" lon="7.14701986312866"><ele></ele><time>2013-8-4T18:31:43Z</time></trkpt>
<trkpt lat="46.0285530090332" lon="7.14706802368164"><ele></ele><time>2013-8-4T18:31:46Z</time></trkpt>
<trkpt lat="46.0284614562988" lon="7.14708948135376"><ele></ele><time>2013-8-4T18:31:49Z</time></trkpt>
<trkpt lat="46.0284385681152" lon="7.14708757400513"><ele></ele><time>2013-8-4T18:31:52Z</time></trkpt>
<trkpt lat="46.0284118652344" lon="7.14708709716797"><ele></ele><time>2013-8-4T18:31:55Z</time></trkpt>
<trkpt lat="46.0283851623535" lon="7.14708185195923"><ele></ele><time>2013-8-4T18:31:58Z</time></trkpt>
<trkpt lat="46.0283088684082" lon="7.14706420898438"><ele></ele><time>2013-8-4T18:32:1Z</time></trkpt>
<trkpt lat="46.0282897949219" lon="7.14705753326416"><ele></ele><time>2013-8-4T18:32:4Z</time></trkpt>
<trkpt lat="46.0281448364258" lon="7.14703178405762"><ele></ele><time>2013-8-4T18:32:7Z</time></trkpt>
<trkpt lat="46.0280799865723" lon="7.14703416824341"><ele></ele><time>2013-8-4T18:32:10Z</time></trkpt>
<trkpt lat="46.0280609130859" lon="7.14703416824341"><ele></ele><time>2013-8-4T18:32:13Z</time></trkpt>
<trkpt lat="46.0280342102051" lon="7.14703464508057"><ele></ele><time>2013-8-4T18:32:16Z</time></trkpt>
<trkpt lat="46.0280113220215" lon="7.14703559875488"><ele></ele><time>2013-8-4T18:32:19Z</time></trkpt>
<trkpt lat="46.0279884338379" lon="7.14704132080078"><ele></ele><time>2013-8-4T18:32:22Z</time></trkpt>
<trkpt lat="46.0278434753418" lon="7.14706039428711"><ele></ele><time>2013-8-4T18:32:25Z</time></trkpt>
<trkpt lat="46.0278205871582" lon="7.14706707000732"><ele></ele><time>2013-8-4T18:32:28Z</time></trkpt>
<trkpt lat="46.0277938842773" lon="7.14707517623901"><ele></ele><time>2013-8-4T18:32:31Z</time></trkpt>
<trkpt lat="46.0277671813965" lon="7.1470832824707"><ele></ele><time>2013-8-4T18:32:34Z</time></trkpt>
<trkpt lat="46.027645111084" lon="7.1470627784729"><ele></ele><time>2013-8-4T18:32:37Z</time></trkpt>
<trkpt lat="46.0276184082031" lon="7.14705514907837"><ele></ele><time>2013-8-4T18:32:40Z</time></trkpt>
<trkpt lat="46.0275650024414" lon="7.14703273773193"><ele></ele><time>2013-8-4T18:32:43Z</time></trkpt>
<trkpt lat="46.0275077819824" lon="7.1470193862915"><ele></ele><time>2013-8-4T18:32:46Z</time></trkpt>
<trkpt lat="46.0274505615234" lon="7.14701843261719"><ele></ele><time>2013-8-4T18:32:49Z</time></trkpt>
<trkpt lat="46.0274200439453" lon="7.14701700210571"><ele></ele><time>2013-8-4T18:32:52Z</time></trkpt>
<trkpt lat="46.0273933410644" lon="7.14701318740845"><ele></ele><time>2013-8-4T18:32:55Z</time></trkpt>
<trkpt lat="46.0273666381836" lon="7.14700794219971"><ele></ele><time>2013-8-4T18:32:58Z</time></trkpt>
<trkpt lat="46.0273399353027" lon="7.14700412750244"><ele></ele><time>2013-8-4T18:33:1Z</time></trkpt>
<trkpt lat="46.0273094177246" lon="7.14699745178223"><ele></ele><time>2013-8-4T18:33:4Z</time></trkpt>
<trkpt lat="46.0272598266602" lon="7.14698505401611"><ele></ele><time>2013-8-4T18:33:7Z</time></trkpt>
<trkpt lat="46.0270957946777" lon="7.14697742462158"><ele></ele><time>2013-8-4T18:33:10Z</time></trkpt>
<trkpt lat="46.0270690917969" lon="7.14697408676148"><ele></ele><time>2013-8-4T18:33:13Z</time></trkpt>
<trkpt lat="46.027042388916" lon="7.14697313308716"><ele></ele><time>2013-8-4T18:33:16Z</time></trkpt>
<trkpt lat="46.0270156860352" lon="7.14697504043579"><ele></ele><time>2013-8-4T18:33:19Z</time></trkpt>
<trkpt lat="46.0269889831543" lon="7.14697217941284"><ele></ele><time>2013-8-4T18:33:22Z</time></trkpt>
<trkpt lat="46.0268669128418" lon="7.14696264266968"><ele></ele><time>2013-8-4T18:33:25Z</time></trkpt>
<trkpt lat="46.026782989502" lon="7.14696741104126"><ele></ele><time>2013-8-4T18:33:28Z</time></trkpt>
<trkpt lat="46.0267562866211" lon="7.14697074890137"><ele></ele><time>2013-8-4T18:33:31Z</time></trkpt>
<trkpt lat="46.0267295837402" lon="7.14697027206421"><ele></ele><time>2013-8-4T18:33:34Z</time></trkpt>
<trkpt lat="46.0266990661621" lon="7.14696788787842"><ele></ele><time>2013-8-4T18:33:37Z</time></trkpt>
<trkpt lat="46.0266723632812" lon="7.14696788787842"><ele></ele><time>2013-8-4T18:33:40Z</time></trkpt>
<trkpt lat="46.0266418457031" lon="7.14697027206421"><ele></ele><time>2013-8-4T18:33:43Z</time></trkpt>
<trkpt lat="46.0265579223633" lon="7.14697074890137"><ele></ele><time>2013-8-4T18:33:46Z</time></trkpt>
<trkpt lat="46.0264472961426" lon="7.14698362350464"><ele></ele><time>2013-8-4T18:33:49Z</time></trkpt>
<trkpt lat="46.0263938903809" lon="7.14699220657349"><ele></ele><time>2013-8-4T18:33:52Z</time></trkpt>
<trkpt lat="46.0263633728027" lon="7.14699983596802"><ele></ele><time>2013-8-4T18:33:55Z</time></trkpt>
<trkpt lat="46.0263366699219" lon="7.1470046043396"><ele></ele><time>2013-8-4T18:33:58Z</time></trkpt>
<trkpt lat="46.0263061523438" lon="7.14700698852539"><ele></ele><time>2013-8-4T18:34:1Z</time></trkpt>
<trkpt lat="46.0262794494629" lon="7.14700841903686"><ele></ele><time>2013-8-4T18:34:4Z</time></trkpt>
<trkpt lat="46.0262222290039" lon="7.14701414108276"><ele></ele><time>2013-8-4T18:34:7Z</time></trkpt>
<trkpt lat="46.0260353088379" lon="7.14704418182373"><ele></ele><time>2013-8-4T18:34:10Z</time></trkpt>
<trkpt lat="46.026008605957" lon="7.14704656600952"><ele></ele><time>2013-8-4T18:34:13Z</time></trkpt>
<trkpt lat="46.0259819030762" lon="7.14704990386963"><ele></ele><time>2013-8-4T18:34:16Z</time></trkpt>
<trkpt lat="46.0259552001953" lon="7.14704895019531"><ele></ele><time>2013-8-4T18:34:19Z</time></trkpt>
<trkpt lat="46.0259246826172" lon="7.14704847335815"><ele></ele><time>2013-8-4T18:34:22Z</time></trkpt>
<trkpt lat="46.0258445739746" lon="7.14705801010132"><ele></ele><time>2013-8-4T18:34:25Z</time></trkpt>
<trkpt lat="46.0258178710938" lon="7.14706039428711"><ele></ele><time>2013-8-4T18:34:28Z</time></trkpt>
<trkpt lat="46.0257911682129" lon="7.14706230163574"><ele></ele><time>2013-8-4T18:34:31Z</time></trkpt>
<trkpt lat="46.025764465332" lon="7.1470627784729"><ele></ele><time>2013-8-4T18:34:34Z</time></trkpt>
<trkpt lat="46.0255508422852" lon="7.14708662033081"><ele></ele><time>2013-8-4T18:34:37Z</time></trkpt>
<trkpt lat="46.0255279541016" lon="7.14709138870239"><ele></ele><time>2013-8-4T18:34:40Z</time></trkpt>
<trkpt lat="46.0255012512207" lon="7.14709663391113"><ele></ele><time>2013-8-4T18:34:43Z</time></trkpt>
<trkpt lat="46.0254783630371" lon="7.1471004486084"><ele></ele><time>2013-8-4T18:34:46Z</time></trkpt>
<trkpt lat="46.0254554748535" lon="7.14710474014282"><ele></ele><time>2013-8-4T18:34:49Z</time></trkpt>
<trkpt lat="46.0253562927246" lon="7.14713287353516"><ele></ele><time>2013-8-4T18:34:52Z</time></trkpt>
<trkpt lat="46.0253295898438" lon="7.1471438407898"><ele></ele><time>2013-8-4T18:34:55Z</time></trkpt>
<trkpt lat="46.0253105163574" lon="7.14715480804443"><ele></ele><time>2013-8-4T18:34:58Z</time></trkpt>
<trkpt lat="46.0252876281738" lon="7.14716720581055"><ele></ele><time>2013-8-4T18:35:1Z</time></trkpt>
<trkpt lat="46.025260925293" lon="7.14717626571655"><ele></ele><time>2013-8-4T18:35:4Z</time></trkpt>
<trkpt lat="46.0251693725586" lon="7.14721488952637"><ele></ele><time>2013-8-4T18:35:7Z</time></trkpt>
<trkpt lat="46.025146484375" lon="7.14722919464111"><ele></ele><time>2013-8-4T18:35:10Z</time></trkpt>
<trkpt lat="46.0251274108887" lon="7.14724159240723"><ele></ele><time>2013-8-4T18:35:13Z</time></trkpt>
<trkpt lat="46.0251045227051" lon="7.14725589752197"><ele></ele><time>2013-8-4T18:35:16Z</time></trkpt>
<trkpt lat="46.0250930786133" lon="7.1472749710083"><ele></ele><time>2013-8-4T18:35:19Z</time></trkpt>
<trkpt lat="46.0250358581543" lon="7.14733839035034"><ele></ele><time>2013-8-4T18:35:22Z</time></trkpt>
<trkpt lat="46.0249290466309" lon="7.1473970413208"><ele></ele><time>2013-8-4T18:35:25Z</time></trkpt>
<trkpt lat="46.0249061584473" lon="7.14740419387817"><ele></ele><time>2013-8-4T18:35:28Z</time></trkpt>
<trkpt lat="46.0248870849609" lon="7.1474175453186"><ele></ele><time>2013-8-4T18:35:31Z</time></trkpt>
<trkpt lat="46.0248641967773" lon="7.14743328094482"><ele></ele><time>2013-8-4T18:35:34Z</time></trkpt>
<trkpt lat="46.0248413085938" lon="7.14745140075684"><ele></ele><time>2013-8-4T18:35:37Z</time></trkpt>
<trkpt lat="46.0248184204102" lon="7.14747047424316"><ele></ele><time>2013-8-4T18:35:40Z</time></trkpt>
<trkpt lat="46.024772644043" lon="7.14750289916992"><ele></ele><time>2013-8-4T18:35:43Z</time></trkpt>
<trkpt lat="46.0246658325195" lon="7.14758157730102"><ele></ele><time>2013-8-4T18:35:46Z</time></trkpt>
<trkpt lat="46.0246429443359" lon="7.14759874343872"><ele></ele><time>2013-8-4T18:35:49Z</time></trkpt>
<trkpt lat="46.0246200561523" lon="7.14761972427368"><ele></ele><time>2013-8-4T18:35:52Z</time></trkpt>
<trkpt lat="46.0245971679688" lon="7.14763975143433"><ele></ele><time>2013-8-4T18:35:55Z</time></trkpt>
<trkpt lat="46.0244750976562" lon="7.14772891998291"><ele></ele><time>2013-8-4T18:35:58Z</time></trkpt>
<trkpt lat="46.0244560241699" lon="7.14774131774902"><ele></ele><time>2013-8-4T18:36:1Z</time></trkpt>
<trkpt lat="46.0244369506836" lon="7.14775514602661"><ele></ele><time>2013-8-4T18:36:4Z</time></trkpt>
<trkpt lat="46.0244140625" lon="7.14777278900146"><ele></ele><time>2013-8-4T18:36:7Z</time></trkpt>
<trkpt lat="46.0243911743164" lon="7.147789478302"><ele></ele><time>2013-8-4T18:36:10Z</time></trkpt>
<trkpt lat="46.0242652893066" lon="7.14787483215332"><ele></ele><time>2013-8-4T18:36:13Z</time></trkpt>
<trkpt lat="46.0242462158203" lon="7.14788866043091"><ele></ele><time>2013-8-4T18:36:16Z</time></trkpt>
<trkpt lat="46.024227142334" lon="7.14790058135986"><ele></ele><time>2013-8-4T18:36:19Z</time></trkpt>
<trkpt lat="46.0242080688477" lon="7.1479172706604"><ele></ele><time>2013-8-4T18:36:22Z</time></trkpt>
<trkpt lat="46.0241851806641" lon="7.14793014526367"><ele></ele><time>2013-8-4T18:36:25Z</time></trkpt>
<trkpt lat="46.0241203308106" lon="7.14796781539917"><ele></ele><time>2013-8-4T18:36:28Z</time></trkpt>
<trkpt lat="46.0241012573242" lon="7.14798021316528"><ele></ele><time>2013-8-4T18:36:31Z</time></trkpt>
<trkpt lat="46.0240821838379" lon="7.14799165725708"><ele></ele><time>2013-8-4T18:36:34Z</time></trkpt>
<trkpt lat="46.0240631103516" lon="7.1480016708374"><ele></ele><time>2013-8-4T18:36:37Z</time></trkpt>
<trkpt lat="46.0240440368652" lon="7.14801454544067"><ele></ele><time>2013-8-4T18:36:40Z</time></trkpt>
<trkpt lat="46.0240211486816" lon="7.1480278968811"><ele></ele><time>2013-8-4T18:36:43Z</time></trkpt>
<trkpt lat="46.023998260498" lon="7.14804267883301"><ele></ele><time>2013-8-4T18:36:46Z</time></trkpt>
<trkpt lat="46.0239753723144" lon="7.14806079864502"><ele></ele><time>2013-8-4T18:36:49Z</time></trkpt>
<trkpt lat="46.0239562988281" lon="7.14807891845703"><ele></ele><time>2013-8-4T18:36:52Z</time></trkpt>
<trkpt lat="46.0238952636719" lon="7.14811706542969"><ele></ele><time>2013-8-4T18:36:55Z</time></trkpt>
<trkpt lat="46.0238761901856" lon="7.14812755584717"><ele></ele><time>2013-8-4T18:36:58Z</time></trkpt>
<trkpt lat="46.023853302002" lon="7.14814043045044"><ele></ele><time>2013-8-4T18:37:1Z</time></trkpt>
<trkpt lat="46.0238342285156" lon="7.14814949035644"><ele></ele><time>2013-8-4T18:37:4Z</time></trkpt>
<trkpt lat="46.0238151550293" lon="7.14816522598267"><ele></ele><time>2013-8-4T18:37:7Z</time></trkpt>
<trkpt lat="46.0237770080566" lon="7.14819097518921"><ele></ele><time>2013-8-4T18:37:10Z</time></trkpt>
<trkpt lat="46.023754119873" lon="7.14820337295532"><ele></ele><time>2013-8-4T18:37:13Z</time></trkpt>
<trkpt lat="46.0237312316894" lon="7.14821624755859"><ele></ele><time>2013-8-4T18:37:16Z</time></trkpt>
<trkpt lat="46.0237121582031" lon="7.1482310295105"><ele></ele><time>2013-8-4T18:37:19Z</time></trkpt>
<trkpt lat="46.0236892700195" lon="7.14824295043945"><ele></ele><time>2013-8-4T18:37:22Z</time></trkpt>
<trkpt lat="46.0236663818359" lon="7.14825487136841"><ele></ele><time>2013-8-4T18:37:25Z</time></trkpt>
<trkpt lat="46.0236473083496" lon="7.14826822280884"><ele></ele><time>2013-8-4T18:37:28Z</time></trkpt>
<trkpt lat="46.023624420166" lon="7.14827966690064"><ele></ele><time>2013-8-4T18:37:31Z</time></trkpt>
<trkpt lat="46.0235557556152" lon="7.14831638336182"><ele></ele><time>2013-8-4T18:37:34Z</time></trkpt>
<trkpt lat="46.0234451293945" lon="7.14838790893555"><ele></ele><time>2013-8-4T18:37:37Z</time></trkpt>
<trkpt lat="46.0234184265137" lon="7.14840078353882"><ele></ele><time>2013-8-4T18:37:40Z</time></trkpt>
<trkpt lat="46.0233993530273" lon="7.14841651916504"><ele></ele><time>2013-8-4T18:37:43Z</time></trkpt>
<trkpt lat="46.0233764648438" lon="7.14843559265137"><ele></ele><time>2013-8-4T18:37:46Z</time></trkpt>
<trkpt lat="46.0233535766602" lon="7.14845132827759"><ele></ele><time>2013-8-4T18:37:49Z</time></trkpt>
<trkpt lat="46.023307800293" lon="7.14848136901856"><ele></ele><time>2013-8-4T18:37:52Z</time></trkpt>
<trkpt lat="46.0232810974121" lon="7.14849853515625"><ele></ele><time>2013-8-4T18:37:55Z</time></trkpt>
<trkpt lat="46.0232124328613" lon="7.14854907989502"><ele></ele><time>2013-8-4T18:37:58Z</time></trkpt>
<trkpt lat="46.0231895446777" lon="7.14856386184692"><ele></ele><time>2013-8-4T18:38:1Z</time></trkpt>
<trkpt lat="46.0231628417969" lon="7.14857864379883"><ele></ele><time>2013-8-4T18:38:4Z</time></trkpt>
<trkpt lat="46.0231437683106" lon="7.14860010147095"><ele></ele><time>2013-8-4T18:38:7Z</time></trkpt>
<trkpt lat="46.0231246948242" lon="7.14861631393433"><ele></ele><time>2013-8-4T18:38:10Z</time></trkpt>
<trkpt lat="46.0231018066406" lon="7.14862823486328"><ele></ele><time>2013-8-4T18:38:13Z</time></trkpt>
<trkpt lat="46.023078918457" lon="7.14864540100098"><ele></ele><time>2013-8-4T18:38:16Z</time></trkpt>
<trkpt lat="46.0230598449707" lon="7.14866638183594"><ele></ele><time>2013-8-4T18:38:19Z</time></trkpt>
<trkpt lat="46.0230407714844" lon="7.14868497848511"><ele></ele><time>2013-8-4T18:38:22Z</time></trkpt>
<trkpt lat="46.02294921875" lon="7.14875555038452"><ele></ele><time>2013-8-4T18:38:25Z</time></trkpt>
<trkpt lat="46.022834777832" lon="7.1487774848938"><ele></ele><time>2013-8-4T18:38:28Z</time></trkpt>
<trkpt lat="46.0228042602539" lon="7.14877510070801"><ele></ele><time>2013-8-4T18:38:31Z</time></trkpt>
<trkpt lat="46.0227737426758" lon="7.14877414703369"><ele></ele><time>2013-8-4T18:38:34Z</time></trkpt>
<trkpt lat="46.0227470397949" lon="7.14875841140747"><ele></ele><time>2013-8-4T18:38:37Z</time></trkpt>
<trkpt lat="46.0227165222168" lon="7.1487455368042"><ele></ele><time>2013-8-4T18:38:40Z</time></trkpt>
<trkpt lat="46.0226669311523" lon="7.14868879318237"><ele></ele><time>2013-8-4T18:38:43Z</time></trkpt>
<trkpt lat="46.0226058959961" lon="7.1484522819519"><ele></ele><time>2013-8-4T18:38:46Z</time></trkpt>
<trkpt lat="46.0226211547852" lon="7.14835071563721"><ele></ele><time>2013-8-4T18:38:49Z</time></trkpt>
<trkpt lat="46.0226402282715" lon="7.14830636978149"><ele></ele><time>2013-8-4T18:38:52Z</time></trkpt>
<trkpt lat="46.0226593017578" lon="7.14826822280884"><ele></ele><time>2013-8-4T18:38:55Z</time></trkpt>
<trkpt lat="46.0226860046387" lon="7.14822912216186"><ele></ele><time>2013-8-4T18:38:58Z</time></trkpt>
<trkpt lat="46.0227966308594" lon="7.14817953109741"><ele></ele><time>2013-8-4T18:39:1Z</time></trkpt>
<trkpt lat="46.0228805541992" lon="7.14820432662964"><ele></ele><time>2013-8-4T18:39:4Z</time></trkpt>
<trkpt lat="46.0229187011719" lon="7.14822578430176"><ele></ele><time>2013-8-4T18:39:7Z</time></trkpt>
<trkpt lat="46.0229568481445" lon="7.1482515335083"><ele></ele><time>2013-8-4T18:39:10Z</time></trkpt>
<trkpt lat="46.0229911804199" lon="7.14828014373779"><ele></ele><time>2013-8-4T18:39:13Z</time></trkpt>
<trkpt lat="46.023021697998" lon="7.14831209182739"><ele></ele><time>2013-8-4T18:39:16Z</time></trkpt>
<trkpt lat="46.0230522155762" lon="7.14835119247436"><ele></ele><time>2013-8-4T18:39:19Z</time></trkpt>
<trkpt lat="46.023078918457" lon="7.14838552474976"><ele></ele><time>2013-8-4T18:39:22Z</time></trkpt>
<trkpt lat="46.0231018066406" lon="7.14841794967651"><ele></ele><time>2013-8-4T18:39:25Z</time></trkpt>
<trkpt lat="46.0231285095215" lon="7.14845085144043"><ele></ele><time>2013-8-4T18:39:28Z</time></trkpt>
<trkpt lat="46.0231552124023" lon="7.1484842300415"><ele></ele><time>2013-8-4T18:39:31Z</time></trkpt>
<trkpt lat="46.0233497619629" lon="7.14869976043701"><ele></ele><time>2013-8-4T18:39:34Z</time></trkpt>
<trkpt lat="46.0233764648438" lon="7.14872884750366"><ele></ele><time>2013-8-4T18:39:37Z</time></trkpt>
<trkpt lat="46.0234031677246" lon="7.14875316619873"><ele></ele><time>2013-8-4T18:39:40Z</time></trkpt>
<trkpt lat="46.0234718322754" lon="7.14879560470581"><ele></ele><time>2013-8-4T18:39:43Z</time></trkpt>
<trkpt lat="46.0235061645508" lon="7.14881181716919"><ele></ele><time>2013-8-4T18:39:46Z</time></trkpt>
<trkpt lat="46.0235443115234" lon="7.14882850646973"><ele></ele><time>2013-8-4T18:39:49Z</time></trkpt>
<trkpt lat="46.0235786437988" lon="7.14884376525879"><ele></ele><time>2013-8-4T18:39:52Z</time></trkpt>
<trkpt lat="46.0236511230469" lon="7.14887142181396"><ele></ele><time>2013-8-4T18:39:55Z</time></trkpt>
<trkpt lat="46.0236854553223" lon="7.14888048171997"><ele></ele><time>2013-8-4T18:39:58Z</time></trkpt>
<trkpt lat="46.0237236022949" lon="7.14889144897461"><ele></ele><time>2013-8-4T18:40:1Z</time></trkpt>
<trkpt lat="46.0237579345703" lon="7.14890384674072"><ele></ele><time>2013-8-4T18:40:4Z</time></trkpt>
<trkpt lat="46.0237922668457" lon="7.14891815185547"><ele></ele><time>2013-8-4T18:40:7Z</time></trkpt>
<trkpt lat="46.0238265991211" lon="7.14892864227295"><ele></ele><time>2013-8-4T18:40:10Z</time></trkpt>
<trkpt lat="46.0238647460938" lon="7.14894151687622"><ele></ele><time>2013-8-4T18:40:13Z</time></trkpt>
<trkpt lat="46.0241394042969" lon="7.14899015426636"><ele></ele><time>2013-8-4T18:40:16Z</time></trkpt>
<trkpt lat="46.0241775512695" lon="7.14899349212646"><ele></ele><time>2013-8-4T18:40:19Z</time></trkpt>
<trkpt lat="46.0242080688477" lon="7.14899492263794"><ele></ele><time>2013-8-4T18:40:22Z</time></trkpt>
<trkpt lat="46.0243186950684" lon="7.14899969100952"><ele></ele><time>2013-8-4T18:40:25Z</time></trkpt>
<trkpt lat="46.0243530273438" lon="7.14899635314941"><ele></ele><time>2013-8-4T18:40:28Z</time></trkpt>
<trkpt lat="46.0243873596191" lon="7.14899778366089"><ele></ele><time>2013-8-4T18:40:31Z</time></trkpt>
<trkpt lat="46.0244216918945" lon="7.14899682998657"><ele></ele><time>2013-8-4T18:40:34Z</time></trkpt>
<trkpt lat="46.0244560241699" lon="7.14899682998657"><ele></ele><time>2013-8-4T18:40:37Z</time></trkpt>
<trkpt lat="46.0245513916016" lon="7.149001121521"><ele></ele><time>2013-8-4T18:40:40Z</time></trkpt>
<trkpt lat="46.024585723877" lon="7.14900255203247"><ele></ele><time>2013-8-4T18:40:43Z</time></trkpt>
<trkpt lat="46.0246200561523" lon="7.14900350570679"><ele></ele><time>2013-8-4T18:40:46Z</time></trkpt>
<trkpt lat="46.0246505737305" lon="7.14900255203247"><ele></ele><time>2013-8-4T18:40:49Z</time></trkpt>
<trkpt lat="46.0246849060059" lon="7.1490044593811"><ele></ele><time>2013-8-4T18:40:52Z</time></trkpt>
<trkpt lat="46.0247535705566" lon="7.14900779724121"><ele></ele><time>2013-8-4T18:40:55Z</time></trkpt>
<trkpt lat="46.0248756408691" lon="7.14901399612427"><ele></ele><time>2013-8-4T18:40:58Z</time></trkpt>
<trkpt lat="46.024974822998" lon="7.1490044593811"><ele></ele><time>2013-8-4T18:41:1Z</time></trkpt>
<trkpt lat="46.0250053405762" lon="7.14900255203247"><ele></ele><time>2013-8-4T18:41:4Z</time></trkpt>
<trkpt lat="46.0250396728516" lon="7.14900255203247"><ele></ele><time>2013-8-4T18:41:7Z</time></trkpt>
<trkpt lat="46.025074005127" lon="7.14900016784668"><ele></ele><time>2013-8-4T18:41:10Z</time></trkpt>
<trkpt lat="46.0251045227051" lon="7.14899921417236"><ele></ele><time>2013-8-4T18:41:13Z</time></trkpt>
<trkpt lat="46.0251350402832" lon="7.14899492263794"><ele></ele><time>2013-8-4T18:41:16Z</time></trkpt>
<trkpt lat="46.0251655578613" lon="7.14899110794067"><ele></ele><time>2013-8-4T18:41:19Z</time></trkpt>
<trkpt lat="46.0251960754394" lon="7.14898729324341"><ele></ele><time>2013-8-4T18:41:22Z</time></trkpt>
<trkpt lat="46.0252494812012" lon="7.14898347854614"><ele></ele><time>2013-8-4T18:41:25Z</time></trkpt>
<trkpt lat="46.025276184082" lon="7.14897871017456"><ele></ele><time>2013-8-4T18:41:28Z</time></trkpt>
<trkpt lat="46.0253982543945" lon="7.14895057678223"><ele></ele><time>2013-8-4T18:41:31Z</time></trkpt>
<trkpt lat="46.0256195068359" lon="7.14888286590576"><ele></ele><time>2013-8-4T18:41:34Z</time></trkpt>
<trkpt lat="46.0257186889648" lon="7.1488528251648"><ele></ele><time>2013-8-4T18:41:37Z</time></trkpt>
<trkpt lat="46.0257530212402" lon="7.148841381073"><ele></ele><time>2013-8-4T18:41:40Z</time></trkpt>
<trkpt lat="46.0257835388184" lon="7.1488356590271"><ele></ele><time>2013-8-4T18:41:43Z</time></trkpt>
<trkpt lat="46.0258102416992" lon="7.14882326126099"><ele></ele><time>2013-8-4T18:41:46Z</time></trkpt>
<trkpt lat="46.0258407592773" lon="7.14881086349487"><ele></ele><time>2013-8-4T18:41:49Z</time></trkpt>
<trkpt lat="46.0258674621582" lon="7.14879941940308"><ele></ele><time>2013-8-4T18:41:52Z</time></trkpt>
<trkpt lat="46.0259323120117" lon="7.14877653121948"><ele></ele><time>2013-8-4T18:41:55Z</time></trkpt>
<trkpt lat="46.0259628295898" lon="7.14876508712768"><ele></ele><time>2013-8-4T18:41:58Z</time></trkpt>
<trkpt lat="46.0261077880859" lon="7.14872360229492"><ele></ele><time>2013-8-4T18:42:1Z</time></trkpt>
<trkpt lat="46.0261344909668" lon="7.14871215820312"><ele></ele><time>2013-8-4T18:42:4Z</time></trkpt>
<trkpt lat="46.0261650085449" lon="7.14870071411133"><ele></ele><time>2013-8-4T18:42:7Z</time></trkpt>
<trkpt lat="46.026195526123" lon="7.14869165420532"><ele></ele><time>2013-8-4T18:42:10Z</time></trkpt>
<trkpt lat="46.0262222290039" lon="7.14868211746216"><ele></ele><time>2013-8-4T18:42:13Z</time></trkpt>
<trkpt lat="46.026252746582" lon="7.14867162704468"><ele></ele><time>2013-8-4T18:42:16Z</time></trkpt>
<trkpt lat="46.0263137817383" lon="7.14866352081299"><ele></ele><time>2013-8-4T18:42:19Z</time></trkpt>
<trkpt lat="46.0263442993164" lon="7.14865875244141"><ele></ele><time>2013-8-4T18:42:22Z</time></trkpt>
<trkpt lat="46.0263748168945" lon="7.14865398406982"><ele></ele><time>2013-8-4T18:42:25Z</time></trkpt>
<trkpt lat="46.0264015197754" lon="7.14864873886108"><ele></ele><time>2013-8-4T18:42:28Z</time></trkpt>
<trkpt lat="46.0264320373535" lon="7.14864730834961"><ele></ele><time>2013-8-4T18:42:31Z</time></trkpt>
<trkpt lat="46.0265846252441" lon="7.14861679077148"><ele></ele><time>2013-8-4T18:42:34Z</time></trkpt>
<trkpt lat="46.0266151428223" lon="7.14861536026001"><ele></ele><time>2013-8-4T18:42:37Z</time></trkpt>
<trkpt lat="46.0266456604004" lon="7.14861679077148"><ele></ele><time>2013-8-4T18:42:40Z</time></trkpt>
<trkpt lat="46.0266799926758" lon="7.14861536026001"><ele></ele><time>2013-8-4T18:42:43Z</time></trkpt>
<trkpt lat="46.0267105102539" lon="7.14861297607422"><ele></ele><time>2013-8-4T18:42:46Z</time></trkpt>
<trkpt lat="46.0267677307129" lon="7.14860200881958"><ele></ele><time>2013-8-4T18:42:49Z</time></trkpt>
<trkpt lat="46.0267944335938" lon="7.14860105514526"><ele></ele><time>2013-8-4T18:42:52Z</time></trkpt>
<trkpt lat="46.0269050598144" lon="7.14859628677368"><ele></ele><time>2013-8-4T18:42:55Z</time></trkpt>
<trkpt lat="46.026927947998" lon="7.14859104156494"><ele></ele><time>2013-8-4T18:42:58Z</time></trkpt>
<trkpt lat="46.0269584655762" lon="7.14859390258789"><ele></ele><time>2013-8-4T18:43:1Z</time></trkpt>
<trkpt lat="46.026985168457" lon="7.14859437942505"><ele></ele><time>2013-8-4T18:43:4Z</time></trkpt>
<trkpt lat="46.0270118713379" lon="7.14859628677368"><ele></ele><time>2013-8-4T18:43:7Z</time></trkpt>
<trkpt lat="46.0271987915039" lon="7.14861154556274"><ele></ele><time>2013-8-4T18:43:10Z</time></trkpt>
<trkpt lat="46.0272254943848" lon="7.14861631393433"><ele></ele><time>2013-8-4T18:43:13Z</time></trkpt>
<trkpt lat="46.0272560119629" lon="7.14862203598022"><ele></ele><time>2013-8-4T18:43:16Z</time></trkpt>
<trkpt lat="46.0272827148438" lon="7.1486291885376"><ele></ele><time>2013-8-4T18:43:19Z</time></trkpt>
<trkpt lat="46.0273170471191" lon="7.14863777160644"><ele></ele><time>2013-8-4T18:43:22Z</time></trkpt>
<trkpt lat="46.0274200439453" lon="7.14868211746216"><ele></ele><time>2013-8-4T18:43:25Z</time></trkpt>
<trkpt lat="46.0274429321289" lon="7.14870023727417"><ele></ele><time>2013-8-4T18:43:28Z</time></trkpt>
<trkpt lat="46.0274658203125" lon="7.14871644973755"><ele></ele><time>2013-8-4T18:43:31Z</time></trkpt>
<trkpt lat="46.0274887084961" lon="7.1487340927124"><ele></ele><time>2013-8-4T18:43:34Z</time></trkpt>
<trkpt lat="46.0275115966797" lon="7.14874696731567"><ele></ele><time>2013-8-4T18:43:37Z</time></trkpt>
<trkpt lat="46.0275802612305" lon="7.14880847930908"><ele></ele><time>2013-8-4T18:43:40Z</time></trkpt>
<trkpt lat="46.0276031494141" lon="7.1488299369812"><ele></ele><time>2013-8-4T18:43:43Z</time></trkpt>
<trkpt lat="46.0276298522949" lon="7.14885473251343"><ele></ele><time>2013-8-4T18:43:46Z</time></trkpt>
<trkpt lat="46.0276908874512" lon="7.14892768859863"><ele></ele><time>2013-8-4T18:43:49Z</time></trkpt>
<trkpt lat="46.0277061462402" lon="7.14895582199097"><ele></ele><time>2013-8-4T18:43:52Z</time></trkpt>
<trkpt lat="46.027717590332" lon="7.14898490905762"><ele></ele><time>2013-8-4T18:43:55Z</time></trkpt>
<trkpt lat="46.0277328491211" lon="7.14901685714722"><ele></ele><time>2013-8-4T18:43:58Z</time></trkpt>
<trkpt lat="46.0277519226074" lon="7.14905118942261"><ele></ele><time>2013-8-4T18:44:1Z</time></trkpt>
<trkpt lat="46.0277671813965" lon="7.14908695220947"><ele></ele><time>2013-8-4T18:44:4Z</time></trkpt>
<trkpt lat="46.0277824401856" lon="7.14912128448486"><ele></ele><time>2013-8-4T18:44:7Z</time></trkpt>
<trkpt lat="46.0277938842773" lon="7.14915561676025"><ele></ele><time>2013-8-4T18:44:10Z</time></trkpt>
<trkpt lat="46.0278015136719" lon="7.14919090270996"><ele></ele><time>2013-8-4T18:44:13Z</time></trkpt>
<trkpt lat="46.0278205871582" lon="7.14929723739624"><ele></ele><time>2013-8-4T18:44:16Z</time></trkpt>
<trkpt lat="46.0278244018555" lon="7.14933586120606"><ele></ele><time>2013-8-4T18:44:19Z</time></trkpt>
<trkpt lat="46.0278358459473" lon="7.14952564239502"><ele></ele><time>2013-8-4T18:44:22Z</time></trkpt>
<trkpt lat="46.02783203125" lon="7.14956283569336"><ele></ele><time>2013-8-4T18:44:25Z</time></trkpt>
<trkpt lat="46.02783203125" lon="7.14960193634033"><ele></ele><time>2013-8-4T18:44:28Z</time></trkpt>
<trkpt lat="46.0278282165527" lon="7.14963817596436"><ele></ele><time>2013-8-4T18:44:31Z</time></trkpt>
<trkpt lat="46.0278244018555" lon="7.14967632293701"><ele></ele><time>2013-8-4T18:44:34Z</time></trkpt>
<trkpt lat="46.0278015136719" lon="7.14978456497192"><ele></ele><time>2013-8-4T18:44:37Z</time></trkpt>
<trkpt lat="46.0277938842773" lon="7.149817943573"><ele></ele><time>2013-8-4T18:44:40Z</time></trkpt>
<trkpt lat="46.0277824401856" lon="7.14985084533691"><ele></ele><time>2013-8-4T18:44:43Z</time></trkpt>
<trkpt lat="46.0277671813965" lon="7.14988470077515"><ele></ele><time>2013-8-4T18:44:46Z</time></trkpt>
<trkpt lat="46.0277557373047" lon="7.1499171257019"><ele></ele><time>2013-8-4T18:44:49Z</time></trkpt>
<trkpt lat="46.0276412963867" lon="7.15011644363403"><ele></ele><time>2013-8-4T18:44:52Z</time></trkpt>
<trkpt lat="46.0275192260742" lon="7.15023565292358"><ele></ele><time>2013-8-4T18:44:55Z</time></trkpt>
<trkpt lat="46.0275001525879" lon="7.15025091171265"><ele></ele><time>2013-8-4T18:44:58Z</time></trkpt>
<trkpt lat="46.0274772644043" lon="7.15026712417602"><ele></ele><time>2013-8-4T18:45:1Z</time></trkpt>
<trkpt lat="46.027458190918" lon="7.15028142929077"><ele></ele><time>2013-8-4T18:45:4Z</time></trkpt>
<trkpt lat="46.0274353027344" lon="7.15029001235962"><ele></ele><time>2013-8-4T18:45:7Z</time></trkpt>
<trkpt lat="46.0274124145508" lon="7.15030097961426"><ele></ele><time>2013-8-4T18:45:10Z</time></trkpt>
<trkpt lat="46.0273170471191" lon="7.15032005310059"><ele></ele><time>2013-8-4T18:45:13Z</time></trkpt>
<trkpt lat="46.0272674560547" lon="7.15032148361206"><ele></ele><time>2013-8-4T18:45:16Z</time></trkpt>
<trkpt lat="46.0272407531738" lon="7.15032005310059"><ele></ele><time>2013-8-4T18:45:19Z</time></trkpt>
<trkpt lat="46.0272178649902" lon="7.15032196044922"><ele></ele><time>2013-8-4T18:45:22Z</time></trkpt>
<trkpt lat="46.0271949768066" lon="7.15032052993774"><ele></ele><time>2013-8-4T18:45:25Z</time></trkpt>
<trkpt lat="46.027172088623" lon="7.15032339096069"><ele></ele><time>2013-8-4T18:45:28Z</time></trkpt>
<trkpt lat="46.0271186828613" lon="7.15031814575195"><ele></ele><time>2013-8-4T18:45:31Z</time></trkpt>
<trkpt lat="46.0270385742188" lon="7.15030288696289"><ele></ele><time>2013-8-4T18:45:34Z</time></trkpt>
<trkpt lat="46.0270118713379" lon="7.1503005027771"><ele></ele><time>2013-8-4T18:45:37Z</time></trkpt>
<trkpt lat="46.026985168457" lon="7.15029621124268"><ele></ele><time>2013-8-4T18:45:40Z</time></trkpt>
<trkpt lat="46.0269584655762" lon="7.15028858184814"><ele></ele><time>2013-8-4T18:45:43Z</time></trkpt>
<trkpt lat="46.0269355773926" lon="7.15028381347656"><ele></ele><time>2013-8-4T18:45:46Z</time></trkpt>
<trkpt lat="46.026912689209" lon="7.1502742767334"><ele></ele><time>2013-8-4T18:45:49Z</time></trkpt>
<trkpt lat="46.0267906188965" lon="7.15024757385254"><ele></ele><time>2013-8-4T18:45:52Z</time></trkpt>
<trkpt lat="46.0267639160156" lon="7.15024614334106"><ele></ele><time>2013-8-4T18:45:55Z</time></trkpt>
<trkpt lat="46.0267372131348" lon="7.15023803710938"><ele></ele><time>2013-8-4T18:45:58Z</time></trkpt>
<trkpt lat="46.0267105102539" lon="7.15023183822632"><ele></ele><time>2013-8-4T18:46:1Z</time></trkpt>
<trkpt lat="46.026683807373" lon="7.15022897720337"><ele></ele><time>2013-8-4T18:46:4Z</time></trkpt>
<trkpt lat="46.0265312194824" lon="7.15020942687988"><ele></ele><time>2013-8-4T18:46:7Z</time></trkpt>
<trkpt lat="46.0265045166016" lon="7.1502046585083"><ele></ele><time>2013-8-4T18:46:10Z</time></trkpt>
<trkpt lat="46.0264778137207" lon="7.1502103805542"><ele></ele><time>2013-8-4T18:46:13Z</time></trkpt>
<trkpt lat="46.0264472961426" lon="7.15020895004272"><ele></ele><time>2013-8-4T18:46:16Z</time></trkpt>
<trkpt lat="46.0264205932617" lon="7.15020942687988"><ele></ele><time>2013-8-4T18:46:19Z</time></trkpt>
<trkpt lat="46.0263977050781" lon="7.1502103805542"><ele></ele><time>2013-8-4T18:46:22Z</time></trkpt>
<trkpt lat="46.026252746582" lon="7.15021562576294"><ele></ele><time>2013-8-4T18:46:25Z</time></trkpt>
<trkpt lat="46.0262298583984" lon="7.15022039413452"><ele></ele><time>2013-8-4T18:46:28Z</time></trkpt>
<trkpt lat="46.0262069702148" lon="7.1502275466919"><ele></ele><time>2013-8-4T18:46:31Z</time></trkpt>
<trkpt lat="46.0261840820312" lon="7.15023422241211"><ele></ele><time>2013-8-4T18:46:34Z</time></trkpt>
<trkpt lat="46.0261650085449" lon="7.15023422241211"><ele></ele><time>2013-8-4T18:46:37Z</time></trkpt>
<trkpt lat="46.0260162353516" lon="7.15027618408203"><ele></ele><time>2013-8-4T18:46:40Z</time></trkpt>
<trkpt lat="46.0259971618652" lon="7.15028619766235"><ele></ele><time>2013-8-4T18:46:43Z</time></trkpt>
<trkpt lat="46.0259590148926" lon="7.15029382705688"><ele></ele><time>2013-8-4T18:46:46Z</time></trkpt>
<trkpt lat="46.025936126709" lon="7.15030193328857"><ele></ele><time>2013-8-4T18:46:49Z</time></trkpt>
<trkpt lat="46.0259170532227" lon="7.15030574798584"><ele></ele><time>2013-8-4T18:46:52Z</time></trkpt>
<trkpt lat="46.0258979797363" lon="7.15031147003174"><ele></ele><time>2013-8-4T18:46:55Z</time></trkpt>
<trkpt lat="46.02587890625" lon="7.15032052993774"><ele></ele><time>2013-8-4T18:46:58Z</time></trkpt>
<trkpt lat="46.0257987976074" lon="7.15035343170166"><ele></ele><time>2013-8-4T18:47:1Z</time></trkpt>
<trkpt lat="46.0257759094238" lon="7.15036582946777"><ele></ele><time>2013-8-4T18:47:4Z</time></trkpt>
<trkpt lat="46.0257415771484" lon="7.15038108825684"><ele></ele><time>2013-8-4T18:47:7Z</time></trkpt>
<trkpt lat="46.0257110595703" lon="7.15039777755737"><ele></ele><time>2013-8-4T18:47:10Z</time></trkpt>
<trkpt lat="46.0257034301758" lon="7.15040254592896"><ele></ele><time>2013-8-4T18:47:13Z</time></trkpt>
<trkpt lat="46.025691986084" lon="7.15040493011475"><ele></ele><time>2013-8-4T18:47:16Z</time></trkpt>
<trkpt lat="46.0256843566894" lon="7.15040922164917"><ele></ele><time>2013-8-4T18:47:19Z</time></trkpt>
<trkpt lat="46.0256767272949" lon="7.15041494369507"><ele></ele><time>2013-8-4T18:47:22Z</time></trkpt>
<trkpt lat="46.0256690979004" lon="7.15041589736938"><ele></ele><time>2013-8-4T18:47:25Z</time></trkpt>
<trkpt lat="46.0256614685059" lon="7.15040731430054"><ele></ele><time>2013-8-4T18:47:28Z</time></trkpt>
<trkpt lat="46.0256500244141" lon="7.15040493011475"><ele></ele><time>2013-8-4T18:47:31Z</time></trkpt>
<trkpt lat="46.0256233215332" lon="7.15040159225464"><ele></ele><time>2013-8-4T18:47:34Z</time></trkpt>
<trkpt lat="46.0256080627441" lon="7.15042400360107"><ele></ele><time>2013-8-4T18:47:37Z</time></trkpt>
<trkpt lat="46.0255279541016" lon="7.15045833587646"><ele></ele><time>2013-8-4T18:47:40Z</time></trkpt>
<trkpt lat="46.025520324707" lon="7.1504635810852"><ele></ele><time>2013-8-4T18:47:43Z</time></trkpt>
<trkpt lat="46.0255088806152" lon="7.15046739578247"><ele></ele><time>2013-8-4T18:47:46Z</time></trkpt>
<trkpt lat="46.0255012512207" lon="7.15046977996826"><ele></ele><time>2013-8-4T18:47:49Z</time></trkpt>
<trkpt lat="46.0254821777344" lon="7.15048217773438"><ele></ele><time>2013-8-4T18:47:52Z</time></trkpt>
<trkpt lat="46.0254173278809" lon="7.15051603317261"><ele></ele><time>2013-8-4T18:47:55Z</time></trkpt>
<trkpt lat="46.0253791809082" lon="7.15052700042725"><ele></ele><time>2013-8-4T18:47:58Z</time></trkpt>
<trkpt lat="46.0251693725586" lon="7.15059185028076"><ele></ele><time>2013-8-4T18:48:1Z</time></trkpt>
<trkpt lat="46.0250358581543" lon="7.15062475204468"><ele></ele><time>2013-8-4T18:48:4Z</time></trkpt>
<trkpt lat="46.0249710083008" lon="7.15063238143921"><ele></ele><time>2013-8-4T18:48:7Z</time></trkpt>
<trkpt lat="46.0249366760254" lon="7.15063381195068"><ele></ele><time>2013-8-4T18:48:10Z</time></trkpt>
<trkpt lat="46.0248985290527" lon="7.15063619613648"><ele></ele><time>2013-8-4T18:48:13Z</time></trkpt>
<trkpt lat="46.0248680114746" lon="7.15064096450806"><ele></ele><time>2013-8-4T18:48:16Z</time></trkpt>
<trkpt lat="46.0248336791992" lon="7.15064382553101"><ele></ele><time>2013-8-4T18:48:19Z</time></trkpt>
<trkpt lat="46.0246276855469" lon="7.1506552696228"><ele></ele><time>2013-8-4T18:48:22Z</time></trkpt>
<trkpt lat="46.0245971679688" lon="7.15065383911133"><ele></ele><time>2013-8-4T18:48:25Z</time></trkpt>
<trkpt lat="46.0245628356934" lon="7.15065240859985"><ele></ele><time>2013-8-4T18:48:28Z</time></trkpt>
<trkpt lat="46.0245323181152" lon="7.1506519317627"><ele></ele><time>2013-8-4T18:48:31Z</time></trkpt>
<trkpt lat="46.0244979858398" lon="7.15064811706543"><ele></ele><time>2013-8-4T18:48:34Z</time></trkpt>
<trkpt lat="46.0244331359863" lon="7.15064525604248"><ele></ele><time>2013-8-4T18:48:37Z</time></trkpt>
<trkpt lat="46.0244026184082" lon="7.15064334869385"><ele></ele><time>2013-8-4T18:48:40Z</time></trkpt>
<trkpt lat="46.0243682861328" lon="7.15063905715942"><ele></ele><time>2013-8-4T18:48:43Z</time></trkpt>
<trkpt lat="46.0243339538574" lon="7.15063667297363"><ele></ele><time>2013-8-4T18:48:46Z</time></trkpt>
<trkpt lat="46.0242385864258" lon="7.15063095092774"><ele></ele><time>2013-8-4T18:48:49Z</time></trkpt>
<trkpt lat="46.0242080688477" lon="7.15063142776489"><ele></ele><time>2013-8-4T18:48:52Z</time></trkpt>
<trkpt lat="46.0241737365723" lon="7.15063142776489"><ele></ele><time>2013-8-4T18:48:55Z</time></trkpt>
<trkpt lat="46.0241394042969" lon="7.15063095092774"><ele></ele><time>2013-8-4T18:48:58Z</time></trkpt>
<trkpt lat="46.0241088867188" lon="7.15063428878784"><ele></ele><time>2013-8-4T18:49:1Z</time></trkpt>
<trkpt lat="46.024040222168" lon="7.15064287185669"><ele></ele><time>2013-8-4T18:49:4Z</time></trkpt>
<trkpt lat="46.0239753723144" lon="7.15065097808838"><ele></ele><time>2013-8-4T18:49:7Z</time></trkpt>
<trkpt lat="46.0239448547363" lon="7.15065050125122"><ele></ele><time>2013-8-4T18:49:10Z</time></trkpt>
<trkpt lat="46.0239105224609" lon="7.15065431594849"><ele></ele><time>2013-8-4T18:49:13Z</time></trkpt>
<trkpt lat="46.0238800048828" lon="7.15065765380859"><ele></ele><time>2013-8-4T18:49:16Z</time></trkpt>
<trkpt lat="46.0238494873047" lon="7.15066194534302"><ele></ele><time>2013-8-4T18:49:19Z</time></trkpt>
<trkpt lat="46.0237236022949" lon="7.15069198608398"><ele></ele><time>2013-8-4T18:49:22Z</time></trkpt>
<trkpt lat="46.0236968994141" lon="7.15070533752441"><ele></ele><time>2013-8-4T18:49:25Z</time></trkpt>
<trkpt lat="46.0236663818359" lon="7.15072107315064"><ele></ele><time>2013-8-4T18:49:28Z</time></trkpt>
<trkpt lat="46.0236320495606" lon="7.15073013305664"><ele></ele><time>2013-8-4T18:49:31Z</time></trkpt>
<trkpt lat="46.0236015319824" lon="7.1507420539856"><ele></ele><time>2013-8-4T18:49:34Z</time></trkpt>
<trkpt lat="46.023509979248" lon="7.15077686309814"><ele></ele><time>2013-8-4T18:49:37Z</time></trkpt>
<trkpt lat="46.0234451293945" lon="7.1508059501648"><ele></ele><time>2013-8-4T18:49:40Z</time></trkpt>
<trkpt lat="46.0234146118164" lon="7.15082263946533"><ele></ele><time>2013-8-4T18:49:43Z</time></trkpt>
<trkpt lat="46.0233840942383" lon="7.15083980560303"><ele></ele><time>2013-8-4T18:49:46Z</time></trkpt>
<trkpt lat="46.0233535766602" lon="7.15085744857788"><ele></ele><time>2013-8-4T18:49:49Z</time></trkpt>
<trkpt lat="46.0233268737793" lon="7.15087890625"><ele></ele><time>2013-8-4T18:49:52Z</time></trkpt>
<trkpt lat="46.0232353210449" lon="7.15093898773193"><ele></ele><time>2013-8-4T18:49:55Z</time></trkpt>
<trkpt lat="46.0231742858887" lon="7.15098428726196"><ele></ele><time>2013-8-4T18:49:58Z</time></trkpt>
<trkpt lat="46.0231437683106" lon="7.15100860595703"><ele></ele><time>2013-8-4T18:50:1Z</time></trkpt>
<trkpt lat="46.0231132507324" lon="7.15102767944336"><ele></ele><time>2013-8-4T18:50:4Z</time></trkpt>
<trkpt lat="46.0230827331543" lon="7.15105152130127"><ele></ele><time>2013-8-4T18:50:7Z</time></trkpt>
<trkpt lat="46.0230522155762" lon="7.15107679367065"><ele></ele><time>2013-8-4T18:50:10Z</time></trkpt>
<trkpt lat="46.0229949951172" lon="7.15112829208374"><ele></ele><time>2013-8-4T18:50:13Z</time></trkpt>
<trkpt lat="46.0229148864746" lon="7.15120649337768"><ele></ele><time>2013-8-4T18:50:16Z</time></trkpt>
<trkpt lat="46.0228881835938" lon="7.15123319625854"><ele></ele><time>2013-8-4T18:50:19Z</time></trkpt>
<trkpt lat="46.0228614807129" lon="7.1512598991394"><ele></ele><time>2013-8-4T18:50:22Z</time></trkpt>
<trkpt lat="46.022834777832" lon="7.15128421783447"><ele></ele><time>2013-8-4T18:50:25Z</time></trkpt>
<trkpt lat="46.0227203369141" lon="7.15139722824097"><ele></ele><time>2013-8-4T18:50:28Z</time></trkpt>
<trkpt lat="46.0226898193359" lon="7.15142583847046"><ele></ele><time>2013-8-4T18:50:31Z</time></trkpt>
<trkpt lat="46.0226669311523" lon="7.15145444869995"><ele></ele><time>2013-8-4T18:50:34Z</time></trkpt>
<trkpt lat="46.0226402282715" lon="7.15147972106934"><ele></ele><time>2013-8-4T18:50:37Z</time></trkpt>
<trkpt lat="46.0226135253906" lon="7.15150880813599"><ele></ele><time>2013-8-4T18:50:40Z</time></trkpt>
<trkpt lat="46.0225105285644" lon="7.1516227722168"><ele></ele><time>2013-8-4T18:50:43Z</time></trkpt>
<trkpt lat="46.0224533081055" lon="7.15166616439819"><ele></ele><time>2013-8-4T18:50:46Z</time></trkpt>
<trkpt lat="46.0224266052246" lon="7.15168762207031"><ele></ele><time>2013-8-4T18:50:49Z</time></trkpt>
<trkpt lat="46.0223999023438" lon="7.15171337127686"><ele></ele><time>2013-8-4T18:50:52Z</time></trkpt>
<trkpt lat="46.0223693847656" lon="7.15174007415772"><ele></ele><time>2013-8-4T18:50:55Z</time></trkpt>
<trkpt lat="46.0223426818848" lon="7.15176296234131"><ele></ele><time>2013-8-4T18:50:58Z</time></trkpt>
<trkpt lat="46.0222854614258" lon="7.15179824829102"><ele></ele><time>2013-8-4T18:51:1Z</time></trkpt>
<trkpt lat="46.0221748352051" lon="7.15187644958496"><ele></ele><time>2013-8-4T18:51:4Z</time></trkpt>
<trkpt lat="46.0221481323242" lon="7.15189075469971"><ele></ele><time>2013-8-4T18:51:7Z</time></trkpt>
<trkpt lat="46.0221214294434" lon="7.15190935134888"><ele></ele><time>2013-8-4T18:51:10Z</time></trkpt>
<trkpt lat="46.0220947265625" lon="7.15192556381226"><ele></ele><time>2013-8-4T18:51:13Z</time></trkpt>
<trkpt lat="46.0220680236816" lon="7.15194511413574"><ele></ele><time>2013-8-4T18:51:16Z</time></trkpt>
<trkpt lat="46.0219802856445" lon="7.15199184417725"><ele></ele><time>2013-8-4T18:51:19Z</time></trkpt>
<trkpt lat="46.0219535827637" lon="7.15200901031494"><ele></ele><time>2013-8-4T18:51:22Z</time></trkpt>
<trkpt lat="46.0219268798828" lon="7.15202331542969"><ele></ele><time>2013-8-4T18:51:25Z</time></trkpt>
<trkpt lat="46.021900177002" lon="7.15204095840454"><ele></ele><time>2013-8-4T18:51:28Z</time></trkpt>
<trkpt lat="46.0218734741211" lon="7.15205717086792"><ele></ele><time>2013-8-4T18:51:31Z</time></trkpt>
<trkpt lat="46.021842956543" lon="7.15207195281982"><ele></ele><time>2013-8-4T18:51:34Z</time></trkpt>
<trkpt lat="46.0217323303223" lon="7.15213584899902"><ele></ele><time>2013-8-4T18:51:37Z</time></trkpt>
<trkpt lat="46.0217056274414" lon="7.15215301513672"><ele></ele><time>2013-8-4T18:51:40Z</time></trkpt>
<trkpt lat="46.0216789245606" lon="7.1521692276001"><ele></ele><time>2013-8-4T18:51:43Z</time></trkpt>
<trkpt lat="46.0216484069824" lon="7.15218496322632"><ele></ele><time>2013-8-4T18:51:46Z</time></trkpt>
<trkpt lat="46.0216217041016" lon="7.15220165252686"><ele></ele><time>2013-8-4T18:51:49Z</time></trkpt>
<trkpt lat="46.0214805603027" lon="7.15229368209839"><ele></ele><time>2013-8-4T18:51:52Z</time></trkpt>
<trkpt lat="46.0214500427246" lon="7.15231323242188"><ele></ele><time>2013-8-4T18:51:55Z</time></trkpt>
<trkpt lat="46.0214233398438" lon="7.15233707427978"><ele></ele><time>2013-8-4T18:51:58Z</time></trkpt>
<trkpt lat="46.0213966369629" lon="7.15236186981201"><ele></ele><time>2013-8-4T18:52:1Z</time></trkpt>
<trkpt lat="46.021369934082" lon="7.15238428115845"><ele></ele><time>2013-8-4T18:52:4Z</time></trkpt>
<trkpt lat="46.0213432312012" lon="7.15240812301636"><ele></ele><time>2013-8-4T18:52:7Z</time></trkpt>
<trkpt lat="46.0212669372559" lon="7.15247964859009"><ele></ele><time>2013-8-4T18:52:10Z</time></trkpt>
<trkpt lat="46.021240234375" lon="7.15250539779663"><ele></ele><time>2013-8-4T18:52:13Z</time></trkpt>
<trkpt lat="46.0212135314941" lon="7.15253114700317"><ele></ele><time>2013-8-4T18:52:16Z</time></trkpt>
<trkpt lat="46.0211906433106" lon="7.15255689620972"><ele></ele><time>2013-8-4T18:52:19Z</time></trkpt>
<trkpt lat="46.0211639404297" lon="7.15258598327637"><ele></ele><time>2013-8-4T18:52:22Z</time></trkpt>
<trkpt lat="46.0211181640625" lon="7.15264558792114"><ele></ele><time>2013-8-4T18:52:25Z</time></trkpt>
<trkpt lat="46.0210952758789" lon="7.15267181396484"><ele></ele><time>2013-8-4T18:52:28Z</time></trkpt>
<trkpt lat="46.0210723876953" lon="7.15270090103149"><ele></ele><time>2013-8-4T18:52:31Z</time></trkpt>
<trkpt lat="46.0210494995117" lon="7.15273141860962"><ele></ele><time>2013-8-4T18:52:34Z</time></trkpt>
<trkpt lat="46.0210227966309" lon="7.15275812149048"><ele></ele><time>2013-8-4T18:52:37Z</time></trkpt>
<trkpt lat="46.0209999084473" lon="7.15278673171997"><ele></ele><time>2013-8-4T18:52:40Z</time></trkpt>
<trkpt lat="46.0209808349609" lon="7.15281820297241"><ele></ele><time>2013-8-4T18:52:43Z</time></trkpt>
<trkpt lat="46.0209083557129" lon="7.152916431427"><ele></ele><time>2013-8-4T18:52:46Z</time></trkpt>
<trkpt lat="46.0208435058594" lon="7.15300559997559"><ele></ele><time>2013-8-4T18:52:49Z</time></trkpt>
<trkpt lat="46.0208206176758" lon="7.15303373336792"><ele></ele><time>2013-8-4T18:52:52Z</time></trkpt>
<trkpt lat="46.0208015441894" lon="7.15306282043457"><ele></ele><time>2013-8-4T18:52:55Z</time></trkpt>
<trkpt lat="46.0207748413086" lon="7.15309381484985"><ele></ele><time>2013-8-4T18:52:58Z</time></trkpt>
<trkpt lat="46.020751953125" lon="7.1531229019165"><ele></ele><time>2013-8-4T18:53:1Z</time></trkpt>
<trkpt lat="46.0206909179688" lon="7.15322494506836"><ele></ele><time>2013-8-4T18:53:4Z</time></trkpt>
<trkpt lat="46.0205955505371" lon="7.15340042114258"><ele></ele><time>2013-8-4T18:53:7Z</time></trkpt>
<trkpt lat="46.0205764770508" lon="7.15343475341797"><ele></ele><time>2013-8-4T18:53:10Z</time></trkpt>
<trkpt lat="46.0205574035644" lon="7.15346956253052"><ele></ele><time>2013-8-4T18:53:13Z</time></trkpt>
<trkpt lat="46.0205345153809" lon="7.15350341796875"><ele></ele><time>2013-8-4T18:53:16Z</time></trkpt>
<trkpt lat="46.0205154418945" lon="7.15353679656982"><ele></ele><time>2013-8-4T18:53:19Z</time></trkpt>
<trkpt lat="46.0204086303711" lon="7.15374851226807"><ele></ele><time>2013-8-4T18:53:22Z</time></trkpt>
<trkpt lat="46.020393371582" lon="7.1537880897522"><ele></ele><time>2013-8-4T18:53:25Z</time></trkpt>
<trkpt lat="46.0203742980957" lon="7.15382099151611"><ele></ele><time>2013-8-4T18:53:28Z</time></trkpt>
<trkpt lat="46.0203552246094" lon="7.1538553237915"><ele></ele><time>2013-8-4T18:53:31Z</time></trkpt>
<trkpt lat="46.0202713012695" lon="7.15403413772583"><ele></ele><time>2013-8-4T18:53:34Z</time></trkpt>
<trkpt lat="46.0202560424805" lon="7.15407037734985"><ele></ele><time>2013-8-4T18:53:37Z</time></trkpt>
<trkpt lat="46.0202407836914" lon="7.15410709381104"><ele></ele><time>2013-8-4T18:53:40Z</time></trkpt>
<trkpt lat="46.0202255249023" lon="7.15414524078369"><ele></ele><time>2013-8-4T18:53:43Z</time></trkpt>
<trkpt lat="46.020206451416" lon="7.15418004989624"><ele></ele><time>2013-8-4T18:53:46Z</time></trkpt>
<trkpt lat="46.020191192627" lon="7.15421485900879"><ele></ele><time>2013-8-4T18:53:49Z</time></trkpt>
<trkpt lat="46.0201225280762" lon="7.15435886383057"><ele></ele><time>2013-8-4T18:53:52Z</time></trkpt>
<trkpt lat="46.0201072692871" lon="7.15439462661743"><ele></ele><time>2013-8-4T18:53:55Z</time></trkpt>
<trkpt lat="46.0200958251953" lon="7.15443229675293"><ele></ele><time>2013-8-4T18:53:58Z</time></trkpt>
<trkpt lat="46.0200805664062" lon="7.1544680595398"><ele></ele><time>2013-8-4T18:54:1Z</time></trkpt>
<trkpt lat="46.0200653076172" lon="7.1545033454895"><ele></ele><time>2013-8-4T18:54:4Z</time></trkpt>
<trkpt lat="46.0200004577637" lon="7.15465068817139"><ele></ele><time>2013-8-4T18:54:7Z</time></trkpt>
<trkpt lat="46.0199851989746" lon="7.15469169616699"><ele></ele><time>2013-8-4T18:54:10Z</time></trkpt>
<trkpt lat="46.0199699401856" lon="7.15472841262817"><ele></ele><time>2013-8-4T18:54:13Z</time></trkpt>
<trkpt lat="46.0199546813965" lon="7.15476608276367"><ele></ele><time>2013-8-4T18:54:16Z</time></trkpt>
<trkpt lat="46.0198783874512" lon="7.15494203567505"><ele></ele><time>2013-8-4T18:54:19Z</time></trkpt>
<trkpt lat="46.0198631286621" lon="7.15497922897339"><ele></ele><time>2013-8-4T18:54:22Z</time></trkpt>
<trkpt lat="46.019847869873" lon="7.15501832962036"><ele></ele><time>2013-8-4T18:54:25Z</time></trkpt>
<trkpt lat="46.019832611084" lon="7.15505838394165"><ele></ele><time>2013-8-4T18:54:28Z</time></trkpt>
<trkpt lat="46.0198173522949" lon="7.15509510040283"><ele></ele><time>2013-8-4T18:54:31Z</time></trkpt>
<trkpt lat="46.0196914672852" lon="7.15536499023438"><ele></ele><time>2013-8-4T18:54:34Z</time></trkpt>
<trkpt lat="46.0196571350098" lon="7.15544033050537"><ele></ele><time>2013-8-4T18:54:37Z</time></trkpt>
<trkpt lat="46.0196380615234" lon="7.15547752380371"><ele></ele><time>2013-8-4T18:54:40Z</time></trkpt>
<trkpt lat="46.0196189880371" lon="7.15551280975342"><ele></ele><time>2013-8-4T18:54:43Z</time></trkpt>
<trkpt lat="46.0195999145508" lon="7.15554809570312"><ele></ele><time>2013-8-4T18:54:46Z</time></trkpt>
<trkpt lat="46.0195579528809" lon="7.15561723709106"><ele></ele><time>2013-8-4T18:54:49Z</time></trkpt>
<trkpt lat="46.0195198059082" lon="7.155686378479"><ele></ele><time>2013-8-4T18:54:52Z</time></trkpt>
<trkpt lat="46.0195007324219" lon="7.15571784973144"><ele></ele><time>2013-8-4T18:54:55Z</time></trkpt>
<trkpt lat="46.0194778442383" lon="7.15574932098389"><ele></ele><time>2013-8-4T18:54:58Z</time></trkpt>
<trkpt lat="46.0194549560547" lon="7.1557822227478"><ele></ele><time>2013-8-4T18:55:1Z</time></trkpt>
<trkpt lat="46.0194320678711" lon="7.15581274032593"><ele></ele><time>2013-8-4T18:55:4Z</time></trkpt>
<trkpt lat="46.0193710327148" lon="7.1559009552002"><ele></ele><time>2013-8-4T18:55:7Z</time></trkpt>
<trkpt lat="46.0193519592285" lon="7.15592956542969"><ele></ele><time>2013-8-4T18:55:10Z</time></trkpt>
<trkpt lat="46.0193290710449" lon="7.1559567451477"><ele></ele><time>2013-8-4T18:55:13Z</time></trkpt>
<trkpt lat="46.0193061828613" lon="7.15598583221436"><ele></ele><time>2013-8-4T18:55:16Z</time></trkpt>
<trkpt lat="46.0192794799805" lon="7.15601015090942"><ele></ele><time>2013-8-4T18:55:19Z</time></trkpt>
<trkpt lat="46.0192108154297" lon="7.15609359741211"><ele></ele><time>2013-8-4T18:55:22Z</time></trkpt>
<trkpt lat="46.0191917419434" lon="7.15612173080444"><ele></ele><time>2013-8-4T18:55:25Z</time></trkpt>
<trkpt lat="46.0191688537598" lon="7.15614891052246"><ele></ele><time>2013-8-4T18:55:28Z</time></trkpt>
<trkpt lat="46.0191459655762" lon="7.15617799758911"><ele></ele><time>2013-8-4T18:55:31Z</time></trkpt>
<trkpt lat="46.0191192626953" lon="7.15620517730713"><ele></ele><time>2013-8-4T18:55:34Z</time></trkpt>
<trkpt lat="46.0190391540527" lon="7.15631866455078"><ele></ele><time>2013-8-4T18:55:37Z</time></trkpt>
<trkpt lat="46.0190200805664" lon="7.15634441375732"><ele></ele><time>2013-8-4T18:55:40Z</time></trkpt>
<trkpt lat="46.0190010070801" lon="7.15637016296387"><ele></ele><time>2013-8-4T18:55:43Z</time></trkpt>
<trkpt lat="46.0189781188965" lon="7.15639877319336"><ele></ele><time>2013-8-4T18:55:46Z</time></trkpt>
<trkpt lat="46.0189628601074" lon="7.15643310546875"><ele></ele><time>2013-8-4T18:55:49Z</time></trkpt>
<trkpt lat="46.0188674926758" lon="7.15659618377686"><ele></ele><time>2013-8-4T18:55:52Z</time></trkpt>
<trkpt lat="46.0188446044922" lon="7.15662622451782"><ele></ele><time>2013-8-4T18:55:55Z</time></trkpt>
<trkpt lat="46.0188293457031" lon="7.15665817260742"><ele></ele><time>2013-8-4T18:55:58Z</time></trkpt>
<trkpt lat="46.0188102722168" lon="7.1566915512085"><ele></ele><time>2013-8-4T18:56:1Z</time></trkpt>
<trkpt lat="46.0187911987305" lon="7.15672302246094"><ele></ele><time>2013-8-4T18:56:4Z</time></trkpt>
<trkpt lat="46.0187492370606" lon="7.15682315826416"><ele></ele><time>2013-8-4T18:56:7Z</time></trkpt>
<trkpt lat="46.0187339782715" lon="7.15685987472534"><ele></ele><time>2013-8-4T18:56:10Z</time></trkpt>
<trkpt lat="46.0187187194824" lon="7.15689992904663"><ele></ele><time>2013-8-4T18:56:13Z</time></trkpt>
<trkpt lat="46.0187034606934" lon="7.15694093704224"><ele></ele><time>2013-8-4T18:56:16Z</time></trkpt>
<trkpt lat="46.018684387207" lon="7.15697908401489"><ele></ele><time>2013-8-4T18:56:19Z</time></trkpt>
<trkpt lat="46.018669128418" lon="7.15701627731323"><ele></ele><time>2013-8-4T18:56:22Z</time></trkpt>
<trkpt lat="46.018611907959" lon="7.15715312957764"><ele></ele><time>2013-8-4T18:56:25Z</time></trkpt>
<trkpt lat="46.0186004638672" lon="7.15718984603882"><ele></ele><time>2013-8-4T18:56:28Z</time></trkpt>
<trkpt lat="46.0185890197754" lon="7.1572265625"><ele></ele><time>2013-8-4T18:56:31Z</time></trkpt>
<trkpt lat="46.0185775756836" lon="7.15726375579834"><ele></ele><time>2013-8-4T18:56:34Z</time></trkpt>
<trkpt lat="46.0185661315918" lon="7.15730237960815"><ele></ele><time>2013-8-4T18:56:37Z</time></trkpt>
<trkpt lat="46.0185050964356" lon="7.15749740600586"><ele></ele><time>2013-8-4T18:56:40Z</time></trkpt>
<trkpt lat="46.018497467041" lon="7.15753698348999"><ele></ele><time>2013-8-4T18:56:43Z</time></trkpt>
<trkpt lat="46.0184898376465" lon="7.15757369995117"><ele></ele><time>2013-8-4T18:56:46Z</time></trkpt>
<trkpt lat="46.0184783935547" lon="7.15761089324951"><ele></ele><time>2013-8-4T18:56:49Z</time></trkpt>
<trkpt lat="46.0184669494629" lon="7.15765190124512"><ele></ele><time>2013-8-4T18:56:52Z</time></trkpt>
<trkpt lat="46.0184593200684" lon="7.15769195556641"><ele></ele><time>2013-8-4T18:56:55Z</time></trkpt>
<trkpt lat="46.0184516906738" lon="7.15773248672485"><ele></ele><time>2013-8-4T18:56:58Z</time></trkpt>
<trkpt lat="46.018440246582" lon="7.15777492523193"><ele></ele><time>2013-8-4T18:57:1Z</time></trkpt>
<trkpt lat="46.0184211730957" lon="7.15785360336304"><ele></ele><time>2013-8-4T18:57:4Z</time></trkpt>
<trkpt lat="46.0184097290039" lon="7.15789127349854"><ele></ele><time>2013-8-4T18:57:7Z</time></trkpt>
<trkpt lat="46.0184020996094" lon="7.15793085098267"><ele></ele><time>2013-8-4T18:57:10Z</time></trkpt>
<trkpt lat="46.0183944702148" lon="7.15797090530396"><ele></ele><time>2013-8-4T18:57:13Z</time></trkpt>
<trkpt lat="46.0183868408203" lon="7.15800714492798"><ele></ele><time>2013-8-4T18:57:16Z</time></trkpt>
<trkpt lat="46.0183563232422" lon="7.15812826156616"><ele></ele><time>2013-8-4T18:57:19Z</time></trkpt>
<trkpt lat="46.0183296203613" lon="7.15824460983276"><ele></ele><time>2013-8-4T18:57:22Z</time></trkpt>
<trkpt lat="46.0182800292969" lon="7.15848064422607"><ele></ele><time>2013-8-4T18:57:25Z</time></trkpt>
<trkpt lat="46.0182685852051" lon="7.15852165222168"><ele></ele><time>2013-8-4T18:57:28Z</time></trkpt>
<trkpt lat="46.0182609558106" lon="7.15856122970581"><ele></ele><time>2013-8-4T18:57:31Z</time></trkpt>
<trkpt lat="46.018253326416" lon="7.1585955619812"><ele></ele><time>2013-8-4T18:57:34Z</time></trkpt>
<trkpt lat="46.0182418823242" lon="7.15863275527954"><ele></ele><time>2013-8-4T18:57:37Z</time></trkpt>
<trkpt lat="46.0182228088379" lon="7.15874576568604"><ele></ele><time>2013-8-4T18:57:40Z</time></trkpt>
<trkpt lat="46.0182075500488" lon="7.15882110595703"><ele></ele><time>2013-8-4T18:57:43Z</time></trkpt>
<trkpt lat="46.0181617736816" lon="7.15906476974487"><ele></ele><time>2013-8-4T18:57:46Z</time></trkpt>
<trkpt lat="46.018138885498" lon="7.15914154052734"><ele></ele><time>2013-8-4T18:57:49Z</time></trkpt>
<trkpt lat="46.0181274414062" lon="7.15918207168579"><ele></ele><time>2013-8-4T18:57:52Z</time></trkpt>
<trkpt lat="46.0181159973144" lon="7.15922021865845"><ele></ele><time>2013-8-4T18:57:55Z</time></trkpt>
<trkpt lat="46.0181007385254" lon="7.15925645828247"><ele></ele><time>2013-8-4T18:57:58Z</time></trkpt>
<trkpt lat="46.0180854797363" lon="7.15929174423218"><ele></ele><time>2013-8-4T18:58:1Z</time></trkpt>
<trkpt lat="46.0180702209473" lon="7.15932416915894"><ele></ele><time>2013-8-4T18:58:4Z</time></trkpt>
<trkpt lat="46.0180320739746" lon="7.1593828201294"><ele></ele><time>2013-8-4T18:58:7Z</time></trkpt>
<trkpt lat="46.0180130004883" lon="7.15941429138184"><ele></ele><time>2013-8-4T18:58:10Z</time></trkpt>
<trkpt lat="46.0179672241211" lon="7.15946197509766"><ele></ele><time>2013-8-4T18:58:13Z</time></trkpt>
<trkpt lat="46.0179481506348" lon="7.15948295593262"><ele></ele><time>2013-8-4T18:58:16Z</time></trkpt>
<trkpt lat="46.0179290771484" lon="7.15950679779053"><ele></ele><time>2013-8-4T18:58:19Z</time></trkpt>
<trkpt lat="46.0179100036621" lon="7.15952920913696"><ele></ele><time>2013-8-4T18:58:22Z</time></trkpt>
<trkpt lat="46.0178871154785" lon="7.15955829620361"><ele></ele><time>2013-8-4T18:58:25Z</time></trkpt>
<trkpt lat="46.0178489685059" lon="7.15960454940796"><ele></ele><time>2013-8-4T18:58:28Z</time></trkpt>
<trkpt lat="46.0178298950195" lon="7.15963172912598"><ele></ele><time>2013-8-4T18:58:31Z</time></trkpt>
<trkpt lat="46.0178108215332" lon="7.15966129302978"><ele></ele><time>2013-8-4T18:58:34Z</time></trkpt>
<trkpt lat="46.0177955627441" lon="7.15968656539917"><ele></ele><time>2013-8-4T18:58:37Z</time></trkpt>
<trkpt lat="46.0177764892578" lon="7.15971183776856"><ele></ele><time>2013-8-4T18:58:40Z</time></trkpt>
<trkpt lat="46.0177459716797" lon="7.15977478027344"><ele></ele><time>2013-8-4T18:58:43Z</time></trkpt>
<trkpt lat="46.0177307128906" lon="7.15981292724609"><ele></ele><time>2013-8-4T18:58:46Z</time></trkpt>
<trkpt lat="46.0177116394043" lon="7.15989065170288"><ele></ele><time>2013-8-4T18:58:49Z</time></trkpt>
<trkpt lat="46.017692565918" lon="7.15996837615967"><ele></ele><time>2013-8-4T18:58:52Z</time></trkpt>
<trkpt lat="46.0176849365234" lon="7.1600079536438"><ele></ele><time>2013-8-4T18:58:55Z</time></trkpt>
<trkpt lat="46.0176849365234" lon="7.16004514694214"><ele></ele><time>2013-8-4T18:58:58Z</time></trkpt>
<trkpt lat="46.0176811218262" lon="7.16008281707764"><ele></ele><time>2013-8-4T18:59:1Z</time></trkpt>
<trkpt lat="46.0176773071289" lon="7.16011762619018"><ele></ele><time>2013-8-4T18:59:4Z</time></trkpt>
<trkpt lat="46.0176696777344" lon="7.16015911102295"><ele></ele><time>2013-8-4T18:59:7Z</time></trkpt>
<trkpt lat="46.0176200866699" lon="7.16039562225342"><ele></ele><time>2013-8-4T18:59:10Z</time></trkpt>
<trkpt lat="46.0175895690918" lon="7.16046380996704"><ele></ele><time>2013-8-4T18:59:13Z</time></trkpt>
<trkpt lat="46.0175704956055" lon="7.16050100326538"><ele></ele><time>2013-8-4T18:59:16Z</time></trkpt>
<trkpt lat="46.0175514221191" lon="7.16054010391235"><ele></ele><time>2013-8-4T18:59:19Z</time></trkpt>
<trkpt lat="46.0175361633301" lon="7.16057252883911"><ele></ele><time>2013-8-4T18:59:22Z</time></trkpt>
<trkpt lat="46.0175170898438" lon="7.16059732437134"><ele></ele><time>2013-8-4T18:59:25Z</time></trkpt>
<trkpt lat="46.0174751281738" lon="7.16064596176148"><ele></ele><time>2013-8-4T18:59:28Z</time></trkpt>
<trkpt lat="46.0174407958984" lon="7.16071271896362"><ele></ele><time>2013-8-4T18:59:31Z</time></trkpt>
<trkpt lat="46.0174217224121" lon="7.1607460975647"><ele></ele><time>2013-8-4T18:59:34Z</time></trkpt>
<trkpt lat="46.0174026489258" lon="7.16077852249146"><ele></ele><time>2013-8-4T18:59:37Z</time></trkpt>
<trkpt lat="46.0173835754394" lon="7.16081237792969"><ele></ele><time>2013-8-4T18:59:40Z</time></trkpt>
<trkpt lat="46.0173645019531" lon="7.16084957122803"><ele></ele><time>2013-8-4T18:59:43Z</time></trkpt>
<trkpt lat="46.0173149108887" lon="7.16104745864868"><ele></ele><time>2013-8-4T18:59:46Z</time></trkpt>
<trkpt lat="46.0173034667969" lon="7.16109800338745"><ele></ele><time>2013-8-4T18:59:49Z</time></trkpt>
<trkpt lat="46.0173034667969" lon="7.16114091873169"><ele></ele><time>2013-8-4T18:59:52Z</time></trkpt>
<trkpt lat="46.0173034667969" lon="7.16117906570435"><ele></ele><time>2013-8-4T18:59:55Z</time></trkpt>
<trkpt lat="46.0173072814941" lon="7.16121625900268"><ele></ele><time>2013-8-4T18:59:58Z</time></trkpt>
<trkpt lat="46.0173110961914" lon="7.1612548828125"><ele></ele><time>2013-8-4T19:0:1Z</time></trkpt>
<trkpt lat="46.0173301696777" lon="7.16146659851074"><ele></ele><time>2013-8-4T19:0:4Z</time></trkpt>
<trkpt lat="46.0173301696777" lon="7.16150999069214"><ele></ele><time>2013-8-4T19:0:7Z</time></trkpt>
<trkpt lat="46.0173263549805" lon="7.16155290603638"><ele></ele><time>2013-8-4T19:0:10Z</time></trkpt>
<trkpt lat="46.0173187255859" lon="7.1615948677063"><ele></ele><time>2013-8-4T19:0:13Z</time></trkpt>
<trkpt lat="46.0173072814941" lon="7.1616325378418"><ele></ele><time>2013-8-4T19:0:16Z</time></trkpt>
<trkpt lat="46.0172080993652" lon="7.16175127029419"><ele></ele><time>2013-8-4T19:0:19Z</time></trkpt>
<trkpt lat="46.01708984375" lon="7.16173458099365"><ele></ele><time>2013-8-4T19:0:22Z</time></trkpt>
<trkpt lat="46.0170631408691" lon="7.16170597076416"><ele></ele><time>2013-8-4T19:0:25Z</time></trkpt>
<trkpt lat="46.0170402526856" lon="7.16168022155762"><ele></ele><time>2013-8-4T19:0:28Z</time></trkpt>
<trkpt lat="46.0170211791992" lon="7.16164445877075"><ele></ele><time>2013-8-4T19:0:31Z</time></trkpt>
<trkpt lat="46.0170021057129" lon="7.16160774230957"><ele></ele><time>2013-8-4T19:0:34Z</time></trkpt>
<trkpt lat="46.0169563293457" lon="7.16154670715332"><ele></ele><time>2013-8-4T19:0:37Z</time></trkpt>
<trkpt lat="46.0168800354004" lon="7.1614179611206"><ele></ele><time>2013-8-4T19:0:40Z</time></trkpt>
<trkpt lat="46.0168571472168" lon="7.16138315200806"><ele></ele><time>2013-8-4T19:0:43Z</time></trkpt>
<trkpt lat="46.016845703125" lon="7.1613507270813"><ele></ele><time>2013-8-4T19:0:46Z</time></trkpt>
<trkpt lat="46.0168266296387" lon="7.1613130569458"><ele></ele><time>2013-8-4T19:0:49Z</time></trkpt>
<trkpt lat="46.0168113708496" lon="7.16128540039062"><ele></ele><time>2013-8-4T19:0:52Z</time></trkpt>
<trkpt lat="46.0167961120606" lon="7.16125535964966"><ele></ele><time>2013-8-4T19:0:55Z</time></trkpt>
<trkpt lat="46.0167808532715" lon="7.16122770309448"><ele></ele><time>2013-8-4T19:0:58Z</time></trkpt>
<trkpt lat="46.0167388916016" lon="7.16114091873169"><ele></ele><time>2013-8-4T19:1:1Z</time></trkpt>
<trkpt lat="46.0167274475098" lon="7.16111326217651"><ele></ele><time>2013-8-4T19:1:4Z</time></trkpt>
<trkpt lat="46.0167083740234" lon="7.16108989715576"><ele></ele><time>2013-8-4T19:1:7Z</time></trkpt>
<trkpt lat="46.0166931152344" lon="7.16106462478638"><ele></ele><time>2013-8-4T19:1:10Z</time></trkpt>
<trkpt lat="46.0166778564453" lon="7.1610426902771"><ele></ele><time>2013-8-4T19:1:13Z</time></trkpt>
<trkpt lat="46.0165634155273" lon="7.1609673500061"><ele></ele><time>2013-8-4T19:1:16Z</time></trkpt>
<trkpt lat="46.0165367126465" lon="7.16096353530884"><ele></ele><time>2013-8-4T19:1:19Z</time></trkpt>
<trkpt lat="46.0165100097656" lon="7.1609582901001"><ele></ele><time>2013-8-4T19:1:22Z</time></trkpt>
<trkpt lat="46.016487121582" lon="7.16095590591431"><ele></ele><time>2013-8-4T19:1:25Z</time></trkpt>
<trkpt lat="46.0164604187012" lon="7.16095781326294"><ele></ele><time>2013-8-4T19:1:28Z</time></trkpt>
<trkpt lat="46.0164375305176" lon="7.16096067428589"><ele></ele><time>2013-8-4T19:1:31Z</time></trkpt>
<trkpt lat="46.0163879394531" lon="7.16097736358643"><ele></ele><time>2013-8-4T19:1:34Z</time></trkpt>
<trkpt lat="46.0162925720215" lon="7.16105604171753"><ele></ele><time>2013-8-4T19:1:37Z</time></trkpt>
<trkpt lat="46.0162544250488" lon="7.16111135482788"><ele></ele><time>2013-8-4T19:1:40Z</time></trkpt>
<trkpt lat="46.0162391662598" lon="7.16114187240601"><ele></ele><time>2013-8-4T19:1:43Z</time></trkpt>
<trkpt lat="46.0162239074707" lon="7.1611762046814"><ele></ele><time>2013-8-4T19:1:46Z</time></trkpt>
<trkpt lat="46.0162086486816" lon="7.16121339797974"><ele></ele><time>2013-8-4T19:1:49Z</time></trkpt>
<trkpt lat="46.0161972045898" lon="7.16124868392944"><ele></ele><time>2013-8-4T19:1:52Z</time></trkpt>
<trkpt lat="46.016170501709" lon="7.16136121749878"><ele></ele><time>2013-8-4T19:1:55Z</time></trkpt>
<trkpt lat="46.0161552429199" lon="7.16148090362549"><ele></ele><time>2013-8-4T19:1:58Z</time></trkpt>
<trkpt lat="46.0161552429199" lon="7.16152429580688"><ele></ele><time>2013-8-4T19:2:1Z</time></trkpt>
<trkpt lat="46.0161514282227" lon="7.16156387329102"><ele></ele><time>2013-8-4T19:2:4Z</time></trkpt>
<trkpt lat="46.0161476135254" lon="7.16160488128662"><ele></ele><time>2013-8-4T19:2:7Z</time></trkpt>
<trkpt lat="46.0161476135254" lon="7.1616415977478"><ele></ele><time>2013-8-4T19:2:10Z</time></trkpt>
<trkpt lat="46.0161437988281" lon="7.16168165206909"><ele></ele><time>2013-8-4T19:2:13Z</time></trkpt>
<trkpt lat="46.0161170959473" lon="7.16190814971924"><ele></ele><time>2013-8-4T19:2:16Z</time></trkpt>
<trkpt lat="46.0161170959473" lon="7.16194677352905"><ele></ele><time>2013-8-4T19:2:19Z</time></trkpt>
<trkpt lat="46.01611328125" lon="7.16198778152466"><ele></ele><time>2013-8-4T19:2:22Z</time></trkpt>
<trkpt lat="46.0161094665527" lon="7.16202402114868"><ele></ele><time>2013-8-4T19:2:25Z</time></trkpt>
<trkpt lat="46.0160903930664" lon="7.16220855712891"><ele></ele><time>2013-8-4T19:2:28Z</time></trkpt>
<trkpt lat="46.0160865783691" lon="7.16224813461304"><ele></ele><time>2013-8-4T19:2:31Z</time></trkpt>
<trkpt lat="46.0160827636719" lon="7.16228723526001"><ele></ele><time>2013-8-4T19:2:34Z</time></trkpt>
<trkpt lat="46.0160789489746" lon="7.1623272895813"><ele></ele><time>2013-8-4T19:2:37Z</time></trkpt>
<trkpt lat="46.0160713195801" lon="7.16236543655396"><ele></ele><time>2013-8-4T19:2:40Z</time></trkpt>
<trkpt lat="46.0160675048828" lon="7.1624059677124"><ele></ele><time>2013-8-4T19:2:43Z</time></trkpt>
<trkpt lat="46.0159873962402" lon="7.16269731521606"><ele></ele><time>2013-8-4T19:2:46Z</time></trkpt>
<trkpt lat="46.0159759521484" lon="7.1627345085144"><ele></ele><time>2013-8-4T19:2:49Z</time></trkpt>
<trkpt lat="46.0159606933594" lon="7.16276931762695"><ele></ele><time>2013-8-4T19:2:52Z</time></trkpt>
<trkpt lat="46.0159492492676" lon="7.1628041267395"><ele></ele><time>2013-8-4T19:2:55Z</time></trkpt>
<trkpt lat="46.0159339904785" lon="7.16283702850342"><ele></ele><time>2013-8-4T19:2:58Z</time></trkpt>
<trkpt lat="46.0159034729004" lon="7.16290521621704"><ele></ele><time>2013-8-4T19:3:1Z</time></trkpt>
<trkpt lat="46.0158882141113" lon="7.16294097900391"><ele></ele><time>2013-8-4T19:3:4Z</time></trkpt>
<trkpt lat="46.0158615112305" lon="7.16301250457764"><ele></ele><time>2013-8-4T19:3:7Z</time></trkpt>
<trkpt lat="46.0158424377441" lon="7.16304636001587"><ele></ele><time>2013-8-4T19:3:10Z</time></trkpt>
<trkpt lat="46.0158271789551" lon="7.16307878494263"><ele></ele><time>2013-8-4T19:3:13Z</time></trkpt>
<trkpt lat="46.015811920166" lon="7.16311407089233"><ele></ele><time>2013-8-4T19:3:16Z</time></trkpt>
<trkpt lat="46.0157928466797" lon="7.16314649581909"><ele></ele><time>2013-8-4T19:3:19Z</time></trkpt>
<trkpt lat="46.0157737731934" lon="7.1631760597229"><ele></ele><time>2013-8-4T19:3:22Z</time></trkpt>
<trkpt lat="46.0157356262207" lon="7.16324090957642"><ele></ele><time>2013-8-4T19:3:25Z</time></trkpt>
<trkpt lat="46.0157165527344" lon="7.16327571868896"><ele></ele><time>2013-8-4T19:3:28Z</time></trkpt>
<trkpt lat="46.0156669616699" lon="7.16337633132935"><ele></ele><time>2013-8-4T19:3:31Z</time></trkpt>
<trkpt lat="46.0156478881836" lon="7.16341257095337"><ele></ele><time>2013-8-4T19:3:34Z</time></trkpt>
<trkpt lat="46.0156097412109" lon="7.16348266601562"><ele></ele><time>2013-8-4T19:3:37Z</time></trkpt>
<trkpt lat="46.0155868530273" lon="7.1635160446167"><ele></ele><time>2013-8-4T19:3:40Z</time></trkpt>
<trkpt lat="46.015567779541" lon="7.16354560852051"><ele></ele><time>2013-8-4T19:3:43Z</time></trkpt>
<trkpt lat="46.0155448913574" lon="7.16357755661011"><ele></ele><time>2013-8-4T19:3:46Z</time></trkpt>
<trkpt lat="46.0155258178711" lon="7.16360807418823"><ele></ele><time>2013-8-4T19:3:49Z</time></trkpt>
<trkpt lat="46.0155067443848" lon="7.16363716125488"><ele></ele><time>2013-8-4T19:3:52Z</time></trkpt>
<trkpt lat="46.0154876708984" lon="7.16366624832153"><ele></ele><time>2013-8-4T19:3:55Z</time></trkpt>
<trkpt lat="46.0154647827148" lon="7.16369390487671"><ele></ele><time>2013-8-4T19:3:58Z</time></trkpt>
<trkpt lat="46.0154266357422" lon="7.16374397277832"><ele></ele><time>2013-8-4T19:4:1Z</time></trkpt>
<trkpt lat="46.0153617858887" lon="7.16382884979248"><ele></ele><time>2013-8-4T19:4:4Z</time></trkpt>
<trkpt lat="46.0153388977051" lon="7.16385889053345"><ele></ele><time>2013-8-4T19:4:7Z</time></trkpt>
<trkpt lat="46.0153121948242" lon="7.16388750076294"><ele></ele><time>2013-8-4T19:4:10Z</time></trkpt>
<trkpt lat="46.0152893066406" lon="7.16391372680664"><ele></ele><time>2013-8-4T19:4:13Z</time></trkpt>
<trkpt lat="46.015266418457" lon="7.16394329071045"><ele></ele><time>2013-8-4T19:4:16Z</time></trkpt>
<trkpt lat="46.0152473449707" lon="7.16397285461426"><ele></ele><time>2013-8-4T19:4:19Z</time></trkpt>
<trkpt lat="46.0152053833008" lon="7.16403293609619"><ele></ele><time>2013-8-4T19:4:22Z</time></trkpt>
<trkpt lat="46.0151405334473" lon="7.16413497924805"><ele></ele><time>2013-8-4T19:4:25Z</time></trkpt>
<trkpt lat="46.0151214599609" lon="7.16417217254639"><ele></ele><time>2013-8-4T19:4:28Z</time></trkpt>
<trkpt lat="46.0150985717773" lon="7.16420650482178"><ele></ele><time>2013-8-4T19:4:31Z</time></trkpt>
<trkpt lat="46.015079498291" lon="7.16423988342285"><ele></ele><time>2013-8-4T19:4:34Z</time></trkpt>
<trkpt lat="46.0150566101074" lon="7.16427421569824"><ele></ele><time>2013-8-4T19:4:37Z</time></trkpt>
<trkpt lat="46.0149993896484" lon="7.16438102722168"><ele></ele><time>2013-8-4T19:4:40Z</time></trkpt>
<trkpt lat="46.0148658752441" lon="7.16458034515381"><ele></ele><time>2013-8-4T19:4:43Z</time></trkpt>
<trkpt lat="46.0148429870606" lon="7.16460657119751"><ele></ele><time>2013-8-4T19:4:46Z</time></trkpt>
<trkpt lat="46.0148162841797" lon="7.16463375091553"><ele></ele><time>2013-8-4T19:4:49Z</time></trkpt>
<trkpt lat="46.0147933959961" lon="7.16466093063354"><ele></ele><time>2013-8-4T19:4:52Z</time></trkpt>
<trkpt lat="46.0147705078125" lon="7.16468811035156"><ele></ele><time>2013-8-4T19:4:55Z</time></trkpt>
<trkpt lat="46.0147476196289" lon="7.16471481323242"><ele></ele><time>2013-8-4T19:4:58Z</time></trkpt>
<trkpt lat="46.014720916748" lon="7.16474390029907"><ele></ele><time>2013-8-4T19:5:1Z</time></trkpt>
<trkpt lat="46.0146942138672" lon="7.16476964950562"><ele></ele><time>2013-8-4T19:5:4Z</time></trkpt>
<trkpt lat="46.0146369934082" lon="7.16481304168701"><ele></ele><time>2013-8-4T19:5:7Z</time></trkpt>
<trkpt lat="46.0146102905273" lon="7.16483926773071"><ele></ele><time>2013-8-4T19:5:10Z</time></trkpt>
<trkpt lat="46.0144653320312" lon="7.16496229171753"><ele></ele><time>2013-8-4T19:5:13Z</time></trkpt>
<trkpt lat="46.0144386291504" lon="7.16498708724976"><ele></ele><time>2013-8-4T19:5:16Z</time></trkpt>
<trkpt lat="46.0144119262695" lon="7.16501760482788"><ele></ele><time>2013-8-4T19:5:19Z</time></trkpt>
<trkpt lat="46.0143814086914" lon="7.16504335403442"><ele></ele><time>2013-8-4T19:5:22Z</time></trkpt>
<trkpt lat="46.014347076416" lon="7.16506671905518"><ele></ele><time>2013-8-4T19:5:25Z</time></trkpt>
<trkpt lat="46.0143165588379" lon="7.16508960723877"><ele></ele><time>2013-8-4T19:5:28Z</time></trkpt>
<trkpt lat="46.014289855957" lon="7.16511106491089"><ele></ele><time>2013-8-4T19:5:31Z</time></trkpt>
<trkpt lat="46.0142250061035" lon="7.16515731811524"><ele></ele><time>2013-8-4T19:5:34Z</time></trkpt>
<trkpt lat="46.0141944885254" lon="7.16518115997314"><ele></ele><time>2013-8-4T19:5:37Z</time></trkpt>
<trkpt lat="46.014030456543" lon="7.16528987884522"><ele></ele><time>2013-8-4T19:5:40Z</time></trkpt>
<trkpt lat="46.0139999389648" lon="7.16530656814575"><ele></ele><time>2013-8-4T19:5:43Z</time></trkpt>
<trkpt lat="46.0139656066894" lon="7.1653242111206"><ele></ele><time>2013-8-4T19:5:46Z</time></trkpt>
<trkpt lat="46.0139312744141" lon="7.16533994674683"><ele></ele><time>2013-8-4T19:5:49Z</time></trkpt>
<trkpt lat="46.0138969421387" lon="7.16535711288452"><ele></ele><time>2013-8-4T19:5:52Z</time></trkpt>
<trkpt lat="46.0138626098633" lon="7.16537523269653"><ele></ele><time>2013-8-4T19:5:55Z</time></trkpt>
<trkpt lat="46.0138282775879" lon="7.16539144515991"><ele></ele><time>2013-8-4T19:5:58Z</time></trkpt>
<trkpt lat="46.0137977600098" lon="7.16541051864624"><ele></ele><time>2013-8-4T19:6:1Z</time></trkpt>
<trkpt lat="46.0137672424316" lon="7.16542720794678"><ele></ele><time>2013-8-4T19:6:4Z</time></trkpt>
<trkpt lat="46.0137062072754" lon="7.16545867919922"><ele></ele><time>2013-8-4T19:6:7Z</time></trkpt>
<trkpt lat="46.0136756896973" lon="7.16547107696533"><ele></ele><time>2013-8-4T19:6:10Z</time></trkpt>
<trkpt lat="46.0136489868164" lon="7.16548585891724"><ele></ele><time>2013-8-4T19:6:13Z</time></trkpt>
<trkpt lat="46.0136184692383" lon="7.16549634933472"><ele></ele><time>2013-8-4T19:6:16Z</time></trkpt>
<trkpt lat="46.0135917663574" lon="7.16550874710083"><ele></ele><time>2013-8-4T19:6:19Z</time></trkpt>
<trkpt lat="46.0135307312012" lon="7.16553449630737"><ele></ele><time>2013-8-4T19:6:22Z</time></trkpt>
<trkpt lat="46.013500213623" lon="7.16554975509644"><ele></ele><time>2013-8-4T19:6:25Z</time></trkpt>
<trkpt lat="46.0134696960449" lon="7.16556262969971"><ele></ele><time>2013-8-4T19:6:28Z</time></trkpt>
<trkpt lat="46.0134429931641" lon="7.16557931900024"><ele></ele><time>2013-8-4T19:6:31Z</time></trkpt>
<trkpt lat="46.0134124755859" lon="7.16559314727783"><ele></ele><time>2013-8-4T19:6:34Z</time></trkpt>
<trkpt lat="46.013298034668" lon="7.16564702987671"><ele></ele><time>2013-8-4T19:6:37Z</time></trkpt>
<trkpt lat="46.0132713317871" lon="7.16566514968872"><ele></ele><time>2013-8-4T19:6:40Z</time></trkpt>
<trkpt lat="46.013240814209" lon="7.16568040847778"><ele></ele><time>2013-8-4T19:6:43Z</time></trkpt>
<trkpt lat="46.0132102966309" lon="7.16569662094116"><ele></ele><time>2013-8-4T19:6:46Z</time></trkpt>
<trkpt lat="46.01318359375" lon="7.16571283340454"><ele></ele><time>2013-8-4T19:6:49Z</time></trkpt>
<trkpt lat="46.0130310058594" lon="7.16583013534546"><ele></ele><time>2013-8-4T19:6:52Z</time></trkpt>
<trkpt lat="46.0130081176758" lon="7.16585826873779"><ele></ele><time>2013-8-4T19:6:55Z</time></trkpt>
<trkpt lat="46.0129814147949" lon="7.16588354110718"><ele></ele><time>2013-8-4T19:6:58Z</time></trkpt>
<trkpt lat="46.0129585266113" lon="7.16591358184814"><ele></ele><time>2013-8-4T19:7:1Z</time></trkpt>
<trkpt lat="46.0129356384277" lon="7.16594314575195"><ele></ele><time>2013-8-4T19:7:4Z</time></trkpt>
<trkpt lat="46.0128479003906" lon="7.16606187820435"><ele></ele><time>2013-8-4T19:7:7Z</time></trkpt>
<trkpt lat="46.0128288269043" lon="7.16609573364258"><ele></ele><time>2013-8-4T19:7:10Z</time></trkpt>
<trkpt lat="46.012809753418" lon="7.16613006591797"><ele></ele><time>2013-8-4T19:7:13Z</time></trkpt>
<trkpt lat="46.0127983093262" lon="7.16616582870483"><ele></ele><time>2013-8-4T19:7:16Z</time></trkpt>
<trkpt lat="46.0127258300781" lon="7.16635131835938"><ele></ele><time>2013-8-4T19:7:19Z</time></trkpt>
<trkpt lat="46.012638092041" lon="7.16666269302368"><ele></ele><time>2013-8-4T19:7:22Z</time></trkpt>
<trkpt lat="46.0126266479492" lon="7.16670083999634"><ele></ele><time>2013-8-4T19:7:25Z</time></trkpt>
<trkpt lat="46.0126152038574" lon="7.16673946380615"><ele></ele><time>2013-8-4T19:7:28Z</time></trkpt>
<trkpt lat="46.0125999450684" lon="7.16677951812744"><ele></ele><time>2013-8-4T19:7:31Z</time></trkpt>
<trkpt lat="46.0125923156738" lon="7.16682243347168"><ele></ele><time>2013-8-4T19:7:34Z</time></trkpt>
<trkpt lat="46.0125770568848" lon="7.16685724258423"><ele></ele><time>2013-8-4T19:7:37Z</time></trkpt>
<trkpt lat="46.0125350952148" lon="7.16697454452515"><ele></ele><time>2013-8-4T19:7:40Z</time></trkpt>
<trkpt lat="46.0124473571777" lon="7.16715908050537"><ele></ele><time>2013-8-4T19:7:43Z</time></trkpt>
<trkpt lat="46.0124244689941" lon="7.16719150543213"><ele></ele><time>2013-8-4T19:7:46Z</time></trkpt>
<trkpt lat="46.0124053955078" lon="7.16722106933594"><ele></ele><time>2013-8-4T19:7:49Z</time></trkpt>
<trkpt lat="46.0123863220215" lon="7.16725254058838"><ele></ele><time>2013-8-4T19:7:52Z</time></trkpt>
<trkpt lat="46.0123634338379" lon="7.16728210449219"><ele></ele><time>2013-8-4T19:7:55Z</time></trkpt>
<trkpt lat="46.0123443603516" lon="7.16731357574463"><ele></ele><time>2013-8-4T19:7:58Z</time></trkpt>
<trkpt lat="46.0122299194336" lon="7.16749000549316"><ele></ele><time>2013-8-4T19:8:1Z</time></trkpt>
<trkpt lat="46.0121917724609" lon="7.16754388809204"><ele></ele><time>2013-8-4T19:8:4Z</time></trkpt>
<trkpt lat="46.0121688842773" lon="7.16757440567017"><ele></ele><time>2013-8-4T19:8:7Z</time></trkpt>
<trkpt lat="46.0121459960938" lon="7.16760301589966"><ele></ele><time>2013-8-4T19:8:10Z</time></trkpt>
<trkpt lat="46.0121231079102" lon="7.16763496398926"><ele></ele><time>2013-8-4T19:8:13Z</time></trkpt>
<trkpt lat="46.0121002197266" lon="7.16766786575317"><ele></ele><time>2013-8-4T19:8:16Z</time></trkpt>
<trkpt lat="46.012035369873" lon="7.16776084899902"><ele></ele><time>2013-8-4T19:8:19Z</time></trkpt>
<trkpt lat="46.0120086669922" lon="7.16778945922852"><ele></ele><time>2013-8-4T19:8:22Z</time></trkpt>
<trkpt lat="46.0119361877441" lon="7.16786766052246"><ele></ele><time>2013-8-4T19:8:25Z</time></trkpt>
<trkpt lat="46.0119132995606" lon="7.1678900718689"><ele></ele><time>2013-8-4T19:8:28Z</time></trkpt>
<trkpt lat="46.0118865966797" lon="7.16790866851807"><ele></ele><time>2013-8-4T19:8:31Z</time></trkpt>
<trkpt lat="46.0118598937988" lon="7.1679277420044"><ele></ele><time>2013-8-4T19:8:34Z</time></trkpt>
<trkpt lat="46.0118293762207" lon="7.16795206069946"><ele></ele><time>2013-8-4T19:8:37Z</time></trkpt>
<trkpt lat="46.0117225646973" lon="7.16802453994751"><ele></ele><time>2013-8-4T19:8:40Z</time></trkpt>
<trkpt lat="46.0116729736328" lon="7.16805267333984"><ele></ele><time>2013-8-4T19:8:43Z</time></trkpt>
<trkpt lat="46.011646270752" lon="7.16806793212891"><ele></ele><time>2013-8-4T19:8:46Z</time></trkpt>
<trkpt lat="46.0116157531738" lon="7.16808128356934"><ele></ele><time>2013-8-4T19:8:49Z</time></trkpt>
<trkpt lat="46.0115852355957" lon="7.1680965423584"><ele></ele><time>2013-8-4T19:8:52Z</time></trkpt>
<trkpt lat="46.0115547180176" lon="7.16810941696167"><ele></ele><time>2013-8-4T19:8:55Z</time></trkpt>
<trkpt lat="46.0114936828613" lon="7.16814041137695"><ele></ele><time>2013-8-4T19:8:58Z</time></trkpt>
<trkpt lat="46.0111961364746" lon="7.16827058792114"><ele></ele><time>2013-8-4T19:9:1Z</time></trkpt>
<trkpt lat="46.0111656188965" lon="7.16828441619873"><ele></ele><time>2013-8-4T19:9:4Z</time></trkpt>
<trkpt lat="46.0111351013184" lon="7.16829299926758"><ele></ele><time>2013-8-4T19:9:7Z</time></trkpt>
<trkpt lat="46.0111083984375" lon="7.16830348968506"><ele></ele><time>2013-8-4T19:9:10Z</time></trkpt>
<trkpt lat="46.0110778808594" lon="7.16831922531128"><ele></ele><time>2013-8-4T19:9:13Z</time></trkpt>
<trkpt lat="46.0109710693359" lon="7.16836977005005"><ele></ele><time>2013-8-4T19:9:16Z</time></trkpt>
<trkpt lat="46.0108833312988" lon="7.1684079170227"><ele></ele><time>2013-8-4T19:9:19Z</time></trkpt>
<trkpt lat="46.010856628418" lon="7.16842222213745"><ele></ele><time>2013-8-4T19:9:22Z</time></trkpt>
<trkpt lat="46.0108299255371" lon="7.16843795776367"><ele></ele><time>2013-8-4T19:9:25Z</time></trkpt>
<trkpt lat="46.010799407959" lon="7.1684513092041"><ele></ele><time>2013-8-4T19:9:28Z</time></trkpt>
<trkpt lat="46.0107688903809" lon="7.16846561431885"><ele></ele><time>2013-8-4T19:9:31Z</time></trkpt>
<trkpt lat="46.0107116699219" lon="7.16849374771118"><ele></ele><time>2013-8-4T19:9:34Z</time></trkpt>
<trkpt lat="46.0105018615723" lon="7.16858625411987"><ele></ele><time>2013-8-4T19:9:37Z</time></trkpt>
<trkpt lat="46.0104751586914" lon="7.16859769821167"><ele></ele><time>2013-8-4T19:9:40Z</time></trkpt>
<trkpt lat="46.0104484558106" lon="7.16860914230347"><ele></ele><time>2013-8-4T19:9:43Z</time></trkpt>
<trkpt lat="46.0104179382324" lon="7.16861820220947"><ele></ele><time>2013-8-4T19:9:46Z</time></trkpt>
<trkpt lat="46.0103874206543" lon="7.1686282157898"><ele></ele><time>2013-8-4T19:9:49Z</time></trkpt>
<trkpt lat="46.0102157592773" lon="7.16868162155151"><ele></ele><time>2013-8-4T19:9:52Z</time></trkpt>
<trkpt lat="46.0101890563965" lon="7.16869354248047"><ele></ele><time>2013-8-4T19:9:55Z</time></trkpt>
<trkpt lat="46.0101623535156" lon="7.16870355606079"><ele></ele><time>2013-8-4T19:9:58Z</time></trkpt>
<trkpt lat="46.0101318359375" lon="7.16870546340942"><ele></ele><time>2013-8-4T19:10:1Z</time></trkpt>
<trkpt lat="46.0101013183594" lon="7.16871404647827"><ele></ele><time>2013-8-4T19:10:4Z</time></trkpt>
<trkpt lat="46.0100708007812" lon="7.16872119903564"><ele></ele><time>2013-8-4T19:10:7Z</time></trkpt>
<trkpt lat="46.0099868774414" lon="7.1687445640564"><ele></ele><time>2013-8-4T19:10:10Z</time></trkpt>
<trkpt lat="46.0098762512207" lon="7.16878080368042"><ele></ele><time>2013-8-4T19:10:13Z</time></trkpt>
<trkpt lat="46.0098495483398" lon="7.16879034042358"><ele></ele><time>2013-8-4T19:10:16Z</time></trkpt>
<trkpt lat="46.009822845459" lon="7.16879892349243"><ele></ele><time>2013-8-4T19:10:19Z</time></trkpt>
<trkpt lat="46.0097961425781" lon="7.16881227493286"><ele></ele><time>2013-8-4T19:10:22Z</time></trkpt>
<trkpt lat="46.009708404541" lon="7.16885948181152"><ele></ele><time>2013-8-4T19:10:25Z</time></trkpt>
<trkpt lat="46.0096092224121" lon="7.16893243789673"><ele></ele><time>2013-8-4T19:10:28Z</time></trkpt>
<trkpt lat="46.0095825195312" lon="7.16895246505737"><ele></ele><time>2013-8-4T19:10:31Z</time></trkpt>
<trkpt lat="46.0095558166504" lon="7.16897773742676"><ele></ele><time>2013-8-4T19:10:34Z</time></trkpt>
<trkpt lat="46.0095291137695" lon="7.16899967193604"><ele></ele><time>2013-8-4T19:10:37Z</time></trkpt>
<trkpt lat="46.0095062255859" lon="7.16902017593384"><ele></ele><time>2013-8-4T19:10:40Z</time></trkpt>
<trkpt lat="46.0094795227051" lon="7.16903734207153"><ele></ele><time>2013-8-4T19:10:43Z</time></trkpt>
<trkpt lat="46.0093040466309" lon="7.16918849945068"><ele></ele><time>2013-8-4T19:10:46Z</time></trkpt>
<trkpt lat="46.0092506408691" lon="7.16922760009766"><ele></ele><time>2013-8-4T19:10:49Z</time></trkpt>
<trkpt lat="46.0092239379883" lon="7.16924285888672"><ele></ele><time>2013-8-4T19:10:52Z</time></trkpt>
<trkpt lat="46.0092010498047" lon="7.16925859451294"><ele></ele><time>2013-8-4T19:10:55Z</time></trkpt>
<trkpt lat="46.0091743469238" lon="7.16927862167358"><ele></ele><time>2013-8-4T19:10:58Z</time></trkpt>
<trkpt lat="46.009033203125" lon="7.16934537887573"><ele></ele><time>2013-8-4T19:11:1Z</time></trkpt>
<trkpt lat="46.0087928771973" lon="7.16940641403198"><ele></ele><time>2013-8-4T19:11:4Z</time></trkpt>
<trkpt lat="46.0087623596191" lon="7.1694130897522"><ele></ele><time>2013-8-4T19:11:7Z</time></trkpt>
<trkpt lat="46.0087280273438" lon="7.16941356658936"><ele></ele><time>2013-8-4T19:11:10Z</time></trkpt>
<trkpt lat="46.0086936950684" lon="7.1694130897522"><ele></ele><time>2013-8-4T19:11:13Z</time></trkpt>
<trkpt lat="46.008659362793" lon="7.16941499710083"><ele></ele><time>2013-8-4T19:11:16Z</time></trkpt>
<trkpt lat="46.0085334777832" lon="7.16941213607788"><ele></ele><time>2013-8-4T19:11:19Z</time></trkpt>
<trkpt lat="46.0084991455078" lon="7.1694073677063"><ele></ele><time>2013-8-4T19:11:22Z</time></trkpt>
<trkpt lat="46.0084686279297" lon="7.16940259933472"><ele></ele><time>2013-8-4T19:11:25Z</time></trkpt>
<trkpt lat="46.0084381103516" lon="7.16939687728882"><ele></ele><time>2013-8-4T19:11:28Z</time></trkpt>
<trkpt lat="46.0082778930664" lon="7.16934823989868"><ele></ele><time>2013-8-4T19:11:31Z</time></trkpt>
<trkpt lat="46.0080223083496" lon="7.16933536529541"><ele></ele><time>2013-8-4T19:11:34Z</time></trkpt>
<trkpt lat="46.0079917907715" lon="7.1693525314331"><ele></ele><time>2013-8-4T19:11:37Z</time></trkpt>
<trkpt lat="46.0079650878906" lon="7.16937971115112"><ele></ele><time>2013-8-4T19:11:40Z</time></trkpt>
<trkpt lat="46.0079345703125" lon="7.16941022872925"><ele></ele><time>2013-8-4T19:11:43Z</time></trkpt>
<trkpt lat="46.0079116821289" lon="7.16944551467896"><ele></ele><time>2013-8-4T19:11:46Z</time></trkpt>
<trkpt lat="46.0078887939453" lon="7.16948699951172"><ele></ele><time>2013-8-4T19:11:49Z</time></trkpt>
<trkpt lat="46.0078811645508" lon="7.16969585418701"><ele></ele><time>2013-8-4T19:11:52Z</time></trkpt>
<trkpt lat="46.007926940918" lon="7.16983318328857"><ele></ele><time>2013-8-4T19:11:55Z</time></trkpt>
<trkpt lat="46.0079612731934" lon="7.16987037658691"><ele></ele><time>2013-8-4T19:11:58Z</time></trkpt>
<trkpt lat="46.007999420166" lon="7.16989898681641"><ele></ele><time>2013-8-4T19:12:1Z</time></trkpt>
<trkpt lat="46.0081558227539" lon="7.16996049880982"><ele></ele><time>2013-8-4T19:12:4Z</time></trkpt>
<trkpt lat="46.0082359313965" lon="7.16995143890381"><ele></ele><time>2013-8-4T19:12:7Z</time></trkpt>
<trkpt lat="46.0083541870117" lon="7.16995525360107"><ele></ele><time>2013-8-4T19:12:10Z</time></trkpt>
<trkpt lat="46.0083961486816" lon="7.16996145248413"><ele></ele><time>2013-8-4T19:12:13Z</time></trkpt>
<trkpt lat="46.0084342956543" lon="7.16996812820435"><ele></ele><time>2013-8-4T19:12:16Z</time></trkpt>
<trkpt lat="46.008472442627" lon="7.16997289657593"><ele></ele><time>2013-8-4T19:12:19Z</time></trkpt>
<trkpt lat="46.0085105895996" lon="7.1699857711792"><ele></ele><time>2013-8-4T19:12:22Z</time></trkpt>
<trkpt lat="46.008544921875" lon="7.169997215271"><ele></ele><time>2013-8-4T19:12:25Z</time></trkpt>
<trkpt lat="46.0085792541504" lon="7.17000675201416"><ele></ele><time>2013-8-4T19:12:28Z</time></trkpt>
<trkpt lat="46.0086135864258" lon="7.17001724243164"><ele></ele><time>2013-8-4T19:12:31Z</time></trkpt>
<trkpt lat="46.0087089538574" lon="7.17005443572998"><ele></ele><time>2013-8-4T19:12:34Z</time></trkpt>
<trkpt lat="46.0087394714356" lon="7.17006826400757"><ele></ele><time>2013-8-4T19:12:37Z</time></trkpt>
<trkpt lat="46.0087661743164" lon="7.17008638381958"><ele></ele><time>2013-8-4T19:12:40Z</time></trkpt>
<trkpt lat="46.0087966918945" lon="7.1701021194458"><ele></ele><time>2013-8-4T19:12:43Z</time></trkpt>
<trkpt lat="46.0088272094727" lon="7.17011117935181"><ele></ele><time>2013-8-4T19:12:46Z</time></trkpt>
<trkpt lat="46.0090103149414" lon="7.17023754119873"><ele></ele><time>2013-8-4T19:12:49Z</time></trkpt>
<trkpt lat="46.0090408325195" lon="7.17025136947632"><ele></ele><time>2013-8-4T19:12:52Z</time></trkpt>
<trkpt lat="46.0090713500977" lon="7.17025947570801"><ele></ele><time>2013-8-4T19:12:55Z</time></trkpt>
<trkpt lat="46.009105682373" lon="7.17028141021728"><ele></ele><time>2013-8-4T19:12:58Z</time></trkpt>
<trkpt lat="46.0091361999512" lon="7.17029619216919"><ele></ele><time>2013-8-4T19:13:1Z</time></trkpt>
<trkpt lat="46.009204864502" lon="7.17031669616699"><ele></ele><time>2013-8-4T19:13:4Z</time></trkpt>
<trkpt lat="46.0093002319336" lon="7.17033958435059"><ele></ele><time>2013-8-4T19:13:7Z</time></trkpt>
<trkpt lat="46.009334564209" lon="7.17034196853638"><ele></ele><time>2013-8-4T19:13:10Z</time></trkpt>
<trkpt lat="46.0093650817871" lon="7.17034149169922"><ele></ele><time>2013-8-4T19:13:13Z</time></trkpt>
<trkpt lat="46.0093994140625" lon="7.17033958435059"><ele></ele><time>2013-8-4T19:13:16Z</time></trkpt>
<trkpt lat="46.0094299316406" lon="7.17033863067627"><ele></ele><time>2013-8-4T19:13:19Z</time></trkpt>
<trkpt lat="46.0095443725586" lon="7.1703143119812"><ele></ele><time>2013-8-4T19:13:22Z</time></trkpt>
<trkpt lat="46.0095748901367" lon="7.17030477523804"><ele></ele><time>2013-8-4T19:13:25Z</time></trkpt>
<trkpt lat="46.0096397399902" lon="7.17028284072876"><ele></ele><time>2013-8-4T19:13:28Z</time></trkpt>
<trkpt lat="46.0096702575684" lon="7.17026901245117"><ele></ele><time>2013-8-4T19:13:31Z</time></trkpt>
<trkpt lat="46.0097007751465" lon="7.17025089263916"><ele></ele><time>2013-8-4T19:13:34Z</time></trkpt>
<trkpt lat="46.0097274780273" lon="7.17023229598999"><ele></ele><time>2013-8-4T19:13:37Z</time></trkpt>
<trkpt lat="46.0097541809082" lon="7.17021608352661"><ele></ele><time>2013-8-4T19:13:40Z</time></trkpt>
<trkpt lat="46.0098991394043" lon="7.17011165618896"><ele></ele><time>2013-8-4T19:13:43Z</time></trkpt>
<trkpt lat="46.0099258422852" lon="7.17008447647095"><ele></ele><time>2013-8-4T19:13:46Z</time></trkpt>
<trkpt lat="46.009952545166" lon="7.17005586624146"><ele></ele><time>2013-8-4T19:13:49Z</time></trkpt>
<trkpt lat="46.0100479125977" lon="7.16992092132568"><ele></ele><time>2013-8-4T19:13:52Z</time></trkpt>
<trkpt lat="46.0100708007812" lon="7.16988182067871"><ele></ele><time>2013-8-4T19:13:55Z</time></trkpt>
<trkpt lat="46.0100936889648" lon="7.16984128952026"><ele></ele><time>2013-8-4T19:13:58Z</time></trkpt>
<trkpt lat="46.0101165771484" lon="7.16979885101318"><ele></ele><time>2013-8-4T19:14:1Z</time></trkpt>
<trkpt lat="46.0101356506348" lon="7.16975450515747"><ele></ele><time>2013-8-4T19:14:4Z</time></trkpt>
<trkpt lat="46.0101585388184" lon="7.16970825195312"><ele></ele><time>2013-8-4T19:14:7Z</time></trkpt>
<trkpt lat="46.010181427002" lon="7.16966009140015"><ele></ele><time>2013-8-4T19:14:10Z</time></trkpt>
<trkpt lat="46.0102615356445" lon="7.16952991485596"><ele></ele><time>2013-8-4T19:14:13Z</time></trkpt>
<trkpt lat="46.0102882385254" lon="7.16949272155762"><ele></ele><time>2013-8-4T19:14:16Z</time></trkpt>
<trkpt lat="46.0103149414062" lon="7.16945934295654"><ele></ele><time>2013-8-4T19:14:19Z</time></trkpt>
<trkpt lat="46.0103530883789" lon="7.16943788528442"><ele></ele><time>2013-8-4T19:14:22Z</time></trkpt>
<trkpt lat="46.0103874206543" lon="7.16942405700684"><ele></ele><time>2013-8-4T19:14:25Z</time></trkpt>
<trkpt lat="46.0104217529297" lon="7.16942310333252"><ele></ele><time>2013-8-4T19:14:28Z</time></trkpt>
<trkpt lat="46.0104598999023" lon="7.16945552825928"><ele></ele><time>2013-8-4T19:14:31Z</time></trkpt>
<trkpt lat="46.0105133056641" lon="7.16952562332153"><ele></ele><time>2013-8-4T19:14:34Z</time></trkpt>
<trkpt lat="46.0105285644531" lon="7.16972970962524"><ele></ele><time>2013-8-4T19:14:37Z</time></trkpt>
<trkpt lat="46.0104827880859" lon="7.1698145866394"><ele></ele><time>2013-8-4T19:14:40Z</time></trkpt>
<trkpt lat="46.0104331970215" lon="7.16988325119018"><ele></ele><time>2013-8-4T19:14:43Z</time></trkpt>
<trkpt lat="46.0104064941406" lon="7.16991662979126"><ele></ele><time>2013-8-4T19:14:46Z</time></trkpt>
<trkpt lat="46.0103759765625" lon="7.16994476318359"><ele></ele><time>2013-8-4T19:14:49Z</time></trkpt>
<trkpt lat="46.0103454589844" lon="7.16997575759888"><ele></ele><time>2013-8-4T19:14:52Z</time></trkpt>
<trkpt lat="46.0103187561035" lon="7.17000579833984"><ele></ele><time>2013-8-4T19:14:55Z</time></trkpt>
<trkpt lat="46.0102882385254" lon="7.17003488540649"><ele></ele><time>2013-8-4T19:14:58Z</time></trkpt>
<trkpt lat="46.0102577209473" lon="7.17006540298462"><ele></ele><time>2013-8-4T19:15:1Z</time></trkpt>
<trkpt lat="46.010196685791" lon="7.17012453079224"><ele></ele><time>2013-8-4T19:15:4Z</time></trkpt>
<trkpt lat="46.0101432800293" lon="7.17018175125122"><ele></ele><time>2013-8-4T19:15:7Z</time></trkpt>
<trkpt lat="46.0099601745606" lon="7.170325756073"><ele></ele><time>2013-8-4T19:15:10Z</time></trkpt>
<trkpt lat="46.0098724365234" lon="7.17039108276367"><ele></ele><time>2013-8-4T19:15:13Z</time></trkpt>
<trkpt lat="46.0098457336426" lon="7.17041254043579"><ele></ele><time>2013-8-4T19:15:16Z</time></trkpt>
<trkpt lat="46.0098152160644" lon="7.17043495178223"><ele></ele><time>2013-8-4T19:15:19Z</time></trkpt>
<trkpt lat="46.0097885131836" lon="7.17045068740845"><ele></ele><time>2013-8-4T19:15:22Z</time></trkpt>
<trkpt lat="46.0097541809082" lon="7.17046642303467"><ele></ele><time>2013-8-4T19:15:25Z</time></trkpt>
<trkpt lat="46.0097236633301" lon="7.17048406600952"><ele></ele><time>2013-8-4T19:15:28Z</time></trkpt>
<trkpt lat="46.0095901489258" lon="7.17059421539307"><ele></ele><time>2013-8-4T19:15:31Z</time></trkpt>
<trkpt lat="46.0095634460449" lon="7.17061519622803"><ele></ele><time>2013-8-4T19:15:34Z</time></trkpt>
<trkpt lat="46.0095405578613" lon="7.1706395149231"><ele></ele><time>2013-8-4T19:15:37Z</time></trkpt>
<trkpt lat="46.0095138549805" lon="7.17065858840942"><ele></ele><time>2013-8-4T19:15:40Z</time></trkpt>
<trkpt lat="46.0093612670898" lon="7.17079019546509"><ele></ele><time>2013-8-4T19:15:43Z</time></trkpt>
<trkpt lat="46.0093383789062" lon="7.17081689834595"><ele></ele><time>2013-8-4T19:15:46Z</time></trkpt>
<trkpt lat="46.0093154907227" lon="7.1708402633667"><ele></ele><time>2013-8-4T19:15:49Z</time></trkpt>
<trkpt lat="46.0092926025391" lon="7.17086553573608"><ele></ele><time>2013-8-4T19:15:52Z</time></trkpt>
<trkpt lat="46.0092658996582" lon="7.17089033126831"><ele></ele><time>2013-8-4T19:15:55Z</time></trkpt>
<trkpt lat="46.0091171264648" lon="7.17105197906494"><ele></ele><time>2013-8-4T19:15:58Z</time></trkpt>
<trkpt lat="46.0090942382812" lon="7.17107820510864"><ele></ele><time>2013-8-4T19:16:1Z</time></trkpt>
<trkpt lat="46.0090713500977" lon="7.17110538482666"><ele></ele><time>2013-8-4T19:16:4Z</time></trkpt>
<trkpt lat="46.0090484619141" lon="7.17113494873047"><ele></ele><time>2013-8-4T19:16:7Z</time></trkpt>
<trkpt lat="46.0090217590332" lon="7.17116498947144"><ele></ele><time>2013-8-4T19:16:10Z</time></trkpt>
<trkpt lat="46.0088768005371" lon="7.17128372192383"><ele></ele><time>2013-8-4T19:16:13Z</time></trkpt>
<trkpt lat="46.0088500976562" lon="7.17130661010742"><ele></ele><time>2013-8-4T19:16:16Z</time></trkpt>
<trkpt lat="46.0088233947754" lon="7.17132711410522"><ele></ele><time>2013-8-4T19:16:19Z</time></trkpt>
<trkpt lat="46.0087928771973" lon="7.17134761810303"><ele></ele><time>2013-8-4T19:16:22Z</time></trkpt>
<trkpt lat="46.0087661743164" lon="7.17136478424072"><ele></ele><time>2013-8-4T19:16:25Z</time></trkpt>
<trkpt lat="46.0086441040039" lon="7.17141628265381"><ele></ele><time>2013-8-4T19:16:28Z</time></trkpt>
<trkpt lat="46.0085258483887" lon="7.17144632339478"><ele></ele><time>2013-8-4T19:16:31Z</time></trkpt>
<trkpt lat="46.0084953308106" lon="7.17145156860352"><ele></ele><time>2013-8-4T19:16:34Z</time></trkpt>
<trkpt lat="46.0084609985352" lon="7.17145299911499"><ele></ele><time>2013-8-4T19:16:37Z</time></trkpt>
<trkpt lat="46.008430480957" lon="7.17145538330078"><ele></ele><time>2013-8-4T19:16:40Z</time></trkpt>
<trkpt lat="46.0084037780762" lon="7.17145156860352"><ele></ele><time>2013-8-4T19:16:43Z</time></trkpt>
<trkpt lat="46.0082893371582" lon="7.17142629623413"><ele></ele><time>2013-8-4T19:16:46Z</time></trkpt>
<trkpt lat="46.0082588195801" lon="7.17142057418823"><ele></ele><time>2013-8-4T19:16:49Z</time></trkpt>
<trkpt lat="46.008228302002" lon="7.17141103744507"><ele></ele><time>2013-8-4T19:16:52Z</time></trkpt>
<trkpt lat="46.0081977844238" lon="7.17140054702759"><ele></ele><time>2013-8-4T19:16:55Z</time></trkpt>
<trkpt lat="46.008171081543" lon="7.17138719558716"><ele></ele><time>2013-8-4T19:16:58Z</time></trkpt>
<trkpt lat="46.0080909729004" lon="7.17134284973144"><ele></ele><time>2013-8-4T19:17:1Z</time></trkpt>
<trkpt lat="46.0080642700195" lon="7.17132329940796"><ele></ele><time>2013-8-4T19:17:4Z</time></trkpt>
<trkpt lat="46.0080375671387" lon="7.17130613327026"><ele></ele><time>2013-8-4T19:17:7Z</time></trkpt>
<trkpt lat="46.0080070495606" lon="7.17128086090088"><ele></ele><time>2013-8-4T19:17:10Z</time></trkpt>
<trkpt lat="46.0079803466797" lon="7.17125701904297"><ele></ele><time>2013-8-4T19:17:13Z</time></trkpt>
<trkpt lat="46.0079574584961" lon="7.17123031616211"><ele></ele><time>2013-8-4T19:17:16Z</time></trkpt>
<trkpt lat="46.0079345703125" lon="7.17120552062988"><ele></ele><time>2013-8-4T19:17:19Z</time></trkpt>
<trkpt lat="46.0079116821289" lon="7.17118263244629"><ele></ele><time>2013-8-4T19:17:22Z</time></trkpt>
<trkpt lat="46.0078926086426" lon="7.17115545272827"><ele></ele><time>2013-8-4T19:17:25Z</time></trkpt>
<trkpt lat="46.007869720459" lon="7.17112588882446"><ele></ele><time>2013-8-4T19:17:28Z</time></trkpt>
<trkpt lat="46.0078468322754" lon="7.17109966278076"><ele></ele><time>2013-8-4T19:17:31Z</time></trkpt>
<trkpt lat="46.0077705383301" lon="7.17097568511963"><ele></ele><time>2013-8-4T19:17:34Z</time></trkpt>
<trkpt lat="46.0076789855957" lon="7.1707706451416"><ele></ele><time>2013-8-4T19:17:37Z</time></trkpt>
<trkpt lat="46.0076332092285" lon="7.17066383361816"><ele></ele><time>2013-8-4T19:17:40Z</time></trkpt>
<trkpt lat="46.0076179504394" lon="7.17062568664551"><ele></ele><time>2013-8-4T19:17:43Z</time></trkpt>
<trkpt lat="46.0075988769531" lon="7.17058610916138"><ele></ele><time>2013-8-4T19:17:46Z</time></trkpt>
<trkpt lat="46.0075836181641" lon="7.17055130004883"><ele></ele><time>2013-8-4T19:17:49Z</time></trkpt>
<trkpt lat="46.007568359375" lon="7.17051696777344"><ele></ele><time>2013-8-4T19:17:52Z</time></trkpt>
<trkpt lat="46.0074920654297" lon="7.17034435272217"><ele></ele><time>2013-8-4T19:17:55Z</time></trkpt>
<trkpt lat="46.0074729919434" lon="7.17031145095825"><ele></ele><time>2013-8-4T19:17:58Z</time></trkpt>
<trkpt lat="46.007453918457" lon="7.17027473449707"><ele></ele><time>2013-8-4T19:18:1Z</time></trkpt>
<trkpt lat="46.007438659668" lon="7.17023658752441"><ele></ele><time>2013-8-4T19:18:4Z</time></trkpt>
<trkpt lat="46.0074234008789" lon="7.1702036857605"><ele></ele><time>2013-8-4T19:18:7Z</time></trkpt>
<trkpt lat="46.0074043273926" lon="7.17017316818237"><ele></ele><time>2013-8-4T19:18:10Z</time></trkpt>
<trkpt lat="46.0073432922363" lon="7.1700758934021"><ele></ele><time>2013-8-4T19:18:13Z</time></trkpt>
<trkpt lat="46.0072708129883" lon="7.16998767852783"><ele></ele><time>2013-8-4T19:18:16Z</time></trkpt>
<trkpt lat="46.0072441101074" lon="7.16996145248413"><ele></ele><time>2013-8-4T19:18:19Z</time></trkpt>
<trkpt lat="46.0072174072266" lon="7.16993522644043"><ele></ele><time>2013-8-4T19:18:22Z</time></trkpt>
<trkpt lat="46.007194519043" lon="7.16991138458252"><ele></ele><time>2013-8-4T19:18:25Z</time></trkpt>
<trkpt lat="46.0071678161621" lon="7.16989183425903"><ele></ele><time>2013-8-4T19:18:28Z</time></trkpt>
<trkpt lat="46.0071449279785" lon="7.16987133026123"><ele></ele><time>2013-8-4T19:18:31Z</time></trkpt>
<trkpt lat="46.0071182250977" lon="7.1698489189148"><ele></ele><time>2013-8-4T19:18:34Z</time></trkpt>
<trkpt lat="46.0070915222168" lon="7.16983222961426"><ele></ele><time>2013-8-4T19:18:37Z</time></trkpt>
<trkpt lat="46.0070648193359" lon="7.1698203086853"><ele></ele><time>2013-8-4T19:18:40Z</time></trkpt>
<trkpt lat="46.0070381164551" lon="7.16980791091919"><ele></ele><time>2013-8-4T19:18:43Z</time></trkpt>
<trkpt lat="46.0068664550781" lon="7.16972303390503"><ele></ele><time>2013-8-4T19:18:46Z</time></trkpt>
<trkpt lat="46.0067367553711" lon="7.1696982383728"><ele></ele><time>2013-8-4T19:18:49Z</time></trkpt>
<trkpt lat="46.0066986083984" lon="7.16969680786133"><ele></ele><time>2013-8-4T19:18:52Z</time></trkpt>
<trkpt lat="46.0066680908203" lon="7.16969966888428"><ele></ele><time>2013-8-4T19:18:55Z</time></trkpt>
<trkpt lat="46.0066337585449" lon="7.16969919204712"><ele></ele><time>2013-8-4T19:18:58Z</time></trkpt>
<trkpt lat="46.0066032409668" lon="7.16970205307007"><ele></ele><time>2013-8-4T19:19:1Z</time></trkpt>
<trkpt lat="46.0064811706543" lon="7.16973114013672"><ele></ele><time>2013-8-4T19:19:4Z</time></trkpt>
<trkpt lat="46.0064277648926" lon="7.16975498199463"><ele></ele><time>2013-8-4T19:19:7Z</time></trkpt>
<trkpt lat="46.0063934326172" lon="7.16976308822632"><ele></ele><time>2013-8-4T19:19:10Z</time></trkpt>
<trkpt lat="46.0063629150391" lon="7.16977024078369"><ele></ele><time>2013-8-4T19:19:13Z</time></trkpt>
<trkpt lat="46.0063323974609" lon="7.16977739334106"><ele></ele><time>2013-8-4T19:19:16Z</time></trkpt>
<trkpt lat="46.0063018798828" lon="7.16978311538696"><ele></ele><time>2013-8-4T19:19:19Z</time></trkpt>
<trkpt lat="46.0061836242676" lon="7.16981983184814"><ele></ele><time>2013-8-4T19:19:22Z</time></trkpt>
<trkpt lat="46.0061302185059" lon="7.16985750198364"><ele></ele><time>2013-8-4T19:19:25Z</time></trkpt>
<trkpt lat="46.006103515625" lon="7.16987800598144"><ele></ele><time>2013-8-4T19:19:28Z</time></trkpt>
<trkpt lat="46.0060729980469" lon="7.16989898681641"><ele></ele><time>2013-8-4T19:19:31Z</time></trkpt>
<trkpt lat="46.0060424804688" lon="7.16992139816284"><ele></ele><time>2013-8-4T19:19:34Z</time></trkpt>
<trkpt lat="46.0060157775879" lon="7.1699423789978"><ele></ele><time>2013-8-4T19:19:37Z</time></trkpt>
<trkpt lat="46.005989074707" lon="7.16996622085571"><ele></ele><time>2013-8-4T19:19:40Z</time></trkpt>
<trkpt lat="46.0059356689453" lon="7.17000436782837"><ele></ele><time>2013-8-4T19:19:43Z</time></trkpt>
<trkpt lat="46.0059089660644" lon="7.17002820968628"><ele></ele><time>2013-8-4T19:19:46Z</time></trkpt>
<trkpt lat="46.0058860778809" lon="7.17005443572998"><ele></ele><time>2013-8-4T19:19:49Z</time></trkpt>
<trkpt lat="46.0058670043945" lon="7.17007827758789"><ele></ele><time>2013-8-4T19:19:52Z</time></trkpt>
<trkpt lat="46.0058441162109" lon="7.17010498046875"><ele></ele><time>2013-8-4T19:19:55Z</time></trkpt>
<trkpt lat="46.005802154541" lon="7.17015647888184"><ele></ele><time>2013-8-4T19:19:58Z</time></trkpt>
<trkpt lat="46.005672454834" lon="7.17032384872436"><ele></ele><time>2013-8-4T19:20:1Z</time></trkpt>
<trkpt lat="46.0056533813477" lon="7.17035341262817"><ele></ele><time>2013-8-4T19:20:4Z</time></trkpt>
<trkpt lat="46.0056343078613" lon="7.17038536071777"><ele></ele><time>2013-8-4T19:20:7Z</time></trkpt>
<trkpt lat="46.0056114196777" lon="7.17041683197022"><ele></ele><time>2013-8-4T19:20:10Z</time></trkpt>
<trkpt lat="46.0055923461914" lon="7.17044830322266"><ele></ele><time>2013-8-4T19:20:13Z</time></trkpt>
<trkpt lat="46.0054969787598" lon="7.17061471939087"><ele></ele><time>2013-8-4T19:20:16Z</time></trkpt>
<trkpt lat="46.0054740905762" lon="7.1706485748291"><ele></ele><time>2013-8-4T19:20:19Z</time></trkpt>
<trkpt lat="46.0054550170898" lon="7.17068243026733"><ele></ele><time>2013-8-4T19:20:22Z</time></trkpt>
<trkpt lat="46.0054359436035" lon="7.1707181930542"><ele></ele><time>2013-8-4T19:20:25Z</time></trkpt>
<trkpt lat="46.0054168701172" lon="7.17075300216675"><ele></ele><time>2013-8-4T19:20:28Z</time></trkpt>
<trkpt lat="46.0053176879883" lon="7.1709189414978"><ele></ele><time>2013-8-4T19:20:31Z</time></trkpt>
<trkpt lat="46.0052947998047" lon="7.17094993591309"><ele></ele><time>2013-8-4T19:20:34Z</time></trkpt>
<trkpt lat="46.0052719116211" lon="7.17097997665405"><ele></ele><time>2013-8-4T19:20:37Z</time></trkpt>
<trkpt lat="46.0052261352539" lon="7.17104053497314"><ele></ele><time>2013-8-4T19:20:40Z</time></trkpt>
<trkpt lat="46.0052032470703" lon="7.17107486724854"><ele></ele><time>2013-8-4T19:20:43Z</time></trkpt>
<trkpt lat="46.0051803588867" lon="7.1711049079895"><ele></ele><time>2013-8-4T19:20:46Z</time></trkpt>
<trkpt lat="46.0051574707031" lon="7.17113018035889"><ele></ele><time>2013-8-4T19:20:49Z</time></trkpt>
<trkpt lat="46.0051345825195" lon="7.17115592956543"><ele></ele><time>2013-8-4T19:20:52Z</time></trkpt>
<trkpt lat="46.0050888061523" lon="7.17120695114136"><ele></ele><time>2013-8-4T19:20:55Z</time></trkpt>
<trkpt lat="46.0050430297852" lon="7.17125654220581"><ele></ele><time>2013-8-4T19:20:58Z</time></trkpt>
<trkpt lat="46.0049896240234" lon="7.17130327224732"><ele></ele><time>2013-8-4T19:21:1Z</time></trkpt>
<trkpt lat="46.0049629211426" lon="7.17132568359375"><ele></ele><time>2013-8-4T19:21:4Z</time></trkpt>
<trkpt lat="46.0049362182617" lon="7.17134618759155"><ele></ele><time>2013-8-4T19:21:7Z</time></trkpt>
<trkpt lat="46.0049095153809" lon="7.1713662147522"><ele></ele><time>2013-8-4T19:21:10Z</time></trkpt>
<trkpt lat="46.0048828125" lon="7.17138767242432"><ele></ele><time>2013-8-4T19:21:13Z</time></trkpt>
<trkpt lat="46.0048599243164" lon="7.17141008377075"><ele></ele><time>2013-8-4T19:21:16Z</time></trkpt>
<trkpt lat="46.0047569274902" lon="7.17149639129639"><ele></ele><time>2013-8-4T19:21:19Z</time></trkpt>
<trkpt lat="46.0047302246094" lon="7.17151689529419"><ele></ele><time>2013-8-4T19:21:22Z</time></trkpt>
<trkpt lat="46.0047035217285" lon="7.17153596878052"><ele></ele><time>2013-8-4T19:21:25Z</time></trkpt>
<trkpt lat="46.0046768188477" lon="7.17155599594116"><ele></ele><time>2013-8-4T19:21:28Z</time></trkpt>
<trkpt lat="46.0046501159668" lon="7.1715784072876"><ele></ele><time>2013-8-4T19:21:31Z</time></trkpt>
<trkpt lat="46.0044937133789" lon="7.17171144485474"><ele></ele><time>2013-8-4T19:21:34Z</time></trkpt>
<trkpt lat="46.0044403076172" lon="7.17176008224487"><ele></ele><time>2013-8-4T19:21:37Z</time></trkpt>
<trkpt lat="46.0044136047363" lon="7.17178440093994"><ele></ele><time>2013-8-4T19:21:40Z</time></trkpt>
<trkpt lat="46.0043869018555" lon="7.17180871963501"><ele></ele><time>2013-8-4T19:21:43Z</time></trkpt>
<trkpt lat="46.0043640136719" lon="7.17183256149292"><ele></ele><time>2013-8-4T19:21:46Z</time></trkpt>
<trkpt lat="46.0043411254883" lon="7.17185735702515"><ele></ele><time>2013-8-4T19:21:49Z</time></trkpt>
<trkpt lat="46.0042953491211" lon="7.17191076278686"><ele></ele><time>2013-8-4T19:21:52Z</time></trkpt>
<trkpt lat="46.004150390625" lon="7.17209196090698"><ele></ele><time>2013-8-4T19:21:55Z</time></trkpt>
<trkpt lat="46.0041275024414" lon="7.17212295532226"><ele></ele><time>2013-8-4T19:21:58Z</time></trkpt>
<trkpt lat="46.0041084289551" lon="7.17215299606323"><ele></ele><time>2013-8-4T19:22:1Z</time></trkpt>
<trkpt lat="46.0040855407715" lon="7.17218685150146"><ele></ele><time>2013-8-4T19:22:4Z</time></trkpt>
<trkpt lat="46.0040664672852" lon="7.1722240447998"><ele></ele><time>2013-8-4T19:22:7Z</time></trkpt>
<trkpt lat="46.00390625" lon="7.17251205444336"><ele></ele><time>2013-8-4T19:22:10Z</time></trkpt>
<trkpt lat="46.0038871765137" lon="7.17255067825317"><ele></ele><time>2013-8-4T19:22:13Z</time></trkpt>
<trkpt lat="46.0038681030273" lon="7.1725869178772"><ele></ele><time>2013-8-4T19:22:16Z</time></trkpt>
<trkpt lat="46.0038528442383" lon="7.17262268066406"><ele></ele><time>2013-8-4T19:22:19Z</time></trkpt>
<trkpt lat="46.003833770752" lon="7.17265844345093"><ele></ele><time>2013-8-4T19:22:22Z</time></trkpt>
<trkpt lat="46.0037231445312" lon="7.1728835105896"><ele></ele><time>2013-8-4T19:22:25Z</time></trkpt>
<trkpt lat="46.0036811828613" lon="7.17295169830322"><ele></ele><time>2013-8-4T19:22:28Z</time></trkpt>
<trkpt lat="46.0036582946777" lon="7.17298650741577"><ele></ele><time>2013-8-4T19:22:31Z</time></trkpt>
<trkpt lat="46.0036392211914" lon="7.17302179336548"><ele></ele><time>2013-8-4T19:22:34Z</time></trkpt>
<trkpt lat="46.0036201477051" lon="7.1730580329895"><ele></ele><time>2013-8-4T19:22:37Z</time></trkpt>
<trkpt lat="46.0035972595215" lon="7.17309474945068"><ele></ele><time>2013-8-4T19:22:40Z</time></trkpt>
<trkpt lat="46.0035362243652" lon="7.17319440841675"><ele></ele><time>2013-8-4T19:22:43Z</time></trkpt>
<trkpt lat="46.003490447998" lon="7.17325782775879"><ele></ele><time>2013-8-4T19:22:46Z</time></trkpt>
<trkpt lat="46.0034637451172" lon="7.17328786849976"><ele></ele><time>2013-8-4T19:22:49Z</time></trkpt>
<trkpt lat="46.0034408569336" lon="7.17331743240356"><ele></ele><time>2013-8-4T19:22:52Z</time></trkpt>
<trkpt lat="46.00341796875" lon="7.17334699630737"><ele></ele><time>2013-8-4T19:22:55Z</time></trkpt>
<trkpt lat="46.0033950805664" lon="7.17337608337402"><ele></ele><time>2013-8-4T19:22:58Z</time></trkpt>
<trkpt lat="46.0033111572266" lon="7.1734824180603"><ele></ele><time>2013-8-4T19:23:1Z</time></trkpt>
<trkpt lat="46.0032653808594" lon="7.1735315322876"><ele></ele><time>2013-8-4T19:23:4Z</time></trkpt>
<trkpt lat="46.0032424926758" lon="7.17355537414551"><ele></ele><time>2013-8-4T19:23:7Z</time></trkpt>
<trkpt lat="46.0032196044922" lon="7.17357921600342"><ele></ele><time>2013-8-4T19:23:10Z</time></trkpt>
<trkpt lat="46.0031967163086" lon="7.17360258102417"><ele></ele><time>2013-8-4T19:23:13Z</time></trkpt>
<trkpt lat="46.0031700134277" lon="7.1736273765564"><ele></ele><time>2013-8-4T19:23:16Z</time></trkpt>
<trkpt lat="46.0030784606934" lon="7.17371988296509"><ele></ele><time>2013-8-4T19:23:19Z</time></trkpt>
<trkpt lat="46.0030059814453" lon="7.1737756729126"><ele></ele><time>2013-8-4T19:23:22Z</time></trkpt>
<trkpt lat="46.0029830932617" lon="7.17379426956177"><ele></ele><time>2013-8-4T19:23:25Z</time></trkpt>
<trkpt lat="46.0029563903809" lon="7.17381048202515"><ele></ele><time>2013-8-4T19:23:28Z</time></trkpt>
<trkpt lat="46.0029335021973" lon="7.17382669448852"><ele></ele><time>2013-8-4T19:23:31Z</time></trkpt>
<trkpt lat="46.0028800964356" lon="7.17386770248413"><ele></ele><time>2013-8-4T19:23:34Z</time></trkpt>
<trkpt lat="46.0028076171875" lon="7.17392587661743"><ele></ele><time>2013-8-4T19:23:37Z</time></trkpt>
<trkpt lat="46.0027809143066" lon="7.17394256591797"><ele></ele><time>2013-8-4T19:23:40Z</time></trkpt>
<trkpt lat="46.0027542114258" lon="7.17395830154419"><ele></ele><time>2013-8-4T19:23:43Z</time></trkpt>
<trkpt lat="46.0027275085449" lon="7.17397594451904"><ele></ele><time>2013-8-4T19:23:46Z</time></trkpt>
<trkpt lat="46.0026969909668" lon="7.17399311065674"><ele></ele><time>2013-8-4T19:23:49Z</time></trkpt>
<trkpt lat="46.0026435852051" lon="7.17402791976929"><ele></ele><time>2013-8-4T19:23:52Z</time></trkpt>
<trkpt lat="46.0025177001953" lon="7.17412519454956"><ele></ele><time>2013-8-4T19:23:55Z</time></trkpt>
<trkpt lat="46.0024909973144" lon="7.17414331436157"><ele></ele><time>2013-8-4T19:23:58Z</time></trkpt>
<trkpt lat="46.0024642944336" lon="7.17416191101074"><ele></ele><time>2013-8-4T19:24:1Z</time></trkpt>
<trkpt lat="46.00244140625" lon="7.17417764663696"><ele></ele><time>2013-8-4T19:24:4Z</time></trkpt>
<trkpt lat="46.0024147033691" lon="7.17419385910034"><ele></ele><time>2013-8-4T19:24:7Z</time></trkpt>
<trkpt lat="46.0022888183594" lon="7.17428636550903"><ele></ele><time>2013-8-4T19:24:10Z</time></trkpt>
<trkpt lat="46.0022621154785" lon="7.17430448532104"><ele></ele><time>2013-8-4T19:24:13Z</time></trkpt>
<trkpt lat="46.0022392272949" lon="7.17432308197022"><ele></ele><time>2013-8-4T19:24:16Z</time></trkpt>
<trkpt lat="46.0022125244141" lon="7.17434167861938"><ele></ele><time>2013-8-4T19:24:19Z</time></trkpt>
<trkpt lat="46.0021858215332" lon="7.17436218261719"><ele></ele><time>2013-8-4T19:24:22Z</time></trkpt>
<trkpt lat="46.0021324157715" lon="7.17439937591553"><ele></ele><time>2013-8-4T19:24:25Z</time></trkpt>
<trkpt lat="46.002010345459" lon="7.17452049255371"><ele></ele><time>2013-8-4T19:24:28Z</time></trkpt>
<trkpt lat="46.0019874572754" lon="7.17454481124878"><ele></ele><time>2013-8-4T19:24:31Z</time></trkpt>
<trkpt lat="46.0019607543945" lon="7.17456674575806"><ele></ele><time>2013-8-4T19:24:34Z</time></trkpt>
<trkpt lat="46.0019378662109" lon="7.17458534240723"><ele></ele><time>2013-8-4T19:24:37Z</time></trkpt>
<trkpt lat="46.0019111633301" lon="7.17460632324219"><ele></ele><time>2013-8-4T19:24:40Z</time></trkpt>
<trkpt lat="46.0017852783203" lon="7.17472076416016"><ele></ele><time>2013-8-4T19:24:43Z</time></trkpt>
<trkpt lat="46.0017623901367" lon="7.17474317550659"><ele></ele><time>2013-8-4T19:24:46Z</time></trkpt>
<trkpt lat="46.0017356872559" lon="7.17476415634155"><ele></ele><time>2013-8-4T19:24:49Z</time></trkpt>
<trkpt lat="46.001708984375" lon="7.17478466033936"><ele></ele><time>2013-8-4T19:24:52Z</time></trkpt>
<trkpt lat="46.0016860961914" lon="7.17480707168579"><ele></ele><time>2013-8-4T19:24:55Z</time></trkpt>
<trkpt lat="46.0014762878418" lon="7.17497301101685"><ele></ele><time>2013-8-4T19:24:58Z</time></trkpt>
<trkpt lat="46.0014495849609" lon="7.1749963760376"><ele></ele><time>2013-8-4T19:25:1Z</time></trkpt>
<trkpt lat="46.0014228820801" lon="7.17501640319824"><ele></ele><time>2013-8-4T19:25:4Z</time></trkpt>
<trkpt lat="46.0013961791992" lon="7.17503499984741"><ele></ele><time>2013-8-4T19:25:7Z</time></trkpt>
<trkpt lat="46.0013694763184" lon="7.17505311965942"><ele></ele><time>2013-8-4T19:25:10Z</time></trkpt>
<trkpt lat="46.0011825561523" lon="7.17518424987793"><ele></ele><time>2013-8-4T19:25:13Z</time></trkpt>
<trkpt lat="46.0011558532715" lon="7.17520046234131"><ele></ele><time>2013-8-4T19:25:16Z</time></trkpt>
<trkpt lat="46.0011291503906" lon="7.17521667480469"><ele></ele><time>2013-8-4T19:25:19Z</time></trkpt>
<trkpt lat="46.0011024475098" lon="7.17523288726807"><ele></ele><time>2013-8-4T19:25:22Z</time></trkpt>
<trkpt lat="46.0010032653809" lon="7.17529153823852"><ele></ele><time>2013-8-4T19:25:25Z</time></trkpt>
<trkpt lat="46.0009803771973" lon="7.17530870437622"><ele></ele><time>2013-8-4T19:25:28Z</time></trkpt>
<trkpt lat="46.0009536743164" lon="7.17532444000244"><ele></ele><time>2013-8-4T19:25:31Z</time></trkpt>
<trkpt lat="46.0009269714356" lon="7.1753396987915"><ele></ele><time>2013-8-4T19:25:34Z</time></trkpt>
<trkpt lat="46.0009002685547" lon="7.17535495758057"><ele></ele><time>2013-8-4T19:25:37Z</time></trkpt>
<trkpt lat="46.0008201599121" lon="7.17539930343628"><ele></ele><time>2013-8-4T19:25:40Z</time></trkpt>
<trkpt lat="46.0007133483887" lon="7.17545938491821"><ele></ele><time>2013-8-4T19:25:43Z</time></trkpt>
<trkpt lat="46.0006866455078" lon="7.17547416687012"><ele></ele><time>2013-8-4T19:25:46Z</time></trkpt>
<trkpt lat="46.000659942627" lon="7.17548847198486"><ele></ele><time>2013-8-4T19:25:49Z</time></trkpt>
<trkpt lat="46.0006332397461" lon="7.1755051612854"><ele></ele><time>2013-8-4T19:25:52Z</time></trkpt>
<trkpt lat="46.0006065368652" lon="7.17551946640015"><ele></ele><time>2013-8-4T19:25:55Z</time></trkpt>
<trkpt lat="46.0004501342773" lon="7.17558813095093"><ele></ele><time>2013-8-4T19:25:58Z</time></trkpt>
<trkpt lat="46.0004234313965" lon="7.17560386657715"><ele></ele><time>2013-8-4T19:26:1Z</time></trkpt>
<trkpt lat="46.0003967285156" lon="7.17561912536621"><ele></ele><time>2013-8-4T19:26:4Z</time></trkpt>
<trkpt lat="46.0003700256348" lon="7.17563343048096"><ele></ele><time>2013-8-4T19:26:7Z</time></trkpt>
<trkpt lat="46.0003433227539" lon="7.17564582824707"><ele></ele><time>2013-8-4T19:26:10Z</time></trkpt>
<trkpt lat="46.0001754760742" lon="7.17573308944702"><ele></ele><time>2013-8-4T19:26:13Z</time></trkpt>
<trkpt lat="46.0001525878906" lon="7.17574834823608"><ele></ele><time>2013-8-4T19:26:16Z</time></trkpt>
<trkpt lat="46.0001220703125" lon="7.17576742172241"><ele></ele><time>2013-8-4T19:26:19Z</time></trkpt>
<trkpt lat="46.0000953674316" lon="7.17578315734863"><ele></ele><time>2013-8-4T19:26:22Z</time></trkpt>
<trkpt lat="46.0000686645508" lon="7.17579889297485"><ele></ele><time>2013-8-4T19:26:25Z</time></trkpt>
<trkpt lat="45.9999618530273" lon="7.17585802078247"><ele></ele><time>2013-8-4T19:26:28Z</time></trkpt>
<trkpt lat="45.9999313354492" lon="7.17587232589722"><ele></ele><time>2013-8-4T19:26:31Z</time></trkpt>
<trkpt lat="45.9999046325684" lon="7.17588901519775"><ele></ele><time>2013-8-4T19:26:34Z</time></trkpt>
<trkpt lat="45.9998779296875" lon="7.17590713500976"><ele></ele><time>2013-8-4T19:26:37Z</time></trkpt>
<trkpt lat="45.9998512268066" lon="7.17592620849609"><ele></ele><time>2013-8-4T19:26:40Z</time></trkpt>
<trkpt lat="45.9998207092285" lon="7.17594575881958"><ele></ele><time>2013-8-4T19:26:43Z</time></trkpt>
<trkpt lat="45.999683380127" lon="7.17604637145996"><ele></ele><time>2013-8-4T19:26:46Z</time></trkpt>
<trkpt lat="45.9996299743652" lon="7.17608404159546"><ele></ele><time>2013-8-4T19:26:49Z</time></trkpt>
<trkpt lat="45.9996032714844" lon="7.17610740661621"><ele></ele><time>2013-8-4T19:26:52Z</time></trkpt>
<trkpt lat="45.9995727539062" lon="7.17613315582275"><ele></ele><time>2013-8-4T19:26:55Z</time></trkpt>
<trkpt lat="45.9995422363281" lon="7.17615985870361"><ele></ele><time>2013-8-4T19:26:58Z</time></trkpt>
<trkpt lat="45.99951171875" lon="7.17618560791016"><ele></ele><time>2013-8-4T19:27:1Z</time></trkpt>
<trkpt lat="45.9994812011719" lon="7.17621326446533"><ele></ele><time>2013-8-4T19:27:4Z</time></trkpt>
<trkpt lat="45.9993019104004" lon="7.17636108398438"><ele></ele><time>2013-8-4T19:27:7Z</time></trkpt>
<trkpt lat="45.9991073608398" lon="7.1764817237854"><ele></ele><time>2013-8-4T19:27:10Z</time></trkpt>
<trkpt lat="45.9990768432617" lon="7.1764965057373"><ele></ele><time>2013-8-4T19:27:13Z</time></trkpt>
<trkpt lat="45.9990463256836" lon="7.17651081085205"><ele></ele><time>2013-8-4T19:27:16Z</time></trkpt>
<trkpt lat="45.9990119934082" lon="7.17652416229248"><ele></ele><time>2013-8-4T19:27:19Z</time></trkpt>
<trkpt lat="45.9989776611328" lon="7.17653942108154"><ele></ele><time>2013-8-4T19:27:22Z</time></trkpt>
<trkpt lat="45.9988861083984" lon="7.17658758163452"><ele></ele><time>2013-8-4T19:27:25Z</time></trkpt>
<trkpt lat="45.9988555908203" lon="7.17660474777222"><ele></ele><time>2013-8-4T19:27:28Z</time></trkpt>
<trkpt lat="45.9988212585449" lon="7.17661952972412"><ele></ele><time>2013-8-4T19:27:31Z</time></trkpt>
<trkpt lat="45.9987907409668" lon="7.17663240432739"><ele></ele><time>2013-8-4T19:27:34Z</time></trkpt>
<trkpt lat="45.9987602233887" lon="7.17664623260498"><ele></ele><time>2013-8-4T19:27:37Z</time></trkpt>
<trkpt lat="45.9987258911133" lon="7.1766619682312"><ele></ele><time>2013-8-4T19:27:40Z</time></trkpt>
<trkpt lat="45.9986953735352" lon="7.17667484283447"><ele></ele><time>2013-8-4T19:27:43Z</time></trkpt>
<trkpt lat="45.9986686706543" lon="7.17668724060059"><ele></ele><time>2013-8-4T19:27:46Z</time></trkpt>
<trkpt lat="45.9985160827637" lon="7.17676877975464"><ele></ele><time>2013-8-4T19:27:49Z</time></trkpt>
<trkpt lat="45.9984855651856" lon="7.17678451538086"><ele></ele><time>2013-8-4T19:27:52Z</time></trkpt>
<trkpt lat="45.9984588623047" lon="7.17679786682129"><ele></ele><time>2013-8-4T19:27:55Z</time></trkpt>
<trkpt lat="45.9984321594238" lon="7.17681217193604"><ele></ele><time>2013-8-4T19:27:58Z</time></trkpt>
<trkpt lat="45.9984092712402" lon="7.17682981491089"><ele></ele><time>2013-8-4T19:28:1Z</time></trkpt>
<trkpt lat="45.9983291625977" lon="7.17687845230102"><ele></ele><time>2013-8-4T19:28:4Z</time></trkpt>
<trkpt lat="45.9983024597168" lon="7.1768970489502"><ele></ele><time>2013-8-4T19:28:7Z</time></trkpt>
<trkpt lat="45.9982757568359" lon="7.17691707611084"><ele></ele><time>2013-8-4T19:28:10Z</time></trkpt>
<trkpt lat="45.9982528686523" lon="7.17694044113159"><ele></ele><time>2013-8-4T19:28:13Z</time></trkpt>
<trkpt lat="45.9982299804688" lon="7.17696952819824"><ele></ele><time>2013-8-4T19:28:16Z</time></trkpt>
<trkpt lat="45.9981842041016" lon="7.17703104019165"><ele></ele><time>2013-8-4T19:28:19Z</time></trkpt>
<trkpt lat="45.9981651306152" lon="7.1770658493042"><ele></ele><time>2013-8-4T19:28:22Z</time></trkpt>
<trkpt lat="45.9981498718262" lon="7.1771035194397"><ele></ele><time>2013-8-4T19:28:25Z</time></trkpt>
<trkpt lat="45.9981307983398" lon="7.17714595794678"><ele></ele><time>2013-8-4T19:28:28Z</time></trkpt>
<trkpt lat="45.9981002807617" lon="7.17721700668335"><ele></ele><time>2013-8-4T19:28:31Z</time></trkpt>
<trkpt lat="45.9980850219727" lon="7.17725372314453"><ele></ele><time>2013-8-4T19:28:34Z</time></trkpt>
<trkpt lat="45.9980697631836" lon="7.17729091644287"><ele></ele><time>2013-8-4T19:28:37Z</time></trkpt>
<trkpt lat="45.9980545043945" lon="7.17733001708984"><ele></ele><time>2013-8-4T19:28:40Z</time></trkpt>
<trkpt lat="45.9980354309082" lon="7.17736625671387"><ele></ele><time>2013-8-4T19:28:43Z</time></trkpt>
<trkpt lat="45.9979858398438" lon="7.17748260498047"><ele></ele><time>2013-8-4T19:28:46Z</time></trkpt>
<trkpt lat="45.9979705810547" lon="7.17752075195312"><ele></ele><time>2013-8-4T19:28:49Z</time></trkpt>
<trkpt lat="45.9979515075684" lon="7.17755699157715"><ele></ele><time>2013-8-4T19:28:52Z</time></trkpt>
<trkpt lat="45.9979019165039" lon="7.17767190933228"><ele></ele><time>2013-8-4T19:28:55Z</time></trkpt>
<trkpt lat="45.9978866577148" lon="7.17771196365356"><ele></ele><time>2013-8-4T19:28:58Z</time></trkpt>
<trkpt lat="45.9978675842285" lon="7.17775201797485"><ele></ele><time>2013-8-4T19:29:1Z</time></trkpt>
<trkpt lat="45.9978523254394" lon="7.17778968811035"><ele></ele><time>2013-8-4T19:29:4Z</time></trkpt>
<trkpt lat="45.9978294372559" lon="7.17782878875732"><ele></ele><time>2013-8-4T19:29:7Z</time></trkpt>
<trkpt lat="45.9977531433106" lon="7.17799043655396"><ele></ele><time>2013-8-4T19:29:10Z</time></trkpt>
<trkpt lat="45.997730255127" lon="7.17803001403809"><ele></ele><time>2013-8-4T19:29:13Z</time></trkpt>
<trkpt lat="45.9977111816406" lon="7.17807054519653"><ele></ele><time>2013-8-4T19:29:16Z</time></trkpt>
<trkpt lat="45.9976844787598" lon="7.1781063079834"><ele></ele><time>2013-8-4T19:29:19Z</time></trkpt>
<trkpt lat="45.9976577758789" lon="7.17814350128174"><ele></ele><time>2013-8-4T19:29:22Z</time></trkpt>
<trkpt lat="45.9975547790527" lon="7.1782717704773"><ele></ele><time>2013-8-4T19:29:25Z</time></trkpt>
<trkpt lat="45.9974937438965" lon="7.1783242225647"><ele></ele><time>2013-8-4T19:29:28Z</time></trkpt>
<trkpt lat="45.9973945617676" lon="7.17839050292969"><ele></ele><time>2013-8-4T19:29:31Z</time></trkpt>
<trkpt lat="45.9973564147949" lon="7.17840528488159"><ele></ele><time>2013-8-4T19:29:34Z</time></trkpt>
<trkpt lat="45.997314453125" lon="7.1784200668335"><ele></ele><time>2013-8-4T19:29:37Z</time></trkpt>
<trkpt lat="45.9972763061523" lon="7.17843103408814"><ele></ele><time>2013-8-4T19:29:40Z</time></trkpt>
<trkpt lat="45.9972343444824" lon="7.17843532562256"><ele></ele><time>2013-8-4T19:29:43Z</time></trkpt>
<trkpt lat="45.9971923828125" lon="7.17844009399414"><ele></ele><time>2013-8-4T19:29:46Z</time></trkpt>
<trkpt lat="45.9971504211426" lon="7.1784462928772"><ele></ele><time>2013-8-4T19:29:49Z</time></trkpt>
<trkpt lat="45.9971084594727" lon="7.17845058441162"><ele></ele><time>2013-8-4T19:29:52Z</time></trkpt>
<trkpt lat="45.9970626831055" lon="7.17845010757446"><ele></ele><time>2013-8-4T19:29:55Z</time></trkpt>
<trkpt lat="45.9970207214356" lon="7.17844581604004"><ele></ele><time>2013-8-4T19:29:58Z</time></trkpt>
<trkpt lat="45.9969711303711" lon="7.17843580245972"><ele></ele><time>2013-8-4T19:30:1Z</time></trkpt>
<trkpt lat="45.996883392334" lon="7.17839956283569"><ele></ele><time>2013-8-4T19:30:4Z</time></trkpt>
<trkpt lat="45.9967918395996" lon="7.17834901809692"><ele></ele><time>2013-8-4T19:30:7Z</time></trkpt>
<trkpt lat="45.9967498779297" lon="7.17831420898438"><ele></ele><time>2013-8-4T19:30:10Z</time></trkpt>
<trkpt lat="45.9967079162598" lon="7.17827653884888"><ele></ele><time>2013-8-4T19:30:13Z</time></trkpt>
<trkpt lat="45.9965858459473" lon="7.17815399169922"><ele></ele><time>2013-8-4T19:30:16Z</time></trkpt>
<trkpt lat="45.996337890625" lon="7.17784786224365"><ele></ele><time>2013-8-4T19:30:19Z</time></trkpt>
<trkpt lat="45.996265411377" lon="7.17775917053223"><ele></ele><time>2013-8-4T19:30:22Z</time></trkpt>
<trkpt lat="45.9962310791016" lon="7.17771911621094"><ele></ele><time>2013-8-4T19:30:25Z</time></trkpt>
<trkpt lat="45.9961929321289" lon="7.17768716812134"><ele></ele><time>2013-8-4T19:30:28Z</time></trkpt>
<trkpt lat="45.996150970459" lon="7.17766427993774"><ele></ele><time>2013-8-4T19:30:31Z</time></trkpt>
<trkpt lat="45.9961090087891" lon="7.17765474319458"><ele></ele><time>2013-8-4T19:30:34Z</time></trkpt>
<trkpt lat="45.9960632324219" lon="7.17766618728638"><ele></ele><time>2013-8-4T19:30:37Z</time></trkpt>
<trkpt lat="45.996021270752" lon="7.17769384384155"><ele></ele><time>2013-8-4T19:30:40Z</time></trkpt>
<trkpt lat="45.995979309082" lon="7.17773628234863"><ele></ele><time>2013-8-4T19:30:43Z</time></trkpt>
<trkpt lat="45.995922088623" lon="7.17784786224365"><ele></ele><time>2013-8-4T19:30:46Z</time></trkpt>
<trkpt lat="45.9958801269531" lon="7.17798280715942"><ele></ele><time>2013-8-4T19:30:49Z</time></trkpt>
<trkpt lat="45.9958572387695" lon="7.17804908752441"><ele></ele><time>2013-8-4T19:30:52Z</time></trkpt>
<trkpt lat="45.9957656860352" lon="7.1783037185669"><ele></ele><time>2013-8-4T19:30:55Z</time></trkpt>
<trkpt lat="45.9957237243652" lon="7.17842388153076"><ele></ele><time>2013-8-4T19:30:58Z</time></trkpt>
<trkpt lat="45.9957008361816" lon="7.17848491668701"><ele></ele><time>2013-8-4T19:31:1Z</time></trkpt>
<trkpt lat="45.995677947998" lon="7.17854642868042"><ele></ele><time>2013-8-4T19:31:4Z</time></trkpt>
<trkpt lat="45.9956550598144" lon="7.17860794067383"><ele></ele><time>2013-8-4T19:31:7Z</time></trkpt>
<trkpt lat="45.9956359863281" lon="7.17866611480713"><ele></ele><time>2013-8-4T19:31:10Z</time></trkpt>
<trkpt lat="45.9955596923828" lon="7.17889785766602"><ele></ele><time>2013-8-4T19:31:13Z</time></trkpt>
<trkpt lat="45.995418548584" lon="7.17929410934448"><ele></ele><time>2013-8-4T19:31:16Z</time></trkpt>
<trkpt lat="45.9954032897949" lon="7.17935371398926"><ele></ele><time>2013-8-4T19:31:19Z</time></trkpt>
<trkpt lat="45.9953842163086" lon="7.17941188812256"><ele></ele><time>2013-8-4T19:31:22Z</time></trkpt>
<trkpt lat="45.995361328125" lon="7.17946720123291"><ele></ele><time>2013-8-4T19:31:25Z</time></trkpt>
<trkpt lat="45.9953422546387" lon="7.1795220375061"><ele></ele><time>2013-8-4T19:31:28Z</time></trkpt>
<trkpt lat="45.9952545166016" lon="7.17973947525024"><ele></ele><time>2013-8-4T19:31:31Z</time></trkpt>
<trkpt lat="45.9949989318848" lon="7.18031597137451"><ele></ele><time>2013-8-4T19:31:34Z</time></trkpt>
<trkpt lat="45.9949684143066" lon="7.18037843704224"><ele></ele><time>2013-8-4T19:31:37Z</time></trkpt>
<trkpt lat="45.9949417114258" lon="7.18043613433838"><ele></ele><time>2013-8-4T19:31:40Z</time></trkpt>
<trkpt lat="45.9949150085449" lon="7.18049430847168"><ele></ele><time>2013-8-4T19:31:43Z</time></trkpt>
<trkpt lat="45.9948921203613" lon="7.18055200576782"><ele></ele><time>2013-8-4T19:31:46Z</time></trkpt>
<trkpt lat="45.9948425292969" lon="7.18066596984863"><ele></ele><time>2013-8-4T19:31:49Z</time></trkpt>
<trkpt lat="45.994815826416" lon="7.18072175979614"><ele></ele><time>2013-8-4T19:31:52Z</time></trkpt>
<trkpt lat="45.9946098327637" lon="7.18116998672485"><ele></ele><time>2013-8-4T19:31:55Z</time></trkpt>
<trkpt lat="45.9945106506348" lon="7.18139123916626"><ele></ele><time>2013-8-4T19:31:58Z</time></trkpt>
<trkpt lat="45.9944839477539" lon="7.18144655227661"><ele></ele><time>2013-8-4T19:32:1Z</time></trkpt>
<trkpt lat="45.9944610595703" lon="7.18150186538696"><ele></ele><time>2013-8-4T19:32:4Z</time></trkpt>
<trkpt lat="45.9944343566894" lon="7.18155717849732"><ele></ele><time>2013-8-4T19:32:7Z</time></trkpt>
<trkpt lat="45.9944114685059" lon="7.18161296844482"><ele></ele><time>2013-8-4T19:32:10Z</time></trkpt>
<trkpt lat="45.994384765625" lon="7.18166828155518"><ele></ele><time>2013-8-4T19:32:13Z</time></trkpt>
<trkpt lat="45.9943618774414" lon="7.1817216873169"><ele></ele><time>2013-8-4T19:32:16Z</time></trkpt>
<trkpt lat="45.9943389892578" lon="7.18177223205566"><ele></ele><time>2013-8-4T19:32:19Z</time></trkpt>
<trkpt lat="45.9943161010742" lon="7.18182420730591"><ele></ele><time>2013-8-4T19:32:22Z</time></trkpt>
<trkpt lat="45.9942474365234" lon="7.18196773529053"><ele></ele><time>2013-8-4T19:32:25Z</time></trkpt>
<trkpt lat="45.9942245483398" lon="7.1820182800293"><ele></ele><time>2013-8-4T19:32:28Z</time></trkpt>
<trkpt lat="45.9941825866699" lon="7.18211555480957"><ele></ele><time>2013-8-4T19:32:31Z</time></trkpt>
<trkpt lat="45.9941596984863" lon="7.18215799331665"><ele></ele><time>2013-8-4T19:32:34Z</time></trkpt>
<trkpt lat="45.994140625" lon="7.18220376968384"><ele></ele><time>2013-8-4T19:32:37Z</time></trkpt>
<trkpt lat="45.9941215515137" lon="7.18224430084228"><ele></ele><time>2013-8-4T19:32:40Z</time></trkpt>
<trkpt lat="45.9941024780273" lon="7.18228626251221"><ele></ele><time>2013-8-4T19:32:43Z</time></trkpt>
<trkpt lat="45.9940185546875" lon="7.18244409561157"><ele></ele><time>2013-8-4T19:32:46Z</time></trkpt>
<trkpt lat="45.9939994812012" lon="7.18248462677002"><ele></ele><time>2013-8-4T19:32:49Z</time></trkpt>
<trkpt lat="45.9939804077148" lon="7.18252611160278"><ele></ele><time>2013-8-4T19:32:52Z</time></trkpt>
<trkpt lat="45.9939613342285" lon="7.18256616592407"><ele></ele><time>2013-8-4T19:32:55Z</time></trkpt>
<trkpt lat="45.9939422607422" lon="7.18260669708252"><ele></ele><time>2013-8-4T19:32:58Z</time></trkpt>
<trkpt lat="45.9939231872559" lon="7.18264865875244"><ele></ele><time>2013-8-4T19:33:1Z</time></trkpt>
<trkpt lat="45.9939079284668" lon="7.18269300460815"><ele></ele><time>2013-8-4T19:33:4Z</time></trkpt>
<trkpt lat="45.9938926696777" lon="7.18273496627808"><ele></ele><time>2013-8-4T19:33:7Z</time></trkpt>
<trkpt lat="45.9938507080078" lon="7.18285417556763"><ele></ele><time>2013-8-4T19:33:10Z</time></trkpt>
<trkpt lat="45.9938316345215" lon="7.18289136886597"><ele></ele><time>2013-8-4T19:33:13Z</time></trkpt>
<trkpt lat="45.9938163757324" lon="7.18292999267578"><ele></ele><time>2013-8-4T19:33:16Z</time></trkpt>
<trkpt lat="45.9938011169434" lon="7.18297290802002"><ele></ele><time>2013-8-4T19:33:19Z</time></trkpt>
<trkpt lat="45.9937858581543" lon="7.18301343917847"><ele></ele><time>2013-8-4T19:33:22Z</time></trkpt>
<trkpt lat="45.9937705993652" lon="7.18305253982544"><ele></ele><time>2013-8-4T19:33:25Z</time></trkpt>
<trkpt lat="45.9937171936035" lon="7.18317747116089"><ele></ele><time>2013-8-4T19:33:28Z</time></trkpt>
<trkpt lat="45.9936370849609" lon="7.18332815170288"><ele></ele><time>2013-8-4T19:33:31Z</time></trkpt>
<trkpt lat="45.9936180114746" lon="7.18336534500122"><ele></ele><time>2013-8-4T19:33:34Z</time></trkpt>
<trkpt lat="45.9935989379883" lon="7.18340635299683"><ele></ele><time>2013-8-4T19:33:37Z</time></trkpt>
<trkpt lat="45.9935760498047" lon="7.18344640731812"><ele></ele><time>2013-8-4T19:33:40Z</time></trkpt>
<trkpt lat="45.9935531616211" lon="7.18348503112793"><ele></ele><time>2013-8-4T19:33:43Z</time></trkpt>
<trkpt lat="45.9933853149414" lon="7.18370866775513"><ele></ele><time>2013-8-4T19:33:46Z</time></trkpt>
<trkpt lat="45.9933586120606" lon="7.18373107910156"><ele></ele><time>2013-8-4T19:33:49Z</time></trkpt>
<trkpt lat="45.9933319091797" lon="7.18375301361084"><ele></ele><time>2013-8-4T19:33:52Z</time></trkpt>
<trkpt lat="45.9933052062988" lon="7.18377494812012"><ele></ele><time>2013-8-4T19:33:55Z</time></trkpt>
<trkpt lat="45.9931869506836" lon="7.18384599685669"><ele></ele><time>2013-8-4T19:33:58Z</time></trkpt>
<trkpt lat="45.9931259155273" lon="7.18387413024902"><ele></ele><time>2013-8-4T19:34:1Z</time></trkpt>
<trkpt lat="45.9930953979492" lon="7.18388843536377"><ele></ele><time>2013-8-4T19:34:4Z</time></trkpt>
<trkpt lat="45.9930381774902" lon="7.18392276763916"><ele></ele><time>2013-8-4T19:34:7Z</time></trkpt>
<trkpt lat="45.9930076599121" lon="7.1839394569397"><ele></ele><time>2013-8-4T19:34:10Z</time></trkpt>
<trkpt lat="45.992977142334" lon="7.18395566940308"><ele></ele><time>2013-8-4T19:34:13Z</time></trkpt>
<trkpt lat="45.9929428100586" lon="7.18397426605225"><ele></ele><time>2013-8-4T19:34:16Z</time></trkpt>
<trkpt lat="45.9929122924805" lon="7.18399095535278"><ele></ele><time>2013-8-4T19:34:19Z</time></trkpt>
<trkpt lat="45.9926910400391" lon="7.18410921096802"><ele></ele><time>2013-8-4T19:34:22Z</time></trkpt>
<trkpt lat="45.9926567077637" lon="7.18412733078003"><ele></ele><time>2013-8-4T19:34:25Z</time></trkpt>
<trkpt lat="45.9926261901856" lon="7.18415069580078"><ele></ele><time>2013-8-4T19:34:28Z</time></trkpt>
<trkpt lat="45.9925918579102" lon="7.18417024612427"><ele></ele><time>2013-8-4T19:34:31Z</time></trkpt>
<trkpt lat="45.9923400878906" lon="7.18427038192749"><ele></ele><time>2013-8-4T19:34:34Z</time></trkpt>
<trkpt lat="45.9922294616699" lon="7.18428373336792"><ele></ele><time>2013-8-4T19:34:37Z</time></trkpt>
<trkpt lat="45.9921913146973" lon="7.18427896499634"><ele></ele><time>2013-8-4T19:34:40Z</time></trkpt>
<trkpt lat="45.9921569824219" lon="7.18427610397339"><ele></ele><time>2013-8-4T19:34:43Z</time></trkpt>
<trkpt lat="45.9921188354492" lon="7.18427276611328"><ele></ele><time>2013-8-4T19:34:46Z</time></trkpt>
<trkpt lat="45.9920845031738" lon="7.18426418304443"><ele></ele><time>2013-8-4T19:34:49Z</time></trkpt>
<trkpt lat="45.9919242858887" lon="7.18420600891113"><ele></ele><time>2013-8-4T19:34:52Z</time></trkpt>
<trkpt lat="45.991828918457" lon="7.18416881561279"><ele></ele><time>2013-8-4T19:34:55Z</time></trkpt>
<trkpt lat="45.9917945861816" lon="7.18415451049805"><ele></ele><time>2013-8-4T19:34:58Z</time></trkpt>
<trkpt lat="45.9917602539062" lon="7.18414211273193"><ele></ele><time>2013-8-4T19:35:1Z</time></trkpt>
<trkpt lat="45.9917259216309" lon="7.18412971496582"><ele></ele><time>2013-8-4T19:35:4Z</time></trkpt>
<trkpt lat="45.9916915893555" lon="7.18411540985107"><ele></ele><time>2013-8-4T19:35:7Z</time></trkpt>
<trkpt lat="45.9915962219238" lon="7.18407487869263"><ele></ele><time>2013-8-4T19:35:10Z</time></trkpt>
<trkpt lat="45.9915657043457" lon="7.18406057357788"><ele></ele><time>2013-8-4T19:35:13Z</time></trkpt>
<trkpt lat="45.9915351867676" lon="7.18404626846314"><ele></ele><time>2013-8-4T19:35:16Z</time></trkpt>
<trkpt lat="45.9915008544922" lon="7.1840329170227"><ele></ele><time>2013-8-4T19:35:19Z</time></trkpt>
<trkpt lat="45.9914703369141" lon="7.18401861190796"><ele></ele><time>2013-8-4T19:35:22Z</time></trkpt>
<trkpt lat="45.9914360046387" lon="7.18400573730469"><ele></ele><time>2013-8-4T19:35:25Z</time></trkpt>
<trkpt lat="45.9911842346191" lon="7.18392658233643"><ele></ele><time>2013-8-4T19:35:28Z</time></trkpt>
<trkpt lat="45.991153717041" lon="7.18392419815064"><ele></ele><time>2013-8-4T19:35:31Z</time></trkpt>
<trkpt lat="45.9911193847656" lon="7.18392610549927"><ele></ele><time>2013-8-4T19:35:34Z</time></trkpt>
<trkpt lat="45.9910850524902" lon="7.18393182754517"><ele></ele><time>2013-8-4T19:35:37Z</time></trkpt>
<trkpt lat="45.9910507202148" lon="7.1839427947998"><ele></ele><time>2013-8-4T19:35:40Z</time></trkpt>
<trkpt lat="45.9909515380859" lon="7.18399620056152"><ele></ele><time>2013-8-4T19:35:43Z</time></trkpt>
<trkpt lat="45.9908103942871" lon="7.18415355682373"><ele></ele><time>2013-8-4T19:35:46Z</time></trkpt>
<trkpt lat="45.9907836914062" lon="7.18419313430786"><ele></ele><time>2013-8-4T19:35:49Z</time></trkpt>
<trkpt lat="45.9907608032227" lon="7.18423414230347"><ele></ele><time>2013-8-4T19:35:52Z</time></trkpt>
<trkpt lat="45.9907379150391" lon="7.18427658081055"><ele></ele><time>2013-8-4T19:35:55Z</time></trkpt>
<trkpt lat="45.9907188415527" lon="7.18432092666626"><ele></ele><time>2013-8-4T19:35:58Z</time></trkpt>
<trkpt lat="45.9906311035156" lon="7.18457365036011"><ele></ele><time>2013-8-4T19:36:1Z</time></trkpt>
<trkpt lat="45.9905624389648" lon="7.18479299545288"><ele></ele><time>2013-8-4T19:36:4Z</time></trkpt>
<trkpt lat="45.9904861450195" lon="7.18502855300903"><ele></ele><time>2013-8-4T19:36:7Z</time></trkpt>
<trkpt lat="45.990406036377" lon="7.18529224395752"><ele></ele><time>2013-8-4T19:36:10Z</time></trkpt>
<trkpt lat="45.9903869628906" lon="7.1853404045105"><ele></ele><time>2013-8-4T19:36:13Z</time></trkpt>
<trkpt lat="45.9903755187988" lon="7.18538427352905"><ele></ele><time>2013-8-4T19:36:16Z</time></trkpt>
<trkpt lat="45.9903602600098" lon="7.18542623519898"><ele></ele><time>2013-8-4T19:36:19Z</time></trkpt>
<trkpt lat="45.9903450012207" lon="7.1854658126831"><ele></ele><time>2013-8-4T19:36:22Z</time></trkpt>
<trkpt lat="45.9903297424316" lon="7.18550491333008"><ele></ele><time>2013-8-4T19:36:25Z</time></trkpt>
<trkpt lat="45.9902496337891" lon="7.18565368652344"><ele></ele><time>2013-8-4T19:36:28Z</time></trkpt>
<trkpt lat="45.9902267456055" lon="7.18569040298462"><ele></ele><time>2013-8-4T19:36:31Z</time></trkpt>
<trkpt lat="45.9902038574219" lon="7.18572854995728"><ele></ele><time>2013-8-4T19:36:34Z</time></trkpt>
<trkpt lat="45.9901847839356" lon="7.18576765060425"><ele></ele><time>2013-8-4T19:36:37Z</time></trkpt>
<trkpt lat="45.990161895752" lon="7.1858024597168"><ele></ele><time>2013-8-4T19:36:40Z</time></trkpt>
<trkpt lat="45.9900932312012" lon="7.18590259552002"><ele></ele><time>2013-8-4T19:36:43Z</time></trkpt>
<trkpt lat="45.9900703430176" lon="7.1859278678894"><ele></ele><time>2013-8-4T19:36:46Z</time></trkpt>
<trkpt lat="45.9900398254394" lon="7.18595266342163"><ele></ele><time>2013-8-4T19:36:49Z</time></trkpt>
<trkpt lat="45.9900131225586" lon="7.18597173690796"><ele></ele><time>2013-8-4T19:36:52Z</time></trkpt>
<trkpt lat="45.9899826049805" lon="7.18599128723144"><ele></ele><time>2013-8-4T19:36:55Z</time></trkpt>
<trkpt lat="45.9899291992188" lon="7.18602275848389"><ele></ele><time>2013-8-4T19:36:58Z</time></trkpt>
<trkpt lat="45.9899063110352" lon="7.18603944778442"><ele></ele><time>2013-8-4T19:37:1Z</time></trkpt>
<trkpt lat="45.9898834228516" lon="7.18605661392212"><ele></ele><time>2013-8-4T19:37:4Z</time></trkpt>
<trkpt lat="45.9898567199707" lon="7.18607521057129"><ele></ele><time>2013-8-4T19:37:7Z</time></trkpt>
<trkpt lat="45.9898300170898" lon="7.1860933303833"><ele></ele><time>2013-8-4T19:37:10Z</time></trkpt>
<trkpt lat="45.9897117614746" lon="7.18619012832642"><ele></ele><time>2013-8-4T19:37:13Z</time></trkpt>
<trkpt lat="45.9896850585938" lon="7.18621349334717"><ele></ele><time>2013-8-4T19:37:16Z</time></trkpt>
<trkpt lat="45.9896583557129" lon="7.18623685836792"><ele></ele><time>2013-8-4T19:37:19Z</time></trkpt>
<trkpt lat="45.9896354675293" lon="7.18625402450562"><ele></ele><time>2013-8-4T19:37:22Z</time></trkpt>
<trkpt lat="45.9896125793457" lon="7.18627452850342"><ele></ele><time>2013-8-4T19:37:25Z</time></trkpt>
<trkpt lat="45.9895439147949" lon="7.1863431930542"><ele></ele><time>2013-8-4T19:37:28Z</time></trkpt>
<trkpt lat="45.9895210266113" lon="7.186363697052"><ele></ele><time>2013-8-4T19:37:31Z</time></trkpt>
<trkpt lat="45.9894981384277" lon="7.18638277053833"><ele></ele><time>2013-8-4T19:37:34Z</time></trkpt>
<trkpt lat="45.9894752502441" lon="7.18639945983887"><ele></ele><time>2013-8-4T19:37:37Z</time></trkpt>
<trkpt lat="45.9894523620606" lon="7.18642091751099"><ele></ele><time>2013-8-4T19:37:40Z</time></trkpt>
<trkpt lat="45.989429473877" lon="7.18643808364868"><ele></ele><time>2013-8-4T19:37:43Z</time></trkpt>
<trkpt lat="45.9893836975098" lon="7.18647623062134"><ele></ele><time>2013-8-4T19:37:46Z</time></trkpt>
<trkpt lat="45.9892997741699" lon="7.18655014038086"><ele></ele><time>2013-8-4T19:37:49Z</time></trkpt>
<trkpt lat="45.9892768859863" lon="7.18657302856445"><ele></ele><time>2013-8-4T19:37:52Z</time></trkpt>
<trkpt lat="45.9892539978027" lon="7.18659210205078"><ele></ele><time>2013-8-4T19:37:55Z</time></trkpt>
<trkpt lat="45.9892311096191" lon="7.18661117553711"><ele></ele><time>2013-8-4T19:37:58Z</time></trkpt>
<trkpt lat="45.9892082214356" lon="7.1866307258606"><ele></ele><time>2013-8-4T19:38:1Z</time></trkpt>
<trkpt lat="45.9890975952148" lon="7.18672370910644"><ele></ele><time>2013-8-4T19:38:4Z</time></trkpt>
<trkpt lat="45.9890785217285" lon="7.18674278259277"><ele></ele><time>2013-8-4T19:38:7Z</time></trkpt>
<trkpt lat="45.9890556335449" lon="7.18676328659058"><ele></ele><time>2013-8-4T19:38:10Z</time></trkpt>
<trkpt lat="45.9890327453613" lon="7.18678092956543"><ele></ele><time>2013-8-4T19:38:13Z</time></trkpt>
<trkpt lat="45.9890098571777" lon="7.18680238723755"><ele></ele><time>2013-8-4T19:38:16Z</time></trkpt>
<trkpt lat="45.9889030456543" lon="7.18688631057739"><ele></ele><time>2013-8-4T19:38:19Z</time></trkpt>
<trkpt lat="45.988883972168" lon="7.18690395355225"><ele></ele><time>2013-8-4T19:38:22Z</time></trkpt>
<trkpt lat="45.9888610839844" lon="7.18692493438721"><ele></ele><time>2013-8-4T19:38:25Z</time></trkpt>
<trkpt lat="45.9888381958008" lon="7.18694591522217"><ele></ele><time>2013-8-4T19:38:28Z</time></trkpt>
<trkpt lat="45.9888153076172" lon="7.18696594238281"><ele></ele><time>2013-8-4T19:38:31Z</time></trkpt>
<trkpt lat="45.988712310791" lon="7.18705701828003"><ele></ele><time>2013-8-4T19:38:34Z</time></trkpt>
<trkpt lat="45.9886932373047" lon="7.18707847595215"><ele></ele><time>2013-8-4T19:38:37Z</time></trkpt>
<trkpt lat="45.9886703491211" lon="7.18710327148438"><ele></ele><time>2013-8-4T19:38:40Z</time></trkpt>
<trkpt lat="45.9886512756348" lon="7.18712759017944"><ele></ele><time>2013-8-4T19:38:43Z</time></trkpt>
<trkpt lat="45.9886360168457" lon="7.18715000152588"><ele></ele><time>2013-8-4T19:38:46Z</time></trkpt>
<trkpt lat="45.9885711669922" lon="7.18724632263184"><ele></ele><time>2013-8-4T19:38:49Z</time></trkpt>
<trkpt lat="45.9885406494141" lon="7.18730020523071"><ele></ele><time>2013-8-4T19:38:52Z</time></trkpt>
<trkpt lat="45.988525390625" lon="7.18732976913452"><ele></ele><time>2013-8-4T19:38:55Z</time></trkpt>
<trkpt lat="45.9885063171387" lon="7.18736124038696"><ele></ele><time>2013-8-4T19:38:58Z</time></trkpt>
<trkpt lat="45.9884872436523" lon="7.18739318847656"><ele></ele><time>2013-8-4T19:39:1Z</time></trkpt>
<trkpt lat="45.9884719848633" lon="7.18742418289185"><ele></ele><time>2013-8-4T19:39:4Z</time></trkpt>
<trkpt lat="45.988452911377" lon="7.18745517730713"><ele></ele><time>2013-8-4T19:39:7Z</time></trkpt>
<trkpt lat="45.9883728027344" lon="7.1876072883606"><ele></ele><time>2013-8-4T19:39:10Z</time></trkpt>
<trkpt lat="45.9883575439453" lon="7.18763637542725"><ele></ele><time>2013-8-4T19:39:13Z</time></trkpt>
<trkpt lat="45.9883422851562" lon="7.18766355514526"><ele></ele><time>2013-8-4T19:39:16Z</time></trkpt>
<trkpt lat="45.9883232116699" lon="7.18768978118896"><ele></ele><time>2013-8-4T19:39:19Z</time></trkpt>
<trkpt lat="45.9883041381836" lon="7.18771457672119"><ele></ele><time>2013-8-4T19:39:22Z</time></trkpt>
<trkpt lat="45.9881744384766" lon="7.18788719177246"><ele></ele><time>2013-8-4T19:39:25Z</time></trkpt>
<trkpt lat="45.9881553649902" lon="7.18790817260742"><ele></ele><time>2013-8-4T19:39:28Z</time></trkpt>
<trkpt lat="45.9881362915039" lon="7.18792819976807"><ele></ele><time>2013-8-4T19:39:31Z</time></trkpt>
<trkpt lat="45.9881172180176" lon="7.18795108795166"><ele></ele><time>2013-8-4T19:39:34Z</time></trkpt>
<trkpt lat="45.9880981445312" lon="7.1879734992981"><ele></ele><time>2013-8-4T19:39:37Z</time></trkpt>
<trkpt lat="45.9879837036133" lon="7.18806648254394"><ele></ele><time>2013-8-4T19:39:40Z</time></trkpt>
<trkpt lat="45.9879608154297" lon="7.18808221817017"><ele></ele><time>2013-8-4T19:39:43Z</time></trkpt>
<trkpt lat="45.9879417419434" lon="7.18809652328491"><ele></ele><time>2013-8-4T19:39:46Z</time></trkpt>
<trkpt lat="45.987922668457" lon="7.18811464309692"><ele></ele><time>2013-8-4T19:39:49Z</time></trkpt>
<trkpt lat="45.9878997802734" lon="7.18813228607178"><ele></ele><time>2013-8-4T19:39:52Z</time></trkpt>
<trkpt lat="45.9878768920898" lon="7.18815088272095"><ele></ele><time>2013-8-4T19:39:55Z</time></trkpt>
<trkpt lat="45.9877738952637" lon="7.18823957443237"><ele></ele><time>2013-8-4T19:39:58Z</time></trkpt>
<trkpt lat="45.9877510070801" lon="7.18825340270996"><ele></ele><time>2013-8-4T19:40:1Z</time></trkpt>
<trkpt lat="45.9877281188965" lon="7.18827247619629"><ele></ele><time>2013-8-4T19:40:4Z</time></trkpt>
<trkpt lat="45.9877052307129" lon="7.18828773498535"><ele></ele><time>2013-8-4T19:40:7Z</time></trkpt>
<trkpt lat="45.9876861572266" lon="7.18831205368042"><ele></ele><time>2013-8-4T19:40:10Z</time></trkpt>
<trkpt lat="45.9876403808594" lon="7.18835258483887"><ele></ele><time>2013-8-4T19:40:13Z</time></trkpt>
<trkpt lat="45.9875297546387" lon="7.18843793869018"><ele></ele><time>2013-8-4T19:40:16Z</time></trkpt>
<trkpt lat="45.9875106811523" lon="7.18845653533936"><ele></ele><time>2013-8-4T19:40:19Z</time></trkpt>
<trkpt lat="45.9874839782715" lon="7.18847465515137"><ele></ele><time>2013-8-4T19:40:22Z</time></trkpt>
<trkpt lat="45.9874649047852" lon="7.1884937286377"><ele></ele><time>2013-8-4T19:40:25Z</time></trkpt>
<trkpt lat="45.9874420166016" lon="7.18851137161255"><ele></ele><time>2013-8-4T19:40:28Z</time></trkpt>
<trkpt lat="45.9874000549316" lon="7.18855142593384"><ele></ele><time>2013-8-4T19:40:31Z</time></trkpt>
<trkpt lat="45.987377166748" lon="7.18857097625732"><ele></ele><time>2013-8-4T19:40:34Z</time></trkpt>
<trkpt lat="45.9873313903809" lon="7.18860960006714"><ele></ele><time>2013-8-4T19:40:37Z</time></trkpt>
<trkpt lat="45.9873123168945" lon="7.18863105773926"><ele></ele><time>2013-8-4T19:40:40Z</time></trkpt>
<trkpt lat="45.9872894287109" lon="7.18865156173706"><ele></ele><time>2013-8-4T19:40:43Z</time></trkpt>
<trkpt lat="45.9872703552246" lon="7.18867301940918"><ele></ele><time>2013-8-4T19:40:46Z</time></trkpt>
<trkpt lat="45.9871711730957" lon="7.18878316879272"><ele></ele><time>2013-8-4T19:40:49Z</time></trkpt>
<trkpt lat="45.9871520996094" lon="7.18880701065064"><ele></ele><time>2013-8-4T19:40:52Z</time></trkpt>
<trkpt lat="45.9871368408203" lon="7.18882846832275"><ele></ele><time>2013-8-4T19:40:55Z</time></trkpt>
<trkpt lat="45.987117767334" lon="7.18885326385498"><ele></ele><time>2013-8-4T19:40:58Z</time></trkpt>
<trkpt lat="45.9871025085449" lon="7.18887853622436"><ele></ele><time>2013-8-4T19:41:1Z</time></trkpt>
<trkpt lat="45.9870300292969" lon="7.18898057937622"><ele></ele><time>2013-8-4T19:41:4Z</time></trkpt>
<trkpt lat="45.9870147705078" lon="7.18901109695435"><ele></ele><time>2013-8-4T19:41:7Z</time></trkpt>
<trkpt lat="45.9869918823242" lon="7.18903923034668"><ele></ele><time>2013-8-4T19:41:10Z</time></trkpt>
<trkpt lat="45.9869689941406" lon="7.18906831741333"><ele></ele><time>2013-8-4T19:41:13Z</time></trkpt>
<trkpt lat="45.9869499206543" lon="7.18909502029419"><ele></ele><time>2013-8-4T19:41:16Z</time></trkpt>
<trkpt lat="45.9868431091309" lon="7.1892466545105"><ele></ele><time>2013-8-4T19:41:19Z</time></trkpt>
<trkpt lat="45.9868011474609" lon="7.1893367767334"><ele></ele><time>2013-8-4T19:41:22Z</time></trkpt>
<trkpt lat="45.9867820739746" lon="7.18936443328857"><ele></ele><time>2013-8-4T19:41:25Z</time></trkpt>
<trkpt lat="45.9867630004883" lon="7.18938970565796"><ele></ele><time>2013-8-4T19:41:28Z</time></trkpt>
<trkpt lat="45.986743927002" lon="7.18941497802734"><ele></ele><time>2013-8-4T19:41:31Z</time></trkpt>
<trkpt lat="45.9867286682129" lon="7.18943881988525"><ele></ele><time>2013-8-4T19:41:34Z</time></trkpt>
<trkpt lat="45.9867134094238" lon="7.18946075439453"><ele></ele><time>2013-8-4T19:41:37Z</time></trkpt>
<trkpt lat="45.9865875244141" lon="7.1896390914917"><ele></ele><time>2013-8-4T19:41:40Z</time></trkpt>
<trkpt lat="45.9865646362305" lon="7.18966197967529"><ele></ele><time>2013-8-4T19:41:43Z</time></trkpt>
<trkpt lat="45.9865455627441" lon="7.18968343734741"><ele></ele><time>2013-8-4T19:41:46Z</time></trkpt>
<trkpt lat="45.9865303039551" lon="7.18970680236816"><ele></ele><time>2013-8-4T19:41:49Z</time></trkpt>
<trkpt lat="45.9865112304688" lon="7.18973350524902"><ele></ele><time>2013-8-4T19:41:52Z</time></trkpt>
<trkpt lat="45.9863891601562" lon="7.18987274169922"><ele></ele><time>2013-8-4T19:41:55Z</time></trkpt>
<trkpt lat="45.9863662719727" lon="7.18989181518555"><ele></ele><time>2013-8-4T19:41:58Z</time></trkpt>
<trkpt lat="45.9863433837891" lon="7.18991041183472"><ele></ele><time>2013-8-4T19:42:1Z</time></trkpt>
<trkpt lat="45.9863166809082" lon="7.18992948532104"><ele></ele><time>2013-8-4T19:42:4Z</time></trkpt>
<trkpt lat="45.9862899780273" lon="7.18994665145874"><ele></ele><time>2013-8-4T19:42:7Z</time></trkpt>
<trkpt lat="45.9862213134766" lon="7.19000244140625"><ele></ele><time>2013-8-4T19:42:10Z</time></trkpt>
<trkpt lat="45.9861526489258" lon="7.19004678726196"><ele></ele><time>2013-8-4T19:42:13Z</time></trkpt>
<trkpt lat="45.9861297607422" lon="7.19006204605102"><ele></ele><time>2013-8-4T19:42:16Z</time></trkpt>
<trkpt lat="45.9861030578613" lon="7.19007730484009"><ele></ele><time>2013-8-4T19:42:19Z</time></trkpt>
<trkpt lat="45.9860801696777" lon="7.19009304046631"><ele></ele><time>2013-8-4T19:42:22Z</time></trkpt>
<trkpt lat="45.9860496520996" lon="7.19010734558106"><ele></ele><time>2013-8-4T19:42:25Z</time></trkpt>
<trkpt lat="45.9860229492188" lon="7.19012308120728"><ele></ele><time>2013-8-4T19:42:28Z</time></trkpt>
<trkpt lat="45.9859008789062" lon="7.19021511077881"><ele></ele><time>2013-8-4T19:42:31Z</time></trkpt>
<trkpt lat="45.9858741760254" lon="7.19022846221924"><ele></ele><time>2013-8-4T19:42:34Z</time></trkpt>
<trkpt lat="45.9858512878418" lon="7.19024181365967"><ele></ele><time>2013-8-4T19:42:37Z</time></trkpt>
<trkpt lat="45.9858283996582" lon="7.19025707244873"><ele></ele><time>2013-8-4T19:42:40Z</time></trkpt>
<trkpt lat="45.9857330322266" lon="7.1903223991394"><ele></ele><time>2013-8-4T19:42:43Z</time></trkpt>
<trkpt lat="45.985668182373" lon="7.19037675857544"><ele></ele><time>2013-8-4T19:42:46Z</time></trkpt>
<trkpt lat="45.9856414794922" lon="7.19039297103882"><ele></ele><time>2013-8-4T19:42:49Z</time></trkpt>
<trkpt lat="45.9856185913086" lon="7.19040584564209"><ele></ele><time>2013-8-4T19:42:52Z</time></trkpt>
<trkpt lat="45.985595703125" lon="7.19042062759399"><ele></ele><time>2013-8-4T19:42:55Z</time></trkpt>
<trkpt lat="45.9855651855469" lon="7.19043874740601"><ele></ele><time>2013-8-4T19:42:58Z</time></trkpt>
<trkpt lat="45.9854011535644" lon="7.19056081771851"><ele></ele><time>2013-8-4T19:43:1Z</time></trkpt>
<trkpt lat="45.9853744506836" lon="7.19057893753052"><ele></ele><time>2013-8-4T19:43:4Z</time></trkpt>
<trkpt lat="45.9853477478027" lon="7.19059610366821"><ele></ele><time>2013-8-4T19:43:7Z</time></trkpt>
<trkpt lat="45.9853210449219" lon="7.19061326980591"><ele></ele><time>2013-8-4T19:43:10Z</time></trkpt>
<trkpt lat="45.985294342041" lon="7.19063138961792"><ele></ele><time>2013-8-4T19:43:13Z</time></trkpt>
<trkpt lat="45.9852104187012" lon="7.19069051742554"><ele></ele><time>2013-8-4T19:43:16Z</time></trkpt>
<trkpt lat="45.9851837158203" lon="7.19071340560913"><ele></ele><time>2013-8-4T19:43:19Z</time></trkpt>
<trkpt lat="45.9851608276367" lon="7.19073295593262"><ele></ele><time>2013-8-4T19:43:22Z</time></trkpt>
<trkpt lat="45.9851341247559" lon="7.1907525062561"><ele></ele><time>2013-8-4T19:43:25Z</time></trkpt>
<trkpt lat="45.9851112365723" lon="7.19076824188232"><ele></ele><time>2013-8-4T19:43:28Z</time></trkpt>
<trkpt lat="45.9850883483887" lon="7.19078540802002"><ele></ele><time>2013-8-4T19:43:31Z</time></trkpt>
<trkpt lat="45.9850082397461" lon="7.19083642959595"><ele></ele><time>2013-8-4T19:43:34Z</time></trkpt>
<trkpt lat="45.9849052429199" lon="7.19091415405274"><ele></ele><time>2013-8-4T19:43:37Z</time></trkpt>
<trkpt lat="45.9848823547363" lon="7.19093322753906"><ele></ele><time>2013-8-4T19:43:40Z</time></trkpt>
<trkpt lat="45.9848556518555" lon="7.19095516204834"><ele></ele><time>2013-8-4T19:43:43Z</time></trkpt>
<trkpt lat="45.9848365783691" lon="7.19097280502319"><ele></ele><time>2013-8-4T19:43:46Z</time></trkpt>
<trkpt lat="45.9848136901856" lon="7.19099426269531"><ele></ele><time>2013-8-4T19:43:49Z</time></trkpt>
<trkpt lat="45.9847145080566" lon="7.19108629226685"><ele></ele><time>2013-8-4T19:43:52Z</time></trkpt>
<trkpt lat="45.9846954345703" lon="7.1911096572876"><ele></ele><time>2013-8-4T19:43:55Z</time></trkpt>
<trkpt lat="45.9846725463867" lon="7.1911358833313"><ele></ele><time>2013-8-4T19:43:58Z</time></trkpt>
<trkpt lat="45.9846496582031" lon="7.19116115570068"><ele></ele><time>2013-8-4T19:44:1Z</time></trkpt>
<trkpt lat="45.9846305847168" lon="7.19118595123291"><ele></ele><time>2013-8-4T19:44:4Z</time></trkpt>
<trkpt lat="45.9844856262207" lon="7.19136381149292"><ele></ele><time>2013-8-4T19:44:7Z</time></trkpt>
<trkpt lat="45.9844665527344" lon="7.19139194488525"><ele></ele><time>2013-8-4T19:44:10Z</time></trkpt>
<trkpt lat="45.984447479248" lon="7.19142198562622"><ele></ele><time>2013-8-4T19:44:13Z</time></trkpt>
<trkpt lat="45.9844284057617" lon="7.19145631790161"><ele></ele><time>2013-8-4T19:44:16Z</time></trkpt>
<trkpt lat="45.9844131469727" lon="7.19148349761963"><ele></ele><time>2013-8-4T19:44:19Z</time></trkpt>
<trkpt lat="45.9843406677246" lon="7.19159841537476"><ele></ele><time>2013-8-4T19:44:22Z</time></trkpt>
<trkpt lat="45.9843063354492" lon="7.19166088104248"><ele></ele><time>2013-8-4T19:44:25Z</time></trkpt>
<trkpt lat="45.9842872619629" lon="7.19169616699219"><ele></ele><time>2013-8-4T19:44:28Z</time></trkpt>
<trkpt lat="45.9842720031738" lon="7.19172859191894"><ele></ele><time>2013-8-4T19:44:31Z</time></trkpt>
<trkpt lat="45.9842529296875" lon="7.19176197052002"><ele></ele><time>2013-8-4T19:44:34Z</time></trkpt>
<trkpt lat="45.9842338562012" lon="7.19179487228394"><ele></ele><time>2013-8-4T19:44:37Z</time></trkpt>
<trkpt lat="45.984203338623" lon="7.19186115264893"><ele></ele><time>2013-8-4T19:44:40Z</time></trkpt>
<trkpt lat="45.9841117858887" lon="7.19207382202148"><ele></ele><time>2013-8-4T19:44:43Z</time></trkpt>
<trkpt lat="45.9840965270996" lon="7.19210815429688"><ele></ele><time>2013-8-4T19:44:46Z</time></trkpt>
<trkpt lat="45.9840774536133" lon="7.19214487075806"><ele></ele><time>2013-8-4T19:44:49Z</time></trkpt>
<trkpt lat="45.9840621948242" lon="7.19218158721924"><ele></ele><time>2013-8-4T19:44:52Z</time></trkpt>
<trkpt lat="45.9840431213379" lon="7.19221687316894"><ele></ele><time>2013-8-4T19:44:55Z</time></trkpt>
<trkpt lat="45.9839515686035" lon="7.19243144989014"><ele></ele><time>2013-8-4T19:44:58Z</time></trkpt>
<trkpt lat="45.9839210510254" lon="7.19250869750976"><ele></ele><time>2013-8-4T19:45:1Z</time></trkpt>
<trkpt lat="45.9839019775391" lon="7.19254541397095"><ele></ele><time>2013-8-4T19:45:4Z</time></trkpt>
<trkpt lat="45.98388671875" lon="7.19257974624634"><ele></ele><time>2013-8-4T19:45:7Z</time></trkpt>
<trkpt lat="45.9838714599609" lon="7.19261074066162"><ele></ele><time>2013-8-4T19:45:10Z</time></trkpt>
<trkpt lat="45.9838562011719" lon="7.1926417350769"><ele></ele><time>2013-8-4T19:45:13Z</time></trkpt>
<trkpt lat="45.9838409423828" lon="7.19267845153809"><ele></ele><time>2013-8-4T19:45:16Z</time></trkpt>
<trkpt lat="45.9837646484375" lon="7.1928539276123"><ele></ele><time>2013-8-4T19:45:19Z</time></trkpt>
<trkpt lat="45.9837455749512" lon="7.19288635253906"><ele></ele><time>2013-8-4T19:45:22Z</time></trkpt>
<trkpt lat="45.9837303161621" lon="7.19291830062866"><ele></ele><time>2013-8-4T19:45:25Z</time></trkpt>
<trkpt lat="45.9837188720703" lon="7.19294738769531"><ele></ele><time>2013-8-4T19:45:28Z</time></trkpt>
<trkpt lat="45.9837036132812" lon="7.19297790527344"><ele></ele><time>2013-8-4T19:45:31Z</time></trkpt>
<trkpt lat="45.9836158752441" lon="7.19317626953125"><ele></ele><time>2013-8-4T19:45:34Z</time></trkpt>
<trkpt lat="45.9835968017578" lon="7.19320869445801"><ele></ele><time>2013-8-4T19:45:37Z</time></trkpt>
<trkpt lat="45.9835815429688" lon="7.19324350357056"><ele></ele><time>2013-8-4T19:45:40Z</time></trkpt>
<trkpt lat="45.9835662841797" lon="7.19327783584595"><ele></ele><time>2013-8-4T19:45:43Z</time></trkpt>
<trkpt lat="45.9835510253906" lon="7.19330930709839"><ele></ele><time>2013-8-4T19:45:46Z</time></trkpt>
<trkpt lat="45.9835357666016" lon="7.19334030151367"><ele></ele><time>2013-8-4T19:45:49Z</time></trkpt>
<trkpt lat="45.9835052490234" lon="7.1934084892273"><ele></ele><time>2013-8-4T19:45:52Z</time></trkpt>
<trkpt lat="45.9834098815918" lon="7.19361782073975"><ele></ele><time>2013-8-4T19:45:55Z</time></trkpt>
<trkpt lat="45.9833946228027" lon="7.19365167617798"><ele></ele><time>2013-8-4T19:45:58Z</time></trkpt>
<trkpt lat="45.9833755493164" lon="7.19368314743042"><ele></ele><time>2013-8-4T19:46:1Z</time></trkpt>
<trkpt lat="45.9833602905273" lon="7.19371652603149"><ele></ele><time>2013-8-4T19:46:4Z</time></trkpt>
<trkpt lat="45.9833450317383" lon="7.19374990463257"><ele></ele><time>2013-8-4T19:46:7Z</time></trkpt>
<trkpt lat="45.9832763671875" lon="7.19392776489258"><ele></ele><time>2013-8-4T19:46:10Z</time></trkpt>
<trkpt lat="45.9832420349121" lon="7.19399261474609"><ele></ele><time>2013-8-4T19:46:13Z</time></trkpt>
<trkpt lat="45.983226776123" lon="7.19402122497559"><ele></ele><time>2013-8-4T19:46:16Z</time></trkpt>
<trkpt lat="45.983211517334" lon="7.19405460357666"><ele></ele><time>2013-8-4T19:46:19Z</time></trkpt>
<trkpt lat="45.9831962585449" lon="7.19408369064331"><ele></ele><time>2013-8-4T19:46:22Z</time></trkpt>
<trkpt lat="45.9831809997559" lon="7.19411611557007"><ele></ele><time>2013-8-4T19:46:25Z</time></trkpt>
<trkpt lat="45.9831504821777" lon="7.19417428970337"><ele></ele><time>2013-8-4T19:46:28Z</time></trkpt>
<trkpt lat="45.9830322265625" lon="7.19434928894043"><ele></ele><time>2013-8-4T19:46:31Z</time></trkpt>
<trkpt lat="45.9830093383789" lon="7.19437837600708"><ele></ele><time>2013-8-4T19:46:34Z</time></trkpt>
<trkpt lat="45.9829902648926" lon="7.19440650939941"><ele></ele><time>2013-8-4T19:46:37Z</time></trkpt>
<trkpt lat="45.9829711914062" lon="7.19443464279175"><ele></ele><time>2013-8-4T19:46:40Z</time></trkpt>
<trkpt lat="45.9829521179199" lon="7.19446420669556"><ele></ele><time>2013-8-4T19:46:43Z</time></trkpt>
<trkpt lat="45.9828338623047" lon="7.19462966918945"><ele></ele><time>2013-8-4T19:46:46Z</time></trkpt>
<trkpt lat="45.9827880859375" lon="7.19468212127686"><ele></ele><time>2013-8-4T19:46:49Z</time></trkpt>
<trkpt lat="45.9827690124512" lon="7.19470882415772"><ele></ele><time>2013-8-4T19:46:52Z</time></trkpt>
<trkpt lat="45.9827499389648" lon="7.19473171234131"><ele></ele><time>2013-8-4T19:46:55Z</time></trkpt>
<trkpt lat="45.9827270507812" lon="7.19475793838501"><ele></ele><time>2013-8-4T19:46:58Z</time></trkpt>
<trkpt lat="45.9827079772949" lon="7.19478368759155"><ele></ele><time>2013-8-4T19:47:1Z</time></trkpt>
<trkpt lat="45.982666015625" lon="7.19483518600464"><ele></ele><time>2013-8-4T19:47:4Z</time></trkpt>
<trkpt lat="45.9825592041016" lon="7.1949725151062"><ele></ele><time>2013-8-4T19:47:7Z</time></trkpt>
<trkpt lat="45.982536315918" lon="7.19500017166138"><ele></ele><time>2013-8-4T19:47:10Z</time></trkpt>
<trkpt lat="45.9825172424316" lon="7.19502639770508"><ele></ele><time>2013-8-4T19:47:13Z</time></trkpt>
<trkpt lat="45.982494354248" lon="7.19505262374878"><ele></ele><time>2013-8-4T19:47:16Z</time></trkpt>
<trkpt lat="45.9824714660644" lon="7.19508266448975"><ele></ele><time>2013-8-4T19:47:19Z</time></trkpt>
<trkpt lat="45.9824523925781" lon="7.19511365890503"><ele></ele><time>2013-8-4T19:47:22Z</time></trkpt>
<trkpt lat="45.9824333190918" lon="7.19514036178589"><ele></ele><time>2013-8-4T19:47:25Z</time></trkpt>
<trkpt lat="45.9823532104492" lon="7.19525384902954"><ele></ele><time>2013-8-4T19:47:28Z</time></trkpt>
<trkpt lat="45.9823379516602" lon="7.19528293609619"><ele></ele><time>2013-8-4T19:47:31Z</time></trkpt>
<trkpt lat="45.9823188781738" lon="7.19531345367432"><ele></ele><time>2013-8-4T19:47:34Z</time></trkpt>
<trkpt lat="45.9822998046875" lon="7.1953444480896"><ele></ele><time>2013-8-4T19:47:37Z</time></trkpt>
<trkpt lat="45.9822807312012" lon="7.19537305831909"><ele></ele><time>2013-8-4T19:47:40Z</time></trkpt>
<trkpt lat="45.9821891784668" lon="7.19552850723267"><ele></ele><time>2013-8-4T19:47:43Z</time></trkpt>
<trkpt lat="45.9821395874023" lon="7.19563293457031"><ele></ele><time>2013-8-4T19:47:46Z</time></trkpt>
<trkpt lat="45.9821243286133" lon="7.19566583633423"><ele></ele><time>2013-8-4T19:47:49Z</time></trkpt>
<trkpt lat="45.9821090698242" lon="7.19570064544678"><ele></ele><time>2013-8-4T19:47:52Z</time></trkpt>
<trkpt lat="45.9820976257324" lon="7.19573402404785"><ele></ele><time>2013-8-4T19:47:55Z</time></trkpt>
<trkpt lat="45.9820823669434" lon="7.19576978683472"><ele></ele><time>2013-8-4T19:47:58Z</time></trkpt>
<trkpt lat="45.9820556640625" lon="7.19583559036255"><ele></ele><time>2013-8-4T19:48:1Z</time></trkpt>
<trkpt lat="45.9819488525391" lon="7.19608020782471"><ele></ele><time>2013-8-4T19:48:4Z</time></trkpt>
<trkpt lat="45.98193359375" lon="7.19611597061157"><ele></ele><time>2013-8-4T19:48:7Z</time></trkpt>
<trkpt lat="45.9819183349609" lon="7.19614887237549"><ele></ele><time>2013-8-4T19:48:10Z</time></trkpt>
<trkpt lat="45.9819030761719" lon="7.1961841583252"><ele></ele><time>2013-8-4T19:48:13Z</time></trkpt>
<trkpt lat="45.9818878173828" lon="7.19621849060059"><ele></ele><time>2013-8-4T19:48:16Z</time></trkpt>
<trkpt lat="45.9818000793457" lon="7.19639539718628"><ele></ele><time>2013-8-4T19:48:19Z</time></trkpt>
<trkpt lat="45.9817581176758" lon="7.19646739959717"><ele></ele><time>2013-8-4T19:48:22Z</time></trkpt>
<trkpt lat="45.9817123413086" lon="7.19653606414795"><ele></ele><time>2013-8-4T19:48:25Z</time></trkpt>
<trkpt lat="45.981689453125" lon="7.19656848907471"><ele></ele><time>2013-8-4T19:48:28Z</time></trkpt>
<trkpt lat="45.9816627502441" lon="7.19659996032715"><ele></ele><time>2013-8-4T19:48:31Z</time></trkpt>
<trkpt lat="45.9816436767578" lon="7.19662761688232"><ele></ele><time>2013-8-4T19:48:34Z</time></trkpt>
<trkpt lat="45.981616973877" lon="7.19665670394898"><ele></ele><time>2013-8-4T19:48:37Z</time></trkpt>
<trkpt lat="45.9815940856934" lon="7.19668340682983"><ele></ele><time>2013-8-4T19:48:40Z</time></trkpt>
<trkpt lat="45.981517791748" lon="7.19675827026367"><ele></ele><time>2013-8-4T19:48:43Z</time></trkpt>
<trkpt lat="45.9814071655273" lon="7.19684410095215"><ele></ele><time>2013-8-4T19:48:46Z</time></trkpt>
<trkpt lat="45.9813766479492" lon="7.19686603546143"><ele></ele><time>2013-8-4T19:48:49Z</time></trkpt>
<trkpt lat="45.9813537597656" lon="7.19688606262207"><ele></ele><time>2013-8-4T19:48:52Z</time></trkpt>
<trkpt lat="45.9813270568848" lon="7.19690799713135"><ele></ele><time>2013-8-4T19:48:55Z</time></trkpt>
<trkpt lat="45.9813003540039" lon="7.19693231582642"><ele></ele><time>2013-8-4T19:48:58Z</time></trkpt>
<trkpt lat="45.981273651123" lon="7.19695138931274"><ele></ele><time>2013-8-4T19:49:1Z</time></trkpt>
<trkpt lat="45.981128692627" lon="7.19701910018921"><ele></ele><time>2013-8-4T19:49:4Z</time></trkpt>
<trkpt lat="45.9811019897461" lon="7.19702863693237"><ele></ele><time>2013-8-4T19:49:7Z</time></trkpt>
<trkpt lat="45.981071472168" lon="7.19703769683838"><ele></ele><time>2013-8-4T19:49:10Z</time></trkpt>
<trkpt lat="45.9810409545898" lon="7.19704866409302"><ele></ele><time>2013-8-4T19:49:13Z</time></trkpt>
<trkpt lat="45.981014251709" lon="7.19705820083618"><ele></ele><time>2013-8-4T19:49:16Z</time></trkpt>
<trkpt lat="45.9808387756348" lon="7.19708633422852"><ele></ele><time>2013-8-4T19:49:19Z</time></trkpt>
<trkpt lat="45.9808082580566" lon="7.19708728790283"><ele></ele><time>2013-8-4T19:49:22Z</time></trkpt>
<trkpt lat="45.9807777404785" lon="7.19709253311157"><ele></ele><time>2013-8-4T19:49:25Z</time></trkpt>
<trkpt lat="45.9807548522949" lon="7.19709539413452"><ele></ele><time>2013-8-4T19:49:28Z</time></trkpt>
<trkpt lat="45.9807281494141" lon="7.19710063934326"><ele></ele><time>2013-8-4T19:49:31Z</time></trkpt>
<trkpt lat="45.9806137084961" lon="7.1971173286438"><ele></ele><time>2013-8-4T19:49:34Z</time></trkpt>
<trkpt lat="45.9805870056152" lon="7.1971230506897"><ele></ele><time>2013-8-4T19:49:37Z</time></trkpt>
<trkpt lat="45.9805603027344" lon="7.19712591171265"><ele></ele><time>2013-8-4T19:49:40Z</time></trkpt>
<trkpt lat="45.9805335998535" lon="7.19713258743286"><ele></ele><time>2013-8-4T19:49:43Z</time></trkpt>
<trkpt lat="45.9805030822754" lon="7.19713592529297"><ele></ele><time>2013-8-4T19:49:46Z</time></trkpt>
<trkpt lat="45.9804725646973" lon="7.19714212417602"><ele></ele><time>2013-8-4T19:49:49Z</time></trkpt>
<trkpt lat="45.9804229736328" lon="7.19715070724487"><ele></ele><time>2013-8-4T19:49:52Z</time></trkpt>
<trkpt lat="45.980396270752" lon="7.19715690612793"><ele></ele><time>2013-8-4T19:49:55Z</time></trkpt>
<trkpt lat="45.9803695678711" lon="7.19716262817383"><ele></ele><time>2013-8-4T19:49:58Z</time></trkpt>
<trkpt lat="45.9803428649902" lon="7.19716739654541"><ele></ele><time>2013-8-4T19:50:1Z</time></trkpt>
<trkpt lat="45.9803161621094" lon="7.19717311859131"><ele></ele><time>2013-8-4T19:50:4Z</time></trkpt>
<trkpt lat="45.9802894592285" lon="7.19717741012573"><ele></ele><time>2013-8-4T19:50:7Z</time></trkpt>
<trkpt lat="45.9802398681641" lon="7.19718360900879"><ele></ele><time>2013-8-4T19:50:10Z</time></trkpt>
<trkpt lat="45.9801597595215" lon="7.19721555709839"><ele></ele><time>2013-8-4T19:50:13Z</time></trkpt>
<trkpt lat="45.9801330566406" lon="7.19723033905029"><ele></ele><time>2013-8-4T19:50:16Z</time></trkpt>
<trkpt lat="45.9800834655762" lon="7.19726657867432"><ele></ele><time>2013-8-4T19:50:19Z</time></trkpt>
<trkpt lat="45.9800567626953" lon="7.19728088378906"><ele></ele><time>2013-8-4T19:50:22Z</time></trkpt>
<trkpt lat="45.9800300598144" lon="7.19729471206665"><ele></ele><time>2013-8-4T19:50:25Z</time></trkpt>
<trkpt lat="45.9800033569336" lon="7.19731187820435"><ele></ele><time>2013-8-4T19:50:28Z</time></trkpt>
<trkpt lat="45.9799728393555" lon="7.19732856750488"><ele></ele><time>2013-8-4T19:50:31Z</time></trkpt>
<trkpt lat="45.9798965454102" lon="7.19738388061524"><ele></ele><time>2013-8-4T19:50:34Z</time></trkpt>
<trkpt lat="45.9798736572266" lon="7.19740629196167"><ele></ele><time>2013-8-4T19:50:37Z</time></trkpt>
<trkpt lat="45.9798469543457" lon="7.19742631912232"><ele></ele><time>2013-8-4T19:50:40Z</time></trkpt>
<trkpt lat="45.9798278808594" lon="7.19744682312012"><ele></ele><time>2013-8-4T19:50:43Z</time></trkpt>
<trkpt lat="45.9798011779785" lon="7.19746541976929"><ele></ele><time>2013-8-4T19:50:46Z</time></trkpt>
<trkpt lat="45.9797782897949" lon="7.19748735427856"><ele></ele><time>2013-8-4T19:50:49Z</time></trkpt>
<trkpt lat="45.9797325134277" lon="7.19753122329712"><ele></ele><time>2013-8-4T19:50:52Z</time></trkpt>
<trkpt lat="45.9795722961426" lon="7.19772958755493"><ele></ele><time>2013-8-4T19:50:55Z</time></trkpt>
<trkpt lat="45.9795532226562" lon="7.19776344299316"><ele></ele><time>2013-8-4T19:50:58Z</time></trkpt>
<trkpt lat="45.9795303344727" lon="7.19779014587402"><ele></ele><time>2013-8-4T19:51:1Z</time></trkpt>
<trkpt lat="45.9795112609863" lon="7.19782209396362"><ele></ele><time>2013-8-4T19:51:4Z</time></trkpt>
<trkpt lat="45.9794883728027" lon="7.19785451889038"><ele></ele><time>2013-8-4T19:51:7Z</time></trkpt>
<trkpt lat="45.9794731140137" lon="7.19788646697998"><ele></ele><time>2013-8-4T19:51:10Z</time></trkpt>
<trkpt lat="45.9794387817383" lon="7.19795608520508"><ele></ele><time>2013-8-4T19:51:13Z</time></trkpt>
<trkpt lat="45.9793243408203" lon="7.19821119308472"><ele></ele><time>2013-8-4T19:51:16Z</time></trkpt>
<trkpt lat="45.9793090820312" lon="7.1982479095459"><ele></ele><time>2013-8-4T19:51:19Z</time></trkpt>
<trkpt lat="45.9792900085449" lon="7.19828844070435"><ele></ele><time>2013-8-4T19:51:22Z</time></trkpt>
<trkpt lat="45.9792785644531" lon="7.19832944869995"><ele></ele><time>2013-8-4T19:51:25Z</time></trkpt>
<trkpt lat="45.9792633056641" lon="7.19836854934692"><ele></ele><time>2013-8-4T19:51:28Z</time></trkpt>
<trkpt lat="45.9791831970215" lon="7.198561668396"><ele></ele><time>2013-8-4T19:51:31Z</time></trkpt>
<trkpt lat="45.9791221618652" lon="7.19871234893799"><ele></ele><time>2013-8-4T19:51:34Z</time></trkpt>
<trkpt lat="45.9791069030762" lon="7.19875192642212"><ele></ele><time>2013-8-4T19:51:37Z</time></trkpt>
<trkpt lat="45.9790840148926" lon="7.19879388809204"><ele></ele><time>2013-8-4T19:51:40Z</time></trkpt>
<trkpt lat="45.9790649414062" lon="7.19883728027344"><ele></ele><time>2013-8-4T19:51:43Z</time></trkpt>
<trkpt lat="45.9790458679199" lon="7.19888162612915"><ele></ele><time>2013-8-4T19:51:46Z</time></trkpt>
<trkpt lat="45.9789123535156" lon="7.19910669326782"><ele></ele><time>2013-8-4T19:51:49Z</time></trkpt>
<trkpt lat="45.978889465332" lon="7.19913864135742"><ele></ele><time>2013-8-4T19:51:52Z</time></trkpt>
<trkpt lat="45.9788665771484" lon="7.19916582107544"><ele></ele><time>2013-8-4T19:51:55Z</time></trkpt>
<trkpt lat="45.9788436889648" lon="7.1991925239563"><ele></ele><time>2013-8-4T19:51:58Z</time></trkpt>
<trkpt lat="45.9788208007812" lon="7.19922733306885"><ele></ele><time>2013-8-4T19:52:1Z</time></trkpt>
<trkpt lat="45.9787750244141" lon="7.19929933547974"><ele></ele><time>2013-8-4T19:52:4Z</time></trkpt>
<trkpt lat="45.9787521362305" lon="7.19933366775513"><ele></ele><time>2013-8-4T19:52:7Z</time></trkpt>
<trkpt lat="45.9786911010742" lon="7.19943428039551"><ele></ele><time>2013-8-4T19:52:10Z</time></trkpt>
<trkpt lat="45.9786682128906" lon="7.19946670532226"><ele></ele><time>2013-8-4T19:52:13Z</time></trkpt>
<trkpt lat="45.9786491394043" lon="7.1994948387146"><ele></ele><time>2013-8-4T19:52:16Z</time></trkpt>
<trkpt lat="45.9786262512207" lon="7.19952201843262"><ele></ele><time>2013-8-4T19:52:19Z</time></trkpt>
<trkpt lat="45.9785919189453" lon="7.19956922531128"><ele></ele><time>2013-8-4T19:52:22Z</time></trkpt>
<trkpt lat="45.9785079956055" lon="7.19968461990356"><ele></ele><time>2013-8-4T19:52:25Z</time></trkpt>
<trkpt lat="45.9784698486328" lon="7.1997447013855"><ele></ele><time>2013-8-4T19:52:28Z</time></trkpt>
<trkpt lat="45.9784545898438" lon="7.19977521896362"><ele></ele><time>2013-8-4T19:52:31Z</time></trkpt>
<trkpt lat="45.9784317016602" lon="7.19980573654175"><ele></ele><time>2013-8-4T19:52:34Z</time></trkpt>
<trkpt lat="45.9784088134766" lon="7.19983673095703"><ele></ele><time>2013-8-4T19:52:37Z</time></trkpt>
<trkpt lat="45.978385925293" lon="7.1998724937439"><ele></ele><time>2013-8-4T19:52:40Z</time></trkpt>
<trkpt lat="45.9783096313477" lon="7.19996929168701"><ele></ele><time>2013-8-4T19:52:43Z</time></trkpt>
<trkpt lat="45.9781951904297" lon="7.200119972229"><ele></ele><time>2013-8-4T19:52:46Z</time></trkpt>
<trkpt lat="45.9781723022461" lon="7.20014667510986"><ele></ele><time>2013-8-4T19:52:49Z</time></trkpt>
<trkpt lat="45.9781455993652" lon="7.20017385482788"><ele></ele><time>2013-8-4T19:52:52Z</time></trkpt>
<trkpt lat="45.9781227111816" lon="7.20020055770874"><ele></ele><time>2013-8-4T19:52:55Z</time></trkpt>
<trkpt lat="45.9779815673828" lon="7.20037412643433"><ele></ele><time>2013-8-4T19:52:58Z</time></trkpt>
<trkpt lat="45.977897644043" lon="7.20045328140259"><ele></ele><time>2013-8-4T19:53:1Z</time></trkpt>
<trkpt lat="45.9778709411621" lon="7.20047903060913"><ele></ele><time>2013-8-4T19:53:4Z</time></trkpt>
<trkpt lat="45.977840423584" lon="7.20050525665283"><ele></ele><time>2013-8-4T19:53:7Z</time></trkpt>
<trkpt lat="45.9778137207031" lon="7.2005295753479"><ele></ele><time>2013-8-4T19:53:10Z</time></trkpt>
<trkpt lat="45.9777870178223" lon="7.20054912567139"><ele></ele><time>2013-8-4T19:53:13Z</time></trkpt>
<trkpt lat="45.9777641296387" lon="7.2005729675293"><ele></ele><time>2013-8-4T19:53:16Z</time></trkpt>
<trkpt lat="45.9777450561523" lon="7.20059537887573"><ele></ele><time>2013-8-4T19:53:19Z</time></trkpt>
<trkpt lat="45.9775924682617" lon="7.20072507858276"><ele></ele><time>2013-8-4T19:53:22Z</time></trkpt>
<trkpt lat="45.9775657653809" lon="7.20074510574341"><ele></ele><time>2013-8-4T19:53:25Z</time></trkpt>
<trkpt lat="45.9775390625" lon="7.20076370239258"><ele></ele><time>2013-8-4T19:53:28Z</time></trkpt>
<trkpt lat="45.9775123596191" lon="7.20078325271606"><ele></ele><time>2013-8-4T19:53:31Z</time></trkpt>
<trkpt lat="45.977481842041" lon="7.20080471038818"><ele></ele><time>2013-8-4T19:53:34Z</time></trkpt>
<trkpt lat="45.9774551391602" lon="7.20082902908325"><ele></ele><time>2013-8-4T19:53:37Z</time></trkpt>
<trkpt lat="45.977352142334" lon="7.2009129524231"><ele></ele><time>2013-8-4T19:53:40Z</time></trkpt>
<trkpt lat="45.9772491455078" lon="7.20099401473999"><ele></ele><time>2013-8-4T19:53:43Z</time></trkpt>
<trkpt lat="45.9772262573242" lon="7.20101165771484"><ele></ele><time>2013-8-4T19:53:46Z</time></trkpt>
<trkpt lat="45.9772033691406" lon="7.2010350227356"><ele></ele><time>2013-8-4T19:53:49Z</time></trkpt>
<trkpt lat="45.977180480957" lon="7.20106172561646"><ele></ele><time>2013-8-4T19:53:52Z</time></trkpt>
<trkpt lat="45.9771537780762" lon="7.20108413696289"><ele></ele><time>2013-8-4T19:53:55Z</time></trkpt>
<trkpt lat="45.9771041870117" lon="7.20113897323608"><ele></ele><time>2013-8-4T19:53:58Z</time></trkpt>
<trkpt lat="45.9770545959473" lon="7.2011890411377"><ele></ele><time>2013-8-4T19:54:1Z</time></trkpt>
<trkpt lat="45.9770278930664" lon="7.20121049880982"><ele></ele><time>2013-8-4T19:54:4Z</time></trkpt>
<trkpt lat="45.9770011901856" lon="7.2012505531311"><ele></ele><time>2013-8-4T19:54:7Z</time></trkpt>
<trkpt lat="45.976978302002" lon="7.2012825012207"><ele></ele><time>2013-8-4T19:54:10Z</time></trkpt>
<trkpt lat="45.9769515991211" lon="7.20131778717041"><ele></ele><time>2013-8-4T19:54:13Z</time></trkpt>
<trkpt lat="45.9769248962402" lon="7.20135259628296"><ele></ele><time>2013-8-4T19:54:16Z</time></trkpt>
<trkpt lat="45.9769020080566" lon="7.20138645172119"><ele></ele><time>2013-8-4T19:54:19Z</time></trkpt>
<trkpt lat="45.9768524169922" lon="7.20145416259766"><ele></ele><time>2013-8-4T19:54:22Z</time></trkpt>
<trkpt lat="45.976806640625" lon="7.20151805877686"><ele></ele><time>2013-8-4T19:54:25Z</time></trkpt>
<trkpt lat="45.9767799377441" lon="7.2015528678894"><ele></ele><time>2013-8-4T19:54:28Z</time></trkpt>
<trkpt lat="45.9767532348633" lon="7.20158433914185"><ele></ele><time>2013-8-4T19:54:31Z</time></trkpt>
<trkpt lat="45.9767265319824" lon="7.2016134262085"><ele></ele><time>2013-8-4T19:54:34Z</time></trkpt>
<trkpt lat="45.9766998291016" lon="7.2016429901123"><ele></ele><time>2013-8-4T19:54:37Z</time></trkpt>
<trkpt lat="45.9765396118164" lon="7.2018404006958"><ele></ele><time>2013-8-4T19:54:40Z</time></trkpt>
<trkpt lat="45.9764251708984" lon="7.20193719863892"><ele></ele><time>2013-8-4T19:54:43Z</time></trkpt>
<trkpt lat="45.9763984680176" lon="7.20196104049683"><ele></ele><time>2013-8-4T19:54:46Z</time></trkpt>
<trkpt lat="45.976375579834" lon="7.20198202133179"><ele></ele><time>2013-8-4T19:54:49Z</time></trkpt>
<trkpt lat="45.9763526916504" lon="7.20200061798096"><ele></ele><time>2013-8-4T19:54:52Z</time></trkpt>
<trkpt lat="45.9763298034668" lon="7.2020206451416"><ele></ele><time>2013-8-4T19:54:55Z</time></trkpt>
<trkpt lat="45.9762268066406" lon="7.20211553573608"><ele></ele><time>2013-8-4T19:54:58Z</time></trkpt>
<trkpt lat="45.9762001037598" lon="7.20213556289673"><ele></ele><time>2013-8-4T19:55:1Z</time></trkpt>
<trkpt lat="45.9761734008789" lon="7.20215463638306"><ele></ele><time>2013-8-4T19:55:4Z</time></trkpt>
<trkpt lat="45.9761505126953" lon="7.20217514038086"><ele></ele><time>2013-8-4T19:55:7Z</time></trkpt>
<trkpt lat="45.9761238098144" lon="7.20219707489014"><ele></ele><time>2013-8-4T19:55:10Z</time></trkpt>
<trkpt lat="45.9759712219238" lon="7.20235061645508"><ele></ele><time>2013-8-4T19:55:13Z</time></trkpt>
<trkpt lat="45.9759216308594" lon="7.20240449905396"><ele></ele><time>2013-8-4T19:55:16Z</time></trkpt>
<trkpt lat="45.9758987426758" lon="7.20243310928345"><ele></ele><time>2013-8-4T19:55:19Z</time></trkpt>
<trkpt lat="45.9758720397949" lon="7.2024655342102"><ele></ele><time>2013-8-4T19:55:22Z</time></trkpt>
<trkpt lat="45.9758453369141" lon="7.20249652862549"><ele></ele><time>2013-8-4T19:55:25Z</time></trkpt>
<trkpt lat="45.9758224487305" lon="7.20252418518066"><ele></ele><time>2013-8-4T19:55:28Z</time></trkpt>
<trkpt lat="45.975772857666" lon="7.20258331298828"><ele></ele><time>2013-8-4T19:55:31Z</time></trkpt>
<trkpt lat="45.9756317138672" lon="7.20275449752808"><ele></ele><time>2013-8-4T19:55:34Z</time></trkpt>
<trkpt lat="45.9756088256836" lon="7.20278739929199"><ele></ele><time>2013-8-4T19:55:37Z</time></trkpt>
<trkpt lat="45.9755859375" lon="7.20282125473022"><ele></ele><time>2013-8-4T19:55:40Z</time></trkpt>
<trkpt lat="45.9755668640137" lon="7.20285081863403"><ele></ele><time>2013-8-4T19:55:43Z</time></trkpt>
<trkpt lat="45.9754486083984" lon="7.20302581787109"><ele></ele><time>2013-8-4T19:55:46Z</time></trkpt>
<trkpt lat="45.9753837585449" lon="7.20312070846558"><ele></ele><time>2013-8-4T19:55:49Z</time></trkpt>
<trkpt lat="45.9753570556641" lon="7.20315456390381"><ele></ele><time>2013-8-4T19:55:52Z</time></trkpt>
<trkpt lat="45.9753379821777" lon="7.20318460464478"><ele></ele><time>2013-8-4T19:55:55Z</time></trkpt>
<trkpt lat="45.9753150939941" lon="7.20321464538574"><ele></ele><time>2013-8-4T19:55:58Z</time></trkpt>
<trkpt lat="45.9752960205078" lon="7.2032470703125"><ele></ele><time>2013-8-4T19:56:1Z</time></trkpt>
<trkpt lat="45.9752731323242" lon="7.2032790184021"><ele></ele><time>2013-8-4T19:56:4Z</time></trkpt>
<trkpt lat="45.9750785827637" lon="7.20350503921509"><ele></ele><time>2013-8-4T19:56:7Z</time></trkpt>
<trkpt lat="45.9750556945801" lon="7.20353269577026"><ele></ele><time>2013-8-4T19:56:10Z</time></trkpt>
<trkpt lat="45.9750328063965" lon="7.20355844497681"><ele></ele><time>2013-8-4T19:56:13Z</time></trkpt>
<trkpt lat="45.9750099182129" lon="7.20358276367188"><ele></ele><time>2013-8-4T19:56:16Z</time></trkpt>
<trkpt lat="45.9748611450195" lon="7.20372772216797"><ele></ele><time>2013-8-4T19:56:19Z</time></trkpt>
<trkpt lat="45.9748344421387" lon="7.20375108718872"><ele></ele><time>2013-8-4T19:56:22Z</time></trkpt>
<trkpt lat="45.9748115539551" lon="7.20377206802368"><ele></ele><time>2013-8-4T19:56:25Z</time></trkpt>
<trkpt lat="45.9747848510742" lon="7.20379495620728"><ele></ele><time>2013-8-4T19:56:28Z</time></trkpt>
<trkpt lat="45.9747619628906" lon="7.20381736755371"><ele></ele><time>2013-8-4T19:56:31Z</time></trkpt>
<trkpt lat="45.9747352600098" lon="7.20384120941162"><ele></ele><time>2013-8-4T19:56:34Z</time></trkpt>
<trkpt lat="45.9747123718262" lon="7.20386409759522"><ele></ele><time>2013-8-4T19:56:37Z</time></trkpt>
<trkpt lat="45.9746627807617" lon="7.20391368865967"><ele></ele><time>2013-8-4T19:56:40Z</time></trkpt>
<trkpt lat="45.9745559692383" lon="7.20401239395142"><ele></ele><time>2013-8-4T19:56:43Z</time></trkpt>
<trkpt lat="45.9745292663574" lon="7.20403528213501"><ele></ele><time>2013-8-4T19:56:46Z</time></trkpt>
<trkpt lat="45.9745025634766" lon="7.20406484603882"><ele></ele><time>2013-8-4T19:56:49Z</time></trkpt>
<trkpt lat="45.974479675293" lon="7.20409202575684"><ele></ele><time>2013-8-4T19:56:52Z</time></trkpt>
<trkpt lat="45.9744567871094" lon="7.20411539077759"><ele></ele><time>2013-8-4T19:56:55Z</time></trkpt>
<trkpt lat="45.9742965698242" lon="7.20431518554688"><ele></ele><time>2013-8-4T19:56:58Z</time></trkpt>
<trkpt lat="45.9742736816406" lon="7.20434761047363"><ele></ele><time>2013-8-4T19:57:1Z</time></trkpt>
<trkpt lat="45.974250793457" lon="7.20438051223755"><ele></ele><time>2013-8-4T19:57:4Z</time></trkpt>
<trkpt lat="45.9742317199707" lon="7.20441007614136"><ele></ele><time>2013-8-4T19:57:7Z</time></trkpt>
<trkpt lat="45.9742088317871" lon="7.20444345474243"><ele></ele><time>2013-8-4T19:57:10Z</time></trkpt>
<trkpt lat="45.9741172790527" lon="7.20461702346802"><ele></ele><time>2013-8-4T19:57:13Z</time></trkpt>
<trkpt lat="45.9740829467773" lon="7.2046914100647"><ele></ele><time>2013-8-4T19:57:16Z</time></trkpt>
<trkpt lat="45.9740676879883" lon="7.20473098754883"><ele></ele><time>2013-8-4T19:57:19Z</time></trkpt>
<trkpt lat="45.9740524291992" lon="7.20476818084717"><ele></ele><time>2013-8-4T19:57:22Z</time></trkpt>
<trkpt lat="45.9740371704102" lon="7.20480537414551"><ele></ele><time>2013-8-4T19:57:25Z</time></trkpt>
<trkpt lat="45.9740257263184" lon="7.20484495162964"><ele></ele><time>2013-8-4T19:57:28Z</time></trkpt>
<trkpt lat="45.974006652832" lon="7.20492506027222"><ele></ele><time>2013-8-4T19:57:31Z</time></trkpt>
<trkpt lat="45.9739112854004" lon="7.20524835586548"><ele></ele><time>2013-8-4T19:57:34Z</time></trkpt>
<trkpt lat="45.9738998413086" lon="7.20528936386108"><ele></ele><time>2013-8-4T19:57:37Z</time></trkpt>
<trkpt lat="45.9738922119141" lon="7.20532894134522"><ele></ele><time>2013-8-4T19:57:40Z</time></trkpt>
<trkpt lat="45.9738807678223" lon="7.20537233352661"><ele></ele><time>2013-8-4T19:57:43Z</time></trkpt>
<trkpt lat="45.9738693237305" lon="7.20541381835938"><ele></ele><time>2013-8-4T19:57:46Z</time></trkpt>
<trkpt lat="45.9738159179688" lon="7.20568609237671"><ele></ele><time>2013-8-4T19:57:49Z</time></trkpt>
<trkpt lat="45.9737586975098" lon="7.2059473991394"><ele></ele><time>2013-8-4T19:57:52Z</time></trkpt>
<trkpt lat="45.973747253418" lon="7.20599269866943"><ele></ele><time>2013-8-4T19:57:55Z</time></trkpt>
<trkpt lat="45.9737396240234" lon="7.20603561401367"><ele></ele><time>2013-8-4T19:57:58Z</time></trkpt>
<trkpt lat="45.9737243652344" lon="7.20607900619507"><ele></ele><time>2013-8-4T19:58:1Z</time></trkpt>
<trkpt lat="45.9736404418945" lon="7.20636940002441"><ele></ele><time>2013-8-4T19:58:4Z</time></trkpt>
<trkpt lat="45.9736251831055" lon="7.20641088485718"><ele></ele><time>2013-8-4T19:58:7Z</time></trkpt>
<trkpt lat="45.9736137390137" lon="7.20645141601562"><ele></ele><time>2013-8-4T19:58:10Z</time></trkpt>
<trkpt lat="45.9735946655273" lon="7.20649290084839"><ele></ele><time>2013-8-4T19:58:13Z</time></trkpt>
<trkpt lat="45.9735794067383" lon="7.20653247833252"><ele></ele><time>2013-8-4T19:58:16Z</time></trkpt>
<trkpt lat="45.9735641479492" lon="7.20657110214233"><ele></ele><time>2013-8-4T19:58:19Z</time></trkpt>
<trkpt lat="45.9734916687012" lon="7.20672607421875"><ele></ele><time>2013-8-4T19:58:22Z</time></trkpt>
<trkpt lat="45.9733657836914" lon="7.20695543289185"><ele></ele><time>2013-8-4T19:58:25Z</time></trkpt>
<trkpt lat="45.9733428955078" lon="7.20698881149292"><ele></ele><time>2013-8-4T19:58:28Z</time></trkpt>
<trkpt lat="45.973316192627" lon="7.20702171325684"><ele></ele><time>2013-8-4T19:58:31Z</time></trkpt>
<trkpt lat="45.9732933044434" lon="7.20705270767212"><ele></ele><time>2013-8-4T19:58:34Z</time></trkpt>
<trkpt lat="45.9731712341309" lon="7.2072114944458"><ele></ele><time>2013-8-4T19:58:37Z</time></trkpt>
<trkpt lat="45.9731178283691" lon="7.20726823806763"><ele></ele><time>2013-8-4T19:58:40Z</time></trkpt>
<trkpt lat="45.9730911254883" lon="7.20729446411133"><ele></ele><time>2013-8-4T19:58:43Z</time></trkpt>
<trkpt lat="45.9730606079102" lon="7.20731782913208"><ele></ele><time>2013-8-4T19:58:46Z</time></trkpt>
<trkpt lat="45.9730339050293" lon="7.20734357833862"><ele></ele><time>2013-8-4T19:58:49Z</time></trkpt>
<trkpt lat="45.9730033874512" lon="7.20736980438232"><ele></ele><time>2013-8-4T19:58:52Z</time></trkpt>
<trkpt lat="45.9729766845703" lon="7.20739984512329"><ele></ele><time>2013-8-4T19:58:55Z</time></trkpt>
<trkpt lat="45.9729118347168" lon="7.20745658874512"><ele></ele><time>2013-8-4T19:58:58Z</time></trkpt>
<trkpt lat="45.9727935791016" lon="7.20754814147949"><ele></ele><time>2013-8-4T19:59:1Z</time></trkpt>
<trkpt lat="45.9727325439453" lon="7.20758581161499"><ele></ele><time>2013-8-4T19:59:4Z</time></trkpt>
<trkpt lat="45.9727020263672" lon="7.20760679244995"><ele></ele><time>2013-8-4T19:59:7Z</time></trkpt>
<trkpt lat="45.9726638793945" lon="7.20762538909912"><ele></ele><time>2013-8-4T19:59:10Z</time></trkpt>
<trkpt lat="45.9726371765137" lon="7.2076416015625"><ele></ele><time>2013-8-4T19:59:13Z</time></trkpt>
<trkpt lat="45.9726028442383" lon="7.20765829086304"><ele></ele><time>2013-8-4T19:59:16Z</time></trkpt>
<trkpt lat="45.9725456237793" lon="7.20769262313843"><ele></ele><time>2013-8-4T19:59:19Z</time></trkpt>
<trkpt lat="45.9724235534668" lon="7.20774984359741"><ele></ele><time>2013-8-4T19:59:22Z</time></trkpt>
<trkpt lat="45.9723968505859" lon="7.20776510238648"><ele></ele><time>2013-8-4T19:59:25Z</time></trkpt>
<trkpt lat="45.9723625183106" lon="7.20778226852417"><ele></ele><time>2013-8-4T19:59:28Z</time></trkpt>
<trkpt lat="45.9723281860352" lon="7.20779895782471"><ele></ele><time>2013-8-4T19:59:31Z</time></trkpt>
<trkpt lat="45.972297668457" lon="7.2078127861023"><ele></ele><time>2013-8-4T19:59:34Z</time></trkpt>
<trkpt lat="45.9721145629883" lon="7.20789384841919"><ele></ele><time>2013-8-4T19:59:37Z</time></trkpt>
<trkpt lat="45.9720840454102" lon="7.20790863037109"><ele></ele><time>2013-8-4T19:59:40Z</time></trkpt>
<trkpt lat="45.9720497131348" lon="7.20792770385742"><ele></ele><time>2013-8-4T19:59:43Z</time></trkpt>
<trkpt lat="45.9720191955566" lon="7.20794248580933"><ele></ele><time>2013-8-4T19:59:46Z</time></trkpt>
<trkpt lat="45.9719886779785" lon="7.20795440673828"><ele></ele><time>2013-8-4T19:59:49Z</time></trkpt>
<trkpt lat="45.9718971252441" lon="7.20799970626831"><ele></ele><time>2013-8-4T19:59:52Z</time></trkpt>
<trkpt lat="45.9718055725098" lon="7.20805215835571"><ele></ele><time>2013-8-4T19:59:55Z</time></trkpt>
<trkpt lat="45.9717750549316" lon="7.20807361602783"><ele></ele><time>2013-8-4T19:59:58Z</time></trkpt>
<trkpt lat="45.9717407226562" lon="7.20809459686279"><ele></ele><time>2013-8-4T20:0:1Z</time></trkpt>
<trkpt lat="45.9717102050781" lon="7.20811414718628"><ele></ele><time>2013-8-4T20:0:4Z</time></trkpt>
<trkpt lat="45.9716796875" lon="7.20813322067261"><ele></ele><time>2013-8-4T20:0:7Z</time></trkpt>
<trkpt lat="45.9714393615723" lon="7.20831727981567"><ele></ele><time>2013-8-4T20:0:10Z</time></trkpt>
<trkpt lat="45.9714088439941" lon="7.20834112167358"><ele></ele><time>2013-8-4T20:0:13Z</time></trkpt>
<trkpt lat="45.971378326416" lon="7.20836639404297"><ele></ele><time>2013-8-4T20:0:16Z</time></trkpt>
<trkpt lat="45.9713478088379" lon="7.20839023590088"><ele></ele><time>2013-8-4T20:0:19Z</time></trkpt>
<trkpt lat="45.9713134765625" lon="7.20841217041016"><ele></ele><time>2013-8-4T20:0:22Z</time></trkpt>
<trkpt lat="45.9711952209473" lon="7.20848941802978"><ele></ele><time>2013-8-4T20:0:25Z</time></trkpt>
<trkpt lat="45.9710998535156" lon="7.20854949951172"><ele></ele><time>2013-8-4T20:0:28Z</time></trkpt>
<trkpt lat="45.9710731506348" lon="7.20857095718384"><ele></ele><time>2013-8-4T20:0:31Z</time></trkpt>
<trkpt lat="45.9710426330566" lon="7.20859003067017"><ele></ele><time>2013-8-4T20:0:34Z</time></trkpt>
<trkpt lat="45.9710159301758" lon="7.20860576629639"><ele></ele><time>2013-8-4T20:0:37Z</time></trkpt>
<trkpt lat="45.9708099365234" lon="7.20870161056518"><ele></ele><time>2013-8-4T20:0:40Z</time></trkpt>
<trkpt lat="45.9707832336426" lon="7.20871448516846"><ele></ele><time>2013-8-4T20:0:43Z</time></trkpt>
<trkpt lat="45.9707527160644" lon="7.20873069763184"><ele></ele><time>2013-8-4T20:0:46Z</time></trkpt>
<trkpt lat="45.9707221984863" lon="7.20874261856079"><ele></ele><time>2013-8-4T20:0:49Z</time></trkpt>
<trkpt lat="45.9706916809082" lon="7.2087574005127"><ele></ele><time>2013-8-4T20:0:52Z</time></trkpt>
<trkpt lat="45.9705429077148" lon="7.20879793167114"><ele></ele><time>2013-8-4T20:0:55Z</time></trkpt>
<trkpt lat="45.9704170227051" lon="7.20883560180664"><ele></ele><time>2013-8-4T20:0:58Z</time></trkpt>
<trkpt lat="45.970386505127" lon="7.2088451385498"><ele></ele><time>2013-8-4T20:1:1Z</time></trkpt>
<trkpt lat="45.9703559875488" lon="7.20884990692139"><ele></ele><time>2013-8-4T20:1:4Z</time></trkpt>
<trkpt lat="45.9703254699707" lon="7.20885324478149"><ele></ele><time>2013-8-4T20:1:7Z</time></trkpt>
<trkpt lat="45.9702301025391" lon="7.20885944366455"><ele></ele><time>2013-8-4T20:1:10Z</time></trkpt>
<trkpt lat="45.970142364502" lon="7.20886707305908"><ele></ele><time>2013-8-4T20:1:13Z</time></trkpt>
<trkpt lat="45.9701156616211" lon="7.20886468887329"><ele></ele><time>2013-8-4T20:1:16Z</time></trkpt>
<trkpt lat="45.970085144043" lon="7.20886707305908"><ele></ele><time>2013-8-4T20:1:19Z</time></trkpt>
<trkpt lat="45.9700546264648" lon="7.20886754989624"><ele></ele><time>2013-8-4T20:1:22Z</time></trkpt>
<trkpt lat="45.9700241088867" lon="7.2088680267334"><ele></ele><time>2013-8-4T20:1:25Z</time></trkpt>
<trkpt lat="45.9698143005371" lon="7.20884084701538"><ele></ele><time>2013-8-4T20:1:28Z</time></trkpt>
<trkpt lat="45.969783782959" lon="7.20883131027222"><ele></ele><time>2013-8-4T20:1:31Z</time></trkpt>
<trkpt lat="45.9697570800781" lon="7.20882272720337"><ele></ele><time>2013-8-4T20:1:34Z</time></trkpt>
<trkpt lat="45.9697303771973" lon="7.20881462097168"><ele></ele><time>2013-8-4T20:1:37Z</time></trkpt>
<trkpt lat="45.9696998596191" lon="7.20880365371704"><ele></ele><time>2013-8-4T20:1:40Z</time></trkpt>
<trkpt lat="45.9696731567383" lon="7.20879220962524"><ele></ele><time>2013-8-4T20:1:43Z</time></trkpt>
<trkpt lat="45.9696426391602" lon="7.20878076553345"><ele></ele><time>2013-8-4T20:1:46Z</time></trkpt>
<trkpt lat="45.9695854187012" lon="7.20875215530396"><ele></ele><time>2013-8-4T20:1:49Z</time></trkpt>
<trkpt lat="45.969554901123" lon="7.20873785018921"><ele></ele><time>2013-8-4T20:1:52Z</time></trkpt>
<trkpt lat="45.9695243835449" lon="7.20873165130615"><ele></ele><time>2013-8-4T20:1:55Z</time></trkpt>
<trkpt lat="45.9694709777832" lon="7.20871734619141"><ele></ele><time>2013-8-4T20:1:58Z</time></trkpt>
<trkpt lat="45.9694442749023" lon="7.20870780944824"><ele></ele><time>2013-8-4T20:2:1Z</time></trkpt>
<trkpt lat="45.9694175720215" lon="7.2086968421936"><ele></ele><time>2013-8-4T20:2:4Z</time></trkpt>
<trkpt lat="45.9693870544434" lon="7.20869207382202"><ele></ele><time>2013-8-4T20:2:7Z</time></trkpt>
<trkpt lat="45.9693603515625" lon="7.20868873596191"><ele></ele><time>2013-8-4T20:2:10Z</time></trkpt>
<trkpt lat="45.9692687988281" lon="7.20868730545044"><ele></ele><time>2013-8-4T20:2:13Z</time></trkpt>
<trkpt lat="45.9692420959473" lon="7.20867347717285"><ele></ele><time>2013-8-4T20:2:16Z</time></trkpt>
<trkpt lat="45.9692153930664" lon="7.20866394042969"><ele></ele><time>2013-8-4T20:2:19Z</time></trkpt>
<trkpt lat="45.9691886901856" lon="7.20865392684936"><ele></ele><time>2013-8-4T20:2:22Z</time></trkpt>
<trkpt lat="45.9691619873047" lon="7.20864486694336"><ele></ele><time>2013-8-4T20:2:25Z</time></trkpt>
<trkpt lat="45.9691352844238" lon="7.20863151550293"><ele></ele><time>2013-8-4T20:2:28Z</time></trkpt>
<trkpt lat="45.969108581543" lon="7.20861911773682"><ele></ele><time>2013-8-4T20:2:31Z</time></trkpt>
<trkpt lat="45.9690017700195" lon="7.20855045318604"><ele></ele><time>2013-8-4T20:2:34Z</time></trkpt>
<trkpt lat="45.9689750671387" lon="7.20854234695435"><ele></ele><time>2013-8-4T20:2:37Z</time></trkpt>
<trkpt lat="45.9689445495606" lon="7.20853185653686"><ele></ele><time>2013-8-4T20:2:40Z</time></trkpt>
<trkpt lat="45.9689178466797" lon="7.20851612091064"><ele></ele><time>2013-8-4T20:2:43Z</time></trkpt>
<trkpt lat="45.968864440918" lon="7.20847749710083"><ele></ele><time>2013-8-4T20:2:46Z</time></trkpt>
<trkpt lat="45.9687805175781" lon="7.20844221115112"><ele></ele><time>2013-8-4T20:2:49Z</time></trkpt>
<trkpt lat="45.9687538146973" lon="7.20842981338501"><ele></ele><time>2013-8-4T20:2:52Z</time></trkpt>
<trkpt lat="45.9687232971191" lon="7.20841836929321"><ele></ele><time>2013-8-4T20:2:55Z</time></trkpt>
<trkpt lat="45.968692779541" lon="7.20840644836426"><ele></ele><time>2013-8-4T20:2:58Z</time></trkpt>
<trkpt lat="45.9686660766602" lon="7.20839643478394"><ele></ele><time>2013-8-4T20:3:1Z</time></trkpt>
<trkpt lat="45.9686393737793" lon="7.2083888053894"><ele></ele><time>2013-8-4T20:3:4Z</time></trkpt>
<trkpt lat="45.9685325622559" lon="7.2083568572998"><ele></ele><time>2013-8-4T20:3:7Z</time></trkpt>
<trkpt lat="45.9684562683106" lon="7.20834064483643"><ele></ele><time>2013-8-4T20:3:10Z</time></trkpt>
<trkpt lat="45.9684295654297" lon="7.20833396911621"><ele></ele><time>2013-8-4T20:3:13Z</time></trkpt>
<trkpt lat="45.9684028625488" lon="7.20832967758179"><ele></ele><time>2013-8-4T20:3:16Z</time></trkpt>
<trkpt lat="45.9683723449707" lon="7.20832300186157"><ele></ele><time>2013-8-4T20:3:19Z</time></trkpt>
<trkpt lat="45.9683418273926" lon="7.20832443237305"><ele></ele><time>2013-8-4T20:3:22Z</time></trkpt>
<trkpt lat="45.9681930541992" lon="7.2083044052124"><ele></ele><time>2013-8-4T20:3:25Z</time></trkpt>
<trkpt lat="45.9681282043457" lon="7.20831632614136"><ele></ele><time>2013-8-4T20:3:28Z</time></trkpt>
<trkpt lat="45.9680938720703" lon="7.20831918716431"><ele></ele><time>2013-8-4T20:3:31Z</time></trkpt>
<trkpt lat="45.9680595397949" lon="7.20832109451294"><ele></ele><time>2013-8-4T20:3:34Z</time></trkpt>
<trkpt lat="45.9680252075195" lon="7.20832538604736"><ele></ele><time>2013-8-4T20:3:37Z</time></trkpt>
<trkpt lat="45.9679946899414" lon="7.20833206176758"><ele></ele><time>2013-8-4T20:3:40Z</time></trkpt>
<trkpt lat="45.9679336547852" lon="7.20834350585938"><ele></ele><time>2013-8-4T20:3:43Z</time></trkpt>
<trkpt lat="45.9678192138672" lon="7.20835828781128"><ele></ele><time>2013-8-4T20:3:46Z</time></trkpt>
<trkpt lat="45.9677925109863" lon="7.20836210250854"><ele></ele><time>2013-8-4T20:3:49Z</time></trkpt>
<trkpt lat="45.9677658081055" lon="7.20836973190308"><ele></ele><time>2013-8-4T20:3:52Z</time></trkpt>
<trkpt lat="45.9677391052246" lon="7.20837926864624"><ele></ele><time>2013-8-4T20:3:55Z</time></trkpt>
<trkpt lat="45.9677124023438" lon="7.20838689804077"><ele></ele><time>2013-8-4T20:3:58Z</time></trkpt>
<trkpt lat="45.9676818847656" lon="7.20839643478394"><ele></ele><time>2013-8-4T20:4:1Z</time></trkpt>
<trkpt lat="45.9676246643066" lon="7.20841121673584"><ele></ele><time>2013-8-4T20:4:4Z</time></trkpt>
<trkpt lat="45.9675216674805" lon="7.20843744277954"><ele></ele><time>2013-8-4T20:4:7Z</time></trkpt>
<trkpt lat="45.9674987792969" lon="7.2084469795227"><ele></ele><time>2013-8-4T20:4:10Z</time></trkpt>
<trkpt lat="45.967472076416" lon="7.20845699310303"><ele></ele><time>2013-8-4T20:4:13Z</time></trkpt>
<trkpt lat="45.9674453735352" lon="7.2084698677063"><ele></ele><time>2013-8-4T20:4:16Z</time></trkpt>
<trkpt lat="45.9673957824707" lon="7.20849323272705"><ele></ele><time>2013-8-4T20:4:19Z</time></trkpt>
<trkpt lat="45.9671897888184" lon="7.20859813690186"><ele></ele><time>2013-8-4T20:4:22Z</time></trkpt>
<trkpt lat="45.9671630859375" lon="7.20861148834228"><ele></ele><time>2013-8-4T20:4:25Z</time></trkpt>
<trkpt lat="45.9671363830566" lon="7.20862054824829"><ele></ele><time>2013-8-4T20:4:28Z</time></trkpt>
<trkpt lat="45.9671096801758" lon="7.20863246917725"><ele></ele><time>2013-8-4T20:4:31Z</time></trkpt>
<trkpt lat="45.9670829772949" lon="7.20865058898926"><ele></ele><time>2013-8-4T20:4:34Z</time></trkpt>
<trkpt lat="45.9670104980469" lon="7.2086992263794"><ele></ele><time>2013-8-4T20:4:37Z</time></trkpt>
<trkpt lat="45.9668388366699" lon="7.20882558822632"><ele></ele><time>2013-8-4T20:4:40Z</time></trkpt>
<trkpt lat="45.9668121337891" lon="7.20884132385254"><ele></ele><time>2013-8-4T20:4:43Z</time></trkpt>
<trkpt lat="45.9667930603027" lon="7.20885372161865"><ele></ele><time>2013-8-4T20:4:46Z</time></trkpt>
<trkpt lat="45.9667663574219" lon="7.20886850357056"><ele></ele><time>2013-8-4T20:4:49Z</time></trkpt>
<trkpt lat="45.9667434692383" lon="7.20888519287109"><ele></ele><time>2013-8-4T20:4:52Z</time></trkpt>
<trkpt lat="45.9667205810547" lon="7.20890235900879"><ele></ele><time>2013-8-4T20:4:55Z</time></trkpt>
<trkpt lat="45.9666938781738" lon="7.20892477035522"><ele></ele><time>2013-8-4T20:4:58Z</time></trkpt>
<trkpt lat="45.9665412902832" lon="7.20904111862183"><ele></ele><time>2013-8-4T20:5:1Z</time></trkpt>
<trkpt lat="45.9665145874023" lon="7.20905780792236"><ele></ele><time>2013-8-4T20:5:4Z</time></trkpt>
<trkpt lat="45.9664916992188" lon="7.20907974243164"><ele></ele><time>2013-8-4T20:5:7Z</time></trkpt>
<trkpt lat="45.9664688110352" lon="7.2090950012207"><ele></ele><time>2013-8-4T20:5:10Z</time></trkpt>
<trkpt lat="45.9664421081543" lon="7.20911264419556"><ele></ele><time>2013-8-4T20:5:13Z</time></trkpt>
<trkpt lat="45.9663391113281" lon="7.2091908454895"><ele></ele><time>2013-8-4T20:5:16Z</time></trkpt>
<trkpt lat="45.9662857055664" lon="7.2092170715332"><ele></ele><time>2013-8-4T20:5:19Z</time></trkpt>
<trkpt lat="45.9662017822266" lon="7.20927476882935"><ele></ele><time>2013-8-4T20:5:22Z</time></trkpt>
<trkpt lat="45.9661712646484" lon="7.20929479598999"><ele></ele><time>2013-8-4T20:5:25Z</time></trkpt>
<trkpt lat="45.9661445617676" lon="7.20931005477905"><ele></ele><time>2013-8-4T20:5:28Z</time></trkpt>
<trkpt lat="45.966121673584" lon="7.2093243598938"><ele></ele><time>2013-8-4T20:5:31Z</time></trkpt>
<trkpt lat="45.9660949707031" lon="7.20933866500854"><ele></ele><time>2013-8-4T20:5:34Z</time></trkpt>
<trkpt lat="45.9659729003906" lon="7.20940637588501"><ele></ele><time>2013-8-4T20:5:37Z</time></trkpt>
<trkpt lat="45.9659233093262" lon="7.20942497253418"><ele></ele><time>2013-8-4T20:5:40Z</time></trkpt>
<trkpt lat="45.9658966064453" lon="7.20943117141724"><ele></ele><time>2013-8-4T20:5:43Z</time></trkpt>
<trkpt lat="45.9658699035644" lon="7.20943832397461"><ele></ele><time>2013-8-4T20:5:46Z</time></trkpt>
<trkpt lat="45.9658393859863" lon="7.20944356918335"><ele></ele><time>2013-8-4T20:5:49Z</time></trkpt>
<trkpt lat="45.9658088684082" lon="7.20944690704346"><ele></ele><time>2013-8-4T20:5:52Z</time></trkpt>
<trkpt lat="45.9657516479492" lon="7.2094554901123"><ele></ele><time>2013-8-4T20:5:55Z</time></trkpt>
<trkpt lat="45.9656982421875" lon="7.20945644378662"><ele></ele><time>2013-8-4T20:5:58Z</time></trkpt>
<trkpt lat="45.965648651123" lon="7.20945978164673"><ele></ele><time>2013-8-4T20:6:1Z</time></trkpt>
<trkpt lat="45.9655647277832" lon="7.20945930480957"><ele></ele><time>2013-8-4T20:6:4Z</time></trkpt>
<trkpt lat="45.9655380249023" lon="7.20945930480957"><ele></ele><time>2013-8-4T20:6:7Z</time></trkpt>
<trkpt lat="45.9655113220215" lon="7.20945644378662"><ele></ele><time>2013-8-4T20:6:10Z</time></trkpt>
<trkpt lat="45.9654846191406" lon="7.20945358276367"><ele></ele><time>2013-8-4T20:6:13Z</time></trkpt>
<trkpt lat="45.9654579162598" lon="7.20945024490356"><ele></ele><time>2013-8-4T20:6:16Z</time></trkpt>
<trkpt lat="45.9654273986816" lon="7.20944881439209"><ele></ele><time>2013-8-4T20:6:19Z</time></trkpt>
<trkpt lat="45.965274810791" lon="7.20944023132324"><ele></ele><time>2013-8-4T20:6:22Z</time></trkpt>
<trkpt lat="45.9652481079102" lon="7.20943117141724"><ele></ele><time>2013-8-4T20:6:25Z</time></trkpt>
<trkpt lat="45.9652214050293" lon="7.20942544937134"><ele></ele><time>2013-8-4T20:6:28Z</time></trkpt>
<trkpt lat="45.9651908874512" lon="7.20942115783691"><ele></ele><time>2013-8-4T20:6:31Z</time></trkpt>
<trkpt lat="45.9651641845703" lon="7.20942115783691"><ele></ele><time>2013-8-4T20:6:34Z</time></trkpt>
<trkpt lat="45.9651374816894" lon="7.20942258834839"><ele></ele><time>2013-8-4T20:6:37Z</time></trkpt>
<trkpt lat="45.9651069641113" lon="7.20941829681396"><ele></ele><time>2013-8-4T20:6:40Z</time></trkpt>
<trkpt lat="45.9650802612305" lon="7.20941066741943"><ele></ele><time>2013-8-4T20:6:43Z</time></trkpt>
<trkpt lat="45.9649505615234" lon="7.20941400527954"><ele></ele><time>2013-8-4T20:6:46Z</time></trkpt>
<trkpt lat="45.9649238586426" lon="7.20941495895386"><ele></ele><time>2013-8-4T20:6:49Z</time></trkpt>
<trkpt lat="45.9649085998535" lon="7.2094202041626"><ele></ele><time>2013-8-4T20:6:52Z</time></trkpt>
<trkpt lat="45.9648857116699" lon="7.20943021774292"><ele></ele><time>2013-8-4T20:6:55Z</time></trkpt>
<trkpt lat="45.9648170471191" lon="7.20947313308716"><ele></ele><time>2013-8-4T20:6:58Z</time></trkpt>
<trkpt lat="45.9647560119629" lon="7.2094931602478"><ele></ele><time>2013-8-4T20:7:1Z</time></trkpt>
<trkpt lat="45.964729309082" lon="7.20949220657349"><ele></ele><time>2013-8-4T20:7:4Z</time></trkpt>
<trkpt lat="45.9646987915039" lon="7.20949220657349"><ele></ele><time>2013-8-4T20:7:7Z</time></trkpt>
<trkpt lat="45.9646682739258" lon="7.20948839187622"><ele></ele><time>2013-8-4T20:7:10Z</time></trkpt>
<trkpt lat="45.9646339416504" lon="7.20948171615601"><ele></ele><time>2013-8-4T20:7:13Z</time></trkpt>
<trkpt lat="45.9646034240723" lon="7.2094783782959"><ele></ele><time>2013-8-4T20:7:16Z</time></trkpt>
<trkpt lat="45.9645729064941" lon="7.20947647094726"><ele></ele><time>2013-8-4T20:7:19Z</time></trkpt>
<trkpt lat="45.9645118713379" lon="7.20947599411011"><ele></ele><time>2013-8-4T20:7:22Z</time></trkpt>
<trkpt lat="45.9644203186035" lon="7.20947074890137"><ele></ele><time>2013-8-4T20:7:25Z</time></trkpt>
<trkpt lat="45.9643898010254" lon="7.20946836471558"><ele></ele><time>2013-8-4T20:7:28Z</time></trkpt>
<trkpt lat="45.9643630981445" lon="7.20946216583252"><ele></ele><time>2013-8-4T20:7:31Z</time></trkpt>
<trkpt lat="45.9643325805664" lon="7.2094578742981"><ele></ele><time>2013-8-4T20:7:34Z</time></trkpt>
<trkpt lat="45.9643058776856" lon="7.20945501327515"><ele></ele><time>2013-8-4T20:7:37Z</time></trkpt>
<trkpt lat="45.964183807373" lon="7.20943784713745"><ele></ele><time>2013-8-4T20:7:40Z</time></trkpt>
<trkpt lat="45.9641571044922" lon="7.20943355560303"><ele></ele><time>2013-8-4T20:7:43Z</time></trkpt>
<trkpt lat="45.9641304016113" lon="7.20943021774292"><ele></ele><time>2013-8-4T20:7:46Z</time></trkpt>
<trkpt lat="45.9640998840332" lon="7.20943212509155"><ele></ele><time>2013-8-4T20:7:49Z</time></trkpt>
<trkpt lat="45.9640693664551" lon="7.20943403244018"><ele></ele><time>2013-8-4T20:7:52Z</time></trkpt>
<trkpt lat="45.9640083312988" lon="7.20943021774292"><ele></ele><time>2013-8-4T20:7:55Z</time></trkpt>
<trkpt lat="45.9638862609863" lon="7.20943546295166"><ele></ele><time>2013-8-4T20:7:58Z</time></trkpt>
<trkpt lat="45.9638557434082" lon="7.20943403244018"><ele></ele><time>2013-8-4T20:8:1Z</time></trkpt>
<trkpt lat="45.9638252258301" lon="7.20944166183472"><ele></ele><time>2013-8-4T20:8:4Z</time></trkpt>
<trkpt lat="45.9637985229492" lon="7.20944356918335"><ele></ele><time>2013-8-4T20:8:7Z</time></trkpt>
<trkpt lat="45.9637680053711" lon="7.20944309234619"><ele></ele><time>2013-8-4T20:8:10Z</time></trkpt>
<trkpt lat="45.9635963439941" lon="7.20944166183472"><ele></ele><time>2013-8-4T20:8:13Z</time></trkpt>
<trkpt lat="45.9635696411133" lon="7.20944738388062"><ele></ele><time>2013-8-4T20:8:16Z</time></trkpt>
<trkpt lat="45.9635391235352" lon="7.2094521522522"><ele></ele><time>2013-8-4T20:8:19Z</time></trkpt>
<trkpt lat="45.9635047912598" lon="7.2094612121582"><ele></ele><time>2013-8-4T20:8:22Z</time></trkpt>
<trkpt lat="45.9634742736816" lon="7.20946455001831"><ele></ele><time>2013-8-4T20:8:25Z</time></trkpt>
<trkpt lat="45.9632682800293" lon="7.20950174331665"><ele></ele><time>2013-8-4T20:8:28Z</time></trkpt>
<trkpt lat="45.9632377624512" lon="7.20950555801392"><ele></ele><time>2013-8-4T20:8:31Z</time></trkpt>
<trkpt lat="45.9632110595703" lon="7.20950555801392"><ele></ele><time>2013-8-4T20:8:34Z</time></trkpt>
<trkpt lat="45.9631805419922" lon="7.20951128005982"><ele></ele><time>2013-8-4T20:8:37Z</time></trkpt>
<trkpt lat="45.9631538391113" lon="7.20951747894287"><ele></ele><time>2013-8-4T20:8:40Z</time></trkpt>
<trkpt lat="45.9630699157715" lon="7.20952606201172"><ele></ele><time>2013-8-4T20:8:43Z</time></trkpt>
<trkpt lat="45.9629516601562" lon="7.20954418182373"><ele></ele><time>2013-8-4T20:8:46Z</time></trkpt>
<trkpt lat="45.9629211425781" lon="7.209547996521"><ele></ele><time>2013-8-4T20:8:49Z</time></trkpt>
<trkpt lat="45.962890625" lon="7.20955181121826"><ele></ele><time>2013-8-4T20:8:52Z</time></trkpt>
<trkpt lat="45.9628639221191" lon="7.20955801010132"><ele></ele><time>2013-8-4T20:8:55Z</time></trkpt>
<trkpt lat="45.9628372192383" lon="7.20956182479858"><ele></ele><time>2013-8-4T20:8:58Z</time></trkpt>
<trkpt lat="45.9626426696777" lon="7.2095685005188"><ele></ele><time>2013-8-4T20:9:1Z</time></trkpt>
<trkpt lat="45.9626159667969" lon="7.2095685005188"><ele></ele><time>2013-8-4T20:9:4Z</time></trkpt>
<trkpt lat="45.962589263916" lon="7.20956897735596"><ele></ele><time>2013-8-4T20:9:7Z</time></trkpt>
<trkpt lat="45.9625663757324" lon="7.20957088470459"><ele></ele><time>2013-8-4T20:9:10Z</time></trkpt>
<trkpt lat="45.9625396728516" lon="7.20956707000732"><ele></ele><time>2013-8-4T20:9:13Z</time></trkpt>
<trkpt lat="45.9624061584473" lon="7.20955991744995"><ele></ele><time>2013-8-4T20:9:16Z</time></trkpt>
<trkpt lat="45.9623756408691" lon="7.20955991744995"><ele></ele><time>2013-8-4T20:9:19Z</time></trkpt>
<trkpt lat="45.9623489379883" lon="7.20955896377564"><ele></ele><time>2013-8-4T20:9:22Z</time></trkpt>
<trkpt lat="45.9623222351074" lon="7.20955467224121"><ele></ele><time>2013-8-4T20:9:25Z</time></trkpt>
<trkpt lat="45.9622917175293" lon="7.2095537185669"><ele></ele><time>2013-8-4T20:9:28Z</time></trkpt>
<trkpt lat="45.9622039794922" lon="7.20953941345215"><ele></ele><time>2013-8-4T20:9:31Z</time></trkpt>
<trkpt lat="45.9620895385742" lon="7.20950889587402"><ele></ele><time>2013-8-4T20:9:34Z</time></trkpt>
<trkpt lat="45.9620628356934" lon="7.20950078964233"><ele></ele><time>2013-8-4T20:9:37Z</time></trkpt>
<trkpt lat="45.9620323181152" lon="7.20949506759644"><ele></ele><time>2013-8-4T20:9:40Z</time></trkpt>
<trkpt lat="45.9620056152344" lon="7.20948600769043"><ele></ele><time>2013-8-4T20:9:43Z</time></trkpt>
<trkpt lat="45.9619750976562" lon="7.20947647094726"><ele></ele><time>2013-8-4T20:9:46Z</time></trkpt>
<trkpt lat="45.9619483947754" lon="7.20946598052978"><ele></ele><time>2013-8-4T20:9:49Z</time></trkpt>
<trkpt lat="45.9617881774902" lon="7.2094030380249"><ele></ele><time>2013-8-4T20:9:52Z</time></trkpt>
<trkpt lat="45.9617614746094" lon="7.20939254760742"><ele></ele><time>2013-8-4T20:9:55Z</time></trkpt>
<trkpt lat="45.9617309570312" lon="7.20938444137573"><ele></ele><time>2013-8-4T20:9:58Z</time></trkpt>
<trkpt lat="45.9617042541504" lon="7.20937585830688"><ele></ele><time>2013-8-4T20:10:1Z</time></trkpt>
<trkpt lat="45.9616775512695" lon="7.2093653678894"><ele></ele><time>2013-8-4T20:10:4Z</time></trkpt>
<trkpt lat="45.9615173339844" lon="7.20928525924683"><ele></ele><time>2013-8-4T20:10:7Z</time></trkpt>
<trkpt lat="45.9614906311035" lon="7.2092695236206"><ele></ele><time>2013-8-4T20:10:10Z</time></trkpt>
<trkpt lat="45.9614639282227" lon="7.20925903320312"><ele></ele><time>2013-8-4T20:10:13Z</time></trkpt>
<trkpt lat="45.9614372253418" lon="7.20924711227417"><ele></ele><time>2013-8-4T20:10:16Z</time></trkpt>
<trkpt lat="45.9613342285156" lon="7.2091965675354"><ele></ele><time>2013-8-4T20:10:19Z</time></trkpt>
<trkpt lat="45.9612884521484" lon="7.20917177200317"><ele></ele><time>2013-8-4T20:10:22Z</time></trkpt>
<trkpt lat="45.9612617492676" lon="7.20916080474854"><ele></ele><time>2013-8-4T20:10:25Z</time></trkpt>
<trkpt lat="45.9612350463867" lon="7.20915174484253"><ele></ele><time>2013-8-4T20:10:28Z</time></trkpt>
<trkpt lat="45.9612083435059" lon="7.20914030075073"><ele></ele><time>2013-8-4T20:10:31Z</time></trkpt>
<trkpt lat="45.961181640625" lon="7.20912837982178"><ele></ele><time>2013-8-4T20:10:34Z</time></trkpt>
<trkpt lat="45.9609527587891" lon="7.20903301239014"><ele></ele><time>2013-8-4T20:10:37Z</time></trkpt>
<trkpt lat="45.9609222412109" lon="7.20902061462402"><ele></ele><time>2013-8-4T20:10:40Z</time></trkpt>
<trkpt lat="45.9608955383301" lon="7.20900869369507"><ele></ele><time>2013-8-4T20:10:43Z</time></trkpt>
<trkpt lat="45.960865020752" lon="7.2089991569519"><ele></ele><time>2013-8-4T20:10:46Z</time></trkpt>
<trkpt lat="45.9608345031738" lon="7.20898723602295"><ele></ele><time>2013-8-4T20:10:49Z</time></trkpt>
<trkpt lat="45.960693359375" lon="7.20893001556396"><ele></ele><time>2013-8-4T20:10:52Z</time></trkpt>
<trkpt lat="45.9606399536133" lon="7.20890522003174"><ele></ele><time>2013-8-4T20:10:55Z</time></trkpt>
<trkpt lat="45.9606094360352" lon="7.20889616012573"><ele></ele><time>2013-8-4T20:10:58Z</time></trkpt>
<trkpt lat="45.960578918457" lon="7.20888757705688"><ele></ele><time>2013-8-4T20:11:1Z</time></trkpt>
<trkpt lat="45.9605522155762" lon="7.20887994766235"><ele></ele><time>2013-8-4T20:11:4Z</time></trkpt>
<trkpt lat="45.9605178833008" lon="7.20886945724487"><ele></ele><time>2013-8-4T20:11:7Z</time></trkpt>
<trkpt lat="45.9604263305664" lon="7.20883846282959"><ele></ele><time>2013-8-4T20:11:10Z</time></trkpt>
<trkpt lat="45.9601440429688" lon="7.2087664604187"><ele></ele><time>2013-8-4T20:11:13Z</time></trkpt>
<trkpt lat="45.9601135253906" lon="7.20875883102417"><ele></ele><time>2013-8-4T20:11:16Z</time></trkpt>
<trkpt lat="45.9600791931152" lon="7.2087516784668"><ele></ele><time>2013-8-4T20:11:19Z</time></trkpt>
<trkpt lat="45.9600486755371" lon="7.20874452590942"><ele></ele><time>2013-8-4T20:11:22Z</time></trkpt>
<trkpt lat="45.9600143432617" lon="7.208740234375"><ele></ele><time>2013-8-4T20:11:25Z</time></trkpt>
<trkpt lat="45.959888458252" lon="7.20871591567993"><ele></ele><time>2013-8-4T20:11:28Z</time></trkpt>
<trkpt lat="45.9597930908203" lon="7.20870304107666"><ele></ele><time>2013-8-4T20:11:31Z</time></trkpt>
<trkpt lat="45.9597625732422" lon="7.20869779586792"><ele></ele><time>2013-8-4T20:11:34Z</time></trkpt>
<trkpt lat="45.9597320556641" lon="7.20869207382202"><ele></ele><time>2013-8-4T20:11:37Z</time></trkpt>
<trkpt lat="45.9596977233887" lon="7.20868635177612"><ele></ele><time>2013-8-4T20:11:40Z</time></trkpt>
<trkpt lat="45.9596710205078" lon="7.20868015289307"><ele></ele><time>2013-8-4T20:11:43Z</time></trkpt>
<trkpt lat="45.9596061706543" lon="7.20867252349854"><ele></ele><time>2013-8-4T20:11:46Z</time></trkpt>
<trkpt lat="45.959400177002" lon="7.20864772796631"><ele></ele><time>2013-8-4T20:11:49Z</time></trkpt>
<trkpt lat="45.9593276977539" lon="7.20864915847778"><ele></ele><time>2013-8-4T20:11:52Z</time></trkpt>
<trkpt lat="45.9592933654785" lon="7.20864677429199"><ele></ele><time>2013-8-4T20:11:55Z</time></trkpt>
<trkpt lat="45.9592552185059" lon="7.20864820480347"><ele></ele><time>2013-8-4T20:11:58Z</time></trkpt>
<trkpt lat="45.9592247009277" lon="7.20864772796631"><ele></ele><time>2013-8-4T20:12:1Z</time></trkpt>
<trkpt lat="45.9590339660644" lon="7.20864820480347"><ele></ele><time>2013-8-4T20:12:4Z</time></trkpt>
<trkpt lat="45.9589691162109" lon="7.20865058898926"><ele></ele><time>2013-8-4T20:12:7Z</time></trkpt>
<trkpt lat="45.9589385986328" lon="7.20865154266357"><ele></ele><time>2013-8-4T20:12:10Z</time></trkpt>
<trkpt lat="45.9589080810547" lon="7.20864915847778"><ele></ele><time>2013-8-4T20:12:13Z</time></trkpt>
<trkpt lat="45.9588737487793" lon="7.20864772796631"><ele></ele><time>2013-8-4T20:12:16Z</time></trkpt>
<trkpt lat="45.9588432312012" lon="7.2086501121521"><ele></ele><time>2013-8-4T20:12:19Z</time></trkpt>
<trkpt lat="45.958812713623" lon="7.20865201950073"><ele></ele><time>2013-8-4T20:12:22Z</time></trkpt>
<trkpt lat="45.9587440490723" lon="7.20865964889526"><ele></ele><time>2013-8-4T20:12:25Z</time></trkpt>
<trkpt lat="45.958610534668" lon="7.20867967605591"><ele></ele><time>2013-8-4T20:12:28Z</time></trkpt>
<trkpt lat="45.9585456848144" lon="7.2086935043335"><ele></ele><time>2013-8-4T20:12:31Z</time></trkpt>
<trkpt lat="45.9585113525391" lon="7.20869731903076"><ele></ele><time>2013-8-4T20:12:34Z</time></trkpt>
<trkpt lat="45.9584846496582" lon="7.20870065689087"><ele></ele><time>2013-8-4T20:12:37Z</time></trkpt>
<trkpt lat="45.9584541320801" lon="7.20870399475098"><ele></ele><time>2013-8-4T20:12:40Z</time></trkpt>
<trkpt lat="45.9584274291992" lon="7.2087082862854"><ele></ele><time>2013-8-4T20:12:43Z</time></trkpt>
<trkpt lat="45.9582672119141" lon="7.20873022079468"><ele></ele><time>2013-8-4T20:12:46Z</time></trkpt>
<trkpt lat="45.9581298828125" lon="7.20876169204712"><ele></ele><time>2013-8-4T20:12:49Z</time></trkpt>
<trkpt lat="45.9580993652344" lon="7.2087664604187"><ele></ele><time>2013-8-4T20:12:52Z</time></trkpt>
<trkpt lat="45.9580688476562" lon="7.20877695083618"><ele></ele><time>2013-8-4T20:12:55Z</time></trkpt>
<trkpt lat="45.9580345153809" lon="7.20878219604492"><ele></ele><time>2013-8-4T20:12:58Z</time></trkpt>
<trkpt lat="45.9580078125" lon="7.20878887176514"><ele></ele><time>2013-8-4T20:13:1Z</time></trkpt>
<trkpt lat="45.9578704833984" lon="7.208824634552"><ele></ele><time>2013-8-4T20:13:4Z</time></trkpt>
<trkpt lat="45.9577102661133" lon="7.20888137817383"><ele></ele><time>2013-8-4T20:13:7Z</time></trkpt>
<trkpt lat="45.9576721191406" lon="7.20889902114868"><ele></ele><time>2013-8-4T20:13:10Z</time></trkpt>
<trkpt lat="45.9576377868652" lon="7.2089114189148"><ele></ele><time>2013-8-4T20:13:13Z</time></trkpt>
<trkpt lat="45.9576034545898" lon="7.20892381668091"><ele></ele><time>2013-8-4T20:13:16Z</time></trkpt>
<trkpt lat="45.9575691223144" lon="7.20893335342407"><ele></ele><time>2013-8-4T20:13:19Z</time></trkpt>
<trkpt lat="45.9575347900391" lon="7.20894622802734"><ele></ele><time>2013-8-4T20:13:22Z</time></trkpt>
<trkpt lat="45.9574317932129" lon="7.20898151397705"><ele></ele><time>2013-8-4T20:13:25Z</time></trkpt>
<trkpt lat="45.9573974609375" lon="7.20899438858032"><ele></ele><time>2013-8-4T20:13:28Z</time></trkpt>
<trkpt lat="45.9573669433594" lon="7.20900535583496"><ele></ele><time>2013-8-4T20:13:31Z</time></trkpt>
<trkpt lat="45.957332611084" lon="7.20901966094971"><ele></ele><time>2013-8-4T20:13:34Z</time></trkpt>
<trkpt lat="45.9573020935059" lon="7.20903539657593"><ele></ele><time>2013-8-4T20:13:37Z</time></trkpt>
<trkpt lat="45.9572639465332" lon="7.20905160903931"><ele></ele><time>2013-8-4T20:13:40Z</time></trkpt>
<trkpt lat="45.9571304321289" lon="7.20911026000976"><ele></ele><time>2013-8-4T20:13:43Z</time></trkpt>
<trkpt lat="45.9570388793945" lon="7.20915412902832"><ele></ele><time>2013-8-4T20:13:46Z</time></trkpt>
<trkpt lat="45.9570045471191" lon="7.20916986465454"><ele></ele><time>2013-8-4T20:13:49Z</time></trkpt>
<trkpt lat="45.9567794799805" lon="7.20926284790039"><ele></ele><time>2013-8-4T20:13:52Z</time></trkpt>
<trkpt lat="45.9567413330078" lon="7.20928955078125"><ele></ele><time>2013-8-4T20:13:55Z</time></trkpt>
<trkpt lat="45.9567031860352" lon="7.20930528640747"><ele></ele><time>2013-8-4T20:13:58Z</time></trkpt>
<trkpt lat="45.9566688537598" lon="7.20932531356812"><ele></ele><time>2013-8-4T20:14:1Z</time></trkpt>
<trkpt lat="45.9566345214844" lon="7.20934295654297"><ele></ele><time>2013-8-4T20:14:4Z</time></trkpt>
<trkpt lat="45.9565238952637" lon="7.20940208435059"><ele></ele><time>2013-8-4T20:14:7Z</time></trkpt>
<trkpt lat="45.9564552307129" lon="7.20944452285767"><ele></ele><time>2013-8-4T20:14:10Z</time></trkpt>
<trkpt lat="45.9564208984375" lon="7.20945453643799"><ele></ele><time>2013-8-4T20:14:13Z</time></trkpt>
<trkpt lat="45.9563865661621" lon="7.2094669342041"><ele></ele><time>2013-8-4T20:14:16Z</time></trkpt>
<trkpt lat="45.956356048584" lon="7.20948219299316"><ele></ele><time>2013-8-4T20:14:19Z</time></trkpt>
<trkpt lat="45.9563217163086" lon="7.20949649810791"><ele></ele><time>2013-8-4T20:14:22Z</time></trkpt>
<trkpt lat="45.9562911987305" lon="7.20951318740845"><ele></ele><time>2013-8-4T20:14:25Z</time></trkpt>
<trkpt lat="45.956226348877" lon="7.20954465866089"><ele></ele><time>2013-8-4T20:14:28Z</time></trkpt>
<trkpt lat="45.9560928344727" lon="7.20958709716797"><ele></ele><time>2013-8-4T20:14:31Z</time></trkpt>
<trkpt lat="45.9560585021973" lon="7.20959711074829"><ele></ele><time>2013-8-4T20:14:34Z</time></trkpt>
<trkpt lat="45.9560279846191" lon="7.20960664749146"><ele></ele><time>2013-8-4T20:14:37Z</time></trkpt>
<trkpt lat="45.9559936523438" lon="7.2096266746521"><ele></ele><time>2013-8-4T20:14:40Z</time></trkpt>
<trkpt lat="45.9559631347656" lon="7.20963954925537"><ele></ele><time>2013-8-4T20:14:43Z</time></trkpt>
<trkpt lat="45.9558296203613" lon="7.20966720581055"><ele></ele><time>2013-8-4T20:14:46Z</time></trkpt>
<trkpt lat="45.9557571411133" lon="7.20968341827393"><ele></ele><time>2013-8-4T20:14:49Z</time></trkpt>
<trkpt lat="45.9556312561035" lon="7.2097053527832"><ele></ele><time>2013-8-4T20:14:52Z</time></trkpt>
<trkpt lat="45.9556007385254" lon="7.2097110748291"><ele></ele><time>2013-8-4T20:14:55Z</time></trkpt>
<trkpt lat="45.9555778503418" lon="7.20971918106079"><ele></ele><time>2013-8-4T20:14:58Z</time></trkpt>
<trkpt lat="45.9555435180664" lon="7.2097225189209"><ele></ele><time>2013-8-4T20:15:1Z</time></trkpt>
<trkpt lat="45.9555130004883" lon="7.20973205566406"><ele></ele><time>2013-8-4T20:15:4Z</time></trkpt>
<trkpt lat="45.9553833007812" lon="7.20975542068482"><ele></ele><time>2013-8-4T20:15:7Z</time></trkpt>
<trkpt lat="45.9553527832031" lon="7.20975828170776"><ele></ele><time>2013-8-4T20:15:10Z</time></trkpt>
<trkpt lat="45.9553184509277" lon="7.20976161956787"><ele></ele><time>2013-8-4T20:15:13Z</time></trkpt>
<trkpt lat="45.9552841186523" lon="7.20977067947388"><ele></ele><time>2013-8-4T20:15:16Z</time></trkpt>
<trkpt lat="45.9552536010742" lon="7.20977306365967"><ele></ele><time>2013-8-4T20:15:19Z</time></trkpt>
<trkpt lat="45.9552230834961" lon="7.20977449417114"><ele></ele><time>2013-8-4T20:15:22Z</time></trkpt>
<trkpt lat="45.9551620483398" lon="7.20978212356567"><ele></ele><time>2013-8-4T20:15:25Z</time></trkpt>
<trkpt lat="45.9549713134766" lon="7.2097897529602"><ele></ele><time>2013-8-4T20:15:28Z</time></trkpt>
<trkpt lat="45.9549407958984" lon="7.20979022979736"><ele></ele><time>2013-8-4T20:15:31Z</time></trkpt>
<trkpt lat="45.9549140930176" lon="7.20978927612305"><ele></ele><time>2013-8-4T20:15:34Z</time></trkpt>
<trkpt lat="45.9548797607422" lon="7.20978784561157"><ele></ele><time>2013-8-4T20:15:37Z</time></trkpt>
<trkpt lat="45.9548492431641" lon="7.20979070663452"><ele></ele><time>2013-8-4T20:15:40Z</time></trkpt>
<trkpt lat="45.954662322998" lon="7.20978546142578"><ele></ele><time>2013-8-4T20:15:43Z</time></trkpt>
<trkpt lat="45.9545669555664" lon="7.20977687835693"><ele></ele><time>2013-8-4T20:15:46Z</time></trkpt>
<trkpt lat="45.9545364379883" lon="7.20977544784546"><ele></ele><time>2013-8-4T20:15:49Z</time></trkpt>
<trkpt lat="45.9545059204102" lon="7.20977544784546"><ele></ele><time>2013-8-4T20:15:52Z</time></trkpt>
<trkpt lat="45.954475402832" lon="7.20977449417114"><ele></ele><time>2013-8-4T20:15:55Z</time></trkpt>
<trkpt lat="45.9544410705566" lon="7.20977354049683"><ele></ele><time>2013-8-4T20:15:58Z</time></trkpt>
<trkpt lat="45.9543838500977" lon="7.20976066589356"><ele></ele><time>2013-8-4T20:16:1Z</time></trkpt>
<trkpt lat="45.9542236328125" lon="7.2097339630127"><ele></ele><time>2013-8-4T20:16:4Z</time></trkpt>
<trkpt lat="45.9541893005371" lon="7.2097339630127"><ele></ele><time>2013-8-4T20:16:7Z</time></trkpt>
<trkpt lat="45.954158782959" lon="7.20972919464111"><ele></ele><time>2013-8-4T20:16:10Z</time></trkpt>
<trkpt lat="45.9541282653809" lon="7.20972204208374"><ele></ele><time>2013-8-4T20:16:13Z</time></trkpt>
<trkpt lat="45.9540977478027" lon="7.20971870422363"><ele></ele><time>2013-8-4T20:16:16Z</time></trkpt>
<trkpt lat="45.9539337158203" lon="7.20968341827393"><ele></ele><time>2013-8-4T20:16:19Z</time></trkpt>
<trkpt lat="45.9538688659668" lon="7.20966291427612"><ele></ele><time>2013-8-4T20:16:22Z</time></trkpt>
<trkpt lat="45.9538383483887" lon="7.20965719223022"><ele></ele><time>2013-8-4T20:16:25Z</time></trkpt>
<trkpt lat="45.9538078308106" lon="7.20964813232422"><ele></ele><time>2013-8-4T20:16:28Z</time></trkpt>
<trkpt lat="45.9537734985352" lon="7.20963954925537"><ele></ele><time>2013-8-4T20:16:31Z</time></trkpt>
<trkpt lat="45.953742980957" lon="7.20962953567505"><ele></ele><time>2013-8-4T20:16:34Z</time></trkpt>
<trkpt lat="45.9537124633789" lon="7.20962381362915"><ele></ele><time>2013-8-4T20:16:37Z</time></trkpt>
<trkpt lat="45.9534645080566" lon="7.20954656600952"><ele></ele><time>2013-8-4T20:16:40Z</time></trkpt>
<trkpt lat="45.9534301757812" lon="7.20953321456909"><ele></ele><time>2013-8-4T20:16:43Z</time></trkpt>
<trkpt lat="45.9534034729004" lon="7.20951986312866"><ele></ele><time>2013-8-4T20:16:46Z</time></trkpt>
<trkpt lat="45.9533729553223" lon="7.2095103263855"><ele></ele><time>2013-8-4T20:16:49Z</time></trkpt>
<trkpt lat="45.9533424377441" lon="7.20950031280518"><ele></ele><time>2013-8-4T20:16:52Z</time></trkpt>
<trkpt lat="45.9532508850098" lon="7.20947647094726"><ele></ele><time>2013-8-4T20:16:55Z</time></trkpt>
<trkpt lat="45.9531555175781" lon="7.20945072174072"><ele></ele><time>2013-8-4T20:16:58Z</time></trkpt>
<trkpt lat="45.953125" lon="7.20944261550903"><ele></ele><time>2013-8-4T20:17:1Z</time></trkpt>
<trkpt lat="45.9530944824219" lon="7.20943260192871"><ele></ele><time>2013-8-4T20:17:4Z</time></trkpt>
<trkpt lat="45.9530639648438" lon="7.2094259262085"><ele></ele><time>2013-8-4T20:17:7Z</time></trkpt>
<trkpt lat="45.9529724121094" lon="7.2093915939331"><ele></ele><time>2013-8-4T20:17:10Z</time></trkpt>
<trkpt lat="45.9528770446777" lon="7.20936584472656"><ele></ele><time>2013-8-4T20:17:13Z</time></trkpt>
<trkpt lat="45.9528465270996" lon="7.20935821533203"><ele></ele><time>2013-8-4T20:17:16Z</time></trkpt>
<trkpt lat="45.9528198242188" lon="7.20935106277466"><ele></ele><time>2013-8-4T20:17:19Z</time></trkpt>
<trkpt lat="45.9527854919434" lon="7.20934581756592"><ele></ele><time>2013-8-4T20:17:22Z</time></trkpt>
<trkpt lat="45.9527549743652" lon="7.20933771133423"><ele></ele><time>2013-8-4T20:17:25Z</time></trkpt>
<trkpt lat="45.9525413513184" lon="7.209303855896"><ele></ele><time>2013-8-4T20:17:28Z</time></trkpt>
<trkpt lat="45.9525146484375" lon="7.20930099487305"><ele></ele><time>2013-8-4T20:17:31Z</time></trkpt>
<trkpt lat="45.9524803161621" lon="7.20929145812988"><ele></ele><time>2013-8-4T20:17:34Z</time></trkpt>
<trkpt lat="45.952449798584" lon="7.2092866897583"><ele></ele><time>2013-8-4T20:17:37Z</time></trkpt>
<trkpt lat="45.9524192810059" lon="7.20927858352661"><ele></ele><time>2013-8-4T20:17:40Z</time></trkpt>
<trkpt lat="45.9522857666016" lon="7.20926284790039"><ele></ele><time>2013-8-4T20:17:43Z</time></trkpt>
<trkpt lat="45.9522132873535" lon="7.20925998687744"><ele></ele><time>2013-8-4T20:17:46Z</time></trkpt>
<trkpt lat="45.9521789550781" lon="7.20925760269165"><ele></ele><time>2013-8-4T20:17:49Z</time></trkpt>
<trkpt lat="45.9521446228027" lon="7.20925235748291"><ele></ele><time>2013-8-4T20:17:52Z</time></trkpt>
<trkpt lat="45.9521102905273" lon="7.20924949645996"><ele></ele><time>2013-8-4T20:17:55Z</time></trkpt>
<trkpt lat="45.9520797729492" lon="7.20924663543701"><ele></ele><time>2013-8-4T20:17:58Z</time></trkpt>
<trkpt lat="45.9520111083984" lon="7.20923757553101"><ele></ele><time>2013-8-4T20:18:1Z</time></trkpt>
<trkpt lat="45.9517593383789" lon="7.20922660827637"><ele></ele><time>2013-8-4T20:18:4Z</time></trkpt>
<trkpt lat="45.9517250061035" lon="7.20922183990478"><ele></ele><time>2013-8-4T20:18:7Z</time></trkpt>
<trkpt lat="45.9516944885254" lon="7.20922327041626"><ele></ele><time>2013-8-4T20:18:10Z</time></trkpt>
<trkpt lat="45.9516639709473" lon="7.20922517776489"><ele></ele><time>2013-8-4T20:18:13Z</time></trkpt>
<trkpt lat="45.9516334533691" lon="7.20922374725342"><ele></ele><time>2013-8-4T20:18:16Z</time></trkpt>
<trkpt lat="45.9514961242676" lon="7.20923185348511"><ele></ele><time>2013-8-4T20:18:19Z</time></trkpt>
<trkpt lat="45.9514656066894" lon="7.20923566818237"><ele></ele><time>2013-8-4T20:18:22Z</time></trkpt>
<trkpt lat="45.9514350891113" lon="7.20923757553101"><ele></ele><time>2013-8-4T20:18:25Z</time></trkpt>
<trkpt lat="45.9514045715332" lon="7.20923852920532"><ele></ele><time>2013-8-4T20:18:28Z</time></trkpt>
<trkpt lat="45.9513740539551" lon="7.2092456817627"><ele></ele><time>2013-8-4T20:18:31Z</time></trkpt>
<trkpt lat="45.951343536377" lon="7.20924711227417"><ele></ele><time>2013-8-4T20:18:34Z</time></trkpt>
<trkpt lat="45.9512519836426" lon="7.20925664901733"><ele></ele><time>2013-8-4T20:18:37Z</time></trkpt>
<trkpt lat="45.9510917663574" lon="7.20927286148071"><ele></ele><time>2013-8-4T20:18:40Z</time></trkpt>
<trkpt lat="45.951057434082" lon="7.2092752456665"><ele></ele><time>2013-8-4T20:18:43Z</time></trkpt>
<trkpt lat="45.9510269165039" lon="7.2092752456665"><ele></ele><time>2013-8-4T20:18:46Z</time></trkpt>
<trkpt lat="45.951000213623" lon="7.20927619934082"><ele></ele><time>2013-8-4T20:18:49Z</time></trkpt>
<trkpt lat="45.9509696960449" lon="7.20928382873535"><ele></ele><time>2013-8-4T20:18:52Z</time></trkpt>
<trkpt lat="45.9507904052734" lon="7.20932197570801"><ele></ele><time>2013-8-4T20:18:55Z</time></trkpt>
<trkpt lat="45.950756072998" lon="7.20933151245117"><ele></ele><time>2013-8-4T20:18:58Z</time></trkpt>
<trkpt lat="45.9507255554199" lon="7.20933294296265"><ele></ele><time>2013-8-4T20:19:1Z</time></trkpt>
<trkpt lat="45.9506912231445" lon="7.20934152603149"><ele></ele><time>2013-8-4T20:19:4Z</time></trkpt>
<trkpt lat="45.9506568908691" lon="7.20934724807739"><ele></ele><time>2013-8-4T20:19:7Z</time></trkpt>
<trkpt lat="45.9505386352539" lon="7.20938396453857"><ele></ele><time>2013-8-4T20:19:10Z</time></trkpt>
<trkpt lat="45.950382232666" lon="7.20941877365112"><ele></ele><time>2013-8-4T20:19:13Z</time></trkpt>
<trkpt lat="45.9503517150879" lon="7.20943069458008"><ele></ele><time>2013-8-4T20:19:16Z</time></trkpt>
<trkpt lat="45.9503211975098" lon="7.20943880081177"><ele></ele><time>2013-8-4T20:19:19Z</time></trkpt>
<trkpt lat="45.9502906799316" lon="7.20945072174072"><ele></ele><time>2013-8-4T20:19:22Z</time></trkpt>
<trkpt lat="45.9502639770508" lon="7.20946311950684"><ele></ele><time>2013-8-4T20:19:25Z</time></trkpt>
<trkpt lat="45.9501647949219" lon="7.20949220657349"><ele></ele><time>2013-8-4T20:19:28Z</time></trkpt>
<trkpt lat="45.9500770568848" lon="7.20951223373413"><ele></ele><time>2013-8-4T20:19:31Z</time></trkpt>
<trkpt lat="45.9500465393066" lon="7.2095193862915"><ele></ele><time>2013-8-4T20:19:34Z</time></trkpt>
<trkpt lat="45.9500198364258" lon="7.20952558517456"><ele></ele><time>2013-8-4T20:19:37Z</time></trkpt>
<trkpt lat="45.9499893188477" lon="7.20953559875488"><ele></ele><time>2013-8-4T20:19:40Z</time></trkpt>
<trkpt lat="45.9499244689941" lon="7.20955657958984"><ele></ele><time>2013-8-4T20:19:43Z</time></trkpt>
<trkpt lat="45.9497756958008" lon="7.20960998535156"><ele></ele><time>2013-8-4T20:19:46Z</time></trkpt>
<trkpt lat="45.9496841430664" lon="7.2096357345581"><ele></ele><time>2013-8-4T20:19:49Z</time></trkpt>
<trkpt lat="45.9496536254883" lon="7.20964431762695"><ele></ele><time>2013-8-4T20:19:52Z</time></trkpt>
<trkpt lat="45.9496231079102" lon="7.20965242385864"><ele></ele><time>2013-8-4T20:19:55Z</time></trkpt>
<trkpt lat="45.9495887756348" lon="7.20965957641602"><ele></ele><time>2013-8-4T20:19:58Z</time></trkpt>
<trkpt lat="45.9495582580566" lon="7.20966672897339"><ele></ele><time>2013-8-4T20:20:1Z</time></trkpt>
<trkpt lat="45.9494323730469" lon="7.20969200134277"><ele></ele><time>2013-8-4T20:20:4Z</time></trkpt>
<trkpt lat="45.9493370056152" lon="7.20971536636352"><ele></ele><time>2013-8-4T20:20:7Z</time></trkpt>
<trkpt lat="45.9493103027344" lon="7.20971822738648"><ele></ele><time>2013-8-4T20:20:10Z</time></trkpt>
<trkpt lat="45.9492797851562" lon="7.20972633361816"><ele></ele><time>2013-8-4T20:20:13Z</time></trkpt>
<trkpt lat="45.9492530822754" lon="7.2097315788269"><ele></ele><time>2013-8-4T20:20:16Z</time></trkpt>
<trkpt lat="45.9492225646973" lon="7.20973300933838"><ele></ele><time>2013-8-4T20:20:19Z</time></trkpt>
<trkpt lat="45.9491958618164" lon="7.20973873138428"><ele></ele><time>2013-8-4T20:20:22Z</time></trkpt>
<trkpt lat="45.9490203857422" lon="7.20974111557007"><ele></ele><time>2013-8-4T20:20:25Z</time></trkpt>
<trkpt lat="45.9489936828613" lon="7.20974016189575"><ele></ele><time>2013-8-4T20:20:28Z</time></trkpt>
<trkpt lat="45.9489669799805" lon="7.20974159240723"><ele></ele><time>2013-8-4T20:20:31Z</time></trkpt>
<trkpt lat="45.9489364624023" lon="7.20973968505859"><ele></ele><time>2013-8-4T20:20:34Z</time></trkpt>
<trkpt lat="45.9489059448242" lon="7.20973348617554"><ele></ele><time>2013-8-4T20:20:37Z</time></trkpt>
<trkpt lat="45.9487571716309" lon="7.20971965789795"><ele></ele><time>2013-8-4T20:20:40Z</time></trkpt>
<trkpt lat="45.9487342834473" lon="7.20971822738648"><ele></ele><time>2013-8-4T20:20:43Z</time></trkpt>
<trkpt lat="45.9487075805664" lon="7.20971441268921"><ele></ele><time>2013-8-4T20:20:46Z</time></trkpt>
<trkpt lat="45.9486770629883" lon="7.20971250534058"><ele></ele><time>2013-8-4T20:20:49Z</time></trkpt>
<trkpt lat="45.9486503601074" lon="7.20970821380615"><ele></ele><time>2013-8-4T20:20:52Z</time></trkpt>
<trkpt lat="45.9486198425293" lon="7.20970249176025"><ele></ele><time>2013-8-4T20:20:55Z</time></trkpt>
<trkpt lat="45.9485054016113" lon="7.20968866348267"><ele></ele><time>2013-8-4T20:20:58Z</time></trkpt>
<trkpt lat="45.9484786987305" lon="7.20968055725098"><ele></ele><time>2013-8-4T20:21:1Z</time></trkpt>
<trkpt lat="45.9484443664551" lon="7.20967769622803"><ele></ele><time>2013-8-4T20:21:4Z</time></trkpt>
<trkpt lat="45.9484176635742" lon="7.2096734046936"><ele></ele><time>2013-8-4T20:21:7Z</time></trkpt>
<trkpt lat="45.9483909606934" lon="7.20966625213623"><ele></ele><time>2013-8-4T20:21:10Z</time></trkpt>
<trkpt lat="45.9483642578125" lon="7.2096586227417"><ele></ele><time>2013-8-4T20:21:13Z</time></trkpt>
<trkpt lat="45.9483108520508" lon="7.20964193344116"><ele></ele><time>2013-8-4T20:21:16Z</time></trkpt>
<trkpt lat="45.9482879638672" lon="7.20963621139526"><ele></ele><time>2013-8-4T20:21:19Z</time></trkpt>
<trkpt lat="45.9482574462891" lon="7.20962762832642"><ele></ele><time>2013-8-4T20:21:22Z</time></trkpt>
<trkpt lat="45.9482345581055" lon="7.20962429046631"><ele></ele><time>2013-8-4T20:21:25Z</time></trkpt>
<trkpt lat="45.9482040405273" lon="7.20961666107178"><ele></ele><time>2013-8-4T20:21:28Z</time></trkpt>
<trkpt lat="45.9481773376465" lon="7.20961093902588"><ele></ele><time>2013-8-4T20:21:31Z</time></trkpt>
<trkpt lat="45.948127746582" lon="7.20959854125976"><ele></ele><time>2013-8-4T20:21:34Z</time></trkpt>
<trkpt lat="45.948070526123" lon="7.20958709716797"><ele></ele><time>2013-8-4T20:21:37Z</time></trkpt>
<trkpt lat="45.9480400085449" lon="7.20957946777344"><ele></ele><time>2013-8-4T20:21:40Z</time></trkpt>
<trkpt lat="45.9480094909668" lon="7.2095742225647"><ele></ele><time>2013-8-4T20:21:43Z</time></trkpt>
<trkpt lat="45.9479713439941" lon="7.20957279205322"><ele></ele><time>2013-8-4T20:21:46Z</time></trkpt>
<trkpt lat="45.9479446411133" lon="7.20957040786743"><ele></ele><time>2013-8-4T20:21:49Z</time></trkpt>
<trkpt lat="45.9478874206543" lon="7.20956611633301"><ele></ele><time>2013-8-4T20:21:52Z</time></trkpt>
<trkpt lat="45.9478225708008" lon="7.20955181121826"><ele></ele><time>2013-8-4T20:21:55Z</time></trkpt>
<trkpt lat="45.9477882385254" lon="7.20955038070679"><ele></ele><time>2013-8-4T20:21:58Z</time></trkpt>
<trkpt lat="45.9477577209473" lon="7.20954370498657"><ele></ele><time>2013-8-4T20:22:1Z</time></trkpt>
<trkpt lat="45.9477348327637" lon="7.20954370498657"><ele></ele><time>2013-8-4T20:22:4Z</time></trkpt>
<trkpt lat="45.9477043151856" lon="7.20954275131226"><ele></ele><time>2013-8-4T20:22:7Z</time></trkpt>
<trkpt lat="45.947509765625" lon="7.20957088470459"><ele></ele><time>2013-8-4T20:22:10Z</time></trkpt>
<trkpt lat="45.9474792480469" lon="7.20957803726196"><ele></ele><time>2013-8-4T20:22:13Z</time></trkpt>
<trkpt lat="45.9474487304688" lon="7.20958948135376"><ele></ele><time>2013-8-4T20:22:16Z</time></trkpt>
<trkpt lat="45.9474182128906" lon="7.20958852767944"><ele></ele><time>2013-8-4T20:22:19Z</time></trkpt>
<trkpt lat="45.9473915100098" lon="7.2095890045166"><ele></ele><time>2013-8-4T20:22:22Z</time></trkpt>
<trkpt lat="45.9473037719727" lon="7.20959329605102"><ele></ele><time>2013-8-4T20:22:25Z</time></trkpt>
<trkpt lat="45.9472160339356" lon="7.20960378646851"><ele></ele><time>2013-8-4T20:22:28Z</time></trkpt>
<trkpt lat="45.9471817016602" lon="7.20961093902588"><ele></ele><time>2013-8-4T20:22:31Z</time></trkpt>
<trkpt lat="45.9471549987793" lon="7.20961713790894"><ele></ele><time>2013-8-4T20:22:34Z</time></trkpt>
<trkpt lat="45.9471244812012" lon="7.2096152305603"><ele></ele><time>2013-8-4T20:22:37Z</time></trkpt>
<trkpt lat="45.947093963623" lon="7.20961713790894"><ele></ele><time>2013-8-4T20:22:40Z</time></trkpt>
<trkpt lat="45.9470634460449" lon="7.20961809158325"><ele></ele><time>2013-8-4T20:22:43Z</time></trkpt>
<trkpt lat="45.9469413757324" lon="7.20961427688599"><ele></ele><time>2013-8-4T20:22:46Z</time></trkpt>
<trkpt lat="45.946907043457" lon="7.20961761474609"><ele></ele><time>2013-8-4T20:22:49Z</time></trkpt>
<trkpt lat="45.9468803405762" lon="7.20961713790894"><ele></ele><time>2013-8-4T20:22:52Z</time></trkpt>
<trkpt lat="45.946849822998" lon="7.20961618423462"><ele></ele><time>2013-8-4T20:22:55Z</time></trkpt>
<trkpt lat="45.9468193054199" lon="7.20961809158325"><ele></ele><time>2013-8-4T20:22:58Z</time></trkpt>
<trkpt lat="45.9467926025391" lon="7.20961761474609"><ele></ele><time>2013-8-4T20:23:1Z</time></trkpt>
<trkpt lat="45.9466209411621" lon="7.20958518981934"><ele></ele><time>2013-8-4T20:23:4Z</time></trkpt>
<trkpt lat="45.946590423584" lon="7.20958518981934"><ele></ele><time>2013-8-4T20:23:7Z</time></trkpt>
<trkpt lat="45.9465637207031" lon="7.20957803726196"><ele></ele><time>2013-8-4T20:23:10Z</time></trkpt>
<trkpt lat="45.9465370178223" lon="7.20957231521606"><ele></ele><time>2013-8-4T20:23:13Z</time></trkpt>
<trkpt lat="45.9465026855469" lon="7.20956659317017"><ele></ele><time>2013-8-4T20:23:16Z</time></trkpt>
<trkpt lat="45.9463844299316" lon="7.20953130722046"><ele></ele><time>2013-8-4T20:23:19Z</time></trkpt>
<trkpt lat="45.9463539123535" lon="7.20952653884888"><ele></ele><time>2013-8-4T20:23:22Z</time></trkpt>
<trkpt lat="45.9463233947754" lon="7.20952224731445"><ele></ele><time>2013-8-4T20:23:25Z</time></trkpt>
<trkpt lat="45.9462928771973" lon="7.20951890945435"><ele></ele><time>2013-8-4T20:23:28Z</time></trkpt>
<trkpt lat="45.9462623596191" lon="7.20951080322266"><ele></ele><time>2013-8-4T20:23:31Z</time></trkpt>
<trkpt lat="45.946102142334" lon="7.20944261550903"><ele></ele><time>2013-8-4T20:23:34Z</time></trkpt>
<trkpt lat="45.9460754394531" lon="7.2094259262085"><ele></ele><time>2013-8-4T20:23:37Z</time></trkpt>
<trkpt lat="45.9460525512695" lon="7.20940923690796"><ele></ele><time>2013-8-4T20:23:40Z</time></trkpt>
<trkpt lat="45.9460258483887" lon="7.20939636230469"><ele></ele><time>2013-8-4T20:23:43Z</time></trkpt>
<trkpt lat="45.9459991455078" lon="7.20938110351562"><ele></ele><time>2013-8-4T20:23:46Z</time></trkpt>
<trkpt lat="45.945858001709" lon="7.2093243598938"><ele></ele><time>2013-8-4T20:23:49Z</time></trkpt>
<trkpt lat="45.9458312988281" lon="7.2093186378479"><ele></ele><time>2013-8-4T20:23:52Z</time></trkpt>
<trkpt lat="45.9458045959473" lon="7.20931148529053"><ele></ele><time>2013-8-4T20:23:55Z</time></trkpt>
<trkpt lat="45.9457778930664" lon="7.20930337905884"><ele></ele><time>2013-8-4T20:23:58Z</time></trkpt>
<trkpt lat="45.9457511901856" lon="7.20929002761841"><ele></ele><time>2013-8-4T20:24:1Z</time></trkpt>
<trkpt lat="45.945728302002" lon="7.2092809677124"><ele></ele><time>2013-8-4T20:24:4Z</time></trkpt>
<trkpt lat="45.9456787109375" lon="7.2092604637146"><ele></ele><time>2013-8-4T20:24:7Z</time></trkpt>
<trkpt lat="45.9456024169922" lon="7.20924043655396"><ele></ele><time>2013-8-4T20:24:10Z</time></trkpt>
<trkpt lat="45.9455795288086" lon="7.20922899246216"><ele></ele><time>2013-8-4T20:24:13Z</time></trkpt>
<trkpt lat="45.945556640625" lon="7.20921993255615"><ele></ele><time>2013-8-4T20:24:16Z</time></trkpt>
<trkpt lat="45.9455337524414" lon="7.20920848846436"><ele></ele><time>2013-8-4T20:24:19Z</time></trkpt>
<trkpt lat="45.9455070495606" lon="7.20919990539551"><ele></ele><time>2013-8-4T20:24:22Z</time></trkpt>
<trkpt lat="45.9454574584961" lon="7.20917415618896"><ele></ele><time>2013-8-4T20:24:25Z</time></trkpt>
<trkpt lat="45.9454307556152" lon="7.20916223526001"><ele></ele><time>2013-8-4T20:24:28Z</time></trkpt>
<trkpt lat="45.9454040527344" lon="7.20914936065674"><ele></ele><time>2013-8-4T20:24:31Z</time></trkpt>
<trkpt lat="45.9453735351562" lon="7.20914125442505"><ele></ele><time>2013-8-4T20:24:34Z</time></trkpt>
<trkpt lat="45.9453468322754" lon="7.20913171768188"><ele></ele><time>2013-8-4T20:24:37Z</time></trkpt>
<trkpt lat="45.9453201293945" lon="7.2091269493103"><ele></ele><time>2013-8-4T20:24:40Z</time></trkpt>
<trkpt lat="45.9452247619629" lon="7.20909881591797"><ele></ele><time>2013-8-4T20:24:43Z</time></trkpt>
<trkpt lat="45.9452018737793" lon="7.20908880233765"><ele></ele><time>2013-8-4T20:24:46Z</time></trkpt>
<trkpt lat="45.9451560974121" lon="7.20907306671143"><ele></ele><time>2013-8-4T20:24:49Z</time></trkpt>
<trkpt lat="45.9451370239258" lon="7.20907020568848"><ele></ele><time>2013-8-4T20:24:52Z</time></trkpt>
<trkpt lat="45.9451179504394" lon="7.20906352996826"><ele></ele><time>2013-8-4T20:24:55Z</time></trkpt>
<trkpt lat="45.9450950622559" lon="7.20906066894531"><ele></ele><time>2013-8-4T20:24:58Z</time></trkpt>
<trkpt lat="45.9450492858887" lon="7.20904636383057"><ele></ele><time>2013-8-4T20:25:1Z</time></trkpt>
<trkpt lat="45.9449234008789" lon="7.2090106010437"><ele></ele><time>2013-8-4T20:25:4Z</time></trkpt>
<trkpt lat="45.9449043273926" lon="7.20900249481201"><ele></ele><time>2013-8-4T20:25:7Z</time></trkpt>
<trkpt lat="45.944881439209" lon="7.20899534225464"><ele></ele><time>2013-8-4T20:25:10Z</time></trkpt>
<trkpt lat="45.9448585510254" lon="7.20898532867432"><ele></ele><time>2013-8-4T20:25:13Z</time></trkpt>
<trkpt lat="45.9448356628418" lon="7.20897674560547"><ele></ele><time>2013-8-4T20:25:16Z</time></trkpt>
<trkpt lat="45.9446907043457" lon="7.20894908905029"><ele></ele><time>2013-8-4T20:25:19Z</time></trkpt>
<trkpt lat="45.9446716308594" lon="7.20894241333008"><ele></ele><time>2013-8-4T20:25:22Z</time></trkpt>
<trkpt lat="45.9446487426758" lon="7.20894289016724"><ele></ele><time>2013-8-4T20:25:25Z</time></trkpt>
<trkpt lat="45.9446258544922" lon="7.20894002914429"><ele></ele><time>2013-8-4T20:25:28Z</time></trkpt>
<trkpt lat="45.9445991516113" lon="7.20893430709839"><ele></ele><time>2013-8-4T20:25:31Z</time></trkpt>
<trkpt lat="45.9445724487305" lon="7.20892572402954"><ele></ele><time>2013-8-4T20:25:34Z</time></trkpt>
<trkpt lat="45.944522857666" lon="7.20892906188965"><ele></ele><time>2013-8-4T20:25:37Z</time></trkpt>
<trkpt lat="45.9444427490234" lon="7.20892763137817"><ele></ele><time>2013-8-4T20:25:40Z</time></trkpt>
<trkpt lat="45.9444198608398" lon="7.20892333984375"><ele></ele><time>2013-8-4T20:25:43Z</time></trkpt>
<trkpt lat="45.944393157959" lon="7.20892095565796"><ele></ele><time>2013-8-4T20:25:46Z</time></trkpt>
<trkpt lat="45.9443702697754" lon="7.20891666412354"><ele></ele><time>2013-8-4T20:25:49Z</time></trkpt>
<trkpt lat="45.9443473815918" lon="7.20891904830933"><ele></ele><time>2013-8-4T20:25:52Z</time></trkpt>
<trkpt lat="45.9441947937012" lon="7.2089262008667"><ele></ele><time>2013-8-4T20:25:55Z</time></trkpt>
<trkpt lat="45.9441413879394" lon="7.20892572402954"><ele></ele><time>2013-8-4T20:25:58Z</time></trkpt>
<trkpt lat="45.9441184997559" lon="7.20892715454102"><ele></ele><time>2013-8-4T20:26:1Z</time></trkpt>
<trkpt lat="45.944091796875" lon="7.20893049240112"><ele></ele><time>2013-8-4T20:26:4Z</time></trkpt>
<trkpt lat="45.9440650939941" lon="7.2089319229126"><ele></ele><time>2013-8-4T20:26:7Z</time></trkpt>
<trkpt lat="45.944034576416" lon="7.20893573760986"><ele></ele><time>2013-8-4T20:26:10Z</time></trkpt>
<trkpt lat="45.9439582824707" lon="7.20894956588745"><ele></ele><time>2013-8-4T20:26:13Z</time></trkpt>
<trkpt lat="45.9438591003418" lon="7.20896482467651"><ele></ele><time>2013-8-4T20:26:16Z</time></trkpt>
<trkpt lat="45.9438133239746" lon="7.20897054672241"><ele></ele><time>2013-8-4T20:26:19Z</time></trkpt>
<trkpt lat="45.9437866210938" lon="7.20897579193115"><ele></ele><time>2013-8-4T20:26:22Z</time></trkpt>
<trkpt lat="45.9437599182129" lon="7.20898199081421"><ele></ele><time>2013-8-4T20:26:25Z</time></trkpt>
<trkpt lat="45.943733215332" lon="7.20898580551148"><ele></ele><time>2013-8-4T20:26:28Z</time></trkpt>
<trkpt lat="45.9437103271484" lon="7.20899105072022"><ele></ele><time>2013-8-4T20:26:31Z</time></trkpt>
<trkpt lat="45.9435691833496" lon="7.20902109146118"><ele></ele><time>2013-8-4T20:26:34Z</time></trkpt>
<trkpt lat="45.9434471130371" lon="7.20906162261963"><ele></ele><time>2013-8-4T20:26:37Z</time></trkpt>
<trkpt lat="45.9434204101562" lon="7.20907020568848"><ele></ele><time>2013-8-4T20:26:40Z</time></trkpt>
<trkpt lat="45.9433975219727" lon="7.2090744972229"><ele></ele><time>2013-8-4T20:26:43Z</time></trkpt>
<trkpt lat="45.9433670043945" lon="7.20908212661743"><ele></ele><time>2013-8-4T20:26:46Z</time></trkpt>
<trkpt lat="45.9433403015137" lon="7.2090916633606"><ele></ele><time>2013-8-4T20:26:49Z</time></trkpt>
<trkpt lat="45.943187713623" lon="7.2091474533081"><ele></ele><time>2013-8-4T20:26:52Z</time></trkpt>
<trkpt lat="45.9431610107422" lon="7.2091555595398"><ele></ele><time>2013-8-4T20:26:55Z</time></trkpt>
<trkpt lat="45.9431381225586" lon="7.20916271209717"><ele></ele><time>2013-8-4T20:26:58Z</time></trkpt>
<trkpt lat="45.9431114196777" lon="7.20916986465454"><ele></ele><time>2013-8-4T20:27:1Z</time></trkpt>
<trkpt lat="45.9430847167969" lon="7.20917272567749"><ele></ele><time>2013-8-4T20:27:4Z</time></trkpt>
<trkpt lat="45.9430656433106" lon="7.20917272567749"><ele></ele><time>2013-8-4T20:27:7Z</time></trkpt>
<trkpt lat="45.9430160522461" lon="7.20918273925781"><ele></ele><time>2013-8-4T20:27:10Z</time></trkpt>
<trkpt lat="45.9428749084473" lon="7.20919895172119"><ele></ele><time>2013-8-4T20:27:13Z</time></trkpt>
<trkpt lat="45.9428443908691" lon="7.20921230316162"><ele></ele><time>2013-8-4T20:27:16Z</time></trkpt>
<trkpt lat="45.9428215026856" lon="7.20922470092774"><ele></ele><time>2013-8-4T20:27:19Z</time></trkpt>
<trkpt lat="45.9427909851074" lon="7.20923471450806"><ele></ele><time>2013-8-4T20:27:22Z</time></trkpt>
<trkpt lat="45.9427604675293" lon="7.20923900604248"><ele></ele><time>2013-8-4T20:27:25Z</time></trkpt>
<trkpt lat="45.9427108764648" lon="7.20925903320312"><ele></ele><time>2013-8-4T20:27:28Z</time></trkpt>
<trkpt lat="45.9426574707031" lon="7.2092661857605"><ele></ele><time>2013-8-4T20:27:31Z</time></trkpt>
<trkpt lat="45.9425926208496" lon="7.20928573608398"><ele></ele><time>2013-8-4T20:27:34Z</time></trkpt>
<trkpt lat="45.942569732666" lon="7.20929145812988"><ele></ele><time>2013-8-4T20:27:37Z</time></trkpt>
<trkpt lat="45.9425506591797" lon="7.20929384231567"><ele></ele><time>2013-8-4T20:27:40Z</time></trkpt>
<trkpt lat="45.9425277709961" lon="7.20930099487305"><ele></ele><time>2013-8-4T20:27:43Z</time></trkpt>
<trkpt lat="45.942512512207" lon="7.20931005477905"><ele></ele><time>2013-8-4T20:27:46Z</time></trkpt>
<trkpt lat="45.9424896240234" lon="7.20931577682495"><ele></ele><time>2013-8-4T20:27:49Z</time></trkpt>
<trkpt lat="45.9424629211426" lon="7.20931959152222"><ele></ele><time>2013-8-4T20:27:52Z</time></trkpt>
<trkpt lat="45.9424171447754" lon="7.20933103561401"><ele></ele><time>2013-8-4T20:27:55Z</time></trkpt>
<trkpt lat="45.9422454833984" lon="7.20937395095825"><ele></ele><time>2013-8-4T20:27:58Z</time></trkpt>
<trkpt lat="45.9422187805176" lon="7.20937395095825"><ele></ele><time>2013-8-4T20:28:1Z</time></trkpt>
<trkpt lat="45.942195892334" lon="7.20937776565552"><ele></ele><time>2013-8-4T20:28:4Z</time></trkpt>
<trkpt lat="45.9421691894531" lon="7.20938205718994"><ele></ele><time>2013-8-4T20:28:7Z</time></trkpt>
<trkpt lat="45.942138671875" lon="7.20938682556152"><ele></ele><time>2013-8-4T20:28:10Z</time></trkpt>
<trkpt lat="45.9421081542969" lon="7.20939683914185"><ele></ele><time>2013-8-4T20:28:13Z</time></trkpt>
<trkpt lat="45.9420738220215" lon="7.20940542221069"><ele></ele><time>2013-8-4T20:28:16Z</time></trkpt>
<trkpt lat="45.9419174194336" lon="7.20942544937134"><ele></ele><time>2013-8-4T20:28:19Z</time></trkpt>
<trkpt lat="45.9418907165527" lon="7.20942831039429"><ele></ele><time>2013-8-4T20:28:22Z</time></trkpt>
<trkpt lat="45.9418601989746" lon="7.20942783355713"><ele></ele><time>2013-8-4T20:28:25Z</time></trkpt>
<trkpt lat="45.9418296813965" lon="7.20943069458008"><ele></ele><time>2013-8-4T20:28:28Z</time></trkpt>
<trkpt lat="45.9417991638184" lon="7.20943117141724"><ele></ele><time>2013-8-4T20:28:31Z</time></trkpt>
<trkpt lat="45.9415893554688" lon="7.20943069458008"><ele></ele><time>2013-8-4T20:28:34Z</time></trkpt>
<trkpt lat="45.9415588378906" lon="7.20942497253418"><ele></ele><time>2013-8-4T20:28:37Z</time></trkpt>
<trkpt lat="45.9415283203125" lon="7.20942068099976"><ele></ele><time>2013-8-4T20:28:40Z</time></trkpt>
<trkpt lat="45.9415130615234" lon="7.20942115783691"><ele></ele><time>2013-8-4T20:28:43Z</time></trkpt>
<trkpt lat="45.9414863586426" lon="7.20941495895386"><ele></ele><time>2013-8-4T20:28:46Z</time></trkpt>
<trkpt lat="45.9414596557617" lon="7.20941209793091"><ele></ele><time>2013-8-4T20:28:49Z</time></trkpt>
<trkpt lat="45.9414291381836" lon="7.20940256118774"><ele></ele><time>2013-8-4T20:28:52Z</time></trkpt>
<trkpt lat="45.94140625" lon="7.20939683914185"><ele></ele><time>2013-8-4T20:28:55Z</time></trkpt>
<trkpt lat="45.9413261413574" lon="7.2093653678894"><ele></ele><time>2013-8-4T20:28:58Z</time></trkpt>
<trkpt lat="45.9412727355957" lon="7.20933723449707"><ele></ele><time>2013-8-4T20:29:1Z</time></trkpt>
<trkpt lat="45.9412498474121" lon="7.20932483673096"><ele></ele><time>2013-8-4T20:29:4Z</time></trkpt>
<trkpt lat="45.9412231445312" lon="7.20931100845337"><ele></ele><time>2013-8-4T20:29:7Z</time></trkpt>
<trkpt lat="45.9411964416504" lon="7.20929956436157"><ele></ele><time>2013-8-4T20:29:10Z</time></trkpt>
<trkpt lat="45.9411735534668" lon="7.2092866897583"><ele></ele><time>2013-8-4T20:29:13Z</time></trkpt>
<trkpt lat="45.9411430358887" lon="7.20927906036377"><ele></ele><time>2013-8-4T20:29:16Z</time></trkpt>
<trkpt lat="45.9410743713379" lon="7.20923185348511"><ele></ele><time>2013-8-4T20:29:19Z</time></trkpt>
<trkpt lat="45.9409255981445" lon="7.20915603637695"><ele></ele><time>2013-8-4T20:29:22Z</time></trkpt>
<trkpt lat="45.9408988952637" lon="7.209144115448"><ele></ele><time>2013-8-4T20:29:25Z</time></trkpt>
<trkpt lat="45.9408721923828" lon="7.20912790298462"><ele></ele><time>2013-8-4T20:29:28Z</time></trkpt>
<trkpt lat="45.940845489502" lon="7.20911407470703"><ele></ele><time>2013-8-4T20:29:31Z</time></trkpt>
<trkpt lat="45.9408264160156" lon="7.20909976959228"><ele></ele><time>2013-8-4T20:29:34Z</time></trkpt>
<trkpt lat="45.9407272338867" lon="7.20906496047974"><ele></ele><time>2013-8-4T20:29:37Z</time></trkpt>
<trkpt lat="45.9406814575195" lon="7.2090425491333"><ele></ele><time>2013-8-4T20:29:40Z</time></trkpt>
<trkpt lat="45.9406585693359" lon="7.2090334892273"><ele></ele><time>2013-8-4T20:29:43Z</time></trkpt>
<trkpt lat="45.9406356811523" lon="7.2090220451355"><ele></ele><time>2013-8-4T20:29:46Z</time></trkpt>
<trkpt lat="45.9406089782715" lon="7.20901107788086"><ele></ele><time>2013-8-4T20:29:49Z</time></trkpt>
<trkpt lat="45.9405899047852" lon="7.20899343490601"><ele></ele><time>2013-8-4T20:29:52Z</time></trkpt>
<trkpt lat="45.9405479431152" lon="7.2089695930481"><ele></ele><time>2013-8-4T20:29:55Z</time></trkpt>
<trkpt lat="45.9403915405273" lon="7.20893096923828"><ele></ele><time>2013-8-4T20:29:58Z</time></trkpt>
<trkpt lat="45.9403686523438" lon="7.20892953872681"><ele></ele><time>2013-8-4T20:30:1Z</time></trkpt>
<trkpt lat="45.9403495788574" lon="7.20892143249512"><ele></ele><time>2013-8-4T20:30:4Z</time></trkpt>
<trkpt lat="45.9403228759766" lon="7.20891857147217"><ele></ele><time>2013-8-4T20:30:7Z</time></trkpt>
<trkpt lat="45.9402961730957" lon="7.20891046524048"><ele></ele><time>2013-8-4T20:30:10Z</time></trkpt>
<trkpt lat="45.9402236938477" lon="7.20889711380005"><ele></ele><time>2013-8-4T20:30:13Z</time></trkpt>
<trkpt lat="45.9401016235352" lon="7.2088794708252"><ele></ele><time>2013-8-4T20:30:16Z</time></trkpt>
<trkpt lat="45.9400749206543" lon="7.20886898040772"><ele></ele><time>2013-8-4T20:30:19Z</time></trkpt>
<trkpt lat="45.9400444030762" lon="7.20886421203613"><ele></ele><time>2013-8-4T20:30:22Z</time></trkpt>
<trkpt lat="45.940013885498" lon="7.20886182785034"><ele></ele><time>2013-8-4T20:30:25Z</time></trkpt>
<trkpt lat="45.9399909973144" lon="7.20884132385254"><ele></ele><time>2013-8-4T20:30:28Z</time></trkpt>
<trkpt lat="45.9398918151856" lon="7.20885372161865"><ele></ele><time>2013-8-4T20:30:31Z</time></trkpt>
<trkpt lat="45.9397850036621" lon="7.20886516571045"><ele></ele><time>2013-8-4T20:30:34Z</time></trkpt>
<trkpt lat="45.939754486084" lon="7.20887279510498"><ele></ele><time>2013-8-4T20:30:37Z</time></trkpt>
<trkpt lat="45.9397201538086" lon="7.20888519287109"><ele></ele><time>2013-8-4T20:30:40Z</time></trkpt>
<trkpt lat="45.939697265625" lon="7.20889663696289"><ele></ele><time>2013-8-4T20:30:43Z</time></trkpt>
<trkpt lat="45.9396591186523" lon="7.20891427993774"><ele></ele><time>2013-8-4T20:30:46Z</time></trkpt>
<trkpt lat="45.9395523071289" lon="7.20894718170166"><ele></ele><time>2013-8-4T20:30:49Z</time></trkpt>
<trkpt lat="45.9393577575684" lon="7.20901346206665"><ele></ele><time>2013-8-4T20:30:52Z</time></trkpt>
<trkpt lat="45.9393310546875" lon="7.20901870727539"><ele></ele><time>2013-8-4T20:30:55Z</time></trkpt>
<trkpt lat="45.9393005371094" lon="7.20902347564697"><ele></ele><time>2013-8-4T20:30:58Z</time></trkpt>
<trkpt lat="45.9392700195312" lon="7.2090368270874"><ele></ele><time>2013-8-4T20:31:1Z</time></trkpt>
<trkpt lat="45.9392395019531" lon="7.20904684066772"><ele></ele><time>2013-8-4T20:31:4Z</time></trkpt>
<trkpt lat="45.9391441345215" lon="7.20908260345459"><ele></ele><time>2013-8-4T20:31:7Z</time></trkpt>
<trkpt lat="45.9389839172363" lon="7.20913648605347"><ele></ele><time>2013-8-4T20:31:10Z</time></trkpt>
<trkpt lat="45.9389572143555" lon="7.20914268493652"><ele></ele><time>2013-8-4T20:31:13Z</time></trkpt>
<trkpt lat="45.9389305114746" lon="7.20914316177368"><ele></ele><time>2013-8-4T20:31:16Z</time></trkpt>
<trkpt lat="45.9389038085938" lon="7.209144115448"><ele></ele><time>2013-8-4T20:31:19Z</time></trkpt>
<trkpt lat="45.9388771057129" lon="7.20915412902832"><ele></ele><time>2013-8-4T20:31:22Z</time></trkpt>
<trkpt lat="45.9388542175293" lon="7.20916318893433"><ele></ele><time>2013-8-4T20:31:25Z</time></trkpt>
<trkpt lat="45.9388084411621" lon="7.2091794013977"><ele></ele><time>2013-8-4T20:31:28Z</time></trkpt>
<trkpt lat="45.9387550354004" lon="7.20918893814087"><ele></ele><time>2013-8-4T20:31:31Z</time></trkpt>
<trkpt lat="45.9386367797852" lon="7.20920705795288"><ele></ele><time>2013-8-4T20:31:34Z</time></trkpt>
<trkpt lat="45.9385986328125" lon="7.20919799804688"><ele></ele><time>2013-8-4T20:31:37Z</time></trkpt>
<trkpt lat="45.9385070800781" lon="7.20917749404907"><ele></ele><time>2013-8-4T20:31:40Z</time></trkpt>
<trkpt lat="45.9384765625" lon="7.20916938781738"><ele></ele><time>2013-8-4T20:31:43Z</time></trkpt>
<trkpt lat="45.9384536743164" lon="7.20915937423706"><ele></ele><time>2013-8-4T20:31:46Z</time></trkpt>
<trkpt lat="45.9384269714356" lon="7.209153175354"><ele></ele><time>2013-8-4T20:31:49Z</time></trkpt>
<trkpt lat="45.938404083252" lon="7.20912885665894"><ele></ele><time>2013-8-4T20:31:52Z</time></trkpt>
<trkpt lat="45.9382705688477" lon="7.20913791656494"><ele></ele><time>2013-8-4T20:31:55Z</time></trkpt>
<trkpt lat="45.9382133483887" lon="7.2091383934021"><ele></ele><time>2013-8-4T20:31:58Z</time></trkpt>
<trkpt lat="45.938159942627" lon="7.20914030075073"><ele></ele><time>2013-8-4T20:32:1Z</time></trkpt>
<trkpt lat="45.9381294250488" lon="7.20913982391357"><ele></ele><time>2013-8-4T20:32:4Z</time></trkpt>
<trkpt lat="45.938102722168" lon="7.20913982391357"><ele></ele><time>2013-8-4T20:32:7Z</time></trkpt>
<trkpt lat="45.9380760192871" lon="7.20913410186768"><ele></ele><time>2013-8-4T20:32:10Z</time></trkpt>
<trkpt lat="45.938045501709" lon="7.20912647247314"><ele></ele><time>2013-8-4T20:32:13Z</time></trkpt>
<trkpt lat="45.9379959106445" lon="7.20912504196167"><ele></ele><time>2013-8-4T20:32:16Z</time></trkpt>
<trkpt lat="45.937915802002" lon="7.20911121368408"><ele></ele><time>2013-8-4T20:32:19Z</time></trkpt>
<trkpt lat="45.9378890991211" lon="7.20910882949829"><ele></ele><time>2013-8-4T20:32:22Z</time></trkpt>
<trkpt lat="45.9378623962402" lon="7.2091007232666"><ele></ele><time>2013-8-4T20:32:25Z</time></trkpt>
<trkpt lat="45.9378280639648" lon="7.20909452438354"><ele></ele><time>2013-8-4T20:32:28Z</time></trkpt>
<trkpt lat="45.9377975463867" lon="7.20909309387207"><ele></ele><time>2013-8-4T20:32:31Z</time></trkpt>
<trkpt lat="45.9377708435059" lon="7.2090892791748"><ele></ele><time>2013-8-4T20:32:34Z</time></trkpt>
<trkpt lat="45.9375305175781" lon="7.20904874801636"><ele></ele><time>2013-8-4T20:32:37Z</time></trkpt>
<trkpt lat="45.9375" lon="7.20904636383057"><ele></ele><time>2013-8-4T20:32:40Z</time></trkpt>
<trkpt lat="45.9374771118164" lon="7.20904874801636"><ele></ele><time>2013-8-4T20:32:43Z</time></trkpt>
<trkpt lat="45.9374465942383" lon="7.2090425491333"><ele></ele><time>2013-8-4T20:32:46Z</time></trkpt>
<trkpt lat="45.9374160766602" lon="7.20903158187866"><ele></ele><time>2013-8-4T20:32:49Z</time></trkpt>
<trkpt lat="45.9373321533203" lon="7.20898580551148"><ele></ele><time>2013-8-4T20:32:52Z</time></trkpt>
<trkpt lat="45.9372901916504" lon="7.20897817611694"><ele></ele><time>2013-8-4T20:32:55Z</time></trkpt>
<trkpt lat="45.9372253417969" lon="7.20895957946777"><ele></ele><time>2013-8-4T20:32:58Z</time></trkpt>
<trkpt lat="45.937198638916" lon="7.20894575119018"><ele></ele><time>2013-8-4T20:33:1Z</time></trkpt>
<trkpt lat="45.9371643066406" lon="7.20893287658691"><ele></ele><time>2013-8-4T20:33:4Z</time></trkpt>
<trkpt lat="45.9371376037598" lon="7.20892858505249"><ele></ele><time>2013-8-4T20:33:7Z</time></trkpt>
<trkpt lat="45.9371070861816" lon="7.20892238616943"><ele></ele><time>2013-8-4T20:33:10Z</time></trkpt>
<trkpt lat="45.9369010925293" lon="7.20886564254761"><ele></ele><time>2013-8-4T20:33:13Z</time></trkpt>
<trkpt lat="45.9368133544922" lon="7.20883846282959"><ele></ele><time>2013-8-4T20:33:16Z</time></trkpt>
<trkpt lat="45.9367828369141" lon="7.20883131027222"><ele></ele><time>2013-8-4T20:33:19Z</time></trkpt>
<trkpt lat="45.9367485046387" lon="7.20880699157715"><ele></ele><time>2013-8-4T20:33:22Z</time></trkpt>
<trkpt lat="45.9367179870606" lon="7.20879602432251"><ele></ele><time>2013-8-4T20:33:25Z</time></trkpt>
<trkpt lat="45.9366836547852" lon="7.20878553390503"><ele></ele><time>2013-8-4T20:33:28Z</time></trkpt>
<trkpt lat="45.9366226196289" lon="7.20875835418701"><ele></ele><time>2013-8-4T20:33:31Z</time></trkpt>
<trkpt lat="45.9364776611328" lon="7.20868110656738"><ele></ele><time>2013-8-4T20:33:34Z</time></trkpt>
<trkpt lat="45.9364471435547" lon="7.20867013931274"><ele></ele><time>2013-8-4T20:33:37Z</time></trkpt>
<trkpt lat="45.9364204406738" lon="7.20865964889526"><ele></ele><time>2013-8-4T20:33:40Z</time></trkpt>
<trkpt lat="45.936393737793" lon="7.20865106582642"><ele></ele><time>2013-8-4T20:33:43Z</time></trkpt>
<trkpt lat="45.9363670349121" lon="7.20864200592041"><ele></ele><time>2013-8-4T20:33:46Z</time></trkpt>
<trkpt lat="45.9362106323242" lon="7.20855474472046"><ele></ele><time>2013-8-4T20:33:49Z</time></trkpt>
<trkpt lat="45.9361572265625" lon="7.20852375030518"><ele></ele><time>2013-8-4T20:33:52Z</time></trkpt>
<trkpt lat="45.9361305236816" lon="7.20851135253906"><ele></ele><time>2013-8-4T20:33:55Z</time></trkpt>
<trkpt lat="45.936107635498" lon="7.20850801467896"><ele></ele><time>2013-8-4T20:33:58Z</time></trkpt>
<trkpt lat="45.9360847473144" lon="7.20849895477295"><ele></ele><time>2013-8-4T20:34:1Z</time></trkpt>
<trkpt lat="45.9360580444336" lon="7.20847988128662"><ele></ele><time>2013-8-4T20:34:4Z</time></trkpt>
<trkpt lat="45.9358367919922" lon="7.20835733413696"><ele></ele><time>2013-8-4T20:34:7Z</time></trkpt>
<trkpt lat="45.9358100891113" lon="7.20834398269653"><ele></ele><time>2013-8-4T20:34:10Z</time></trkpt>
<trkpt lat="45.9357833862305" lon="7.2083330154419"><ele></ele><time>2013-8-4T20:34:13Z</time></trkpt>
<trkpt lat="45.9357566833496" lon="7.20832252502441"><ele></ele><time>2013-8-4T20:34:16Z</time></trkpt>
<trkpt lat="45.935604095459" lon="7.20826435089111"><ele></ele><time>2013-8-4T20:34:19Z</time></trkpt>
<trkpt lat="45.9355201721191" lon="7.20824241638184"><ele></ele><time>2013-8-4T20:34:22Z</time></trkpt>
<trkpt lat="45.9354934692383" lon="7.20823049545288"><ele></ele><time>2013-8-4T20:34:25Z</time></trkpt>
<trkpt lat="45.9354629516602" lon="7.20821857452393"><ele></ele><time>2013-8-4T20:34:28Z</time></trkpt>
<trkpt lat="45.9354362487793" lon="7.20820617675781"><ele></ele><time>2013-8-4T20:34:31Z</time></trkpt>
<trkpt lat="45.9354095458984" lon="7.20819711685181"><ele></ele><time>2013-8-4T20:34:34Z</time></trkpt>
<trkpt lat="45.9353561401367" lon="7.20817995071411"><ele></ele><time>2013-8-4T20:34:37Z</time></trkpt>
<trkpt lat="45.9350929260254" lon="7.20812654495239"><ele></ele><time>2013-8-4T20:34:40Z</time></trkpt>
<trkpt lat="45.9350395202637" lon="7.20812225341797"><ele></ele><time>2013-8-4T20:34:43Z</time></trkpt>
<trkpt lat="45.9350128173828" lon="7.20811891555786"><ele></ele><time>2013-8-4T20:34:46Z</time></trkpt>
<trkpt lat="45.934986114502" lon="7.20811462402344"><ele></ele><time>2013-8-4T20:34:49Z</time></trkpt>
<trkpt lat="45.9349632263184" lon="7.20810890197754"><ele></ele><time>2013-8-4T20:34:52Z</time></trkpt>
<trkpt lat="45.934944152832" lon="7.20810413360596"><ele></ele><time>2013-8-4T20:34:55Z</time></trkpt>
<trkpt lat="45.9347801208496" lon="7.2080807685852"><ele></ele><time>2013-8-4T20:34:58Z</time></trkpt>
<trkpt lat="45.9347496032715" lon="7.20807504653931"><ele></ele><time>2013-8-4T20:35:1Z</time></trkpt>
<trkpt lat="45.9347152709961" lon="7.20806694030762"><ele></ele><time>2013-8-4T20:35:4Z</time></trkpt>
<trkpt lat="45.934684753418" lon="7.20805931091309"><ele></ele><time>2013-8-4T20:35:7Z</time></trkpt>
<trkpt lat="45.9346542358398" lon="7.20805263519287"><ele></ele><time>2013-8-4T20:35:10Z</time></trkpt>
<trkpt lat="45.9345321655273" lon="7.20801401138306"><ele></ele><time>2013-8-4T20:35:13Z</time></trkpt>
<trkpt lat="45.9344482421875" lon="7.20797920227051"><ele></ele><time>2013-8-4T20:35:16Z</time></trkpt>
<trkpt lat="45.9344177246094" lon="7.2079668045044"><ele></ele><time>2013-8-4T20:35:19Z</time></trkpt>
<trkpt lat="45.9343910217285" lon="7.20795822143555"><ele></ele><time>2013-8-4T20:35:22Z</time></trkpt>
<trkpt lat="45.9343605041504" lon="7.20795011520386"><ele></ele><time>2013-8-4T20:35:25Z</time></trkpt>
<trkpt lat="45.9343299865723" lon="7.20794200897217"><ele></ele><time>2013-8-4T20:35:28Z</time></trkpt>
<trkpt lat="45.934268951416" lon="7.20792245864868"><ele></ele><time>2013-8-4T20:35:31Z</time></trkpt>
<trkpt lat="45.9340629577637" lon="7.20784282684326"><ele></ele><time>2013-8-4T20:35:34Z</time></trkpt>
<trkpt lat="45.9340400695801" lon="7.20782709121704"><ele></ele><time>2013-8-4T20:35:37Z</time></trkpt>
<trkpt lat="45.934009552002" lon="7.20781373977661"><ele></ele><time>2013-8-4T20:35:40Z</time></trkpt>
<trkpt lat="45.9339828491211" lon="7.2077956199646"><ele></ele><time>2013-8-4T20:35:43Z</time></trkpt>
<trkpt lat="45.9339599609375" lon="7.2077784538269"><ele></ele><time>2013-8-4T20:35:46Z</time></trkpt>
<trkpt lat="45.9338874816894" lon="7.20772933959961"><ele></ele><time>2013-8-4T20:35:49Z</time></trkpt>
<trkpt lat="45.9337844848633" lon="7.20767450332642"><ele></ele><time>2013-8-4T20:35:52Z</time></trkpt>
<trkpt lat="45.9337577819824" lon="7.20765924453735"><ele></ele><time>2013-8-4T20:35:55Z</time></trkpt>
<trkpt lat="45.9337310791016" lon="7.2076416015625"><ele></ele><time>2013-8-4T20:35:58Z</time></trkpt>
<trkpt lat="45.9337043762207" lon="7.20762634277344"><ele></ele><time>2013-8-4T20:36:1Z</time></trkpt>
<trkpt lat="45.9336776733398" lon="7.20761156082153"><ele></ele><time>2013-8-4T20:36:4Z</time></trkpt>
<trkpt lat="45.9335746765137" lon="7.20757007598877"><ele></ele><time>2013-8-4T20:36:7Z</time></trkpt>
<trkpt lat="45.933521270752" lon="7.20756673812866"><ele></ele><time>2013-8-4T20:36:10Z</time></trkpt>
<trkpt lat="45.9334907531738" lon="7.20756721496582"><ele></ele><time>2013-8-4T20:36:13Z</time></trkpt>
<trkpt lat="45.933464050293" lon="7.20756530761719"><ele></ele><time>2013-8-4T20:36:16Z</time></trkpt>
<trkpt lat="45.9334335327148" lon="7.20755243301392"><ele></ele><time>2013-8-4T20:36:19Z</time></trkpt>
<trkpt lat="45.9334030151367" lon="7.20754146575928"><ele></ele><time>2013-8-4T20:36:22Z</time></trkpt>
<trkpt lat="45.9333114624023" lon="7.2075138092041"><ele></ele><time>2013-8-4T20:36:25Z</time></trkpt>
<trkpt lat="45.9331741333008" lon="7.20745658874512"><ele></ele><time>2013-8-4T20:36:28Z</time></trkpt>
<trkpt lat="45.9331436157227" lon="7.2074499130249"><ele></ele><time>2013-8-4T20:36:31Z</time></trkpt>
<trkpt lat="45.9331169128418" lon="7.20744276046753"><ele></ele><time>2013-8-4T20:36:34Z</time></trkpt>
<trkpt lat="45.9330711364746" lon="7.20736789703369"><ele></ele><time>2013-8-4T20:36:37Z</time></trkpt>
<trkpt lat="45.9328536987305" lon="7.20720386505127"><ele></ele><time>2013-8-4T20:36:40Z</time></trkpt>
<trkpt lat="45.9327583312988" lon="7.20715284347534"><ele></ele><time>2013-8-4T20:36:43Z</time></trkpt>
<trkpt lat="45.9327278137207" lon="7.20714330673218"><ele></ele><time>2013-8-4T20:36:46Z</time></trkpt>
<trkpt lat="45.9327011108398" lon="7.20713138580322"><ele></ele><time>2013-8-4T20:36:49Z</time></trkpt>
<trkpt lat="45.9326705932617" lon="7.20711851119995"><ele></ele><time>2013-8-4T20:36:52Z</time></trkpt>
<trkpt lat="45.9326438903809" lon="7.20710229873657"><ele></ele><time>2013-8-4T20:36:55Z</time></trkpt>
<trkpt lat="45.9325675964356" lon="7.20705080032349"><ele></ele><time>2013-8-4T20:36:58Z</time></trkpt>
<trkpt lat="45.932445526123" lon="7.20700407028198"><ele></ele><time>2013-8-4T20:37:1Z</time></trkpt>
<trkpt lat="45.9324111938477" lon="7.20699644088745"><ele></ele><time>2013-8-4T20:37:4Z</time></trkpt>
<trkpt lat="45.9323806762695" lon="7.20698690414429"><ele></ele><time>2013-8-4T20:37:7Z</time></trkpt>
<trkpt lat="45.9323539733887" lon="7.20697355270386"><ele></ele><time>2013-8-4T20:37:10Z</time></trkpt>
<trkpt lat="45.9322166442871" lon="7.20688724517822"><ele></ele><time>2013-8-4T20:37:13Z</time></trkpt>
<trkpt lat="45.9321899414062" lon="7.20687103271484"><ele></ele><time>2013-8-4T20:37:16Z</time></trkpt>
<trkpt lat="45.9321708679199" lon="7.20685291290283"><ele></ele><time>2013-8-4T20:37:19Z</time></trkpt>
<trkpt lat="45.9321479797363" lon="7.20683717727661"><ele></ele><time>2013-8-4T20:37:22Z</time></trkpt>
<trkpt lat="45.9321212768555" lon="7.20682144165039"><ele></ele><time>2013-8-4T20:37:25Z</time></trkpt>
<trkpt lat="45.9320945739746" lon="7.20680379867554"><ele></ele><time>2013-8-4T20:37:28Z</time></trkpt>
<trkpt lat="45.9320678710938" lon="7.206787109375"><ele></ele><time>2013-8-4T20:37:31Z</time></trkpt>
<trkpt lat="45.9319343566894" lon="7.20669221878052"><ele></ele><time>2013-8-4T20:37:34Z</time></trkpt>
<trkpt lat="45.9318809509277" lon="7.20666074752808"><ele></ele><time>2013-8-4T20:37:37Z</time></trkpt>
<trkpt lat="45.9318542480469" lon="7.20664119720459"><ele></ele><time>2013-8-4T20:37:40Z</time></trkpt>
<trkpt lat="45.9318313598633" lon="7.20662117004394"><ele></ele><time>2013-8-4T20:37:43Z</time></trkpt>
<trkpt lat="45.9318046569824" lon="7.20660448074341"><ele></ele><time>2013-8-4T20:37:46Z</time></trkpt>
<trkpt lat="45.9317817687988" lon="7.20658445358276"><ele></ele><time>2013-8-4T20:37:49Z</time></trkpt>
<trkpt lat="45.9317054748535" lon="7.20652389526367"><ele></ele><time>2013-8-4T20:37:52Z</time></trkpt>
<trkpt lat="45.9316101074219" lon="7.20645618438721"><ele></ele><time>2013-8-4T20:37:55Z</time></trkpt>
<trkpt lat="45.931583404541" lon="7.20643949508667"><ele></ele><time>2013-8-4T20:37:58Z</time></trkpt>
<trkpt lat="45.9315605163574" lon="7.20642280578613"><ele></ele><time>2013-8-4T20:38:1Z</time></trkpt>
<trkpt lat="45.9315338134766" lon="7.20640563964844"><ele></ele><time>2013-8-4T20:38:4Z</time></trkpt>
<trkpt lat="45.931510925293" lon="7.20638942718506"><ele></ele><time>2013-8-4T20:38:7Z</time></trkpt>
<trkpt lat="45.9314613342285" lon="7.2063570022583"><ele></ele><time>2013-8-4T20:38:10Z</time></trkpt>
<trkpt lat="45.9313621520996" lon="7.20630216598511"><ele></ele><time>2013-8-4T20:38:13Z</time></trkpt>
<trkpt lat="45.931339263916" lon="7.20629024505615"><ele></ele><time>2013-8-4T20:38:16Z</time></trkpt>
<trkpt lat="45.9313125610352" lon="7.20627546310425"><ele></ele><time>2013-8-4T20:38:19Z</time></trkpt>
<trkpt lat="45.9312896728516" lon="7.20626306533814"><ele></ele><time>2013-8-4T20:38:22Z</time></trkpt>
<trkpt lat="45.931266784668" lon="7.2062520980835"><ele></ele><time>2013-8-4T20:38:25Z</time></trkpt>
<trkpt lat="45.9312400817871" lon="7.20624017715454"><ele></ele><time>2013-8-4T20:38:28Z</time></trkpt>
<trkpt lat="45.9310455322266" lon="7.20619201660156"><ele></ele><time>2013-8-4T20:38:31Z</time></trkpt>
<trkpt lat="45.9309959411621" lon="7.20616102218628"><ele></ele><time>2013-8-4T20:38:34Z</time></trkpt>
<trkpt lat="45.9309692382812" lon="7.20614576339722"><ele></ele><time>2013-8-4T20:38:37Z</time></trkpt>
<trkpt lat="45.9309463500977" lon="7.20613145828247"><ele></ele><time>2013-8-4T20:38:40Z</time></trkpt>
<trkpt lat="45.9309196472168" lon="7.20611810684204"><ele></ele><time>2013-8-4T20:38:43Z</time></trkpt>
<trkpt lat="45.9308967590332" lon="7.20610475540161"><ele></ele><time>2013-8-4T20:38:46Z</time></trkpt>
<trkpt lat="45.930721282959" lon="7.20605182647705"><ele></ele><time>2013-8-4T20:38:49Z</time></trkpt>
<trkpt lat="45.9306411743164" lon="7.20604467391968"><ele></ele><time>2013-8-4T20:38:52Z</time></trkpt>
<trkpt lat="45.9306106567383" lon="7.20604276657104"><ele></ele><time>2013-8-4T20:38:55Z</time></trkpt>
<trkpt lat="45.9305839538574" lon="7.20603942871094"><ele></ele><time>2013-8-4T20:38:58Z</time></trkpt>
<trkpt lat="45.9305610656738" lon="7.20603609085083"><ele></ele><time>2013-8-4T20:39:1Z</time></trkpt>
<trkpt lat="45.930534362793" lon="7.20602989196777"><ele></ele><time>2013-8-4T20:39:4Z</time></trkpt>
<trkpt lat="45.9303207397461" lon="7.20596313476562"><ele></ele><time>2013-8-4T20:39:7Z</time></trkpt>
<trkpt lat="45.9302711486816" lon="7.20595407485962"><ele></ele><time>2013-8-4T20:39:10Z</time></trkpt>
<trkpt lat="45.930248260498" lon="7.2059531211853"><ele></ele><time>2013-8-4T20:39:13Z</time></trkpt>
<trkpt lat="45.9302215576172" lon="7.20595407485962"><ele></ele><time>2013-8-4T20:39:16Z</time></trkpt>
<trkpt lat="45.9301986694336" lon="7.20595598220825"><ele></ele><time>2013-8-4T20:39:19Z</time></trkpt>
<trkpt lat="45.9301719665527" lon="7.20595693588257"><ele></ele><time>2013-8-4T20:39:22Z</time></trkpt>
<trkpt lat="45.9300308227539" lon="7.20594549179077"><ele></ele><time>2013-8-4T20:39:25Z</time></trkpt>
<trkpt lat="45.9300079345703" lon="7.20593881607056"><ele></ele><time>2013-8-4T20:39:28Z</time></trkpt>
<trkpt lat="45.9299850463867" lon="7.20592832565308"><ele></ele><time>2013-8-4T20:39:31Z</time></trkpt>
<trkpt lat="45.9299621582031" lon="7.20591449737549"><ele></ele><time>2013-8-4T20:39:34Z</time></trkpt>
<trkpt lat="45.9299392700195" lon="7.20589923858643"><ele></ele><time>2013-8-4T20:39:37Z</time></trkpt>
<trkpt lat="45.9298477172852" lon="7.2058367729187"><ele></ele><time>2013-8-4T20:39:40Z</time></trkpt>
<trkpt lat="45.9298286437988" lon="7.20582294464111"><ele></ele><time>2013-8-4T20:39:43Z</time></trkpt>
<trkpt lat="45.9298095703125" lon="7.20580911636352"><ele></ele><time>2013-8-4T20:39:46Z</time></trkpt>
<trkpt lat="45.9297904968262" lon="7.20579290390015"><ele></ele><time>2013-8-4T20:39:49Z</time></trkpt>
<trkpt lat="45.9297714233398" lon="7.2057728767395"><ele></ele><time>2013-8-4T20:39:52Z</time></trkpt>
<trkpt lat="45.9297332763672" lon="7.20572996139526"><ele></ele><time>2013-8-4T20:39:55Z</time></trkpt>
<trkpt lat="45.9296646118164" lon="7.20563840866089"><ele></ele><time>2013-8-4T20:39:58Z</time></trkpt>
<trkpt lat="45.9296455383301" lon="7.20561265945435"><ele></ele><time>2013-8-4T20:40:1Z</time></trkpt>
<trkpt lat="45.9296264648438" lon="7.20559120178223"><ele></ele><time>2013-8-4T20:40:4Z</time></trkpt>
<trkpt lat="45.9296073913574" lon="7.20557022094726"><ele></ele><time>2013-8-4T20:40:7Z</time></trkpt>
<trkpt lat="45.9295883178711" lon="7.20554971694946"><ele></ele><time>2013-8-4T20:40:10Z</time></trkpt>
<trkpt lat="45.9294738769531" lon="7.20545816421509"><ele></ele><time>2013-8-4T20:40:13Z</time></trkpt>
<trkpt lat="45.9294509887695" lon="7.20544385910034"><ele></ele><time>2013-8-4T20:40:16Z</time></trkpt>
<trkpt lat="45.9294281005859" lon="7.20542907714844"><ele></ele><time>2013-8-4T20:40:19Z</time></trkpt>
<trkpt lat="45.9294052124023" lon="7.20541381835938"><ele></ele><time>2013-8-4T20:40:22Z</time></trkpt>
<trkpt lat="45.929386138916" lon="7.20539903640747"><ele></ele><time>2013-8-4T20:40:25Z</time></trkpt>
<trkpt lat="45.9293632507324" lon="7.20538234710693"><ele></ele><time>2013-8-4T20:40:28Z</time></trkpt>
<trkpt lat="45.9292640686035" lon="7.20532274246216"><ele></ele><time>2013-8-4T20:40:31Z</time></trkpt>
<trkpt lat="45.9292373657227" lon="7.20530843734741"><ele></ele><time>2013-8-4T20:40:34Z</time></trkpt>
<trkpt lat="45.9292106628418" lon="7.20529508590698"><ele></ele><time>2013-8-4T20:40:37Z</time></trkpt>
<trkpt lat="45.9291801452637" lon="7.20528173446655"><ele></ele><time>2013-8-4T20:40:40Z</time></trkpt>
<trkpt lat="45.9291534423828" lon="7.20526742935181"><ele></ele><time>2013-8-4T20:40:43Z</time></trkpt>
<trkpt lat="45.929126739502" lon="7.20525455474854"><ele></ele><time>2013-8-4T20:40:46Z</time></trkpt>
<trkpt lat="45.9290046691894" lon="7.20503854751587"><ele></ele><time>2013-8-4T20:40:49Z</time></trkpt>
<trkpt lat="45.9289855957031" lon="7.2049822807312"><ele></ele><time>2013-8-4T20:40:52Z</time></trkpt>
<trkpt lat="45.9289588928223" lon="7.20491361618042"><ele></ele><time>2013-8-4T20:40:55Z</time></trkpt>
<trkpt lat="45.9289283752441" lon="7.2048716545105"><ele></ele><time>2013-8-4T20:40:58Z</time></trkpt>
<trkpt lat="45.9288940429688" lon="7.20484447479248"><ele></ele><time>2013-8-4T20:41:1Z</time></trkpt>
<trkpt lat="45.928825378418" lon="7.20479440689087"><ele></ele><time>2013-8-4T20:41:4Z</time></trkpt>
<trkpt lat="45.9285774230957" lon="7.20459270477295"><ele></ele><time>2013-8-4T20:41:7Z</time></trkpt>
<trkpt lat="45.9285469055176" lon="7.20458269119263"><ele></ele><time>2013-8-4T20:41:10Z</time></trkpt>
<trkpt lat="45.9285163879394" lon="7.20457887649536"><ele></ele><time>2013-8-4T20:41:13Z</time></trkpt>
<trkpt lat="45.9284858703613" lon="7.20457553863525"><ele></ele><time>2013-8-4T20:41:16Z</time></trkpt>
<trkpt lat="45.9284477233887" lon="7.20455455780029"><ele></ele><time>2013-8-4T20:41:19Z</time></trkpt>
<trkpt lat="45.9283409118652" lon="7.20453691482544"><ele></ele><time>2013-8-4T20:41:22Z</time></trkpt>
<trkpt lat="45.9281883239746" lon="7.20451259613037"><ele></ele><time>2013-8-4T20:41:25Z</time></trkpt>
<trkpt lat="45.9281578063965" lon="7.20450401306152"><ele></ele><time>2013-8-4T20:41:28Z</time></trkpt>
<trkpt lat="45.9281272888184" lon="7.20449352264404"><ele></ele><time>2013-8-4T20:41:31Z</time></trkpt>
<trkpt lat="45.928092956543" lon="7.20448303222656"><ele></ele><time>2013-8-4T20:41:34Z</time></trkpt>
<trkpt lat="45.9280624389648" lon="7.20446920394898"><ele></ele><time>2013-8-4T20:41:37Z</time></trkpt>
<trkpt lat="45.9278869628906" lon="7.20441293716431"><ele></ele><time>2013-8-4T20:41:40Z</time></trkpt>
<trkpt lat="45.9278564453125" lon="7.20440340042114"><ele></ele><time>2013-8-4T20:41:43Z</time></trkpt>
<trkpt lat="45.9278259277344" lon="7.20439386367798"><ele></ele><time>2013-8-4T20:41:46Z</time></trkpt>
<trkpt lat="45.9277992248535" lon="7.20438766479492"><ele></ele><time>2013-8-4T20:41:49Z</time></trkpt>
<trkpt lat="45.9276657104492" lon="7.20434188842774"><ele></ele><time>2013-8-4T20:41:52Z</time></trkpt>
<trkpt lat="45.9276351928711" lon="7.20432949066162"><ele></ele><time>2013-8-4T20:41:55Z</time></trkpt>
<trkpt lat="45.9276084899902" lon="7.20431900024414"><ele></ele><time>2013-8-4T20:41:58Z</time></trkpt>
<trkpt lat="45.9275817871094" lon="7.2043080329895"><ele></ele><time>2013-8-4T20:42:1Z</time></trkpt>
<trkpt lat="45.9275550842285" lon="7.20429182052612"><ele></ele><time>2013-8-4T20:42:4Z</time></trkpt>
<trkpt lat="45.9275169372559" lon="7.20428133010864"><ele></ele><time>2013-8-4T20:42:7Z</time></trkpt>
<trkpt lat="45.927417755127" lon="7.20425844192505"><ele></ele><time>2013-8-4T20:42:10Z</time></trkpt>
<trkpt lat="45.927303314209" lon="7.2042236328125"><ele></ele><time>2013-8-4T20:42:13Z</time></trkpt>
<trkpt lat="45.9272766113281" lon="7.20421743392944"><ele></ele><time>2013-8-4T20:42:16Z</time></trkpt>
<trkpt lat="45.92724609375" lon="7.20421028137207"><ele></ele><time>2013-8-4T20:42:19Z</time></trkpt>
<trkpt lat="45.9272193908691" lon="7.20420122146606"><ele></ele><time>2013-8-4T20:42:22Z</time></trkpt>
<trkpt lat="45.9271965026856" lon="7.20419216156006"><ele></ele><time>2013-8-4T20:42:25Z</time></trkpt>
<trkpt lat="45.9271697998047" lon="7.20418643951416"><ele></ele><time>2013-8-4T20:42:28Z</time></trkpt>
<trkpt lat="45.9269714355469" lon="7.20413017272949"><ele></ele><time>2013-8-4T20:42:31Z</time></trkpt>
<trkpt lat="45.9269485473633" lon="7.20412254333496"><ele></ele><time>2013-8-4T20:42:34Z</time></trkpt>
<trkpt lat="45.9269218444824" lon="7.20411586761475"><ele></ele><time>2013-8-4T20:42:37Z</time></trkpt>
<trkpt lat="45.9268913269043" lon="7.20410490036011"><ele></ele><time>2013-8-4T20:42:40Z</time></trkpt>
<trkpt lat="45.9268608093262" lon="7.20409870147705"><ele></ele><time>2013-8-4T20:42:43Z</time></trkpt>
<trkpt lat="45.9267234802246" lon="7.20408010482788"><ele></ele><time>2013-8-4T20:42:46Z</time></trkpt>
<trkpt lat="45.926700592041" lon="7.20407772064209"><ele></ele><time>2013-8-4T20:42:49Z</time></trkpt>
<trkpt lat="45.9266738891602" lon="7.2040753364563"><ele></ele><time>2013-8-4T20:42:52Z</time></trkpt>
<trkpt lat="45.9266510009766" lon="7.20407295227051"><ele></ele><time>2013-8-4T20:42:55Z</time></trkpt>
<trkpt lat="45.926628112793" lon="7.20407056808472"><ele></ele><time>2013-8-4T20:42:58Z</time></trkpt>
<trkpt lat="45.9266052246094" lon="7.20406913757324"><ele></ele><time>2013-8-4T20:43:1Z</time></trkpt>
<trkpt lat="45.9265365600586" lon="7.20406532287598"><ele></ele><time>2013-8-4T20:43:4Z</time></trkpt>
<trkpt lat="45.926513671875" lon="7.20406293869018"><ele></ele><time>2013-8-4T20:43:7Z</time></trkpt>
<trkpt lat="45.9264907836914" lon="7.20405769348144"><ele></ele><time>2013-8-4T20:43:10Z</time></trkpt>
<trkpt lat="45.9264678955078" lon="7.2040524482727"><ele></ele><time>2013-8-4T20:43:13Z</time></trkpt>
<trkpt lat="45.9214744567871" lon="7.20123147964478"><ele></ele><time>2013-8-4T20:43:16Z</time></trkpt>
<trkpt lat="45.921443939209" lon="7.20123243331909"><ele></ele><time>2013-8-4T20:43:19Z</time></trkpt>
<trkpt lat="45.9213447570801" lon="7.20123624801636"><ele></ele><time>2013-8-4T20:43:22Z</time></trkpt>
<trkpt lat="45.9212036132812" lon="7.20126628875732"><ele></ele><time>2013-8-4T20:43:25Z</time></trkpt>
<trkpt lat="45.9210815429688" lon="7.20131969451904"><ele></ele><time>2013-8-4T20:43:28Z</time></trkpt>
<trkpt lat="45.921070098877" lon="7.20134258270264"><ele></ele><time>2013-8-4T20:43:31Z</time></trkpt>
<trkpt lat="45.921070098877" lon="7.20136594772339"><ele></ele><time>2013-8-4T20:43:34Z</time></trkpt>
<trkpt lat="45.9210739135742" lon="7.20138883590698"><ele></ele><time>2013-8-4T20:43:37Z</time></trkpt>
<trkpt lat="45.921085357666" lon="7.20141363143921"><ele></ele><time>2013-8-4T20:43:40Z</time></trkpt>
<trkpt lat="45.9210929870606" lon="7.20143556594849"><ele></ele><time>2013-8-4T20:43:43Z</time></trkpt>
<trkpt lat="45.9210357666016" lon="7.20151853561401"><ele></ele><time>2013-8-4T20:43:46Z</time></trkpt>
<trkpt lat="45.920726776123" lon="7.20171880722046"><ele></ele><time>2013-8-4T20:43:49Z</time></trkpt>
<trkpt lat="45.92041015625" lon="7.20172929763794"><ele></ele><time>2013-8-4T20:43:52Z</time></trkpt>
<trkpt lat="45.9202461242676" lon="7.2017183303833"><ele></ele><time>2013-8-4T20:43:55Z</time></trkpt>
<trkpt lat="45.9201965332031" lon="7.20172452926636"><ele></ele><time>2013-8-4T20:43:58Z</time></trkpt>
<trkpt lat="45.9201507568359" lon="7.20173263549805"><ele></ele><time>2013-8-4T20:44:1Z</time></trkpt>
<trkpt lat="45.9201011657715" lon="7.20173168182373"><ele></ele><time>2013-8-4T20:44:4Z</time></trkpt>
<trkpt lat="45.9200477600098" lon="7.2017297744751"><ele></ele><time>2013-8-4T20:44:7Z</time></trkpt>
<trkpt lat="45.9197769165039" lon="7.20169830322266"><ele></ele><time>2013-8-4T20:44:10Z</time></trkpt>
<trkpt lat="45.9196662902832" lon="7.20167541503906"><ele></ele><time>2013-8-4T20:44:13Z</time></trkpt>
<trkpt lat="45.9196357727051" lon="7.2016773223877"><ele></ele><time>2013-8-4T20:44:16Z</time></trkpt>
<trkpt lat="45.9195976257324" lon="7.20167779922485"><ele></ele><time>2013-8-4T20:44:19Z</time></trkpt>
<trkpt lat="45.9195594787598" lon="7.20167207717896"><ele></ele><time>2013-8-4T20:44:22Z</time></trkpt>
<trkpt lat="45.9195175170898" lon="7.20166635513306"><ele></ele><time>2013-8-4T20:44:25Z</time></trkpt>
<trkpt lat="45.9192543029785" lon="7.20168495178223"><ele></ele><time>2013-8-4T20:44:28Z</time></trkpt>
<trkpt lat="45.9192199707031" lon="7.20169067382812"><ele></ele><time>2013-8-4T20:44:31Z</time></trkpt>
<trkpt lat="45.9191780090332" lon="7.20169448852539"><ele></ele><time>2013-8-4T20:44:34Z</time></trkpt>
<trkpt lat="45.9191360473633" lon="7.20169925689697"><ele></ele><time>2013-8-4T20:44:37Z</time></trkpt>
<trkpt lat="45.9190902709961" lon="7.20170736312866"><ele></ele><time>2013-8-4T20:44:40Z</time></trkpt>
<trkpt lat="45.9189758300781" lon="7.20172262191772"><ele></ele><time>2013-8-4T20:44:43Z</time></trkpt>
<trkpt lat="45.9185028076172" lon="7.20180940628052"><ele></ele><time>2013-8-4T20:44:46Z</time></trkpt>
<trkpt lat="45.9180946350098" lon="7.2019305229187"><ele></ele><time>2013-8-4T20:44:49Z</time></trkpt>
<trkpt lat="45.9178504943848" lon="7.20199632644653"><ele></ele><time>2013-8-4T20:44:52Z</time></trkpt>
<trkpt lat="45.9178047180176" lon="7.20200967788696"><ele></ele><time>2013-8-4T20:44:55Z</time></trkpt>
<trkpt lat="45.9177589416504" lon="7.20201921463013"><ele></ele><time>2013-8-4T20:44:58Z</time></trkpt>
<trkpt lat="45.9177131652832" lon="7.20203256607056"><ele></ele><time>2013-8-4T20:45:1Z</time></trkpt>
<trkpt lat="45.9176635742188" lon="7.20204210281372"><ele></ele><time>2013-8-4T20:45:4Z</time></trkpt>
<trkpt lat="45.9174156188965" lon="7.20210838317871"><ele></ele><time>2013-8-4T20:45:7Z</time></trkpt>
<trkpt lat="45.917121887207" lon="7.20210409164429"><ele></ele><time>2013-8-4T20:45:10Z</time></trkpt>
<trkpt lat="45.9170112609863" lon="7.20209312438965"><ele></ele><time>2013-8-4T20:45:13Z</time></trkpt>
<trkpt lat="45.9169616699219" lon="7.20208072662354"><ele></ele><time>2013-8-4T20:45:16Z</time></trkpt>
<trkpt lat="45.9169082641602" lon="7.20206546783447"><ele></ele><time>2013-8-4T20:45:19Z</time></trkpt>
<trkpt lat="45.9168548583984" lon="7.20204305648804"><ele></ele><time>2013-8-4T20:45:22Z</time></trkpt>
<trkpt lat="45.916805267334" lon="7.20202207565308"><ele></ele><time>2013-8-4T20:45:25Z</time></trkpt>
<trkpt lat="45.9167556762695" lon="7.20200490951538"><ele></ele><time>2013-8-4T20:45:28Z</time></trkpt>
<trkpt lat="45.9166564941406" lon="7.20196866989136"><ele></ele><time>2013-8-4T20:45:31Z</time></trkpt>
<trkpt lat="45.9166069030762" lon="7.20195150375366"><ele></ele><time>2013-8-4T20:45:34Z</time></trkpt>
<trkpt lat="45.916561126709" lon="7.20193433761597"><ele></ele><time>2013-8-4T20:45:37Z</time></trkpt>
<trkpt lat="45.9165153503418" lon="7.2019214630127"><ele></ele><time>2013-8-4T20:45:40Z</time></trkpt>
<trkpt lat="45.9164657592773" lon="7.20191192626953"><ele></ele><time>2013-8-4T20:45:43Z</time></trkpt>
<trkpt lat="45.9164199829102" lon="7.20189666748047"><ele></ele><time>2013-8-4T20:45:46Z</time></trkpt>
<trkpt lat="45.9160766601562" lon="7.20183706283569"><ele></ele><time>2013-8-4T20:45:49Z</time></trkpt>
<trkpt lat="45.9160232543945" lon="7.20183277130127"><ele></ele><time>2013-8-4T20:45:52Z</time></trkpt>
<trkpt lat="45.9159240722656" lon="7.20183372497559"><ele></ele><time>2013-8-4T20:45:55Z</time></trkpt>
<trkpt lat="45.9158630371094" lon="7.20183610916138"><ele></ele><time>2013-8-4T20:45:58Z</time></trkpt>
<trkpt lat="45.9158058166504" lon="7.20183658599854"><ele></ele><time>2013-8-4T20:46:1Z</time></trkpt>
<trkpt lat="45.9157600402832" lon="7.20184087753296"><ele></ele><time>2013-8-4T20:46:4Z</time></trkpt>
<trkpt lat="45.9157104492188" lon="7.20184755325317"><ele></ele><time>2013-8-4T20:46:7Z</time></trkpt>
<trkpt lat="45.9153709411621" lon="7.2019305229187"><ele></ele><time>2013-8-4T20:46:10Z</time></trkpt>
<trkpt lat="45.9150085449219" lon="7.20190715789795"><ele></ele><time>2013-8-4T20:46:13Z</time></trkpt>
<trkpt lat="45.9149589538574" lon="7.20189666748047"><ele></ele><time>2013-8-4T20:46:16Z</time></trkpt>
<trkpt lat="45.9149055480957" lon="7.20188999176025"><ele></ele><time>2013-8-4T20:46:19Z</time></trkpt>
<trkpt lat="45.9148597717285" lon="7.20189046859741"><ele></ele><time>2013-8-4T20:46:22Z</time></trkpt>
<trkpt lat="45.9148101806641" lon="7.20189237594604"><ele></ele><time>2013-8-4T20:46:25Z</time></trkpt>
<trkpt lat="45.9145050048828" lon="7.20187044143677"><ele></ele><time>2013-8-4T20:46:28Z</time></trkpt>
<trkpt lat="45.9144287109375" lon="7.20186614990234"><ele></ele><time>2013-8-4T20:46:31Z</time></trkpt>
<trkpt lat="45.9143867492676" lon="7.20186471939087"><ele></ele><time>2013-8-4T20:46:34Z</time></trkpt>
<trkpt lat="45.9143486022949" lon="7.20186614990234"><ele></ele><time>2013-8-4T20:46:37Z</time></trkpt>
<trkpt lat="45.9143104553223" lon="7.2018666267395"><ele></ele><time>2013-8-4T20:46:40Z</time></trkpt>
<trkpt lat="45.9142684936523" lon="7.20186805725098"><ele></ele><time>2013-8-4T20:46:43Z</time></trkpt>
<trkpt lat="45.9141120910644" lon="7.2018871307373"><ele></ele><time>2013-8-4T20:46:46Z</time></trkpt>
<trkpt lat="45.9140815734863" lon="7.20189476013184"><ele></ele><time>2013-8-4T20:46:49Z</time></trkpt>
<trkpt lat="45.9140434265137" lon="7.20190191268921"><ele></ele><time>2013-8-4T20:46:52Z</time></trkpt>
<trkpt lat="45.9140014648438" lon="7.20190811157226"><ele></ele><time>2013-8-4T20:46:55Z</time></trkpt>
<trkpt lat="45.9139671325684" lon="7.2019157409668"><ele></ele><time>2013-8-4T20:46:58Z</time></trkpt>
<trkpt lat="45.9137916564941" lon="7.2019476890564"><ele></ele><time>2013-8-4T20:47:1Z</time></trkpt>
<trkpt lat="45.9136695861816" lon="7.20196533203125"><ele></ele><time>2013-8-4T20:47:4Z</time></trkpt>
<trkpt lat="45.9136276245117" lon="7.20198059082031"><ele></ele><time>2013-8-4T20:47:7Z</time></trkpt>
<trkpt lat="45.9135818481445" lon="7.20199346542358"><ele></ele><time>2013-8-4T20:47:10Z</time></trkpt>
<trkpt lat="45.9135398864746" lon="7.20200967788696"><ele></ele><time>2013-8-4T20:47:13Z</time></trkpt>
<trkpt lat="45.9134902954102" lon="7.20200300216675"><ele></ele><time>2013-8-4T20:47:16Z</time></trkpt>
<trkpt lat="45.9134368896484" lon="7.20198678970337"><ele></ele><time>2013-8-4T20:47:19Z</time></trkpt>
<trkpt lat="45.9131965637207" lon="7.20197057723999"><ele></ele><time>2013-8-4T20:47:22Z</time></trkpt>
<trkpt lat="45.9131546020508" lon="7.20197200775146"><ele></ele><time>2013-8-4T20:47:25Z</time></trkpt>
<trkpt lat="45.9131126403809" lon="7.20197677612305"><ele></ele><time>2013-8-4T20:47:28Z</time></trkpt>
<trkpt lat="45.9130706787109" lon="7.2019853591919"><ele></ele><time>2013-8-4T20:47:31Z</time></trkpt>
<trkpt lat="45.9127922058106" lon="7.20199823379517"><ele></ele><time>2013-8-4T20:47:34Z</time></trkpt>
<trkpt lat="45.9127540588379" lon="7.20199489593506"><ele></ele><time>2013-8-4T20:47:37Z</time></trkpt>
<trkpt lat="45.9127159118652" lon="7.20198965072632"><ele></ele><time>2013-8-4T20:47:40Z</time></trkpt>
<trkpt lat="45.9126739501953" lon="7.20198488235474"><ele></ele><time>2013-8-4T20:47:43Z</time></trkpt>
<trkpt lat="45.9126243591309" lon="7.20198726654053"><ele></ele><time>2013-8-4T20:47:46Z</time></trkpt>
<trkpt lat="45.9123878479004" lon="7.20198631286621"><ele></ele><time>2013-8-4T20:47:49Z</time></trkpt>
<trkpt lat="45.9122734069824" lon="7.20196008682251"><ele></ele><time>2013-8-4T20:47:52Z</time></trkpt>
<trkpt lat="45.9122352600098" lon="7.20194625854492"><ele></ele><time>2013-8-4T20:47:55Z</time></trkpt>
<trkpt lat="45.9121932983398" lon="7.20193290710449"><ele></ele><time>2013-8-4T20:47:58Z</time></trkpt>
<trkpt lat="45.9121551513672" lon="7.20192003250122"><ele></ele><time>2013-8-4T20:48:1Z</time></trkpt>
<trkpt lat="45.9121131896973" lon="7.20190525054932"><ele></ele><time>2013-8-4T20:48:4Z</time></trkpt>
<trkpt lat="45.9120712280273" lon="7.20189094543457"><ele></ele><time>2013-8-4T20:48:7Z</time></trkpt>
<trkpt lat="45.9119415283203" lon="7.20185804367065"><ele></ele><time>2013-8-4T20:48:10Z</time></trkpt>
<trkpt lat="45.9118995666504" lon="7.20184326171875"><ele></ele><time>2013-8-4T20:48:13Z</time></trkpt>
<trkpt lat="45.9118537902832" lon="7.20182991027832"><ele></ele><time>2013-8-4T20:48:16Z</time></trkpt>
<trkpt lat="45.9118118286133" lon="7.20181369781494"><ele></ele><time>2013-8-4T20:48:19Z</time></trkpt>
<trkpt lat="45.9117736816406" lon="7.20179796218872"><ele></ele><time>2013-8-4T20:48:22Z</time></trkpt>
<trkpt lat="45.9117279052734" lon="7.20178508758545"><ele></ele><time>2013-8-4T20:48:25Z</time></trkpt>
<trkpt lat="45.9116897583008" lon="7.20177030563354"><ele></ele><time>2013-8-4T20:48:28Z</time></trkpt>
<trkpt lat="45.9115142822266" lon="7.20170021057129"><ele></ele><time>2013-8-4T20:48:31Z</time></trkpt>
<trkpt lat="45.9114227294922" lon="7.20165872573852"><ele></ele><time>2013-8-4T20:48:34Z</time></trkpt>
<trkpt lat="45.9113731384277" lon="7.20163726806641"><ele></ele><time>2013-8-4T20:48:37Z</time></trkpt>
<trkpt lat="45.9113273620606" lon="7.20161437988281"><ele></ele><time>2013-8-4T20:48:40Z</time></trkpt>
<trkpt lat="45.9112815856934" lon="7.20159435272217"><ele></ele><time>2013-8-4T20:48:43Z</time></trkpt>
<trkpt lat="45.9112396240234" lon="7.20157098770142"><ele></ele><time>2013-8-4T20:48:46Z</time></trkpt>
<trkpt lat="45.9110794067383" lon="7.20148134231567"><ele></ele><time>2013-8-4T20:48:49Z</time></trkpt>
<trkpt lat="45.9108352661133" lon="7.20138311386108"><ele></ele><time>2013-8-4T20:48:52Z</time></trkpt>
<trkpt lat="45.9107933044434" lon="7.20137214660644"><ele></ele><time>2013-8-4T20:48:55Z</time></trkpt>
<trkpt lat="45.9107513427734" lon="7.20136308670044"><ele></ele><time>2013-8-4T20:48:58Z</time></trkpt>
<trkpt lat="45.910701751709" lon="7.20135259628296"><ele></ele><time>2013-8-4T20:49:1Z</time></trkpt>
<trkpt lat="45.9106521606445" lon="7.2013430595398"><ele></ele><time>2013-8-4T20:49:4Z</time></trkpt>
<trkpt lat="45.9104881286621" lon="7.20132398605347"><ele></ele><time>2013-8-4T20:49:7Z</time></trkpt>
<trkpt lat="45.9101333618164" lon="7.20130300521851"><ele></ele><time>2013-8-4T20:49:10Z</time></trkpt>
<trkpt lat="45.9098281860352" lon="7.20132398605347"><ele></ele><time>2013-8-4T20:49:13Z</time></trkpt>
<trkpt lat="45.9097709655762" lon="7.20132493972778"><ele></ele><time>2013-8-4T20:49:16Z</time></trkpt>
<trkpt lat="45.9097213745117" lon="7.20131635665894"><ele></ele><time>2013-8-4T20:49:19Z</time></trkpt>
<trkpt lat="45.9096755981445" lon="7.20131397247314"><ele></ele><time>2013-8-4T20:49:22Z</time></trkpt>
<trkpt lat="45.9096260070801" lon="7.20131063461304"><ele></ele><time>2013-8-4T20:49:25Z</time></trkpt>
<trkpt lat="45.9095726013184" lon="7.20130300521851"><ele></ele><time>2013-8-4T20:49:28Z</time></trkpt>
<trkpt lat="45.9095191955566" lon="7.20129489898682"><ele></ele><time>2013-8-4T20:49:31Z</time></trkpt>
<trkpt lat="45.9091339111328" lon="7.20124530792236"><ele></ele><time>2013-8-4T20:49:34Z</time></trkpt>
<trkpt lat="45.9088859558106" lon="7.20118951797485"><ele></ele><time>2013-8-4T20:49:37Z</time></trkpt>
<trkpt lat="45.9088401794434" lon="7.20118188858032"><ele></ele><time>2013-8-4T20:49:40Z</time></trkpt>
<trkpt lat="45.9087867736816" lon="7.20117807388306"><ele></ele><time>2013-8-4T20:49:43Z</time></trkpt>
<trkpt lat="45.9087371826172" lon="7.20117378234863"><ele></ele><time>2013-8-4T20:49:46Z</time></trkpt>
<trkpt lat="45.9086875915527" lon="7.20116758346558"><ele></ele><time>2013-8-4T20:49:49Z</time></trkpt>
<trkpt lat="45.908447265625" lon="7.2011342048645"><ele></ele><time>2013-8-4T20:49:52Z</time></trkpt>
<trkpt lat="45.9083557128906" lon="7.2011284828186"><ele></ele><time>2013-8-4T20:49:55Z</time></trkpt>
<trkpt lat="45.9079399108887" lon="7.20115184783936"><ele></ele><time>2013-8-4T20:49:58Z</time></trkpt>
<trkpt lat="45.9078102111816" lon="7.20114517211914"><ele></ele><time>2013-8-4T20:50:1Z</time></trkpt>
<trkpt lat="45.9077682495117" lon="7.20115041732788"><ele></ele><time>2013-8-4T20:50:4Z</time></trkpt>
<trkpt lat="45.9077262878418" lon="7.20115423202515"><ele></ele><time>2013-8-4T20:50:7Z</time></trkpt>
<trkpt lat="45.9076805114746" lon="7.20115375518799"><ele></ele><time>2013-8-4T20:50:10Z</time></trkpt>
<trkpt lat="45.9076347351074" lon="7.20115661621094"><ele></ele><time>2013-8-4T20:50:13Z</time></trkpt>
<trkpt lat="45.9074211120606" lon="7.20117473602295"><ele></ele><time>2013-8-4T20:50:16Z</time></trkpt>
<trkpt lat="45.9072914123535" lon="7.2011866569519"><ele></ele><time>2013-8-4T20:50:19Z</time></trkpt>
<trkpt lat="45.9072456359863" lon="7.20118808746338"><ele></ele><time>2013-8-4T20:50:22Z</time></trkpt>
<trkpt lat="45.9071960449219" lon="7.2011923789978"><ele></ele><time>2013-8-4T20:50:25Z</time></trkpt>
<trkpt lat="45.9071502685547" lon="7.20119571685791"><ele></ele><time>2013-8-4T20:50:28Z</time></trkpt>
<trkpt lat="45.9071044921875" lon="7.20119619369507"><ele></ele><time>2013-8-4T20:50:31Z</time></trkpt>
<trkpt lat="45.9069366455078" lon="7.20120620727539"><ele></ele><time>2013-8-4T20:50:34Z</time></trkpt>
<trkpt lat="45.9068984985352" lon="7.20121049880982"><ele></ele><time>2013-8-4T20:50:37Z</time></trkpt>
<trkpt lat="45.9067764282227" lon="7.20121145248413"><ele></ele><time>2013-8-4T20:50:40Z</time></trkpt>
<trkpt lat="45.9066886901856" lon="7.20121145248413"><ele></ele><time>2013-8-4T20:50:43Z</time></trkpt>
<trkpt lat="45.9066467285156" lon="7.20121192932129"><ele></ele><time>2013-8-4T20:50:46Z</time></trkpt>
<trkpt lat="45.9066047668457" lon="7.20121383666992"><ele></ele><time>2013-8-4T20:50:49Z</time></trkpt>
<trkpt lat="45.9065589904785" lon="7.20121431350708"><ele></ele><time>2013-8-4T20:50:52Z</time></trkpt>
<trkpt lat="45.9065170288086" lon="7.20121335983276"><ele></ele><time>2013-8-4T20:50:55Z</time></trkpt>
<trkpt lat="45.9062576293945" lon="7.20119094848633"><ele></ele><time>2013-8-4T20:50:58Z</time></trkpt>
<trkpt lat="45.9062118530273" lon="7.20118761062622"><ele></ele><time>2013-8-4T20:51:1Z</time></trkpt>
<trkpt lat="45.9061698913574" lon="7.20118141174316"><ele></ele><time>2013-8-4T20:51:4Z</time></trkpt>
<trkpt lat="45.9061317443848" lon="7.20117521286011"><ele></ele><time>2013-8-4T20:51:7Z</time></trkpt>
<trkpt lat="45.9060935974121" lon="7.20116901397705"><ele></ele><time>2013-8-4T20:51:10Z</time></trkpt>
<trkpt lat="45.905876159668" lon="7.20110464096069"><ele></ele><time>2013-8-4T20:51:13Z</time></trkpt>
<trkpt lat="45.9057235717773" lon="7.2010612487793"><ele></ele><time>2013-8-4T20:51:16Z</time></trkpt>
<trkpt lat="45.9056854248047" lon="7.20105123519898"><ele></ele><time>2013-8-4T20:51:19Z</time></trkpt>
<trkpt lat="45.9056434631348" lon="7.20104074478149"><ele></ele><time>2013-8-4T20:51:22Z</time></trkpt>
<trkpt lat="45.9056015014648" lon="7.20103025436401"><ele></ele><time>2013-8-4T20:51:25Z</time></trkpt>
<trkpt lat="45.9055595397949" lon="7.20102024078369"><ele></ele><time>2013-8-4T20:51:28Z</time></trkpt>
<trkpt lat="45.9055213928223" lon="7.20100831985474"><ele></ele><time>2013-8-4T20:51:31Z</time></trkpt>
<trkpt lat="45.9052772521973" lon="7.20093393325806"><ele></ele><time>2013-8-4T20:51:34Z</time></trkpt>
<trkpt lat="45.9052391052246" lon="7.2009220123291"><ele></ele><time>2013-8-4T20:51:37Z</time></trkpt>
<trkpt lat="45.9052047729492" lon="7.20090770721436"><ele></ele><time>2013-8-4T20:51:40Z</time></trkpt>
<trkpt lat="45.9051628112793" lon="7.20089626312256"><ele></ele><time>2013-8-4T20:51:43Z</time></trkpt>
<trkpt lat="45.9051246643066" lon="7.20088291168213"><ele></ele><time>2013-8-4T20:51:46Z</time></trkpt>
<trkpt lat="45.9048080444336" lon="7.20080041885376"><ele></ele><time>2013-8-4T20:51:49Z</time></trkpt>
<trkpt lat="45.9047317504883" lon="7.20077228546143"><ele></ele><time>2013-8-4T20:51:52Z</time></trkpt>
<trkpt lat="45.9046974182129" lon="7.20075511932373"><ele></ele><time>2013-8-4T20:51:55Z</time></trkpt>
<trkpt lat="45.9046592712402" lon="7.20073938369751"><ele></ele><time>2013-8-4T20:51:58Z</time></trkpt>
<trkpt lat="45.9046249389648" lon="7.2007212638855"><ele></ele><time>2013-8-4T20:52:1Z</time></trkpt>
<trkpt lat="45.9045867919922" lon="7.20070171356201"><ele></ele><time>2013-8-4T20:52:4Z</time></trkpt>
<trkpt lat="45.9045143127441" lon="7.20065450668335"><ele></ele><time>2013-8-4T20:52:7Z</time></trkpt>
<trkpt lat="45.9043273925781" lon="7.20053434371948"><ele></ele><time>2013-8-4T20:52:10Z</time></trkpt>
<trkpt lat="45.9043006896973" lon="7.20050954818726"><ele></ele><time>2013-8-4T20:52:13Z</time></trkpt>
<trkpt lat="45.9042778015137" lon="7.20048522949219"><ele></ele><time>2013-8-4T20:52:16Z</time></trkpt>
<trkpt lat="45.9042549133301" lon="7.20045709609985"><ele></ele><time>2013-8-4T20:52:19Z</time></trkpt>
<trkpt lat="45.9042320251465" lon="7.20043277740478"><ele></ele><time>2013-8-4T20:52:22Z</time></trkpt>
<trkpt lat="45.9042091369629" lon="7.20040512084961"><ele></ele><time>2013-8-4T20:52:25Z</time></trkpt>
<trkpt lat="45.904182434082" lon="7.20037746429443"><ele></ele><time>2013-8-4T20:52:28Z</time></trkpt>
<trkpt lat="45.9040641784668" lon="7.2002215385437"><ele></ele><time>2013-8-4T20:52:31Z</time></trkpt>
<trkpt lat="45.9040069580078" lon="7.1999921798706"><ele></ele><time>2013-8-4T20:52:34Z</time></trkpt>
<trkpt lat="45.9039764404297" lon="7.19988965988159"><ele></ele><time>2013-8-4T20:52:37Z</time></trkpt>
<trkpt lat="45.9039726257324" lon="7.19983816146851"><ele></ele><time>2013-8-4T20:52:40Z</time></trkpt>
<trkpt lat="45.9039649963379" lon="7.199791431427"><ele></ele><time>2013-8-4T20:52:43Z</time></trkpt>
<trkpt lat="45.9039573669434" lon="7.19974422454834"><ele></ele><time>2013-8-4T20:52:46Z</time></trkpt>
<trkpt lat="45.9039459228516" lon="7.19965219497681"><ele></ele><time>2013-8-4T20:52:49Z</time></trkpt>
<trkpt lat="45.903076171875" lon="7.19882011413574"><ele></ele><time>2013-8-4T20:52:52Z</time></trkpt>
<trkpt lat="45.902587890625" lon="7.19848012924194"><ele></ele><time>2013-8-4T20:52:55Z</time></trkpt>
<trkpt lat="45.9025459289551" lon="7.19845962524414"><ele></ele><time>2013-8-4T20:52:58Z</time></trkpt>
<trkpt lat="45.9025192260742" lon="7.1984691619873"><ele></ele><time>2013-8-4T20:53:1Z</time></trkpt>
<trkpt lat="45.9024963378906" lon="7.19850301742554"><ele></ele><time>2013-8-4T20:53:4Z</time></trkpt>
<trkpt lat="45.9024696350098" lon="7.19854211807251"><ele></ele><time>2013-8-4T20:53:7Z</time></trkpt>
<trkpt lat="45.9024353027344" lon="7.19858741760254"><ele></ele><time>2013-8-4T20:53:10Z</time></trkpt>
<trkpt lat="45.9023780822754" lon="7.19859838485718"><ele></ele><time>2013-8-4T20:53:13Z</time></trkpt>
<trkpt lat="45.9023361206055" lon="7.19860172271728"><ele></ele><time>2013-8-4T20:53:16Z</time></trkpt>
<trkpt lat="45.902271270752" lon="7.19839191436768"><ele></ele><time>2013-8-4T20:53:19Z</time></trkpt>
<trkpt lat="45.9022827148438" lon="7.19809436798096"><ele></ele><time>2013-8-4T20:53:22Z</time></trkpt>
<trkpt lat="45.9022636413574" lon="7.19786882400513"><ele></ele><time>2013-8-4T20:53:25Z</time></trkpt>
<trkpt lat="45.9023132324219" lon="7.19763374328613"><ele></ele><time>2013-8-4T20:53:28Z</time></trkpt>
<trkpt lat="45.9022979736328" lon="7.19751691818237"><ele></ele><time>2013-8-4T20:53:31Z</time></trkpt>
<trkpt lat="45.9022674560547" lon="7.19734716415405"><ele></ele><time>2013-8-4T20:53:34Z</time></trkpt>
<trkpt lat="45.9022674560547" lon="7.19726085662842"><ele></ele><time>2013-8-4T20:53:37Z</time></trkpt>
<trkpt lat="45.9023246765137" lon="7.19719171524048"><ele></ele><time>2013-8-4T20:53:40Z</time></trkpt>
<trkpt lat="45.9023628234863" lon="7.19712209701538"><ele></ele><time>2013-8-4T20:53:43Z</time></trkpt>
<trkpt lat="45.9023818969727" lon="7.1970591545105"><ele></ele><time>2013-8-4T20:53:46Z</time></trkpt>
<trkpt lat="45.9024925231934" lon="7.19680404663086"><ele></ele><time>2013-8-4T20:53:49Z</time></trkpt>
<trkpt lat="45.9025001525879" lon="7.19658136367798"><ele></ele><time>2013-8-4T20:53:52Z</time></trkpt>
<trkpt lat="45.9024848937988" lon="7.19653081893921"><ele></ele><time>2013-8-4T20:53:55Z</time></trkpt>
<trkpt lat="45.9024696350098" lon="7.19648313522339"><ele></ele><time>2013-8-4T20:53:58Z</time></trkpt>
<trkpt lat="45.9024505615234" lon="7.19643306732178"><ele></ele><time>2013-8-4T20:54:1Z</time></trkpt>
<trkpt lat="45.9024429321289" lon="7.19638395309448"><ele></ele><time>2013-8-4T20:54:4Z</time></trkpt>
<trkpt lat="45.9023094177246" lon="7.19615936279297"><ele></ele><time>2013-8-4T20:54:7Z</time></trkpt>
<trkpt lat="45.9022789001465" lon="7.19611501693726"><ele></ele><time>2013-8-4T20:54:10Z</time></trkpt>
<trkpt lat="45.9021224975586" lon="7.19593191146851"><ele></ele><time>2013-8-4T20:54:13Z</time></trkpt>
<trkpt lat="45.9020843505859" lon="7.19589900970459"><ele></ele><time>2013-8-4T20:54:16Z</time></trkpt>
<trkpt lat="45.9020462036133" lon="7.19586658477783"><ele></ele><time>2013-8-4T20:54:19Z</time></trkpt>
<trkpt lat="45.9020042419434" lon="7.19583606719971"><ele></ele><time>2013-8-4T20:54:22Z</time></trkpt>
<trkpt lat="45.9019622802734" lon="7.19580602645874"><ele></ele><time>2013-8-4T20:54:25Z</time></trkpt>
<trkpt lat="45.9018783569336" lon="7.19576072692871"><ele></ele><time>2013-8-4T20:54:28Z</time></trkpt>
<trkpt lat="45.9017486572266" lon="7.19571781158447"><ele></ele><time>2013-8-4T20:54:31Z</time></trkpt>
<trkpt lat="45.9014053344727" lon="7.19565153121948"><ele></ele><time>2013-8-4T20:54:34Z</time></trkpt>
<trkpt lat="45.9011039733887" lon="7.1956467628479"><ele></ele><time>2013-8-4T20:54:37Z</time></trkpt>
<trkpt lat="45.9009132385254" lon="7.19564390182495"><ele></ele><time>2013-8-4T20:54:40Z</time></trkpt>
<trkpt lat="45.9008674621582" lon="7.1956467628479"><ele></ele><time>2013-8-4T20:54:43Z</time></trkpt>
<trkpt lat="45.9008293151856" lon="7.19565296173096"><ele></ele><time>2013-8-4T20:54:46Z</time></trkpt>
<trkpt lat="45.9007873535156" lon="7.19565725326538"><ele></ele><time>2013-8-4T20:54:49Z</time></trkpt>
<trkpt lat="45.900749206543" lon="7.19565773010254"><ele></ele><time>2013-8-4T20:54:52Z</time></trkpt>
<trkpt lat="45.9006385803223" lon="7.19564723968506"><ele></ele><time>2013-8-4T20:54:55Z</time></trkpt>
<trkpt lat="45.9006004333496" lon="7.19564867019653"><ele></ele><time>2013-8-4T20:54:58Z</time></trkpt>
<trkpt lat="45.9005661010742" lon="7.1956467628479"><ele></ele><time>2013-8-4T20:55:1Z</time></trkpt>
<trkpt lat="45.9005279541016" lon="7.19564580917358"><ele></ele><time>2013-8-4T20:55:4Z</time></trkpt>
<trkpt lat="45.9004859924316" lon="7.19564771652222"><ele></ele><time>2013-8-4T20:55:7Z</time></trkpt>
<trkpt lat="45.9003639221191" lon="7.19565391540527"><ele></ele><time>2013-8-4T20:55:10Z</time></trkpt>
<trkpt lat="45.9002113342285" lon="7.19566774368286"><ele></ele><time>2013-8-4T20:55:13Z</time></trkpt>
<trkpt lat="45.9001770019531" lon="7.19567346572876"><ele></ele><time>2013-8-4T20:55:16Z</time></trkpt>
<trkpt lat="45.9001426696777" lon="7.19568586349487"><ele></ele><time>2013-8-4T20:55:19Z</time></trkpt>
<trkpt lat="45.9001045227051" lon="7.19569253921509"><ele></ele><time>2013-8-4T20:55:22Z</time></trkpt>
<trkpt lat="45.9000701904297" lon="7.1956934928894"><ele></ele><time>2013-8-4T20:55:25Z</time></trkpt>
<trkpt lat="45.8999977111816" lon="7.19570112228394"><ele></ele><time>2013-8-4T20:55:28Z</time></trkpt>
<trkpt lat="45.8999633789062" lon="7.19570541381836"><ele></ele><time>2013-8-4T20:55:31Z</time></trkpt>
<trkpt lat="45.8999252319336" lon="7.19570541381836"><ele></ele><time>2013-8-4T20:55:34Z</time></trkpt>
<trkpt lat="45.8998908996582" lon="7.19570732116699"><ele></ele><time>2013-8-4T20:55:37Z</time></trkpt>
<trkpt lat="45.8998527526856" lon="7.19571495056152"><ele></ele><time>2013-8-4T20:55:40Z</time></trkpt>
<trkpt lat="45.8998107910156" lon="7.19572305679321"><ele></ele><time>2013-8-4T20:55:43Z</time></trkpt>
<trkpt lat="45.8997764587402" lon="7.19572448730469"><ele></ele><time>2013-8-4T20:55:46Z</time></trkpt>
<trkpt lat="45.8994674682617" lon="7.19568061828613"><ele></ele><time>2013-8-4T20:55:49Z</time></trkpt>
<trkpt lat="45.8994331359863" lon="7.19567966461182"><ele></ele><time>2013-8-4T20:55:52Z</time></trkpt>
<trkpt lat="45.8994026184082" lon="7.19567966461182"><ele></ele><time>2013-8-4T20:55:55Z</time></trkpt>
<trkpt lat="45.8993682861328" lon="7.19567680358887"><ele></ele><time>2013-8-4T20:55:58Z</time></trkpt>
<trkpt lat="45.8991928100586" lon="7.19566440582275"><ele></ele><time>2013-8-4T20:56:1Z</time></trkpt>
<trkpt lat="45.8989410400391" lon="7.19555711746216"><ele></ele><time>2013-8-4T20:56:4Z</time></trkpt>
<trkpt lat="45.8988380432129" lon="7.19547843933106"><ele></ele><time>2013-8-4T20:56:7Z</time></trkpt>
<trkpt lat="45.8988037109375" lon="7.19545125961304"><ele></ele><time>2013-8-4T20:56:10Z</time></trkpt>
<trkpt lat="45.8987731933594" lon="7.19542169570923"><ele></ele><time>2013-8-4T20:56:13Z</time></trkpt>
<trkpt lat="45.8987426757812" lon="7.19539070129394"><ele></ele><time>2013-8-4T20:56:16Z</time></trkpt>
<trkpt lat="45.8987121582031" lon="7.19535541534424"><ele></ele><time>2013-8-4T20:56:19Z</time></trkpt>
<trkpt lat="45.8984985351562" lon="7.19503355026245"><ele></ele><time>2013-8-4T20:56:22Z</time></trkpt>
<trkpt lat="45.8984756469727" lon="7.19498872756958"><ele></ele><time>2013-8-4T20:56:25Z</time></trkpt>
<trkpt lat="45.8984527587891" lon="7.19494438171387"><ele></ele><time>2013-8-4T20:56:28Z</time></trkpt>
<trkpt lat="45.8984336853027" lon="7.19489908218384"><ele></ele><time>2013-8-4T20:56:31Z</time></trkpt>
<trkpt lat="45.8984107971191" lon="7.1948561668396"><ele></ele><time>2013-8-4T20:56:34Z</time></trkpt>
<trkpt lat="45.8983192443848" lon="7.19467163085938"><ele></ele><time>2013-8-4T20:56:37Z</time></trkpt>
<trkpt lat="45.8981666564941" lon="7.19430923461914"><ele></ele><time>2013-8-4T20:56:40Z</time></trkpt>
<trkpt lat="45.8981475830078" lon="7.19425678253174"><ele></ele><time>2013-8-4T20:56:43Z</time></trkpt>
<trkpt lat="45.8981285095215" lon="7.19420433044434"><ele></ele><time>2013-8-4T20:56:46Z</time></trkpt>
<trkpt lat="45.8981132507324" lon="7.19415426254272"><ele></ele><time>2013-8-4T20:56:49Z</time></trkpt>
<trkpt lat="45.8980979919434" lon="7.19410133361816"><ele></ele><time>2013-8-4T20:56:52Z</time></trkpt>
<trkpt lat="45.8980827331543" lon="7.1940507888794"><ele></ele><time>2013-8-4T20:56:55Z</time></trkpt>
<trkpt lat="45.8980522155762" lon="7.19395208358765"><ele></ele><time>2013-8-4T20:56:58Z</time></trkpt>
<trkpt lat="45.8980255126953" lon="7.19385862350464"><ele></ele><time>2013-8-4T20:57:1Z</time></trkpt>
<trkpt lat="45.8980102539062" lon="7.19380807876587"><ele></ele><time>2013-8-4T20:57:4Z</time></trkpt>
<trkpt lat="45.8979988098144" lon="7.19375658035278"><ele></ele><time>2013-8-4T20:57:7Z</time></trkpt>
<trkpt lat="45.8979835510254" lon="7.19370985031128"><ele></ele><time>2013-8-4T20:57:10Z</time></trkpt>
<trkpt lat="45.8979721069336" lon="7.19366025924683"><ele></ele><time>2013-8-4T20:57:13Z</time></trkpt>
<trkpt lat="45.8979606628418" lon="7.19355726242065"><ele></ele><time>2013-8-4T20:57:16Z</time></trkpt>
<trkpt lat="45.8979911804199" lon="7.19332218170166"><ele></ele><time>2013-8-4T20:57:19Z</time></trkpt>
<trkpt lat="45.8980178833008" lon="7.19322538375854"><ele></ele><time>2013-8-4T20:57:22Z</time></trkpt>
<trkpt lat="45.8980331420898" lon="7.19317817687988"><ele></ele><time>2013-8-4T20:57:25Z</time></trkpt>
<trkpt lat="45.8980445861816" lon="7.19312715530396"><ele></ele><time>2013-8-4T20:57:28Z</time></trkpt>
<trkpt lat="45.8980560302734" lon="7.1930832862854"><ele></ele><time>2013-8-4T20:57:31Z</time></trkpt>
<trkpt lat="45.8980712890625" lon="7.19303846359253"><ele></ele><time>2013-8-4T20:57:34Z</time></trkpt>
<trkpt lat="45.8980827331543" lon="7.19299221038818"><ele></ele><time>2013-8-4T20:57:37Z</time></trkpt>
<trkpt lat="45.8981170654297" lon="7.19285583496094"><ele></ele><time>2013-8-4T20:57:40Z</time></trkpt>
<trkpt lat="45.898120880127" lon="7.19280481338501"><ele></ele><time>2013-8-4T20:57:43Z</time></trkpt>
<trkpt lat="45.8981246948242" lon="7.19275808334351"><ele></ele><time>2013-8-4T20:57:46Z</time></trkpt>
<trkpt lat="45.8981323242188" lon="7.19271087646484"><ele></ele><time>2013-8-4T20:57:49Z</time></trkpt>
<trkpt lat="45.8981437683106" lon="7.19261693954468"><ele></ele><time>2013-8-4T20:57:52Z</time></trkpt>
<trkpt lat="45.8981475830078" lon="7.19257116317749"><ele></ele><time>2013-8-4T20:57:55Z</time></trkpt>
<trkpt lat="45.8981513977051" lon="7.19252395629883"><ele></ele><time>2013-8-4T20:57:58Z</time></trkpt>
<trkpt lat="45.8981895446777" lon="7.19233989715576"><ele></ele><time>2013-8-4T20:58:1Z</time></trkpt>
<trkpt lat="45.8982048034668" lon="7.19229936599732"><ele></ele><time>2013-8-4T20:58:4Z</time></trkpt>
<trkpt lat="45.8983383178711" lon="7.19211483001709"><ele></ele><time>2013-8-4T20:58:7Z</time></trkpt>
<trkpt lat="45.8983573913574" lon="7.1920804977417"><ele></ele><time>2013-8-4T20:58:10Z</time></trkpt>
<trkpt lat="45.898380279541" lon="7.19204330444336"><ele></ele><time>2013-8-4T20:58:13Z</time></trkpt>
<trkpt lat="45.8983993530273" lon="7.19200801849365"><ele></ele><time>2013-8-4T20:58:16Z</time></trkpt>
<trkpt lat="45.8984146118164" lon="7.1919674873352"><ele></ele><time>2013-8-4T20:58:19Z</time></trkpt>
<trkpt lat="45.8984298706055" lon="7.19192361831665"><ele></ele><time>2013-8-4T20:58:22Z</time></trkpt>
<trkpt lat="45.8984451293945" lon="7.19187831878662"><ele></ele><time>2013-8-4T20:58:25Z</time></trkpt>
<trkpt lat="45.8984565734863" lon="7.19182920455933"><ele></ele><time>2013-8-4T20:58:28Z</time></trkpt>
<trkpt lat="45.8984680175781" lon="7.19178104400635"><ele></ele><time>2013-8-4T20:58:31Z</time></trkpt>
<trkpt lat="45.8984756469727" lon="7.19173383712768"><ele></ele><time>2013-8-4T20:58:34Z</time></trkpt>
<trkpt lat="45.898494720459" lon="7.19158697128296"><ele></ele><time>2013-8-4T20:58:37Z</time></trkpt>
<trkpt lat="45.8985061645508" lon="7.19153547286987"><ele></ele><time>2013-8-4T20:58:40Z</time></trkpt>
<trkpt lat="45.8985481262207" lon="7.19140768051148"><ele></ele><time>2013-8-4T20:58:43Z</time></trkpt>
<trkpt lat="45.8985748291016" lon="7.19137477874756"><ele></ele><time>2013-8-4T20:58:46Z</time></trkpt>
<trkpt lat="45.8985977172852" lon="7.19134855270386"><ele></ele><time>2013-8-4T20:58:49Z</time></trkpt>
<trkpt lat="45.8986625671387" lon="7.1913046836853"><ele></ele><time>2013-8-4T20:58:52Z</time></trkpt>
<trkpt lat="45.8986930847168" lon="7.19128322601318"><ele></ele><time>2013-8-4T20:58:55Z</time></trkpt>
<trkpt lat="45.8987197875977" lon="7.19125890731812"><ele></ele><time>2013-8-4T20:58:58Z</time></trkpt>
<trkpt lat="45.898738861084" lon="7.19123029708862"><ele></ele><time>2013-8-4T20:59:1Z</time></trkpt>
<trkpt lat="45.8987579345703" lon="7.19119882583618"><ele></ele><time>2013-8-4T20:59:4Z</time></trkpt>
<trkpt lat="45.8987808227539" lon="7.19116497039795"><ele></ele><time>2013-8-4T20:59:7Z</time></trkpt>
<trkpt lat="45.898811340332" lon="7.19108867645264"><ele></ele><time>2013-8-4T20:59:10Z</time></trkpt>
<trkpt lat="45.8988265991211" lon="7.19104862213135"><ele></ele><time>2013-8-4T20:59:13Z</time></trkpt>
<trkpt lat="45.8988380432129" lon="7.19100856781006"><ele></ele><time>2013-8-4T20:59:16Z</time></trkpt>
<trkpt lat="45.8988456726074" lon="7.19096755981445"><ele></ele><time>2013-8-4T20:59:19Z</time></trkpt>
<trkpt lat="45.898853302002" lon="7.19092655181885"><ele></ele><time>2013-8-4T20:59:22Z</time></trkpt>
<trkpt lat="45.8988609313965" lon="7.19080781936646"><ele></ele><time>2013-8-4T20:59:25Z</time></trkpt>
<trkpt lat="45.8988609313965" lon="7.19077062606812"><ele></ele><time>2013-8-4T20:59:28Z</time></trkpt>
<trkpt lat="45.8988609313965" lon="7.19073390960693"><ele></ele><time>2013-8-4T20:59:31Z</time></trkpt>
<trkpt lat="45.8988647460938" lon="7.19069623947144"><ele></ele><time>2013-8-4T20:59:34Z</time></trkpt>
<trkpt lat="45.898868560791" lon="7.19065570831299"><ele></ele><time>2013-8-4T20:59:37Z</time></trkpt>
<trkpt lat="45.8988914489746" lon="7.19048166275024"><ele></ele><time>2013-8-4T20:59:40Z</time></trkpt>
<trkpt lat="45.8988952636719" lon="7.19044923782349"><ele></ele><time>2013-8-4T20:59:43Z</time></trkpt>
<trkpt lat="45.8989028930664" lon="7.19041395187378"><ele></ele><time>2013-8-4T20:59:46Z</time></trkpt>
<trkpt lat="45.8989028930664" lon="7.19037818908691"><ele></ele><time>2013-8-4T20:59:49Z</time></trkpt>
<trkpt lat="45.8989067077637" lon="7.19034671783447"><ele></ele><time>2013-8-4T20:59:52Z</time></trkpt>
<trkpt lat="45.89892578125" lon="7.19025182723999"><ele></ele><time>2013-8-4T20:59:55Z</time></trkpt>
<trkpt lat="45.8989295959473" lon="7.19022226333618"><ele></ele><time>2013-8-4T20:59:58Z</time></trkpt>
<trkpt lat="45.8989334106445" lon="7.19018840789795"><ele></ele><time>2013-8-4T21:0:1Z</time></trkpt>
<trkpt lat="45.8989410400391" lon="7.1901535987854"><ele></ele><time>2013-8-4T21:0:4Z</time></trkpt>
<trkpt lat="45.8989448547363" lon="7.19012308120728"><ele></ele><time>2013-8-4T21:0:7Z</time></trkpt>
<trkpt lat="45.8989372253418" lon="7.1900577545166"><ele></ele><time>2013-8-4T21:0:10Z</time></trkpt>
<trkpt lat="45.8989334106445" lon="7.19002342224121"><ele></ele><time>2013-8-4T21:0:13Z</time></trkpt>
<trkpt lat="45.8989295959473" lon="7.18999004364014"><ele></ele><time>2013-8-4T21:0:16Z</time></trkpt>
<trkpt lat="45.8989295959473" lon="7.18995380401611"><ele></ele><time>2013-8-4T21:0:19Z</time></trkpt>
<trkpt lat="45.8989295959473" lon="7.18992137908936"><ele></ele><time>2013-8-4T21:0:22Z</time></trkpt>
<trkpt lat="45.8989219665527" lon="7.1898307800293"><ele></ele><time>2013-8-4T21:0:25Z</time></trkpt>
<trkpt lat="45.8989181518555" lon="7.18980264663696"><ele></ele><time>2013-8-4T21:0:28Z</time></trkpt>
<trkpt lat="45.8989105224609" lon="7.18977165222168"><ele></ele><time>2013-8-4T21:0:31Z</time></trkpt>
<trkpt lat="45.8988990783691" lon="7.18973970413208"><ele></ele><time>2013-8-4T21:0:34Z</time></trkpt>
<trkpt lat="45.8988952636719" lon="7.18970918655396"><ele></ele><time>2013-8-4T21:0:37Z</time></trkpt>
<trkpt lat="45.8988838195801" lon="7.18967723846436"><ele></ele><time>2013-8-4T21:0:40Z</time></trkpt>
<trkpt lat="45.8988647460938" lon="7.189621925354"><ele></ele><time>2013-8-4T21:0:43Z</time></trkpt>
<trkpt lat="45.8988571166992" lon="7.18959188461304"><ele></ele><time>2013-8-4T21:0:46Z</time></trkpt>
<trkpt lat="45.898853302002" lon="7.18955945968628"><ele></ele><time>2013-8-4T21:0:49Z</time></trkpt>
<trkpt lat="45.8988456726074" lon="7.18952512741089"><ele></ele><time>2013-8-4T21:0:52Z</time></trkpt>
<trkpt lat="45.8988304138184" lon="7.18949604034424"><ele></ele><time>2013-8-4T21:0:55Z</time></trkpt>
<trkpt lat="45.8988189697266" lon="7.18946886062622"><ele></ele><time>2013-8-4T21:0:58Z</time></trkpt>
<trkpt lat="45.898811340332" lon="7.18943977355957"><ele></ele><time>2013-8-4T21:1:1Z</time></trkpt>
<trkpt lat="45.8987770080566" lon="7.18935060501099"><ele></ele><time>2013-8-4T21:1:4Z</time></trkpt>
<trkpt lat="45.8987655639648" lon="7.18932151794434"><ele></ele><time>2013-8-4T21:1:7Z</time></trkpt>
<trkpt lat="45.8987579345703" lon="7.18929147720337"><ele></ele><time>2013-8-4T21:1:10Z</time></trkpt>
<trkpt lat="45.8987503051758" lon="7.18925905227661"><ele></ele><time>2013-8-4T21:1:13Z</time></trkpt>
<trkpt lat="45.898738861084" lon="7.18923234939575"><ele></ele><time>2013-8-4T21:1:16Z</time></trkpt>
<trkpt lat="45.8986701965332" lon="7.18907403945923"><ele></ele><time>2013-8-4T21:1:19Z</time></trkpt>
<trkpt lat="45.8986587524414" lon="7.18904495239258"><ele></ele><time>2013-8-4T21:1:22Z</time></trkpt>
<trkpt lat="45.8986511230469" lon="7.18901300430298"><ele></ele><time>2013-8-4T21:1:25Z</time></trkpt>
<trkpt lat="45.8986396789551" lon="7.18897819519043"><ele></ele><time>2013-8-4T21:1:28Z</time></trkpt>
<trkpt lat="45.8986320495606" lon="7.18894529342651"><ele></ele><time>2013-8-4T21:1:31Z</time></trkpt>
<trkpt lat="45.8985824584961" lon="7.18879413604736"><ele></ele><time>2013-8-4T21:1:34Z</time></trkpt>
<trkpt lat="45.8985748291016" lon="7.18876266479492"><ele></ele><time>2013-8-4T21:1:37Z</time></trkpt>
<trkpt lat="45.8985633850098" lon="7.18873596191406"><ele></ele><time>2013-8-4T21:1:40Z</time></trkpt>
<trkpt lat="45.898551940918" lon="7.18871068954468"><ele></ele><time>2013-8-4T21:1:43Z</time></trkpt>
<trkpt lat="45.8985404968262" lon="7.18867921829224"><ele></ele><time>2013-8-4T21:1:46Z</time></trkpt>
<trkpt lat="45.8985061645508" lon="7.18859672546387"><ele></ele><time>2013-8-4T21:1:49Z</time></trkpt>
<trkpt lat="45.898494720459" lon="7.18856954574585"><ele></ele><time>2013-8-4T21:1:52Z</time></trkpt>
<trkpt lat="45.8984794616699" lon="7.18854427337646"><ele></ele><time>2013-8-4T21:1:55Z</time></trkpt>
<trkpt lat="45.8984680175781" lon="7.18851518630982"><ele></ele><time>2013-8-4T21:1:58Z</time></trkpt>
<trkpt lat="45.8984565734863" lon="7.18848752975464"><ele></ele><time>2013-8-4T21:2:1Z</time></trkpt>
<trkpt lat="45.8983955383301" lon="7.18837881088257"><ele></ele><time>2013-8-4T21:2:4Z</time></trkpt>
<trkpt lat="45.898380279541" lon="7.18835020065308"><ele></ele><time>2013-8-4T21:2:7Z</time></trkpt>
<trkpt lat="45.898365020752" lon="7.18832492828369"><ele></ele><time>2013-8-4T21:2:10Z</time></trkpt>
<trkpt lat="45.8983535766602" lon="7.18829870223999"><ele></ele><time>2013-8-4T21:2:13Z</time></trkpt>
<trkpt lat="45.8983383178711" lon="7.18827390670776"><ele></ele><time>2013-8-4T21:2:16Z</time></trkpt>
<trkpt lat="45.8982925415039" lon="7.18819904327393"><ele></ele><time>2013-8-4T21:2:19Z</time></trkpt>
<trkpt lat="45.8982620239258" lon="7.18814945220947"><ele></ele><time>2013-8-4T21:2:22Z</time></trkpt>
<trkpt lat="45.8982429504394" lon="7.18812084197998"><ele></ele><time>2013-8-4T21:2:25Z</time></trkpt>
<trkpt lat="45.8982315063477" lon="7.18809366226196"><ele></ele><time>2013-8-4T21:2:28Z</time></trkpt>
<trkpt lat="45.8982162475586" lon="7.18806505203247"><ele></ele><time>2013-8-4T21:2:31Z</time></trkpt>
<trkpt lat="45.8982048034668" lon="7.18803691864014"><ele></ele><time>2013-8-4T21:2:34Z</time></trkpt>
<trkpt lat="45.8981590270996" lon="7.18795347213745"><ele></ele><time>2013-8-4T21:2:37Z</time></trkpt>
<trkpt lat="45.8981475830078" lon="7.18792581558228"><ele></ele><time>2013-8-4T21:2:40Z</time></trkpt>
<trkpt lat="45.898136138916" lon="7.18789625167847"><ele></ele><time>2013-8-4T21:2:43Z</time></trkpt>
<trkpt lat="45.8981246948242" lon="7.18786811828613"><ele></ele><time>2013-8-4T21:2:46Z</time></trkpt>
<trkpt lat="45.8981132507324" lon="7.1878399848938"><ele></ele><time>2013-8-4T21:2:49Z</time></trkpt>
<trkpt lat="45.8980712890625" lon="7.18775796890259"><ele></ele><time>2013-8-4T21:2:52Z</time></trkpt>
<trkpt lat="45.8980560302734" lon="7.18772792816162"><ele></ele><time>2013-8-4T21:2:55Z</time></trkpt>
<trkpt lat="45.8980407714844" lon="7.18770360946655"><ele></ele><time>2013-8-4T21:2:58Z</time></trkpt>
<trkpt lat="45.898021697998" lon="7.18767786026001"><ele></ele><time>2013-8-4T21:3:1Z</time></trkpt>
<trkpt lat="45.8980026245117" lon="7.18765735626221"><ele></ele><time>2013-8-4T21:3:4Z</time></trkpt>
<trkpt lat="45.89794921875" lon="7.18759059906006"><ele></ele><time>2013-8-4T21:3:7Z</time></trkpt>
<trkpt lat="45.8979263305664" lon="7.18756914138794"><ele></ele><time>2013-8-4T21:3:10Z</time></trkpt>
<trkpt lat="45.8979072570801" lon="7.18755292892456"><ele></ele><time>2013-8-4T21:3:13Z</time></trkpt>
<trkpt lat="45.8978881835938" lon="7.18753480911255"><ele></ele><time>2013-8-4T21:3:16Z</time></trkpt>
<trkpt lat="45.8978691101074" lon="7.18751525878906"><ele></ele><time>2013-8-4T21:3:19Z</time></trkpt>
<trkpt lat="45.8978080749512" lon="7.18747758865356"><ele></ele><time>2013-8-4T21:3:22Z</time></trkpt>
<trkpt lat="45.8976516723633" lon="7.18743658065796"><ele></ele><time>2013-8-4T21:3:25Z</time></trkpt>
<trkpt lat="45.8976249694824" lon="7.18743228912354"><ele></ele><time>2013-8-4T21:3:28Z</time></trkpt>
<trkpt lat="45.8976020812988" lon="7.18742799758911"><ele></ele><time>2013-8-4T21:3:31Z</time></trkpt>
<trkpt lat="45.8975791931152" lon="7.18742275238037"><ele></ele><time>2013-8-4T21:3:34Z</time></trkpt>
<trkpt lat="45.8974609375" lon="7.18734645843506"><ele></ele><time>2013-8-4T21:3:37Z</time></trkpt>
<trkpt lat="45.8974380493164" lon="7.18733263015747"><ele></ele><time>2013-8-4T21:3:40Z</time></trkpt>
<trkpt lat="45.8974113464356" lon="7.1873197555542"><ele></ele><time>2013-8-4T21:3:43Z</time></trkpt>
<trkpt lat="45.8973846435547" lon="7.18730592727661"><ele></ele><time>2013-8-4T21:3:46Z</time></trkpt>
<trkpt lat="45.8973579406738" lon="7.1872935295105"><ele></ele><time>2013-8-4T21:3:49Z</time></trkpt>
<trkpt lat="45.8972434997559" lon="7.18725109100342"><ele></ele><time>2013-8-4T21:3:52Z</time></trkpt>
<trkpt lat="45.897102355957" lon="7.18719863891602"><ele></ele><time>2013-8-4T21:3:55Z</time></trkpt>
<trkpt lat="45.8968505859375" lon="7.18716907501221"><ele></ele><time>2013-8-4T21:3:58Z</time></trkpt>
<trkpt lat="45.8968200683594" lon="7.18716239929199"><ele></ele><time>2013-8-4T21:4:1Z</time></trkpt>
<trkpt lat="45.896785736084" lon="7.18716096878052"><ele></ele><time>2013-8-4T21:4:4Z</time></trkpt>
<trkpt lat="45.8967552185059" lon="7.18715715408325"><ele></ele><time>2013-8-4T21:4:7Z</time></trkpt>
<trkpt lat="45.8967247009277" lon="7.18715333938599"><ele></ele><time>2013-8-4T21:4:10Z</time></trkpt>
<trkpt lat="45.8966903686523" lon="7.18714570999146"><ele></ele><time>2013-8-4T21:4:13Z</time></trkpt>
<trkpt lat="45.8966064453125" lon="7.18710374832153"><ele></ele><time>2013-8-4T21:4:16Z</time></trkpt>
<trkpt lat="45.8965530395508" lon="7.1870756149292"><ele></ele><time>2013-8-4T21:4:19Z</time></trkpt>
<trkpt lat="45.8965377807617" lon="7.18706369400024"><ele></ele><time>2013-8-4T21:4:22Z</time></trkpt>
<trkpt lat="45.8965225219727" lon="7.1870527267456"><ele></ele><time>2013-8-4T21:4:25Z</time></trkpt>
<trkpt lat="45.8965072631836" lon="7.18704223632812"><ele></ele><time>2013-8-4T21:4:28Z</time></trkpt>
<trkpt lat="45.8964920043945" lon="7.18703174591064"><ele></ele><time>2013-8-4T21:4:31Z</time></trkpt>
<trkpt lat="45.8964691162109" lon="7.18702411651611"><ele></ele><time>2013-8-4T21:4:34Z</time></trkpt>
<trkpt lat="45.8964347839356" lon="7.18700838088989"><ele></ele><time>2013-8-4T21:4:37Z</time></trkpt>
<trkpt lat="45.8964195251465" lon="7.18700170516968"><ele></ele><time>2013-8-4T21:4:40Z</time></trkpt>
<trkpt lat="45.8963966369629" lon="7.18699359893799"><ele></ele><time>2013-8-4T21:4:43Z</time></trkpt>
<trkpt lat="45.8963775634766" lon="7.18698501586914"><ele></ele><time>2013-8-4T21:4:46Z</time></trkpt>
<trkpt lat="45.8963584899902" lon="7.1869740486145"><ele></ele><time>2013-8-4T21:4:49Z</time></trkpt>
<trkpt lat="45.8963394165039" lon="7.18696165084839"><ele></ele><time>2013-8-4T21:4:52Z</time></trkpt>
<trkpt lat="45.8962936401367" lon="7.18694353103638"><ele></ele><time>2013-8-4T21:4:55Z</time></trkpt>
<trkpt lat="45.8962364196777" lon="7.18691301345825"><ele></ele><time>2013-8-4T21:4:58Z</time></trkpt>
<trkpt lat="45.8962173461914" lon="7.18690490722656"><ele></ele><time>2013-8-4T21:5:1Z</time></trkpt>
<trkpt lat="45.8961944580078" lon="7.18689489364624"><ele></ele><time>2013-8-4T21:5:4Z</time></trkpt>
<trkpt lat="45.8961715698242" lon="7.18688774108887"><ele></ele><time>2013-8-4T21:5:7Z</time></trkpt>
<trkpt lat="45.8961448669434" lon="7.18688201904297"><ele></ele><time>2013-8-4T21:5:10Z</time></trkpt>
<trkpt lat="45.8961219787598" lon="7.18687725067139"><ele></ele><time>2013-8-4T21:5:13Z</time></trkpt>
<trkpt lat="45.8960075378418" lon="7.18685722351074"><ele></ele><time>2013-8-4T21:5:16Z</time></trkpt>
<trkpt lat="45.8959884643555" lon="7.18684530258179"><ele></ele><time>2013-8-4T21:5:19Z</time></trkpt>
<trkpt lat="45.8959617614746" lon="7.1868405342102"><ele></ele><time>2013-8-4T21:5:22Z</time></trkpt>
<trkpt lat="45.895938873291" lon="7.18683338165283"><ele></ele><time>2013-8-4T21:5:25Z</time></trkpt>
<trkpt lat="45.8959121704102" lon="7.18683338165283"><ele></ele><time>2013-8-4T21:5:28Z</time></trkpt>
<trkpt lat="45.895866394043" lon="7.18682384490967"><ele></ele><time>2013-8-4T21:5:31Z</time></trkpt>
<trkpt lat="45.8957977294922" lon="7.1868143081665"><ele></ele><time>2013-8-4T21:5:34Z</time></trkpt>
<trkpt lat="45.8957710266113" lon="7.18681192398071"><ele></ele><time>2013-8-4T21:5:37Z</time></trkpt>
<trkpt lat="45.8957481384277" lon="7.1868052482605"><ele></ele><time>2013-8-4T21:5:40Z</time></trkpt>
<trkpt lat="45.8957290649414" lon="7.18680429458618"><ele></ele><time>2013-8-4T21:5:43Z</time></trkpt>
<trkpt lat="45.8957061767578" lon="7.18680381774902"><ele></ele><time>2013-8-4T21:5:46Z</time></trkpt>
<trkpt lat="45.895679473877" lon="7.18679761886597"><ele></ele><time>2013-8-4T21:5:49Z</time></trkpt>
<trkpt lat="45.8955612182617" lon="7.18676137924194"><ele></ele><time>2013-8-4T21:5:52Z</time></trkpt>
<trkpt lat="45.8955383300781" lon="7.1867527961731"><ele></ele><time>2013-8-4T21:5:55Z</time></trkpt>
<trkpt lat="45.8955192565918" lon="7.1867470741272"><ele></ele><time>2013-8-4T21:5:58Z</time></trkpt>
<trkpt lat="45.8954963684082" lon="7.18674373626709"><ele></ele><time>2013-8-4T21:6:1Z</time></trkpt>
<trkpt lat="45.8954772949219" lon="7.1867413520813"><ele></ele><time>2013-8-4T21:6:4Z</time></trkpt>
<trkpt lat="45.8954620361328" lon="7.18673372268677"><ele></ele><time>2013-8-4T21:6:7Z</time></trkpt>
<trkpt lat="45.8954620361328" lon="7.18673372268677"><ele></ele><time>2013-8-4T21:6:10Z</time></trkpt>
<trkpt lat="45.8954544067383" lon="7.18673372268677"><ele></ele><time>2013-8-4T21:6:13Z</time></trkpt>
<trkpt lat="45.895450592041" lon="7.18673324584961"><ele></ele><time>2013-8-4T21:6:16Z</time></trkpt>
<trkpt lat="45.8953514099121" lon="7.18670654296875"><ele></ele><time>2013-8-4T21:6:19Z</time></trkpt>
<trkpt lat="45.8953285217285" lon="7.18669891357422"><ele></ele><time>2013-8-4T21:6:22Z</time></trkpt>
<trkpt lat="45.8953094482422" lon="7.18669033050537"><ele></ele><time>2013-8-4T21:6:25Z</time></trkpt>
<trkpt lat="45.8952865600586" lon="7.18668127059936"><ele></ele><time>2013-8-4T21:6:28Z</time></trkpt>
<trkpt lat="45.8952674865723" lon="7.18667650222778"><ele></ele><time>2013-8-4T21:6:31Z</time></trkpt>
<trkpt lat="45.895206451416" lon="7.18665456771851"><ele></ele><time>2013-8-4T21:6:34Z</time></trkpt>
<trkpt lat="45.8951873779297" lon="7.1866455078125"><ele></ele><time>2013-8-4T21:6:37Z</time></trkpt>
<trkpt lat="45.8951644897461" lon="7.18663692474365"><ele></ele><time>2013-8-4T21:6:40Z</time></trkpt>
<trkpt lat="45.8951416015625" lon="7.18663311004639"><ele></ele><time>2013-8-4T21:6:43Z</time></trkpt>
<trkpt lat="45.8951187133789" lon="7.18662357330322"><ele></ele><time>2013-8-4T21:6:46Z</time></trkpt>
<trkpt lat="45.8949890136719" lon="7.18658399581909"><ele></ele><time>2013-8-4T21:6:49Z</time></trkpt>
<trkpt lat="45.8949661254883" lon="7.1865758895874"><ele></ele><time>2013-8-4T21:6:52Z</time></trkpt>
<trkpt lat="45.894947052002" lon="7.18656492233276"><ele></ele><time>2013-8-4T21:6:55Z</time></trkpt>
<trkpt lat="45.8949279785156" lon="7.18655204772949"><ele></ele><time>2013-8-4T21:6:58Z</time></trkpt>
<trkpt lat="45.8949089050293" lon="7.18653964996338"><ele></ele><time>2013-8-4T21:7:1Z</time></trkpt>
<trkpt lat="45.8948440551758" lon="7.18650913238525"><ele></ele><time>2013-8-4T21:7:4Z</time></trkpt>
<trkpt lat="45.8948287963867" lon="7.18649816513062"><ele></ele><time>2013-8-4T21:7:7Z</time></trkpt>
<trkpt lat="45.8948059082031" lon="7.18648910522461"><ele></ele><time>2013-8-4T21:7:10Z</time></trkpt>
<trkpt lat="45.8947868347168" lon="7.1864767074585"><ele></ele><time>2013-8-4T21:7:13Z</time></trkpt>
<trkpt lat="45.8947677612305" lon="7.18646621704102"><ele></ele><time>2013-8-4T21:7:16Z</time></trkpt>
<trkpt lat="45.8947067260742" lon="7.186448097229"><ele></ele><time>2013-8-4T21:7:19Z</time></trkpt>
<trkpt lat="45.8946876525879" lon="7.18644714355469"><ele></ele><time>2013-8-4T21:7:22Z</time></trkpt>
<trkpt lat="45.8946647644043" lon="7.18644332885742"><ele></ele><time>2013-8-4T21:7:25Z</time></trkpt>
<trkpt lat="45.8946418762207" lon="7.18644189834595"><ele></ele><time>2013-8-4T21:7:28Z</time></trkpt>
<trkpt lat="45.8946228027344" lon="7.18644380569458"><ele></ele><time>2013-8-4T21:7:31Z</time></trkpt>
<trkpt lat="45.8945999145508" lon="7.18644094467163"><ele></ele><time>2013-8-4T21:7:34Z</time></trkpt>
<trkpt lat="45.89453125" lon="7.18644618988037"><ele></ele><time>2013-8-4T21:7:37Z</time></trkpt>
<trkpt lat="45.8945083618164" lon="7.18644666671753"><ele></ele><time>2013-8-4T21:7:40Z</time></trkpt>
<trkpt lat="45.8944778442383" lon="7.18644762039185"><ele></ele><time>2013-8-4T21:7:43Z</time></trkpt>
<trkpt lat="45.8944511413574" lon="7.18644428253174"><ele></ele><time>2013-8-4T21:7:46Z</time></trkpt>
<trkpt lat="45.8944244384766" lon="7.18644285202026"><ele></ele><time>2013-8-4T21:7:49Z</time></trkpt>
<trkpt lat="45.8943252563477" lon="7.18644428253174"><ele></ele><time>2013-8-4T21:7:52Z</time></trkpt>
<trkpt lat="45.8942832946777" lon="7.18644618988037"><ele></ele><time>2013-8-4T21:7:55Z</time></trkpt>
<trkpt lat="45.8942604064941" lon="7.18644714355469"><ele></ele><time>2013-8-4T21:7:58Z</time></trkpt>
<trkpt lat="45.8942375183106" lon="7.18644666671753"><ele></ele><time>2013-8-4T21:8:1Z</time></trkpt>
<trkpt lat="45.894214630127" lon="7.1864447593689"><ele></ele><time>2013-8-4T21:8:4Z</time></trkpt>
<trkpt lat="45.8941917419434" lon="7.18644046783447"><ele></ele><time>2013-8-4T21:8:7Z</time></trkpt>
<trkpt lat="45.8941688537598" lon="7.18644046783447"><ele></ele><time>2013-8-4T21:8:10Z</time></trkpt>
<trkpt lat="45.8940963745117" lon="7.18644905090332"><ele></ele><time>2013-8-4T21:8:13Z</time></trkpt>
<trkpt lat="45.8940734863281" lon="7.1864504814148"><ele></ele><time>2013-8-4T21:8:16Z</time></trkpt>
<trkpt lat="45.8940505981445" lon="7.18645143508911"><ele></ele><time>2013-8-4T21:8:19Z</time></trkpt>
<trkpt lat="45.8940238952637" lon="7.18645143508911"><ele></ele><time>2013-8-4T21:8:22Z</time></trkpt>
<trkpt lat="45.8940010070801" lon="7.18645095825195"><ele></ele><time>2013-8-4T21:8:25Z</time></trkpt>
<trkpt lat="45.8938636779785" lon="7.18645668029785"><ele></ele><time>2013-8-4T21:8:28Z</time></trkpt>
<trkpt lat="45.8938369750977" lon="7.18645858764648"><ele></ele><time>2013-8-4T21:8:31Z</time></trkpt>
<trkpt lat="45.8938140869141" lon="7.18646240234375"><ele></ele><time>2013-8-4T21:8:34Z</time></trkpt>
<trkpt lat="45.893798828125" lon="7.18645668029785"><ele></ele><time>2013-8-4T21:8:37Z</time></trkpt>
<trkpt lat="45.8937530517578" lon="7.18646240234375"><ele></ele><time>2013-8-4T21:8:40Z</time></trkpt>
<trkpt lat="45.8937034606934" lon="7.18647336959839"><ele></ele><time>2013-8-4T21:8:43Z</time></trkpt>
<trkpt lat="45.8936767578125" lon="7.18647813796997"><ele></ele><time>2013-8-4T21:8:46Z</time></trkpt>
<trkpt lat="45.8936538696289" lon="7.18648290634155"><ele></ele><time>2013-8-4T21:8:49Z</time></trkpt>
<trkpt lat="45.893627166748" lon="7.18648767471314"><ele></ele><time>2013-8-4T21:8:52Z</time></trkpt>
<trkpt lat="45.8935966491699" lon="7.18649053573608"><ele></ele><time>2013-8-4T21:8:55Z</time></trkpt>
<trkpt lat="45.8935737609863" lon="7.18648958206177"><ele></ele><time>2013-8-4T21:8:58Z</time></trkpt>
<trkpt lat="45.8934783935547" lon="7.18647718429565"><ele></ele><time>2013-8-4T21:9:1Z</time></trkpt>
<trkpt lat="45.8934555053711" lon="7.18647575378418"><ele></ele><time>2013-8-4T21:9:4Z</time></trkpt>
<trkpt lat="45.8934326171875" lon="7.1864743232727"><ele></ele><time>2013-8-4T21:9:7Z</time></trkpt>
<trkpt lat="45.8934059143066" lon="7.18646860122681"><ele></ele><time>2013-8-4T21:9:10Z</time></trkpt>
<trkpt lat="45.893383026123" lon="7.18646383285522"><ele></ele><time>2013-8-4T21:9:13Z</time></trkpt>
<trkpt lat="45.8933601379394" lon="7.18646335601807"><ele></ele><time>2013-8-4T21:9:16Z</time></trkpt>
<trkpt lat="45.8932914733887" lon="7.18645858764648"><ele></ele><time>2013-8-4T21:9:19Z</time></trkpt>
<trkpt lat="45.8932685852051" lon="7.18645095825195"><ele></ele><time>2013-8-4T21:9:22Z</time></trkpt>
<trkpt lat="45.8932418823242" lon="7.18644189834595"><ele></ele><time>2013-8-4T21:9:25Z</time></trkpt>
<trkpt lat="45.8932189941406" lon="7.18643569946289"><ele></ele><time>2013-8-4T21:9:28Z</time></trkpt>
<trkpt lat="45.8931465148926" lon="7.18642854690552"><ele></ele><time>2013-8-4T21:9:31Z</time></trkpt>
<trkpt lat="45.893123626709" lon="7.18642902374268"><ele></ele><time>2013-8-4T21:9:34Z</time></trkpt>
<trkpt lat="45.8931007385254" lon="7.18643188476562"><ele></ele><time>2013-8-4T21:9:37Z</time></trkpt>
<trkpt lat="45.8930778503418" lon="7.18643712997436"><ele></ele><time>2013-8-4T21:9:40Z</time></trkpt>
<trkpt lat="45.8930549621582" lon="7.18644142150879"><ele></ele><time>2013-8-4T21:9:43Z</time></trkpt>
<trkpt lat="45.8929824829102" lon="7.18646001815796"><ele></ele><time>2013-8-4T21:9:46Z</time></trkpt>
<trkpt lat="45.8929557800293" lon="7.18647193908691"><ele></ele><time>2013-8-4T21:9:49Z</time></trkpt>
<trkpt lat="45.8929252624512" lon="7.18648147583008"><ele></ele><time>2013-8-4T21:9:52Z</time></trkpt>
<trkpt lat="45.8928985595703" lon="7.18649005889893"><ele></ele><time>2013-8-4T21:9:55Z</time></trkpt>
<trkpt lat="45.8928642272949" lon="7.18649482727051"><ele></ele><time>2013-8-4T21:9:58Z</time></trkpt>
<trkpt lat="45.8928146362305" lon="7.18651485443115"><ele></ele><time>2013-8-4T21:10:1Z</time></trkpt>
<trkpt lat="45.8926887512207" lon="7.18655252456665"><ele></ele><time>2013-8-4T21:10:4Z</time></trkpt>
<trkpt lat="45.8926658630371" lon="7.18655967712402"><ele></ele><time>2013-8-4T21:10:7Z</time></trkpt>
<trkpt lat="45.8926429748535" lon="7.1865644454956"><ele></ele><time>2013-8-4T21:10:10Z</time></trkpt>
<trkpt lat="45.8926200866699" lon="7.18657064437866"><ele></ele><time>2013-8-4T21:10:13Z</time></trkpt>
<trkpt lat="45.8925552368164" lon="7.18658590316772"><ele></ele><time>2013-8-4T21:10:16Z</time></trkpt>
<trkpt lat="45.8925323486328" lon="7.18659114837646"><ele></ele><time>2013-8-4T21:10:19Z</time></trkpt>
<trkpt lat="45.8925094604492" lon="7.18659400939941"><ele></ele><time>2013-8-4T21:10:22Z</time></trkpt>
<trkpt lat="45.8924865722656" lon="7.18659782409668"><ele></ele><time>2013-8-4T21:10:25Z</time></trkpt>
<trkpt lat="45.8924674987793" lon="7.18660402297974"><ele></ele><time>2013-8-4T21:10:28Z</time></trkpt>
<trkpt lat="45.8923835754394" lon="7.18662357330322"><ele></ele><time>2013-8-4T21:10:31Z</time></trkpt>
<trkpt lat="45.8923645019531" lon="7.18663024902344"><ele></ele><time>2013-8-4T21:10:34Z</time></trkpt>
<trkpt lat="45.8923416137695" lon="7.18663835525513"><ele></ele><time>2013-8-4T21:10:37Z</time></trkpt>
<trkpt lat="45.8923187255859" lon="7.18664646148682"><ele></ele><time>2013-8-4T21:10:40Z</time></trkpt>
<trkpt lat="45.8922996520996" lon="7.1866569519043"><ele></ele><time>2013-8-4T21:10:43Z</time></trkpt>
<trkpt lat="45.8922386169434" lon="7.18668460845947"><ele></ele><time>2013-8-4T21:10:46Z</time></trkpt>
<trkpt lat="45.8922157287598" lon="7.18668699264526"><ele></ele><time>2013-8-4T21:10:49Z</time></trkpt>
<trkpt lat="45.8921928405762" lon="7.18669605255127"><ele></ele><time>2013-8-4T21:10:52Z</time></trkpt>
<trkpt lat="45.8921737670898" lon="7.18670415878296"><ele></ele><time>2013-8-4T21:10:55Z</time></trkpt>
<trkpt lat="45.8921508789062" lon="7.18671607971191"><ele></ele><time>2013-8-4T21:10:58Z</time></trkpt>
<trkpt lat="45.8921318054199" lon="7.18673133850098"><ele></ele><time>2013-8-4T21:11:1Z</time></trkpt>
<trkpt lat="45.89208984375" lon="7.18675470352173"><ele></ele><time>2013-8-4T21:11:4Z</time></trkpt>
<trkpt lat="45.8920745849609" lon="7.18676567077637"><ele></ele><time>2013-8-4T21:11:7Z</time></trkpt>
<trkpt lat="45.8920516967773" lon="7.18677711486816"><ele></ele><time>2013-8-4T21:11:10Z</time></trkpt>
<trkpt lat="45.892032623291" lon="7.18678951263428"><ele></ele><time>2013-8-4T21:11:13Z</time></trkpt>
<trkpt lat="45.8920097351074" lon="7.1867995262146"><ele></ele><time>2013-8-4T21:11:16Z</time></trkpt>
<trkpt lat="45.8919258117676" lon="7.18682384490967"><ele></ele><time>2013-8-4T21:11:19Z</time></trkpt>
<trkpt lat="45.8919067382812" lon="7.1868314743042"><ele></ele><time>2013-8-4T21:11:22Z</time></trkpt>
<trkpt lat="45.8918838500977" lon="7.18683958053589"><ele></ele><time>2013-8-4T21:11:25Z</time></trkpt>
<trkpt lat="45.8918609619141" lon="7.18684816360474"><ele></ele><time>2013-8-4T21:11:28Z</time></trkpt>
<trkpt lat="45.8918380737305" lon="7.18685150146484"><ele></ele><time>2013-8-4T21:11:31Z</time></trkpt>
<trkpt lat="45.8917541503906" lon="7.18685960769653"><ele></ele><time>2013-8-4T21:11:34Z</time></trkpt>
<trkpt lat="45.891731262207" lon="7.18686294555664"><ele></ele><time>2013-8-4T21:11:37Z</time></trkpt>
<trkpt lat="45.8917121887207" lon="7.18686723709106"><ele></ele><time>2013-8-4T21:11:40Z</time></trkpt>
<trkpt lat="45.8916893005371" lon="7.18688011169434"><ele></ele><time>2013-8-4T21:11:43Z</time></trkpt>
<trkpt lat="45.8916664123535" lon="7.1868896484375"><ele></ele><time>2013-8-4T21:11:46Z</time></trkpt>
<trkpt lat="45.8916435241699" lon="7.1869044303894"><ele></ele><time>2013-8-4T21:11:49Z</time></trkpt>
<trkpt lat="45.8916206359863" lon="7.18691730499268"><ele></ele><time>2013-8-4T21:11:52Z</time></trkpt>
<trkpt lat="45.8916015625" lon="7.18693399429321"><ele></ele><time>2013-8-4T21:11:55Z</time></trkpt>
<trkpt lat="45.8915824890137" lon="7.1869535446167"><ele></ele><time>2013-8-4T21:11:58Z</time></trkpt>
<trkpt lat="45.8915634155273" lon="7.18697118759155"><ele></ele><time>2013-8-4T21:12:1Z</time></trkpt>
<trkpt lat="45.891544342041" lon="7.18698501586914"><ele></ele><time>2013-8-4T21:12:4Z</time></trkpt>
<trkpt lat="45.8915214538574" lon="7.18700313568115"><ele></ele><time>2013-8-4T21:12:7Z</time></trkpt>
<trkpt lat="45.8914833068848" lon="7.18704223632812"><ele></ele><time>2013-8-4T21:12:10Z</time></trkpt>
<trkpt lat="45.891429901123" lon="7.18709182739258"><ele></ele><time>2013-8-4T21:12:13Z</time></trkpt>
<trkpt lat="45.8914184570312" lon="7.18709897994995"><ele></ele><time>2013-8-4T21:12:16Z</time></trkpt>
<trkpt lat="45.8914031982422" lon="7.18711042404175"><ele></ele><time>2013-8-4T21:12:19Z</time></trkpt>
<trkpt lat="45.8913879394531" lon="7.18712377548218"><ele></ele><time>2013-8-4T21:12:22Z</time></trkpt>
<trkpt lat="45.8913726806641" lon="7.1871337890625"><ele></ele><time>2013-8-4T21:12:25Z</time></trkpt>
<trkpt lat="45.8913421630859" lon="7.18717098236084"><ele></ele><time>2013-8-4T21:12:28Z</time></trkpt>
<trkpt lat="45.8912582397461" lon="7.18725919723511"><ele></ele><time>2013-8-4T21:12:31Z</time></trkpt>
<trkpt lat="45.8912391662598" lon="7.18728160858154"><ele></ele><time>2013-8-4T21:12:34Z</time></trkpt>
<trkpt lat="45.8912200927734" lon="7.18730020523071"><ele></ele><time>2013-8-4T21:12:37Z</time></trkpt>
<trkpt lat="45.8912010192871" lon="7.18731641769409"><ele></ele><time>2013-8-4T21:12:40Z</time></trkpt>
<trkpt lat="45.8911781311035" lon="7.187331199646"><ele></ele><time>2013-8-4T21:12:43Z</time></trkpt>
<trkpt lat="45.8911590576172" lon="7.18735265731812"><ele></ele><time>2013-8-4T21:12:46Z</time></trkpt>
<trkpt lat="45.8911399841309" lon="7.18737030029297"><ele></ele><time>2013-8-4T21:12:49Z</time></trkpt>
<trkpt lat="45.8911209106445" lon="7.18739032745361"><ele></ele><time>2013-8-4T21:12:52Z</time></trkpt>
<trkpt lat="45.8911018371582" lon="7.18740606307983"><ele></ele><time>2013-8-4T21:12:55Z</time></trkpt>
<trkpt lat="45.8910827636719" lon="7.18742322921753"><ele></ele><time>2013-8-4T21:12:58Z</time></trkpt>
<trkpt lat="45.8909378051758" lon="7.1875410079956"><ele></ele><time>2013-8-4T21:13:1Z</time></trkpt>
<trkpt lat="45.8909187316894" lon="7.18755483627319"><ele></ele><time>2013-8-4T21:13:4Z</time></trkpt>
<trkpt lat="45.8908996582031" lon="7.18756532669067"><ele></ele><time>2013-8-4T21:13:7Z</time></trkpt>
<trkpt lat="45.8908767700195" lon="7.18757724761963"><ele></ele><time>2013-8-4T21:13:10Z</time></trkpt>
<trkpt lat="45.8908615112305" lon="7.18759393692017"><ele></ele><time>2013-8-4T21:13:13Z</time></trkpt>
<trkpt lat="45.8908424377441" lon="7.18760681152344"><ele></ele><time>2013-8-4T21:13:16Z</time></trkpt>
<trkpt lat="45.8907814025879" lon="7.18764972686768"><ele></ele><time>2013-8-4T21:13:19Z</time></trkpt>
<trkpt lat="45.8907165527344" lon="7.18768167495728"><ele></ele><time>2013-8-4T21:13:22Z</time></trkpt>
<trkpt lat="45.890697479248" lon="7.18769598007202"><ele></ele><time>2013-8-4T21:13:25Z</time></trkpt>
<trkpt lat="45.8906745910644" lon="7.18770885467529"><ele></ele><time>2013-8-4T21:13:28Z</time></trkpt>
<trkpt lat="45.8906593322754" lon="7.18772077560425"><ele></ele><time>2013-8-4T21:13:31Z</time></trkpt>
<trkpt lat="45.8906364440918" lon="7.18773412704468"><ele></ele><time>2013-8-4T21:13:34Z</time></trkpt>
<trkpt lat="45.8905410766602" lon="7.18779706954956"><ele></ele><time>2013-8-4T21:13:37Z</time></trkpt>
<trkpt lat="45.8905220031738" lon="7.18780899047852"><ele></ele><time>2013-8-4T21:13:40Z</time></trkpt>
<trkpt lat="45.8905029296875" lon="7.18782329559326"><ele></ele><time>2013-8-4T21:13:43Z</time></trkpt>
<trkpt lat="45.8904838562012" lon="7.18783378601074"><ele></ele><time>2013-8-4T21:13:46Z</time></trkpt>
<trkpt lat="45.8904609680176" lon="7.1878457069397"><ele></ele><time>2013-8-4T21:13:49Z</time></trkpt>
<trkpt lat="45.890438079834" lon="7.18785905838013"><ele></ele><time>2013-8-4T21:13:52Z</time></trkpt>
<trkpt lat="45.8903999328613" lon="7.18788576126099"><ele></ele><time>2013-8-4T21:13:55Z</time></trkpt>
<trkpt lat="45.8903770446777" lon="7.18789672851562"><ele></ele><time>2013-8-4T21:13:58Z</time></trkpt>
<trkpt lat="45.8903579711914" lon="7.18790817260742"><ele></ele><time>2013-8-4T21:14:1Z</time></trkpt>
<trkpt lat="45.8903350830078" lon="7.18791913986206"><ele></ele><time>2013-8-4T21:14:4Z</time></trkpt>
<trkpt lat="45.8903160095215" lon="7.18792819976807"><ele></ele><time>2013-8-4T21:14:7Z</time></trkpt>
<trkpt lat="45.8902740478516" lon="7.18795776367188"><ele></ele><time>2013-8-4T21:14:10Z</time></trkpt>
<trkpt lat="45.8901977539062" lon="7.18802404403686"><ele></ele><time>2013-8-4T21:14:13Z</time></trkpt>
<trkpt lat="45.8901748657227" lon="7.18804121017456"><ele></ele><time>2013-8-4T21:14:16Z</time></trkpt>
<trkpt lat="45.8901557922363" lon="7.18806171417236"><ele></ele><time>2013-8-4T21:14:19Z</time></trkpt>
<trkpt lat="45.89013671875" lon="7.18808031082153"><ele></ele><time>2013-8-4T21:14:22Z</time></trkpt>
<trkpt lat="45.8901023864746" lon="7.18812036514282"><ele></ele><time>2013-8-4T21:14:25Z</time></trkpt>
<trkpt lat="45.890022277832" lon="7.18819999694824"><ele></ele><time>2013-8-4T21:14:28Z</time></trkpt>
<trkpt lat="45.890007019043" lon="7.18822479248047"><ele></ele><time>2013-8-4T21:14:31Z</time></trkpt>
<trkpt lat="45.8899879455566" lon="7.18824434280396"><ele></ele><time>2013-8-4T21:14:34Z</time></trkpt>
<trkpt lat="45.8899688720703" lon="7.18826293945312"><ele></ele><time>2013-8-4T21:14:37Z</time></trkpt>
<trkpt lat="45.889949798584" lon="7.18828058242798"><ele></ele><time>2013-8-4T21:14:40Z</time></trkpt>
<trkpt lat="45.8898620605469" lon="7.18838405609131"><ele></ele><time>2013-8-4T21:14:43Z</time></trkpt>
<trkpt lat="45.8898429870606" lon="7.18840169906616"><ele></ele><time>2013-8-4T21:14:46Z</time></trkpt>
<trkpt lat="45.8898277282715" lon="7.18842506408691"><ele></ele><time>2013-8-4T21:14:49Z</time></trkpt>
<trkpt lat="45.8898124694824" lon="7.18844842910767"><ele></ele><time>2013-8-4T21:14:52Z</time></trkpt>
<trkpt lat="45.8897933959961" lon="7.18846607208252"><ele></ele><time>2013-8-4T21:14:55Z</time></trkpt>
<trkpt lat="45.889705657959" lon="7.18857049942017"><ele></ele><time>2013-8-4T21:14:58Z</time></trkpt>
<trkpt lat="45.8896903991699" lon="7.18859100341797"><ele></ele><time>2013-8-4T21:15:1Z</time></trkpt>
<trkpt lat="45.8896713256836" lon="7.18861055374146"><ele></ele><time>2013-8-4T21:15:4Z</time></trkpt>
<trkpt lat="45.8896522521973" lon="7.18862771987915"><ele></ele><time>2013-8-4T21:15:7Z</time></trkpt>
<trkpt lat="45.8896293640137" lon="7.18864488601685"><ele></ele><time>2013-8-4T21:15:10Z</time></trkpt>
<trkpt lat="45.8895721435547" lon="7.18869304656982"><ele></ele><time>2013-8-4T21:15:13Z</time></trkpt>
<trkpt lat="45.8895492553711" lon="7.18869638442993"><ele></ele><time>2013-8-4T21:15:16Z</time></trkpt>
<trkpt lat="45.8895301818848" lon="7.18869972229004"><ele></ele><time>2013-8-4T21:15:19Z</time></trkpt>
<trkpt lat="45.8895072937012" lon="7.18870735168457"><ele></ele><time>2013-8-4T21:15:22Z</time></trkpt>
<trkpt lat="45.8894844055176" lon="7.18870878219604"><ele></ele><time>2013-8-4T21:15:25Z</time></trkpt>
<trkpt lat="45.889461517334" lon="7.18870973587036"><ele></ele><time>2013-8-4T21:15:28Z</time></trkpt>
<trkpt lat="45.8894386291504" lon="7.18871259689331"><ele></ele><time>2013-8-4T21:15:31Z</time></trkpt>
<trkpt lat="45.8893699645996" lon="7.18871021270752"><ele></ele><time>2013-8-4T21:15:34Z</time></trkpt>
<trkpt lat="45.889347076416" lon="7.18870878219604"><ele></ele><time>2013-8-4T21:15:37Z</time></trkpt>
<trkpt lat="45.8893280029297" lon="7.18871021270752"><ele></ele><time>2013-8-4T21:15:40Z</time></trkpt>
<trkpt lat="45.8893051147461" lon="7.18870830535889"><ele></ele><time>2013-8-4T21:15:43Z</time></trkpt>
<trkpt lat="45.8892822265625" lon="7.18870973587036"><ele></ele><time>2013-8-4T21:15:46Z</time></trkpt>
<trkpt lat="45.8892364501953" lon="7.1887149810791"><ele></ele><time>2013-8-4T21:15:49Z</time></trkpt>
<trkpt lat="45.8891716003418" lon="7.18871879577637"><ele></ele><time>2013-8-4T21:15:52Z</time></trkpt>
<trkpt lat="45.8891487121582" lon="7.18872547149658"><ele></ele><time>2013-8-4T21:15:55Z</time></trkpt>
<trkpt lat="45.8891258239746" lon="7.18872833251953"><ele></ele><time>2013-8-4T21:15:58Z</time></trkpt>
<trkpt lat="45.889102935791" lon="7.18873023986816"><ele></ele><time>2013-8-4T21:16:1Z</time></trkpt>
<trkpt lat="45.8890800476074" lon="7.18872737884522"><ele></ele><time>2013-8-4T21:16:4Z</time></trkpt>
<trkpt lat="45.8889961242676" lon="7.18873357772827"><ele></ele><time>2013-8-4T21:16:7Z</time></trkpt>
<trkpt lat="45.8889770507812" lon="7.18873453140259"><ele></ele><time>2013-8-4T21:16:10Z</time></trkpt>
<trkpt lat="45.8889541625977" lon="7.18873262405396"><ele></ele><time>2013-8-4T21:16:13Z</time></trkpt>
<trkpt lat="45.8889312744141" lon="7.18873023986816"><ele></ele><time>2013-8-4T21:16:16Z</time></trkpt>
<trkpt lat="45.8889122009277" lon="7.18872928619385"><ele></ele><time>2013-8-4T21:16:19Z</time></trkpt>
<trkpt lat="45.8888702392578" lon="7.18872928619385"><ele></ele><time>2013-8-4T21:16:22Z</time></trkpt>
<trkpt lat="45.888843536377" lon="7.18871927261352"><ele></ele><time>2013-8-4T21:16:25Z</time></trkpt>
<trkpt lat="45.8888206481934" lon="7.18871545791626"><ele></ele><time>2013-8-4T21:16:28Z</time></trkpt>
<trkpt lat="45.888801574707" lon="7.18871641159058"><ele></ele><time>2013-8-4T21:16:31Z</time></trkpt>
<trkpt lat="45.8887748718262" lon="7.18871021270752"><ele></ele><time>2013-8-4T21:16:34Z</time></trkpt>
<trkpt lat="45.8886680603027" lon="7.18872451782226"><ele></ele><time>2013-8-4T21:16:37Z</time></trkpt>
<trkpt lat="45.8886451721191" lon="7.18872594833374"><ele></ele><time>2013-8-4T21:16:40Z</time></trkpt>
<trkpt lat="45.8886222839356" lon="7.18873119354248"><ele></ele><time>2013-8-4T21:16:43Z</time></trkpt>
<trkpt lat="45.8885955810547" lon="7.18873310089111"><ele></ele><time>2013-8-4T21:16:46Z</time></trkpt>
<trkpt lat="45.888484954834" lon="7.18875169754028"><ele></ele><time>2013-8-4T21:16:49Z</time></trkpt>
<trkpt lat="45.8884620666504" lon="7.18875694274902"><ele></ele><time>2013-8-4T21:16:52Z</time></trkpt>
<trkpt lat="45.8884429931641" lon="7.18876266479492"><ele></ele><time>2013-8-4T21:16:55Z</time></trkpt>
<trkpt lat="45.8884201049805" lon="7.18876504898071"><ele></ele><time>2013-8-4T21:16:58Z</time></trkpt>
<trkpt lat="45.8883972167969" lon="7.18877220153809"><ele></ele><time>2013-8-4T21:17:1Z</time></trkpt>
<trkpt lat="45.8882827758789" lon="7.18877983093262"><ele></ele><time>2013-8-4T21:17:4Z</time></trkpt>
<trkpt lat="45.8882598876953" lon="7.18878602981567"><ele></ele><time>2013-8-4T21:17:7Z</time></trkpt>
<trkpt lat="45.8882369995117" lon="7.18879508972168"><ele></ele><time>2013-8-4T21:17:10Z</time></trkpt>
<trkpt lat="45.8882141113281" lon="7.18880319595337"><ele></ele><time>2013-8-4T21:17:13Z</time></trkpt>
<trkpt lat="45.8881950378418" lon="7.188805103302"><ele></ele><time>2013-8-4T21:17:16Z</time></trkpt>
<trkpt lat="45.8881072998047" lon="7.18880891799927"><ele></ele><time>2013-8-4T21:17:19Z</time></trkpt>
<trkpt lat="45.8880882263184" lon="7.18880367279053"><ele></ele><time>2013-8-4T21:17:22Z</time></trkpt>
<trkpt lat="45.8880653381348" lon="7.18879985809326"><ele></ele><time>2013-8-4T21:17:25Z</time></trkpt>
<trkpt lat="45.8880424499512" lon="7.18879699707031"><ele></ele><time>2013-8-4T21:17:28Z</time></trkpt>
<trkpt lat="45.8880233764648" lon="7.1887993812561"><ele></ele><time>2013-8-4T21:17:31Z</time></trkpt>
<trkpt lat="45.8879852294922" lon="7.18879842758179"><ele></ele><time>2013-8-4T21:17:34Z</time></trkpt>
<trkpt lat="45.8879203796387" lon="7.18880224227905"><ele></ele><time>2013-8-4T21:17:37Z</time></trkpt>
<trkpt lat="45.8878974914551" lon="7.18880367279053"><ele></ele><time>2013-8-4T21:17:40Z</time></trkpt>
<trkpt lat="45.8878746032715" lon="7.1888017654419"><ele></ele><time>2013-8-4T21:17:43Z</time></trkpt>
<trkpt lat="45.8878517150879" lon="7.188796043396"><ele></ele><time>2013-8-4T21:17:46Z</time></trkpt>
<trkpt lat="45.887825012207" lon="7.18878507614136"><ele></ele><time>2013-8-4T21:17:49Z</time></trkpt>
<trkpt lat="45.8878059387207" lon="7.18878221511841"><ele></ele><time>2013-8-4T21:17:52Z</time></trkpt>
<trkpt lat="45.8876914978027" lon="7.18878269195557"><ele></ele><time>2013-8-4T21:17:55Z</time></trkpt>
<trkpt lat="45.8876686096191" lon="7.18877172470093"><ele></ele><time>2013-8-4T21:17:58Z</time></trkpt>
<trkpt lat="45.8876495361328" lon="7.18875789642334"><ele></ele><time>2013-8-4T21:18:1Z</time></trkpt>
<trkpt lat="45.8876266479492" lon="7.18875074386597"><ele></ele><time>2013-8-4T21:18:4Z</time></trkpt>
<trkpt lat="45.8876037597656" lon="7.1887469291687"><ele></ele><time>2013-8-4T21:18:7Z</time></trkpt>
<trkpt lat="45.8875350952148" lon="7.18873119354248"><ele></ele><time>2013-8-4T21:18:10Z</time></trkpt>
<trkpt lat="45.8874931335449" lon="7.18870878219604"><ele></ele><time>2013-8-4T21:18:13Z</time></trkpt>
<trkpt lat="45.8874702453613" lon="7.1886944770813"><ele></ele><time>2013-8-4T21:18:16Z</time></trkpt>
<trkpt lat="45.8874549865723" lon="7.18868350982666"><ele></ele><time>2013-8-4T21:18:19Z</time></trkpt>
<trkpt lat="45.8874320983887" lon="7.1886682510376"><ele></ele><time>2013-8-4T21:18:22Z</time></trkpt>
<trkpt lat="45.8874168395996" lon="7.18865013122559"><ele></ele><time>2013-8-4T21:18:25Z</time></trkpt>
<trkpt lat="45.8874015808106" lon="7.18863773345947"><ele></ele><time>2013-8-4T21:18:28Z</time></trkpt>
<trkpt lat="45.8873825073242" lon="7.18861722946167"><ele></ele><time>2013-8-4T21:18:31Z</time></trkpt>
<trkpt lat="45.8873672485352" lon="7.18859481811524"><ele></ele><time>2013-8-4T21:18:34Z</time></trkpt>
<trkpt lat="45.8873481750488" lon="7.18857431411743"><ele></ele><time>2013-8-4T21:18:37Z</time></trkpt>
<trkpt lat="45.8873329162598" lon="7.18855381011963"><ele></ele><time>2013-8-4T21:18:40Z</time></trkpt>
<trkpt lat="45.8872909545898" lon="7.18848705291748"><ele></ele><time>2013-8-4T21:18:43Z</time></trkpt>
<trkpt lat="45.8872718811035" lon="7.18845987319946"><ele></ele><time>2013-8-4T21:18:46Z</time></trkpt>
<trkpt lat="45.8872528076172" lon="7.18843650817871"><ele></ele><time>2013-8-4T21:18:49Z</time></trkpt>
<trkpt lat="45.8872375488281" lon="7.18841409683228"><ele></ele><time>2013-8-4T21:18:52Z</time></trkpt>
<trkpt lat="45.8872222900391" lon="7.1883955001831"><ele></ele><time>2013-8-4T21:18:55Z</time></trkpt>
<trkpt lat="45.8872032165527" lon="7.18837308883667"><ele></ele><time>2013-8-4T21:18:58Z</time></trkpt>
<trkpt lat="45.8871879577637" lon="7.18834733963013"><ele></ele><time>2013-8-4T21:19:1Z</time></trkpt>
<trkpt lat="45.8871726989746" lon="7.18832588195801"><ele></ele><time>2013-8-4T21:19:4Z</time></trkpt>
<trkpt lat="45.8870849609375" lon="7.1881833076477"><ele></ele><time>2013-8-4T21:19:7Z</time></trkpt>
<trkpt lat="45.8870697021484" lon="7.18816232681274"><ele></ele><time>2013-8-4T21:19:10Z</time></trkpt>
<trkpt lat="45.8870544433594" lon="7.18814086914062"><ele></ele><time>2013-8-4T21:19:13Z</time></trkpt>
<trkpt lat="45.8870391845703" lon="7.18812274932861"><ele></ele><time>2013-8-4T21:19:16Z</time></trkpt>
<trkpt lat="45.8870239257812" lon="7.18809843063354"><ele></ele><time>2013-8-4T21:19:19Z</time></trkpt>
<trkpt lat="45.8869514465332" lon="7.18801355361938"><ele></ele><time>2013-8-4T21:19:22Z</time></trkpt>
<trkpt lat="45.8869323730469" lon="7.18799591064453"><ele></ele><time>2013-8-4T21:19:25Z</time></trkpt>
<trkpt lat="45.8869132995606" lon="7.1879768371582"><ele></ele><time>2013-8-4T21:19:28Z</time></trkpt>
<trkpt lat="45.8868942260742" lon="7.18796110153198"><ele></ele><time>2013-8-4T21:19:31Z</time></trkpt>
<trkpt lat="45.8868751525879" lon="7.18794059753418"><ele></ele><time>2013-8-4T21:19:34Z</time></trkpt>
<trkpt lat="45.8867874145508" lon="7.18786001205444"><ele></ele><time>2013-8-4T21:19:37Z</time></trkpt>
<trkpt lat="45.8866233825684" lon="7.18770122528076"><ele></ele><time>2013-8-4T21:19:40Z</time></trkpt>
<trkpt lat="45.8866081237793" lon="7.1876745223999"><ele></ele><time>2013-8-4T21:19:43Z</time></trkpt>
<trkpt lat="45.8865928649902" lon="7.18764495849609"><ele></ele><time>2013-8-4T21:19:46Z</time></trkpt>
<trkpt lat="45.8865776062012" lon="7.18761777877808"><ele></ele><time>2013-8-4T21:19:49Z</time></trkpt>
<trkpt lat="45.8865585327148" lon="7.18759250640869"><ele></ele><time>2013-8-4T21:19:52Z</time></trkpt>
<trkpt lat="45.8865432739258" lon="7.18753004074097"><ele></ele><time>2013-8-4T21:19:55Z</time></trkpt>
<trkpt lat="45.8865356445312" lon="7.18749809265137"><ele></ele><time>2013-8-4T21:19:58Z</time></trkpt>
<trkpt lat="45.8865242004394" lon="7.18745994567871"><ele></ele><time>2013-8-4T21:20:1Z</time></trkpt>
<trkpt lat="45.8865165710449" lon="7.18742513656616"><ele></ele><time>2013-8-4T21:20:4Z</time></trkpt>
<trkpt lat="45.8865013122559" lon="7.18739032745361"><ele></ele><time>2013-8-4T21:20:7Z</time></trkpt>
<trkpt lat="45.8864669799805" lon="7.18725156784058"><ele></ele><time>2013-8-4T21:20:10Z</time></trkpt>
<trkpt lat="45.8864479064941" lon="7.18722915649414"><ele></ele><time>2013-8-4T21:20:13Z</time></trkpt>
<trkpt lat="45.8864364624023" lon="7.1871976852417"><ele></ele><time>2013-8-4T21:20:16Z</time></trkpt>
<trkpt lat="45.8864288330078" lon="7.18716144561768"><ele></ele><time>2013-8-4T21:20:19Z</time></trkpt>
<trkpt lat="45.886417388916" lon="7.18712997436524"><ele></ele><time>2013-8-4T21:20:22Z</time></trkpt>
<trkpt lat="45.8863754272461" lon="7.18708515167236"><ele></ele><time>2013-8-4T21:20:25Z</time></trkpt>
<trkpt lat="45.8863258361816" lon="7.18705368041992"><ele></ele><time>2013-8-4T21:20:28Z</time></trkpt>
<trkpt lat="45.8862991333008" lon="7.18704652786255"><ele></ele><time>2013-8-4T21:20:31Z</time></trkpt>
<trkpt lat="45.8862762451172" lon="7.18705129623413"><ele></ele><time>2013-8-4T21:20:34Z</time></trkpt>
<trkpt lat="45.8862457275391" lon="7.18707275390625"><ele></ele><time>2013-8-4T21:20:37Z</time></trkpt>
<trkpt lat="45.8862342834473" lon="7.18711423873901"><ele></ele><time>2013-8-4T21:20:40Z</time></trkpt>
<trkpt lat="45.88623046875" lon="7.18715476989746"><ele></ele><time>2013-8-4T21:20:43Z</time></trkpt>
<trkpt lat="45.8862228393555" lon="7.18719100952148"><ele></ele><time>2013-8-4T21:20:46Z</time></trkpt>
<trkpt lat="45.8862228393555" lon="7.18730354309082"><ele></ele><time>2013-8-4T21:20:49Z</time></trkpt>
<trkpt lat="45.8862457275391" lon="7.18757200241089"><ele></ele><time>2013-8-4T21:20:52Z</time></trkpt>
<trkpt lat="45.8862686157227" lon="7.18783760070801"><ele></ele><time>2013-8-4T21:20:55Z</time></trkpt>
<trkpt lat="45.8862686157227" lon="7.18787908554077"><ele></ele><time>2013-8-4T21:20:58Z</time></trkpt>
<trkpt lat="45.8862762451172" lon="7.18792057037354"><ele></ele><time>2013-8-4T21:21:1Z</time></trkpt>
<trkpt lat="45.886287689209" lon="7.1879620552063"><ele></ele><time>2013-8-4T21:21:4Z</time></trkpt>
<trkpt lat="45.886302947998" lon="7.1880373954773"><ele></ele><time>2013-8-4T21:21:7Z</time></trkpt>
<trkpt lat="45.8862724304199" lon="7.18814992904663"><ele></ele><time>2013-8-4T21:21:10Z</time></trkpt>
<trkpt lat="45.8862266540527" lon="7.18804788589478"><ele></ele><time>2013-8-4T21:21:13Z</time></trkpt>
<trkpt lat="45.8862152099609" lon="7.18801355361938"><ele></ele><time>2013-8-4T21:21:16Z</time></trkpt>
<trkpt lat="45.8861999511719" lon="7.18797969818115"><ele></ele><time>2013-8-4T21:21:19Z</time></trkpt>
<trkpt lat="45.8861846923828" lon="7.18794822692871"><ele></ele><time>2013-8-4T21:21:22Z</time></trkpt>
<trkpt lat="45.8861694335938" lon="7.18791580200195"><ele></ele><time>2013-8-4T21:21:25Z</time></trkpt>
<trkpt lat="45.886116027832" lon="7.18779277801514"><ele></ele><time>2013-8-4T21:21:28Z</time></trkpt>
<trkpt lat="45.8861045837402" lon="7.18776321411133"><ele></ele><time>2013-8-4T21:21:31Z</time></trkpt>
<trkpt lat="45.8860893249512" lon="7.18773555755615"><ele></ele><time>2013-8-4T21:21:34Z</time></trkpt>
<trkpt lat="45.8860740661621" lon="7.1877064704895"><ele></ele><time>2013-8-4T21:21:37Z</time></trkpt>
<trkpt lat="45.8860664367676" lon="7.18767738342285"><ele></ele><time>2013-8-4T21:21:40Z</time></trkpt>
<trkpt lat="45.8860130310059" lon="7.18755149841309"><ele></ele><time>2013-8-4T21:21:43Z</time></trkpt>
<trkpt lat="45.8859977722168" lon="7.18751955032349"><ele></ele><time>2013-8-4T21:21:46Z</time></trkpt>
<trkpt lat="45.8859825134277" lon="7.18748903274536"><ele></ele><time>2013-8-4T21:21:49Z</time></trkpt>
<trkpt lat="45.8859748840332" lon="7.18746137619018"><ele></ele><time>2013-8-4T21:21:52Z</time></trkpt>
<trkpt lat="45.8859596252441" lon="7.18742847442627"><ele></ele><time>2013-8-4T21:21:55Z</time></trkpt>
<trkpt lat="45.8859443664551" lon="7.18740081787109"><ele></ele><time>2013-8-4T21:21:58Z</time></trkpt>
<trkpt lat="45.8859252929688" lon="7.18737888336182"><ele></ele><time>2013-8-4T21:22:1Z</time></trkpt>
<trkpt lat="45.8858642578125" lon="7.18729639053345"><ele></ele><time>2013-8-4T21:22:4Z</time></trkpt>
<trkpt lat="45.8858489990234" lon="7.1872673034668"><ele></ele><time>2013-8-4T21:22:7Z</time></trkpt>
<trkpt lat="45.8858261108398" lon="7.18724346160889"><ele></ele><time>2013-8-4T21:22:10Z</time></trkpt>
<trkpt lat="45.8858070373535" lon="7.18720960617065"><ele></ele><time>2013-8-4T21:22:13Z</time></trkpt>
<trkpt lat="45.8857841491699" lon="7.18718147277832"><ele></ele><time>2013-8-4T21:22:16Z</time></trkpt>
<trkpt lat="45.8857192993164" lon="7.18708944320679"><ele></ele><time>2013-8-4T21:22:19Z</time></trkpt>
<trkpt lat="45.8857002258301" lon="7.18706178665161"><ele></ele><time>2013-8-4T21:22:22Z</time></trkpt>
<trkpt lat="45.8856811523438" lon="7.18703269958496"><ele></ele><time>2013-8-4T21:22:25Z</time></trkpt>
<trkpt lat="45.8856658935547" lon="7.1869945526123"><ele></ele><time>2013-8-4T21:22:28Z</time></trkpt>
<trkpt lat="45.8856544494629" lon="7.1869683265686"><ele></ele><time>2013-8-4T21:22:31Z</time></trkpt>
<trkpt lat="45.885627746582" lon="7.18691825866699"><ele></ele><time>2013-8-4T21:22:34Z</time></trkpt>
<trkpt lat="45.8856163024902" lon="7.18689107894898"><ele></ele><time>2013-8-4T21:22:37Z</time></trkpt>
<trkpt lat="45.8856048583984" lon="7.18685579299927"><ele></ele><time>2013-8-4T21:22:40Z</time></trkpt>
<trkpt lat="45.8855895996094" lon="7.18682050704956"><ele></ele><time>2013-8-4T21:22:43Z</time></trkpt>
<trkpt lat="45.8855781555176" lon="7.1867823600769"><ele></ele><time>2013-8-4T21:22:46Z</time></trkpt>
<trkpt lat="45.8855628967285" lon="7.18675374984741"><ele></ele><time>2013-8-4T21:22:49Z</time></trkpt>
<trkpt lat="45.8855400085449" lon="7.18672561645508"><ele></ele><time>2013-8-4T21:22:52Z</time></trkpt>
<trkpt lat="45.8855247497559" lon="7.18669176101685"><ele></ele><time>2013-8-4T21:22:55Z</time></trkpt>
<trkpt lat="45.8855056762695" lon="7.18665981292725"><ele></ele><time>2013-8-4T21:22:58Z</time></trkpt>
<trkpt lat="45.8854866027832" lon="7.18663549423218"><ele></ele><time>2013-8-4T21:23:1Z</time></trkpt>
<trkpt lat="45.8854675292969" lon="7.18659734725952"><ele></ele><time>2013-8-4T21:23:4Z</time></trkpt>
<trkpt lat="45.8854560852051" lon="7.18656015396118"><ele></ele><time>2013-8-4T21:23:7Z</time></trkpt>
<trkpt lat="45.885440826416" lon="7.18653583526611"><ele></ele><time>2013-8-4T21:23:10Z</time></trkpt>
<trkpt lat="45.8854217529297" lon="7.18650245666504"><ele></ele><time>2013-8-4T21:23:13Z</time></trkpt>
<trkpt lat="45.8853988647461" lon="7.18647480010986"><ele></ele><time>2013-8-4T21:23:16Z</time></trkpt>
<trkpt lat="45.8853797912598" lon="7.18644666671753"><ele></ele><time>2013-8-4T21:23:19Z</time></trkpt>
<trkpt lat="45.8853645324707" lon="7.1864185333252"><ele></ele><time>2013-8-4T21:23:22Z</time></trkpt>
<trkpt lat="45.8853416442871" lon="7.18638896942139"><ele></ele><time>2013-8-4T21:23:25Z</time></trkpt>
<trkpt lat="45.885326385498" lon="7.1863603591919"><ele></ele><time>2013-8-4T21:23:28Z</time></trkpt>
<trkpt lat="45.8852920532227" lon="7.18629360198975"><ele></ele><time>2013-8-4T21:23:31Z</time></trkpt>
<trkpt lat="45.8852729797363" lon="7.18626356124878"><ele></ele><time>2013-8-4T21:23:34Z</time></trkpt>
<trkpt lat="45.8852577209473" lon="7.18623113632202"><ele></ele><time>2013-8-4T21:23:37Z</time></trkpt>
<trkpt lat="45.8852462768555" lon="7.18620109558106"><ele></ele><time>2013-8-4T21:23:40Z</time></trkpt>
<trkpt lat="45.8852310180664" lon="7.18616962432861"><ele></ele><time>2013-8-4T21:23:43Z</time></trkpt>
<trkpt lat="45.8852195739746" lon="7.18614101409912"><ele></ele><time>2013-8-4T21:23:46Z</time></trkpt>
<trkpt lat="45.8851852416992" lon="7.18608570098877"><ele></ele><time>2013-8-4T21:23:49Z</time></trkpt>
<trkpt lat="45.8851699829102" lon="7.18605613708496"><ele></ele><time>2013-8-4T21:23:52Z</time></trkpt>
<trkpt lat="45.8851585388184" lon="7.18602609634399"><ele></ele><time>2013-8-4T21:23:55Z</time></trkpt>
<trkpt lat="45.8851356506348" lon="7.18600177764893"><ele></ele><time>2013-8-4T21:23:58Z</time></trkpt>
<trkpt lat="45.8851280212402" lon="7.18597221374512"><ele></ele><time>2013-8-4T21:24:1Z</time></trkpt>
<trkpt lat="45.8851127624512" lon="7.1859450340271"><ele></ele><time>2013-8-4T21:24:4Z</time></trkpt>
<trkpt lat="45.8851013183594" lon="7.18591547012329"><ele></ele><time>2013-8-4T21:24:7Z</time></trkpt>
<trkpt lat="45.8850898742676" lon="7.18588066101074"><ele></ele><time>2013-8-4T21:24:10Z</time></trkpt>
<trkpt lat="45.8850898742676" lon="7.18585109710693"><ele></ele><time>2013-8-4T21:24:13Z</time></trkpt>
<trkpt lat="45.8850975036621" lon="7.1857852935791"><ele></ele><time>2013-8-4T21:24:16Z</time></trkpt>
<trkpt lat="45.8850975036621" lon="7.1857500076294"><ele></ele><time>2013-8-4T21:24:19Z</time></trkpt>
<trkpt lat="45.8850975036621" lon="7.18571949005127"><ele></ele><time>2013-8-4T21:24:22Z</time></trkpt>
<trkpt lat="45.8850898742676" lon="7.18569278717041"><ele></ele><time>2013-8-4T21:24:25Z</time></trkpt>
<trkpt lat="45.885082244873" lon="7.18566703796387"><ele></ele><time>2013-8-4T21:24:28Z</time></trkpt>
<trkpt lat="45.8850555419922" lon="7.18561840057373"><ele></ele><time>2013-8-4T21:24:31Z</time></trkpt>
<trkpt lat="45.8850440979004" lon="7.18559551239014"><ele></ele><time>2013-8-4T21:24:34Z</time></trkpt>
<trkpt lat="45.8850288391113" lon="7.18557119369507"><ele></ele><time>2013-8-4T21:24:37Z</time></trkpt>
<trkpt lat="45.885009765625" lon="7.18555116653442"><ele></ele><time>2013-8-4T21:24:40Z</time></trkpt>
<trkpt lat="45.8849906921387" lon="7.18552684783936"><ele></ele><time>2013-8-4T21:24:43Z</time></trkpt>
<trkpt lat="45.8848762512207" lon="7.18539905548096"><ele></ele><time>2013-8-4T21:24:46Z</time></trkpt>
<trkpt lat="45.8848304748535" lon="7.18536376953125"><ele></ele><time>2013-8-4T21:24:49Z</time></trkpt>
<trkpt lat="45.8847579956055" lon="7.18531560897827"><ele></ele><time>2013-8-4T21:24:52Z</time></trkpt>
<trkpt lat="45.8847389221191" lon="7.18530511856079"><ele></ele><time>2013-8-4T21:24:55Z</time></trkpt>
<trkpt lat="45.8847198486328" lon="7.18529081344604"><ele></ele><time>2013-8-4T21:24:58Z</time></trkpt>
<trkpt lat="45.8846969604492" lon="7.18528127670288"><ele></ele><time>2013-8-4T21:25:1Z</time></trkpt>
<trkpt lat="45.8846740722656" lon="7.18527317047119"><ele></ele><time>2013-8-4T21:25:4Z</time></trkpt>
<trkpt lat="45.8845138549805" lon="7.18525266647339"><ele></ele><time>2013-8-4T21:25:7Z</time></trkpt>
<trkpt lat="45.8844184875488" lon="7.18524646759033"><ele></ele><time>2013-8-4T21:25:10Z</time></trkpt>
<trkpt lat="45.884391784668" lon="7.18524742126465"><ele></ele><time>2013-8-4T21:25:13Z</time></trkpt>
<trkpt lat="45.8843688964844" lon="7.18524932861328"><ele></ele><time>2013-8-4T21:25:16Z</time></trkpt>
<trkpt lat="45.884349822998" lon="7.18524932861328"><ele></ele><time>2013-8-4T21:25:19Z</time></trkpt>
<trkpt lat="45.884204864502" lon="7.18525791168213"><ele></ele><time>2013-8-4T21:25:22Z</time></trkpt>
<trkpt lat="45.8841819763184" lon="7.18525838851929"><ele></ele><time>2013-8-4T21:25:25Z</time></trkpt>
<trkpt lat="45.8841590881348" lon="7.1852593421936"><ele></ele><time>2013-8-4T21:25:28Z</time></trkpt>
<trkpt lat="45.8841361999512" lon="7.18526601791382"><ele></ele><time>2013-8-4T21:25:31Z</time></trkpt>
<trkpt lat="45.8841133117676" lon="7.18527173995972"><ele></ele><time>2013-8-4T21:25:34Z</time></trkpt>
<trkpt lat="45.8840408325195" lon="7.1852855682373"><ele></ele><time>2013-8-4T21:25:37Z</time></trkpt>
<trkpt lat="45.8840217590332" lon="7.18529033660889"><ele></ele><time>2013-8-4T21:25:40Z</time></trkpt>
<trkpt lat="45.8839530944824" lon="7.18529462814331"><ele></ele><time>2013-8-4T21:25:43Z</time></trkpt>
<trkpt lat="45.8839302062988" lon="7.18529653549194"><ele></ele><time>2013-8-4T21:25:46Z</time></trkpt>
<trkpt lat="45.8839073181152" lon="7.18529987335205"><ele></ele><time>2013-8-4T21:25:49Z</time></trkpt>
<trkpt lat="45.8838844299316" lon="7.18530082702637"><ele></ele><time>2013-8-4T21:25:52Z</time></trkpt>
<trkpt lat="45.883861541748" lon="7.185302734375"><ele></ele><time>2013-8-4T21:25:55Z</time></trkpt>
<trkpt lat="45.8837242126465" lon="7.18531370162964"><ele></ele><time>2013-8-4T21:25:58Z</time></trkpt>
<trkpt lat="45.8837013244629" lon="7.1853141784668"><ele></ele><time>2013-8-4T21:26:1Z</time></trkpt>
<trkpt lat="45.8836784362793" lon="7.18531370162964"><ele></ele><time>2013-8-4T21:26:4Z</time></trkpt>
<trkpt lat="45.8836555480957" lon="7.18530893325806"><ele></ele><time>2013-8-4T21:26:7Z</time></trkpt>
<trkpt lat="45.8836364746094" lon="7.18530178070068"><ele></ele><time>2013-8-4T21:26:10Z</time></trkpt>
<trkpt lat="45.8836135864258" lon="7.18530225753784"><ele></ele><time>2013-8-4T21:26:13Z</time></trkpt>
<trkpt lat="45.8835906982422" lon="7.18530035018921"><ele></ele><time>2013-8-4T21:26:16Z</time></trkpt>
<trkpt lat="45.8835716247559" lon="7.18530225753784"><ele></ele><time>2013-8-4T21:26:19Z</time></trkpt>
<trkpt lat="45.8835487365723" lon="7.18530178070068"><ele></ele><time>2013-8-4T21:26:22Z</time></trkpt>
<trkpt lat="45.8835258483887" lon="7.18530559539795"><ele></ele><time>2013-8-4T21:26:25Z</time></trkpt>
<trkpt lat="45.883358001709" lon="7.1853461265564"><ele></ele><time>2013-8-4T21:26:28Z</time></trkpt>
<trkpt lat="45.8833351135254" lon="7.18535232543945"><ele></ele><time>2013-8-4T21:26:31Z</time></trkpt>
<trkpt lat="45.8833160400391" lon="7.18535852432251"><ele></ele><time>2013-8-4T21:26:34Z</time></trkpt>
<trkpt lat="45.8832931518555" lon="7.18536806106567"><ele></ele><time>2013-8-4T21:26:37Z</time></trkpt>
<trkpt lat="45.883186340332" lon="7.18540477752686"><ele></ele><time>2013-8-4T21:26:40Z</time></trkpt>
<trkpt lat="45.8831634521484" lon="7.18541479110718"><ele></ele><time>2013-8-4T21:26:43Z</time></trkpt>
<trkpt lat="45.8831405639648" lon="7.18542098999024"><ele></ele><time>2013-8-4T21:26:46Z</time></trkpt>
<trkpt lat="45.8831176757812" lon="7.18542432785034"><ele></ele><time>2013-8-4T21:26:49Z</time></trkpt>
<trkpt lat="45.8830986022949" lon="7.18543148040772"><ele></ele><time>2013-8-4T21:26:52Z</time></trkpt>
<trkpt lat="45.8830718994141" lon="7.18543720245361"><ele></ele><time>2013-8-4T21:26:55Z</time></trkpt>
<trkpt lat="45.8830070495606" lon="7.18544769287109"><ele></ele><time>2013-8-4T21:26:58Z</time></trkpt>
<trkpt lat="45.882942199707" lon="7.18545055389404"><ele></ele><time>2013-8-4T21:27:1Z</time></trkpt>
<trkpt lat="45.882926940918" lon="7.18544578552246"><ele></ele><time>2013-8-4T21:27:4Z</time></trkpt>
<trkpt lat="45.8829040527344" lon="7.18544054031372"><ele></ele><time>2013-8-4T21:27:7Z</time></trkpt>
<trkpt lat="45.8828811645508" lon="7.18543338775635"><ele></ele><time>2013-8-4T21:27:10Z</time></trkpt>
<trkpt lat="45.8828620910644" lon="7.18542718887329"><ele></ele><time>2013-8-4T21:27:13Z</time></trkpt>
<trkpt lat="45.8828125" lon="7.18540620803833"><ele></ele><time>2013-8-4T21:27:16Z</time></trkpt>
<trkpt lat="45.8827934265137" lon="7.18539810180664"><ele></ele><time>2013-8-4T21:27:19Z</time></trkpt>
<trkpt lat="45.8827705383301" lon="7.18538570404053"><ele></ele><time>2013-8-4T21:27:22Z</time></trkpt>
<trkpt lat="45.8827514648438" lon="7.18537378311157"><ele></ele><time>2013-8-4T21:27:25Z</time></trkpt>
<trkpt lat="45.8826942443848" lon="7.18533039093018"><ele></ele><time>2013-8-4T21:27:28Z</time></trkpt>
<trkpt lat="45.8825645446777" lon="7.18522024154663"><ele></ele><time>2013-8-4T21:27:31Z</time></trkpt>
<trkpt lat="45.8825187683106" lon="7.18516635894775"><ele></ele><time>2013-8-4T21:27:34Z</time></trkpt>
<trkpt lat="45.8825035095215" lon="7.18515157699585"><ele></ele><time>2013-8-4T21:27:37Z</time></trkpt>
<trkpt lat="45.8824882507324" lon="7.18513107299805"><ele></ele><time>2013-8-4T21:27:40Z</time></trkpt>
<trkpt lat="45.8824691772461" lon="7.18511962890625"><ele></ele><time>2013-8-4T21:27:43Z</time></trkpt>
<trkpt lat="45.8824501037598" lon="7.18509674072266"><ele></ele><time>2013-8-4T21:27:46Z</time></trkpt>
<trkpt lat="45.8824234008789" lon="7.18505668640137"><ele></ele><time>2013-8-4T21:27:49Z</time></trkpt>
<trkpt lat="45.8823890686035" lon="7.1850175857544"><ele></ele><time>2013-8-4T21:27:52Z</time></trkpt>
<trkpt lat="45.8823738098144" lon="7.18499708175659"><ele></ele><time>2013-8-4T21:27:55Z</time></trkpt>
<trkpt lat="45.8823585510254" lon="7.18497180938721"><ele></ele><time>2013-8-4T21:27:58Z</time></trkpt>
<trkpt lat="45.8823394775391" lon="7.1849513053894"><ele></ele><time>2013-8-4T21:28:1Z</time></trkpt>
<trkpt lat="45.88232421875" lon="7.18493223190308"><ele></ele><time>2013-8-4T21:28:4Z</time></trkpt>
<trkpt lat="45.8823089599609" lon="7.18491172790527"><ele></ele><time>2013-8-4T21:28:7Z</time></trkpt>
<trkpt lat="45.8822937011719" lon="7.18489599227905"><ele></ele><time>2013-8-4T21:28:10Z</time></trkpt>
<trkpt lat="45.8822784423828" lon="7.18487739562988"><ele></ele><time>2013-8-4T21:28:13Z</time></trkpt>
<trkpt lat="45.8822593688965" lon="7.18485832214356"><ele></ele><time>2013-8-4T21:28:16Z</time></trkpt>
<trkpt lat="45.8822441101074" lon="7.18483734130859"><ele></ele><time>2013-8-4T21:28:19Z</time></trkpt>
<trkpt lat="45.8821792602539" lon="7.18474817276001"><ele></ele><time>2013-8-4T21:28:22Z</time></trkpt>
<trkpt lat="45.8821029663086" lon="7.18464946746826"><ele></ele><time>2013-8-4T21:28:25Z</time></trkpt>
<trkpt lat="45.8820877075195" lon="7.18462705612183"><ele></ele><time>2013-8-4T21:28:28Z</time></trkpt>
<trkpt lat="45.8820686340332" lon="7.18460607528686"><ele></ele><time>2013-8-4T21:28:31Z</time></trkpt>
<trkpt lat="45.8820533752441" lon="7.1845850944519"><ele></ele><time>2013-8-4T21:28:34Z</time></trkpt>
<trkpt lat="45.8820419311523" lon="7.18456983566284"><ele></ele><time>2013-8-4T21:28:37Z</time></trkpt>
<trkpt lat="45.8819999694824" lon="7.18450450897217"><ele></ele><time>2013-8-4T21:28:40Z</time></trkpt>
<trkpt lat="45.8819885253906" lon="7.18449449539185"><ele></ele><time>2013-8-4T21:28:43Z</time></trkpt>
<trkpt lat="45.8819694519043" lon="7.18447256088257"><ele></ele><time>2013-8-4T21:28:46Z</time></trkpt>
<trkpt lat="45.8819541931152" lon="7.18445587158203"><ele></ele><time>2013-8-4T21:28:49Z</time></trkpt>
<trkpt lat="45.8818817138672" lon="7.18439197540283"><ele></ele><time>2013-8-4T21:28:52Z</time></trkpt>
<trkpt lat="45.8818016052246" lon="7.18433570861816"><ele></ele><time>2013-8-4T21:28:55Z</time></trkpt>
<trkpt lat="45.881778717041" lon="7.18432188034058"><ele></ele><time>2013-8-4T21:28:58Z</time></trkpt>
<trkpt lat="45.8817596435547" lon="7.18431663513184"><ele></ele><time>2013-8-4T21:29:1Z</time></trkpt>
<trkpt lat="45.8817367553711" lon="7.1843056678772"><ele></ele><time>2013-8-4T21:29:4Z</time></trkpt>
<trkpt lat="45.8817138671875" lon="7.18428897857666"><ele></ele><time>2013-8-4T21:29:7Z</time></trkpt>
<trkpt lat="45.8815765380859" lon="7.18424034118652"><ele></ele><time>2013-8-4T21:29:10Z</time></trkpt>
<trkpt lat="45.8815002441406" lon="7.18421363830566"><ele></ele><time>2013-8-4T21:29:13Z</time></trkpt>
<trkpt lat="45.881477355957" lon="7.18420267105102"><ele></ele><time>2013-8-4T21:29:16Z</time></trkpt>
<trkpt lat="45.8814506530762" lon="7.18418836593628"><ele></ele><time>2013-8-4T21:29:19Z</time></trkpt>
<trkpt lat="45.8814277648926" lon="7.18418645858765"><ele></ele><time>2013-8-4T21:29:22Z</time></trkpt>
<trkpt lat="45.881404876709" lon="7.18417310714722"><ele></ele><time>2013-8-4T21:29:25Z</time></trkpt>
<trkpt lat="45.8813514709473" lon="7.18413591384888"><ele></ele><time>2013-8-4T21:29:28Z</time></trkpt>
<trkpt lat="45.8813095092773" lon="7.18412923812866"><ele></ele><time>2013-8-4T21:29:31Z</time></trkpt>
<trkpt lat="45.8812866210938" lon="7.18412590026856"><ele></ele><time>2013-8-4T21:29:34Z</time></trkpt>
<trkpt lat="45.8812675476074" lon="7.18412017822266"><ele></ele><time>2013-8-4T21:29:37Z</time></trkpt>
<trkpt lat="45.8812484741211" lon="7.18411493301392"><ele></ele><time>2013-8-4T21:29:40Z</time></trkpt>
<trkpt lat="45.8812217712402" lon="7.18410873413086"><ele></ele><time>2013-8-4T21:29:43Z</time></trkpt>
<trkpt lat="45.8812026977539" lon="7.18409872055054"><ele></ele><time>2013-8-4T21:29:46Z</time></trkpt>
<trkpt lat="45.8810501098633" lon="7.18406534194946"><ele></ele><time>2013-8-4T21:29:49Z</time></trkpt>
<trkpt lat="45.8810272216797" lon="7.18406391143799"><ele></ele><time>2013-8-4T21:29:52Z</time></trkpt>
<trkpt lat="45.8810005187988" lon="7.18405532836914"><ele></ele><time>2013-8-4T21:29:55Z</time></trkpt>
<trkpt lat="45.8809776306152" lon="7.18404197692871"><ele></ele><time>2013-8-4T21:29:58Z</time></trkpt>
<trkpt lat="45.8809509277344" lon="7.18401956558228"><ele></ele><time>2013-8-4T21:30:1Z</time></trkpt>
<trkpt lat="45.8808937072754" lon="7.18393468856812"><ele></ele><time>2013-8-4T21:30:4Z</time></trkpt>
<trkpt lat="45.8808784484863" lon="7.18389749526978"><ele></ele><time>2013-8-4T21:30:7Z</time></trkpt>
<trkpt lat="45.8808670043945" lon="7.18386220932007"><ele></ele><time>2013-8-4T21:30:10Z</time></trkpt>
<trkpt lat="45.8808631896973" lon="7.18382930755615"><ele></ele><time>2013-8-4T21:30:13Z</time></trkpt>
<trkpt lat="45.8807144165039" lon="7.18371152877808"><ele></ele><time>2013-8-4T21:30:16Z</time></trkpt>
<trkpt lat="45.8807067871094" lon="7.18366432189941"><ele></ele><time>2013-8-4T21:30:19Z</time></trkpt>
<trkpt lat="45.8806991577148" lon="7.18360471725464"><ele></ele><time>2013-8-4T21:30:22Z</time></trkpt>
<trkpt lat="45.8806991577148" lon="7.18356990814209"><ele></ele><time>2013-8-4T21:30:25Z</time></trkpt>
<trkpt lat="45.8806953430176" lon="7.18353748321533"><ele></ele><time>2013-8-4T21:30:28Z</time></trkpt>
<trkpt lat="45.8806838989258" lon="7.18351125717163"><ele></ele><time>2013-8-4T21:30:31Z</time></trkpt>
<trkpt lat="45.8806838989258" lon="7.18347978591919"><ele></ele><time>2013-8-4T21:30:34Z</time></trkpt>
<trkpt lat="45.8806571960449" lon="7.18328809738159"><ele></ele><time>2013-8-4T21:30:37Z</time></trkpt>
<trkpt lat="45.8806533813477" lon="7.18311071395874"><ele></ele><time>2013-8-4T21:30:40Z</time></trkpt>
<trkpt lat="45.8806343078613" lon="7.18301773071289"><ele></ele><time>2013-8-4T21:30:43Z</time></trkpt>
<trkpt lat="45.8806266784668" lon="7.18298292160034"><ele></ele><time>2013-8-4T21:30:46Z</time></trkpt>
<trkpt lat="45.8806228637695" lon="7.18295574188232"><ele></ele><time>2013-8-4T21:30:49Z</time></trkpt>
<trkpt lat="45.8806228637695" lon="7.18292284011841"><ele></ele><time>2013-8-4T21:30:52Z</time></trkpt>
<trkpt lat="45.8806037902832" lon="7.18280935287476"><ele></ele><time>2013-8-4T21:30:55Z</time></trkpt>
<trkpt lat="45.8805961608887" lon="7.18277788162232"><ele></ele><time>2013-8-4T21:30:58Z</time></trkpt>
<trkpt lat="45.8805885314941" lon="7.18274879455566"><ele></ele><time>2013-8-4T21:31:1Z</time></trkpt>
<trkpt lat="45.8805885314941" lon="7.18271732330322"><ele></ele><time>2013-8-4T21:31:4Z</time></trkpt>
<trkpt lat="45.8805847167969" lon="7.18269348144531"><ele></ele><time>2013-8-4T21:31:7Z</time></trkpt>
<trkpt lat="45.880558013916" lon="7.18260049819946"><ele></ele><time>2013-8-4T21:31:10Z</time></trkpt>
<trkpt lat="45.8805084228516" lon="7.18253660202026"><ele></ele><time>2013-8-4T21:31:13Z</time></trkpt>
<trkpt lat="45.8804893493652" lon="7.18252992630005"><ele></ele><time>2013-8-4T21:31:16Z</time></trkpt>
<trkpt lat="45.8804702758789" lon="7.18252277374268"><ele></ele><time>2013-8-4T21:31:19Z</time></trkpt>
<trkpt lat="45.8804512023926" lon="7.18254089355469"><ele></ele><time>2013-8-4T21:31:22Z</time></trkpt>
<trkpt lat="45.880428314209" lon="7.18256759643555"><ele></ele><time>2013-8-4T21:31:25Z</time></trkpt>
<trkpt lat="45.8803901672363" lon="7.18262147903442"><ele></ele><time>2013-8-4T21:31:28Z</time></trkpt>
<trkpt lat="45.88037109375" lon="7.18264436721802"><ele></ele><time>2013-8-4T21:31:31Z</time></trkpt>
<trkpt lat="45.8803215026856" lon="7.18272829055786"><ele></ele><time>2013-8-4T21:31:34Z</time></trkpt>
<trkpt lat="45.8803062438965" lon="7.18275547027588"><ele></ele><time>2013-8-4T21:31:37Z</time></trkpt>
<trkpt lat="45.8802871704102" lon="7.18277931213379"><ele></ele><time>2013-8-4T21:31:40Z</time></trkpt>
<trkpt lat="45.8802680969238" lon="7.18281126022339"><ele></ele><time>2013-8-4T21:31:43Z</time></trkpt>
<trkpt lat="45.880256652832" lon="7.18284130096436"><ele></ele><time>2013-8-4T21:31:46Z</time></trkpt>
<trkpt lat="45.8801918029785" lon="7.18297863006592"><ele></ele><time>2013-8-4T21:31:49Z</time></trkpt>
<trkpt lat="45.8801765441894" lon="7.18300724029541"><ele></ele><time>2013-8-4T21:31:52Z</time></trkpt>
<trkpt lat="45.8801574707031" lon="7.1830358505249"><ele></ele><time>2013-8-4T21:31:55Z</time></trkpt>
<trkpt lat="45.8801422119141" lon="7.18305778503418"><ele></ele><time>2013-8-4T21:31:58Z</time></trkpt>
<trkpt lat="45.880126953125" lon="7.18308687210083"><ele></ele><time>2013-8-4T21:32:1Z</time></trkpt>
<trkpt lat="45.8801116943359" lon="7.1831169128418"><ele></ele><time>2013-8-4T21:32:4Z</time></trkpt>
<trkpt lat="45.8800849914551" lon="7.18316602706909"><ele></ele><time>2013-8-4T21:32:7Z</time></trkpt>
<trkpt lat="45.8800506591797" lon="7.18318796157837"><ele></ele><time>2013-8-4T21:32:10Z</time></trkpt>
<trkpt lat="45.8800239562988" lon="7.18318462371826"><ele></ele><time>2013-8-4T21:32:13Z</time></trkpt>
<trkpt lat="45.8800048828125" lon="7.18317985534668"><ele></ele><time>2013-8-4T21:32:16Z</time></trkpt>
<trkpt lat="45.8799858093262" lon="7.18316841125488"><ele></ele><time>2013-8-4T21:32:19Z</time></trkpt>
<trkpt lat="45.8799705505371" lon="7.18314266204834"><ele></ele><time>2013-8-4T21:32:22Z</time></trkpt>
<trkpt lat="45.8799591064453" lon="7.18311166763306"><ele></ele><time>2013-8-4T21:32:25Z</time></trkpt>
<trkpt lat="45.8799438476562" lon="7.18308162689209"><ele></ele><time>2013-8-4T21:32:28Z</time></trkpt>
<trkpt lat="45.8799324035644" lon="7.18305397033691"><ele></ele><time>2013-8-4T21:32:31Z</time></trkpt>
<trkpt lat="45.8799247741699" lon="7.1830244064331"><ele></ele><time>2013-8-4T21:32:34Z</time></trkpt>
<trkpt lat="45.8799171447754" lon="7.18299245834351"><ele></ele><time>2013-8-4T21:32:37Z</time></trkpt>
<trkpt lat="45.8799057006836" lon="7.1829686164856"><ele></ele><time>2013-8-4T21:32:40Z</time></trkpt>
<trkpt lat="45.8798599243164" lon="7.18285799026489"><ele></ele><time>2013-8-4T21:32:43Z</time></trkpt>
<trkpt lat="45.8798522949219" lon="7.1828236579895"><ele></ele><time>2013-8-4T21:32:46Z</time></trkpt>
<trkpt lat="45.8798408508301" lon="7.18279027938843"><ele></ele><time>2013-8-4T21:32:49Z</time></trkpt>
<trkpt lat="45.8798332214356" lon="7.18275737762451"><ele></ele><time>2013-8-4T21:32:52Z</time></trkpt>
<trkpt lat="45.879825592041" lon="7.18272733688354"><ele></ele><time>2013-8-4T21:32:55Z</time></trkpt>
<trkpt lat="45.879768371582" lon="7.18258094787598"><ele></ele><time>2013-8-4T21:32:58Z</time></trkpt>
<trkpt lat="45.8796577453613" lon="7.18244075775146"><ele></ele><time>2013-8-4T21:33:1Z</time></trkpt>
<trkpt lat="45.8796348571777" lon="7.18242835998535"><ele></ele><time>2013-8-4T21:33:4Z</time></trkpt>
<trkpt lat="45.8796119689941" lon="7.18241691589356"><ele></ele><time>2013-8-4T21:33:7Z</time></trkpt>
<trkpt lat="45.8795890808106" lon="7.18241167068482"><ele></ele><time>2013-8-4T21:33:10Z</time></trkpt>
<trkpt lat="45.8794937133789" lon="7.18241596221924"><ele></ele><time>2013-8-4T21:33:13Z</time></trkpt>
<trkpt lat="45.8794212341309" lon="7.18245077133179"><ele></ele><time>2013-8-4T21:33:16Z</time></trkpt>
<trkpt lat="45.8794059753418" lon="7.1824688911438"><ele></ele><time>2013-8-4T21:33:19Z</time></trkpt>
<trkpt lat="45.8793869018555" lon="7.18248414993286"><ele></ele><time>2013-8-4T21:33:22Z</time></trkpt>
<trkpt lat="45.8793640136719" lon="7.18249559402466"><ele></ele><time>2013-8-4T21:33:25Z</time></trkpt>
<trkpt lat="45.8793449401856" lon="7.18250417709351"><ele></ele><time>2013-8-4T21:33:28Z</time></trkpt>
<trkpt lat="45.8792190551758" lon="7.18259763717651"><ele></ele><time>2013-8-4T21:33:31Z</time></trkpt>
<trkpt lat="45.8791999816894" lon="7.18261241912842"><ele></ele><time>2013-8-4T21:33:34Z</time></trkpt>
<trkpt lat="45.8791809082031" lon="7.18262434005737"><ele></ele><time>2013-8-4T21:33:37Z</time></trkpt>
<trkpt lat="45.8791618347168" lon="7.18263673782349"><ele></ele><time>2013-8-4T21:33:40Z</time></trkpt>
<trkpt lat="45.8791389465332" lon="7.1826491355896"><ele></ele><time>2013-8-4T21:33:43Z</time></trkpt>
<trkpt lat="45.8790588378906" lon="7.1826982498169"><ele></ele><time>2013-8-4T21:33:46Z</time></trkpt>
<trkpt lat="45.8790168762207" lon="7.1827220916748"><ele></ele><time>2013-8-4T21:33:49Z</time></trkpt>
<trkpt lat="45.8789939880371" lon="7.18273496627808"><ele></ele><time>2013-8-4T21:33:52Z</time></trkpt>
<trkpt lat="45.8789710998535" lon="7.18274259567261"><ele></ele><time>2013-8-4T21:33:55Z</time></trkpt>
<trkpt lat="45.8789520263672" lon="7.18274784088135"><ele></ele><time>2013-8-4T21:33:58Z</time></trkpt>
<trkpt lat="45.8789291381836" lon="7.18275547027588"><ele></ele><time>2013-8-4T21:34:1Z</time></trkpt>
<trkpt lat="45.87890625" lon="7.18276357650757"><ele></ele><time>2013-8-4T21:34:4Z</time></trkpt>
<trkpt lat="45.8788604736328" lon="7.18279027938843"><ele></ele><time>2013-8-4T21:34:7Z</time></trkpt>
<trkpt lat="45.8787956237793" lon="7.1828236579895"><ele></ele><time>2013-8-4T21:34:10Z</time></trkpt>
<trkpt lat="45.8787727355957" lon="7.18283367156982"><ele></ele><time>2013-8-4T21:34:13Z</time></trkpt>
<trkpt lat="45.8787498474121" lon="7.18284463882446"><ele></ele><time>2013-8-4T21:34:16Z</time></trkpt>
<trkpt lat="45.8787307739258" lon="7.18285179138184"><ele></ele><time>2013-8-4T21:34:19Z</time></trkpt>
<trkpt lat="45.8787078857422" lon="7.18285512924194"><ele></ele><time>2013-8-4T21:34:22Z</time></trkpt>
<trkpt lat="45.8786849975586" lon="7.182861328125"><ele></ele><time>2013-8-4T21:34:25Z</time></trkpt>
<trkpt lat="45.8786201477051" lon="7.18287706375122"><ele></ele><time>2013-8-4T21:34:28Z</time></trkpt>
<trkpt lat="45.8786010742188" lon="7.18288469314575"><ele></ele><time>2013-8-4T21:34:31Z</time></trkpt>
<trkpt lat="45.8785781860352" lon="7.18288993835449"><ele></ele><time>2013-8-4T21:34:34Z</time></trkpt>
<trkpt lat="45.8785552978516" lon="7.18289995193482"><ele></ele><time>2013-8-4T21:34:37Z</time></trkpt>
<trkpt lat="45.8784866333008" lon="7.18291473388672"><ele></ele><time>2013-8-4T21:34:40Z</time></trkpt>
<trkpt lat="45.8784637451172" lon="7.18291807174683"><ele></ele><time>2013-8-4T21:34:43Z</time></trkpt>
<trkpt lat="45.8784408569336" lon="7.1829195022583"><ele></ele><time>2013-8-4T21:34:46Z</time></trkpt>
<trkpt lat="45.87841796875" lon="7.18292713165283"><ele></ele><time>2013-8-4T21:34:49Z</time></trkpt>
<trkpt lat="45.8783950805664" lon="7.18293046951294"><ele></ele><time>2013-8-4T21:34:52Z</time></trkpt>
<trkpt lat="45.8783531188965" lon="7.18293380737305"><ele></ele><time>2013-8-4T21:34:55Z</time></trkpt>
<trkpt lat="45.8783264160156" lon="7.18293809890747"><ele></ele><time>2013-8-4T21:34:58Z</time></trkpt>
<trkpt lat="45.878303527832" lon="7.18294620513916"><ele></ele><time>2013-8-4T21:35:1Z</time></trkpt>
<trkpt lat="45.8782844543457" lon="7.18294811248779"><ele></ele><time>2013-8-4T21:35:4Z</time></trkpt>
<trkpt lat="45.8782653808594" lon="7.18294763565064"><ele></ele><time>2013-8-4T21:35:7Z</time></trkpt>
<trkpt lat="45.8782005310059" lon="7.18294334411621"><ele></ele><time>2013-8-4T21:35:10Z</time></trkpt>
<trkpt lat="45.8781089782715" lon="7.18296051025391"><ele></ele><time>2013-8-4T21:35:13Z</time></trkpt>
<trkpt lat="45.8780899047852" lon="7.1829628944397"><ele></ele><time>2013-8-4T21:35:16Z</time></trkpt>
<trkpt lat="45.8780632019043" lon="7.18297004699707"><ele></ele><time>2013-8-4T21:35:19Z</time></trkpt>
<trkpt lat="45.878044128418" lon="7.18297719955444"><ele></ele><time>2013-8-4T21:35:22Z</time></trkpt>
<trkpt lat="45.8780212402344" lon="7.18298101425171"><ele></ele><time>2013-8-4T21:35:25Z</time></trkpt>
<trkpt lat="45.878002166748" lon="7.18298721313476"><ele></ele><time>2013-8-4T21:35:28Z</time></trkpt>
<trkpt lat="45.8779602050781" lon="7.18299007415772"><ele></ele><time>2013-8-4T21:35:31Z</time></trkpt>
<trkpt lat="45.8779373168945" lon="7.18299007415772"><ele></ele><time>2013-8-4T21:35:34Z</time></trkpt>
<trkpt lat="45.8779144287109" lon="7.18299674987793"><ele></ele><time>2013-8-4T21:35:37Z</time></trkpt>
<trkpt lat="45.8778877258301" lon="7.18299913406372"><ele></ele><time>2013-8-4T21:35:40Z</time></trkpt>
<trkpt lat="45.8778686523438" lon="7.18300580978394"><ele></ele><time>2013-8-4T21:35:43Z</time></trkpt>
<trkpt lat="45.8778495788574" lon="7.18300819396973"><ele></ele><time>2013-8-4T21:35:46Z</time></trkpt>
<trkpt lat="45.8778266906738" lon="7.18301296234131"><ele></ele><time>2013-8-4T21:35:49Z</time></trkpt>
<trkpt lat="45.8778038024902" lon="7.18301153182983"><ele></ele><time>2013-8-4T21:35:52Z</time></trkpt>
<trkpt lat="45.8777770996094" lon="7.1830153465271"><ele></ele><time>2013-8-4T21:35:55Z</time></trkpt>
<trkpt lat="45.8777542114258" lon="7.18301486968994"><ele></ele><time>2013-8-4T21:35:58Z</time></trkpt>
<trkpt lat="45.8776588439941" lon="7.18300771713257"><ele></ele><time>2013-8-4T21:36:1Z</time></trkpt>
<trkpt lat="45.8775634765625" lon="7.18296480178833"><ele></ele><time>2013-8-4T21:36:4Z</time></trkpt>
<trkpt lat="45.8775482177734" lon="7.18294811248779"><ele></ele><time>2013-8-4T21:36:7Z</time></trkpt>
<trkpt lat="45.8775329589844" lon="7.18293190002441"><ele></ele><time>2013-8-4T21:36:10Z</time></trkpt>
<trkpt lat="45.877513885498" lon="7.18291997909546"><ele></ele><time>2013-8-4T21:36:13Z</time></trkpt>
<trkpt lat="45.8774604797363" lon="7.18286418914795"><ele></ele><time>2013-8-4T21:36:16Z</time></trkpt>
<trkpt lat="45.87744140625" lon="7.18285083770752"><ele></ele><time>2013-8-4T21:36:19Z</time></trkpt>
<trkpt lat="45.8774261474609" lon="7.18283891677856"><ele></ele><time>2013-8-4T21:36:22Z</time></trkpt>
<trkpt lat="45.8774108886719" lon="7.18282175064087"><ele></ele><time>2013-8-4T21:36:25Z</time></trkpt>
<trkpt lat="45.8773994445801" lon="7.18280649185181"><ele></ele><time>2013-8-4T21:36:28Z</time></trkpt>
<trkpt lat="45.8772850036621" lon="7.18270015716553"><ele></ele><time>2013-8-4T21:36:31Z</time></trkpt>
<trkpt lat="45.8772621154785" lon="7.18268871307373"><ele></ele><time>2013-8-4T21:36:34Z</time></trkpt>
<trkpt lat="45.8772430419922" lon="7.18267965316772"><ele></ele><time>2013-8-4T21:36:37Z</time></trkpt>
<trkpt lat="45.8772239685059" lon="7.18266439437866"><ele></ele><time>2013-8-4T21:36:40Z</time></trkpt>
<trkpt lat="45.8772087097168" lon="7.18265533447266"><ele></ele><time>2013-8-4T21:36:43Z</time></trkpt>
<trkpt lat="45.8771553039551" lon="7.1826171875"><ele></ele><time>2013-8-4T21:36:46Z</time></trkpt>
<trkpt lat="45.8770904541016" lon="7.18254041671753"><ele></ele><time>2013-8-4T21:36:49Z</time></trkpt>
<trkpt lat="45.8770790100098" lon="7.18252086639404"><ele></ele><time>2013-8-4T21:36:52Z</time></trkpt>
<trkpt lat="45.8770599365234" lon="7.18251037597656"><ele></ele><time>2013-8-4T21:36:55Z</time></trkpt>
<trkpt lat="45.8770446777344" lon="7.18249750137329"><ele></ele><time>2013-8-4T21:36:58Z</time></trkpt>
<trkpt lat="45.8769874572754" lon="7.182448387146"><ele></ele><time>2013-8-4T21:37:1Z</time></trkpt>
<trkpt lat="45.8768920898438" lon="7.18239164352417"><ele></ele><time>2013-8-4T21:37:4Z</time></trkpt>
<trkpt lat="45.8768768310547" lon="7.18237638473511"><ele></ele><time>2013-8-4T21:37:7Z</time></trkpt>
<trkpt lat="45.8768615722656" lon="7.18235874176025"><ele></ele><time>2013-8-4T21:37:10Z</time></trkpt>
<trkpt lat="45.8768463134766" lon="7.18234586715698"><ele></ele><time>2013-8-4T21:37:13Z</time></trkpt>
<trkpt lat="45.8768272399902" lon="7.18233156204224"><ele></ele><time>2013-8-4T21:37:16Z</time></trkpt>
<trkpt lat="45.8767471313477" lon="7.18228435516357"><ele></ele><time>2013-8-4T21:37:19Z</time></trkpt>
<trkpt lat="45.8767242431641" lon="7.18226957321167"><ele></ele><time>2013-8-4T21:37:22Z</time></trkpt>
<trkpt lat="45.8767051696777" lon="7.18225812911987"><ele></ele><time>2013-8-4T21:37:25Z</time></trkpt>
<trkpt lat="45.8766822814941" lon="7.18224954605102"><ele></ele><time>2013-8-4T21:37:28Z</time></trkpt>
<trkpt lat="45.8766632080078" lon="7.18223857879639"><ele></ele><time>2013-8-4T21:37:31Z</time></trkpt>
<trkpt lat="45.8766250610352" lon="7.18220567703247"><ele></ele><time>2013-8-4T21:37:34Z</time></trkpt>
<trkpt lat="45.8766059875488" lon="7.18218517303467"><ele></ele><time>2013-8-4T21:37:37Z</time></trkpt>
<trkpt lat="45.8765869140625" lon="7.18216705322266"><ele></ele><time>2013-8-4T21:37:40Z</time></trkpt>
<trkpt lat="45.8765678405762" lon="7.18215894699097"><ele></ele><time>2013-8-4T21:37:43Z</time></trkpt>
<trkpt lat="45.8765563964844" lon="7.18213987350464"><ele></ele><time>2013-8-4T21:37:46Z</time></trkpt>
<trkpt lat="45.8765335083008" lon="7.18212938308716"><ele></ele><time>2013-8-4T21:37:49Z</time></trkpt>
<trkpt lat="45.8764495849609" lon="7.18206930160522"><ele></ele><time>2013-8-4T21:37:52Z</time></trkpt>
<trkpt lat="45.8764343261719" lon="7.18205881118774"><ele></ele><time>2013-8-4T21:37:55Z</time></trkpt>
<trkpt lat="45.8764114379883" lon="7.18203067779541"><ele></ele><time>2013-8-4T21:37:58Z</time></trkpt>
<trkpt lat="45.876392364502" lon="7.18201398849487"><ele></ele><time>2013-8-4T21:38:1Z</time></trkpt>
<trkpt lat="45.8763732910156" lon="7.18199157714844"><ele></ele><time>2013-8-4T21:38:4Z</time></trkpt>
<trkpt lat="45.8763008117676" lon="7.18192863464356"><ele></ele><time>2013-8-4T21:38:7Z</time></trkpt>
<trkpt lat="45.8762550354004" lon="7.18189001083374"><ele></ele><time>2013-8-4T21:38:10Z</time></trkpt>
<trkpt lat="45.8762397766113" lon="7.18187046051025"><ele></ele><time>2013-8-4T21:38:13Z</time></trkpt>
<trkpt lat="45.876220703125" lon="7.18184661865234"><ele></ele><time>2013-8-4T21:38:16Z</time></trkpt>
<trkpt lat="45.8762016296387" lon="7.18183135986328"><ele></ele><time>2013-8-4T21:38:19Z</time></trkpt>
<trkpt lat="45.8761863708496" lon="7.18180704116821"><ele></ele><time>2013-8-4T21:38:22Z</time></trkpt>
<trkpt lat="45.8761329650879" lon="7.18176317214966"><ele></ele><time>2013-8-4T21:38:25Z</time></trkpt>
<trkpt lat="45.8761138916016" lon="7.18173694610596"><ele></ele><time>2013-8-4T21:38:28Z</time></trkpt>
<trkpt lat="45.8760986328125" lon="7.18171215057373"><ele></ele><time>2013-8-4T21:38:31Z</time></trkpt>
<trkpt lat="45.8760871887207" lon="7.18168592453003"><ele></ele><time>2013-8-4T21:38:34Z</time></trkpt>
<trkpt lat="45.8760719299316" lon="7.18166399002075"><ele></ele><time>2013-8-4T21:38:37Z</time></trkpt>
<trkpt lat="45.876049041748" lon="7.18164014816284"><ele></ele><time>2013-8-4T21:38:40Z</time></trkpt>
<trkpt lat="45.8760299682617" lon="7.18161964416504"><ele></ele><time>2013-8-4T21:38:43Z</time></trkpt>
<trkpt lat="45.8759956359863" lon="7.18158960342407"><ele></ele><time>2013-8-4T21:38:46Z</time></trkpt>
<trkpt lat="45.8759078979492" lon="7.18154335021973"><ele></ele><time>2013-8-4T21:38:49Z</time></trkpt>
<trkpt lat="45.8758850097656" lon="7.1815299987793"><ele></ele><time>2013-8-4T21:38:52Z</time></trkpt>
<trkpt lat="45.8758659362793" lon="7.18152523040772"><ele></ele><time>2013-8-4T21:38:55Z</time></trkpt>
<trkpt lat="45.8758430480957" lon="7.18151664733887"><ele></ele><time>2013-8-4T21:38:58Z</time></trkpt>
<trkpt lat="45.8758239746094" lon="7.18150281906128"><ele></ele><time>2013-8-4T21:39:1Z</time></trkpt>
<trkpt lat="45.875804901123" lon="7.18149328231812"><ele></ele><time>2013-8-4T21:39:4Z</time></trkpt>
<trkpt lat="45.8756980895996" lon="7.1814694404602"><ele></ele><time>2013-8-4T21:39:7Z</time></trkpt>
<trkpt lat="45.875659942627" lon="7.18145608901978"><ele></ele><time>2013-8-4T21:39:10Z</time></trkpt>
<trkpt lat="45.8756408691406" lon="7.18144941329956"><ele></ele><time>2013-8-4T21:39:13Z</time></trkpt>
<trkpt lat="45.875617980957" lon="7.18144035339356"><ele></ele><time>2013-8-4T21:39:16Z</time></trkpt>
<trkpt lat="45.8755989074707" lon="7.18142223358154"><ele></ele><time>2013-8-4T21:39:19Z</time></trkpt>
<trkpt lat="45.8755493164062" lon="7.18139362335205"><ele></ele><time>2013-8-4T21:39:22Z</time></trkpt>
<trkpt lat="45.8755302429199" lon="7.18138694763184"><ele></ele><time>2013-8-4T21:39:25Z</time></trkpt>
<trkpt lat="45.8755073547363" lon="7.18137407302856"><ele></ele><time>2013-8-4T21:39:28Z</time></trkpt>
<trkpt lat="45.87548828125" lon="7.18136405944824"><ele></ele><time>2013-8-4T21:39:31Z</time></trkpt>
<trkpt lat="45.8754653930664" lon="7.18135595321655"><ele></ele><time>2013-8-4T21:39:34Z</time></trkpt>
<trkpt lat="45.8754386901856" lon="7.18133974075317"><ele></ele><time>2013-8-4T21:39:37Z</time></trkpt>
<trkpt lat="45.8753967285156" lon="7.18131160736084"><ele></ele><time>2013-8-4T21:39:40Z</time></trkpt>
<trkpt lat="45.8752822875977" lon="7.1812539100647"><ele></ele><time>2013-8-4T21:39:43Z</time></trkpt>
<trkpt lat="45.8752593994141" lon="7.18124771118164"><ele></ele><time>2013-8-4T21:39:46Z</time></trkpt>
<trkpt lat="45.8752365112305" lon="7.18124437332153"><ele></ele><time>2013-8-4T21:39:49Z</time></trkpt>
<trkpt lat="45.8752059936523" lon="7.18123722076416"><ele></ele><time>2013-8-4T21:39:52Z</time></trkpt>
<trkpt lat="45.8751792907715" lon="7.18122959136963"><ele></ele><time>2013-8-4T21:39:55Z</time></trkpt>
<trkpt lat="45.8751564025879" lon="7.18121433258057"><ele></ele><time>2013-8-4T21:39:58Z</time></trkpt>
<trkpt lat="45.875114440918" lon="7.18120765686035"><ele></ele><time>2013-8-4T21:40:1Z</time></trkpt>
<trkpt lat="45.8750228881836" lon="7.18120908737183"><ele></ele><time>2013-8-4T21:40:4Z</time></trkpt>
<trkpt lat="45.875" lon="7.1812105178833"><ele></ele><time>2013-8-4T21:40:7Z</time></trkpt>
<trkpt lat="45.8749771118164" lon="7.18120813369751"><ele></ele><time>2013-8-4T21:40:10Z</time></trkpt>
<trkpt lat="45.8749504089356" lon="7.18120908737183"><ele></ele><time>2013-8-4T21:40:13Z</time></trkpt>
<trkpt lat="45.8749313354492" lon="7.18119239807129"><ele></ele><time>2013-8-4T21:40:16Z</time></trkpt>
<trkpt lat="45.8748397827148" lon="7.1811580657959"><ele></ele><time>2013-8-4T21:40:19Z</time></trkpt>
<trkpt lat="45.8748207092285" lon="7.18114471435547"><ele></ele><time>2013-8-4T21:40:22Z</time></trkpt>
<trkpt lat="45.8748054504394" lon="7.18113613128662"><ele></ele><time>2013-8-4T21:40:25Z</time></trkpt>
<trkpt lat="45.8747825622559" lon="7.18113136291504"><ele></ele><time>2013-8-4T21:40:28Z</time></trkpt>
<trkpt lat="45.8747596740723" lon="7.18111085891724"><ele></ele><time>2013-8-4T21:40:31Z</time></trkpt>
<trkpt lat="45.8746871948242" lon="7.18105554580688"><ele></ele><time>2013-8-4T21:40:34Z</time></trkpt>
<trkpt lat="45.8746337890625" lon="7.18101835250854"><ele></ele><time>2013-8-4T21:40:37Z</time></trkpt>
<trkpt lat="45.8746109008789" lon="7.18100643157959"><ele></ele><time>2013-8-4T21:40:40Z</time></trkpt>
<trkpt lat="45.8745956420898" lon="7.18099355697632"><ele></ele><time>2013-8-4T21:40:43Z</time></trkpt>
<trkpt lat="45.8745803833008" lon="7.18097972869873"><ele></ele><time>2013-8-4T21:40:46Z</time></trkpt>
<trkpt lat="45.8745574951172" lon="7.18097496032715"><ele></ele><time>2013-8-4T21:40:49Z</time></trkpt>
<trkpt lat="45.8744506835938" lon="7.18090867996216"><ele></ele><time>2013-8-4T21:40:52Z</time></trkpt>
<trkpt lat="45.8744316101074" lon="7.18089532852173"><ele></ele><time>2013-8-4T21:40:55Z</time></trkpt>
<trkpt lat="45.8744125366211" lon="7.1808876991272"><ele></ele><time>2013-8-4T21:40:58Z</time></trkpt>
<trkpt lat="45.8743934631348" lon="7.18088626861572"><ele></ele><time>2013-8-4T21:41:1Z</time></trkpt>
<trkpt lat="45.8743705749512" lon="7.18087816238403"><ele></ele><time>2013-8-4T21:41:4Z</time></trkpt>
<trkpt lat="45.8742752075195" lon="7.18087196350098"><ele></ele><time>2013-8-4T21:41:7Z</time></trkpt>
<trkpt lat="45.8742332458496" lon="7.18087148666382"><ele></ele><time>2013-8-4T21:41:10Z</time></trkpt>
<trkpt lat="45.8742141723633" lon="7.18087196350098"><ele></ele><time>2013-8-4T21:41:13Z</time></trkpt>
<trkpt lat="45.874195098877" lon="7.18087005615234"><ele></ele><time>2013-8-4T21:41:16Z</time></trkpt>
<trkpt lat="45.8741722106934" lon="7.18086624145508"><ele></ele><time>2013-8-4T21:41:19Z</time></trkpt>
<trkpt lat="45.874153137207" lon="7.18087005615234"><ele></ele><time>2013-8-4T21:41:22Z</time></trkpt>
<trkpt lat="45.8741264343262" lon="7.1808648109436"><ele></ele><time>2013-8-4T21:41:25Z</time></trkpt>
<trkpt lat="45.8740005493164" lon="7.18084764480591"><ele></ele><time>2013-8-4T21:41:28Z</time></trkpt>
<trkpt lat="45.8739852905273" lon="7.18083000183106"><ele></ele><time>2013-8-4T21:41:31Z</time></trkpt>
<trkpt lat="45.8739700317383" lon="7.18080949783325"><ele></ele><time>2013-8-4T21:41:34Z</time></trkpt>
<trkpt lat="45.873950958252" lon="7.18077898025513"><ele></ele><time>2013-8-4T21:41:37Z</time></trkpt>
<trkpt lat="45.8739395141602" lon="7.18074893951416"><ele></ele><time>2013-8-4T21:41:40Z</time></trkpt>
<trkpt lat="45.873950958252" lon="7.18068838119507"><ele></ele><time>2013-8-4T21:41:43Z</time></trkpt>
<trkpt lat="45.8740425109863" lon="7.1805591583252"><ele></ele><time>2013-8-4T21:41:46Z</time></trkpt>
<trkpt lat="45.8740615844727" lon="7.18052864074707"><ele></ele><time>2013-8-4T21:41:49Z</time></trkpt>
<trkpt lat="45.874080657959" lon="7.18050384521484"><ele></ele><time>2013-8-4T21:41:52Z</time></trkpt>
<trkpt lat="45.8741035461426" lon="7.18048048019409"><ele></ele><time>2013-8-4T21:41:55Z</time></trkpt>
<trkpt lat="45.8741264343262" lon="7.1804609298706"><ele></ele><time>2013-8-4T21:41:58Z</time></trkpt>
<trkpt lat="45.8741760253906" lon="7.18041086196899"><ele></ele><time>2013-8-4T21:42:1Z</time></trkpt>
<trkpt lat="45.8742561340332" lon="7.18033123016357"><ele></ele><time>2013-8-4T21:42:4Z</time></trkpt>
<trkpt lat="45.8742752075195" lon="7.18031120300293"><ele></ele><time>2013-8-4T21:42:7Z</time></trkpt>
<trkpt lat="45.8742904663086" lon="7.18029260635376"><ele></ele><time>2013-8-4T21:42:10Z</time></trkpt>
<trkpt lat="45.8743095397949" lon="7.18027591705322"><ele></ele><time>2013-8-4T21:42:13Z</time></trkpt>
<trkpt lat="45.8743286132812" lon="7.18025875091553"><ele></ele><time>2013-8-4T21:42:16Z</time></trkpt>
<trkpt lat="45.8743667602539" lon="7.18021774291992"><ele></ele><time>2013-8-4T21:42:19Z</time></trkpt>
<trkpt lat="45.8743858337402" lon="7.18019676208496"><ele></ele><time>2013-8-4T21:42:22Z</time></trkpt>
<trkpt lat="45.8744049072266" lon="7.18017768859863"><ele></ele><time>2013-8-4T21:42:25Z</time></trkpt>
<trkpt lat="45.8744239807129" lon="7.1801609992981"><ele></ele><time>2013-8-4T21:42:28Z</time></trkpt>
<trkpt lat="45.8744430541992" lon="7.18014430999756"><ele></ele><time>2013-8-4T21:42:31Z</time></trkpt>
<trkpt lat="45.8744621276856" lon="7.18013048171997"><ele></ele><time>2013-8-4T21:42:34Z</time></trkpt>
<trkpt lat="45.8745193481445" lon="7.18009090423584"><ele></ele><time>2013-8-4T21:42:37Z</time></trkpt>
<trkpt lat="45.8745384216309" lon="7.1800799369812"><ele></ele><time>2013-8-4T21:42:40Z</time></trkpt>
<trkpt lat="45.8745613098144" lon="7.18007326126099"><ele></ele><time>2013-8-4T21:42:43Z</time></trkpt>
<trkpt lat="45.8745803833008" lon="7.18006801605225"><ele></ele><time>2013-8-4T21:42:46Z</time></trkpt>
<trkpt lat="45.8745994567871" lon="7.18005752563476"><ele></ele><time>2013-8-4T21:42:49Z</time></trkpt>
<trkpt lat="45.874641418457" lon="7.18004608154297"><ele></ele><time>2013-8-4T21:42:52Z</time></trkpt>
<trkpt lat="45.8747291564941" lon="7.1800365447998"><ele></ele><time>2013-8-4T21:42:55Z</time></trkpt>
<trkpt lat="45.8747482299805" lon="7.18003845214844"><ele></ele><time>2013-8-4T21:42:58Z</time></trkpt>
<trkpt lat="45.8747673034668" lon="7.18004369735718"><ele></ele><time>2013-8-4T21:43:1Z</time></trkpt>
<trkpt lat="45.8747901916504" lon="7.18005084991455"><ele></ele><time>2013-8-4T21:43:4Z</time></trkpt>
<trkpt lat="45.8748092651367" lon="7.18005704879761"><ele></ele><time>2013-8-4T21:43:7Z</time></trkpt>
<trkpt lat="45.8749008178711" lon="7.18005800247192"><ele></ele><time>2013-8-4T21:43:10Z</time></trkpt>
<trkpt lat="45.8749237060547" lon="7.18006134033203"><ele></ele><time>2013-8-4T21:43:13Z</time></trkpt>
<trkpt lat="45.8749465942383" lon="7.18006467819214"><ele></ele><time>2013-8-4T21:43:16Z</time></trkpt>
<trkpt lat="45.8749694824219" lon="7.18006944656372"><ele></ele><time>2013-8-4T21:43:19Z</time></trkpt>
<trkpt lat="45.8749923706055" lon="7.18007850646973"><ele></ele><time>2013-8-4T21:43:22Z</time></trkpt>
<trkpt lat="45.8751411437988" lon="7.18010663986206"><ele></ele><time>2013-8-4T21:43:25Z</time></trkpt>
<trkpt lat="45.8751602172852" lon="7.18010854721069"><ele></ele><time>2013-8-4T21:43:28Z</time></trkpt>
<trkpt lat="45.8751792907715" lon="7.18010520935059"><ele></ele><time>2013-8-4T21:43:31Z</time></trkpt>
<trkpt lat="45.8751983642578" lon="7.18010091781616"><ele></ele><time>2013-8-4T21:43:34Z</time></trkpt>
<trkpt lat="45.8752250671387" lon="7.18009090423584"><ele></ele><time>2013-8-4T21:43:37Z</time></trkpt>
<trkpt lat="45.8752670288086" lon="7.1800684928894"><ele></ele><time>2013-8-4T21:43:40Z</time></trkpt>
<trkpt lat="45.8753089904785" lon="7.18004989624024"><ele></ele><time>2013-8-4T21:43:43Z</time></trkpt>
<trkpt lat="45.8753280639648" lon="7.18003845214844"><ele></ele><time>2013-8-4T21:43:46Z</time></trkpt>
<trkpt lat="45.8753509521484" lon="7.18002653121948"><ele></ele><time>2013-8-4T21:43:49Z</time></trkpt>
<trkpt lat="45.8753700256348" lon="7.18001222610474"><ele></ele><time>2013-8-4T21:43:52Z</time></trkpt>
<trkpt lat="45.8753890991211" lon="7.17999887466431"><ele></ele><time>2013-8-4T21:43:55Z</time></trkpt>
<trkpt lat="45.8754081726074" lon="7.17998647689819"><ele></ele><time>2013-8-4T21:43:58Z</time></trkpt>
<trkpt lat="45.8754463195801" lon="7.17996311187744"><ele></ele><time>2013-8-4T21:44:1Z</time></trkpt>
<trkpt lat="45.8754692077637" lon="7.1799521446228"><ele></ele><time>2013-8-4T21:44:4Z</time></trkpt>
<trkpt lat="45.8754920959473" lon="7.17994070053101"><ele></ele><time>2013-8-4T21:44:7Z</time></trkpt>
<trkpt lat="45.8755111694336" lon="7.17992830276489"><ele></ele><time>2013-8-4T21:44:10Z</time></trkpt>
<trkpt lat="45.875560760498" lon="7.17990446090698"><ele></ele><time>2013-8-4T21:44:13Z</time></trkpt>
<trkpt lat="45.8756103515625" lon="7.17989110946655"><ele></ele><time>2013-8-4T21:44:16Z</time></trkpt>
<trkpt lat="45.8756370544434" lon="7.17988729476929"><ele></ele><time>2013-8-4T21:44:19Z</time></trkpt>
<trkpt lat="45.875659942627" lon="7.17988872528076"><ele></ele><time>2013-8-4T21:44:22Z</time></trkpt>
<trkpt lat="45.8756828308106" lon="7.17988967895508"><ele></ele><time>2013-8-4T21:44:25Z</time></trkpt>
<trkpt lat="45.8757095336914" lon="7.1798939704895"><ele></ele><time>2013-8-4T21:44:28Z</time></trkpt>
<trkpt lat="45.875732421875" lon="7.17990350723267"><ele></ele><time>2013-8-4T21:44:31Z</time></trkpt>
<trkpt lat="45.8758583068848" lon="7.17998552322388"><ele></ele><time>2013-8-4T21:44:34Z</time></trkpt>
<trkpt lat="45.8758773803711" lon="7.17999744415283"><ele></ele><time>2013-8-4T21:44:37Z</time></trkpt>
<trkpt lat="45.8758964538574" lon="7.1800103187561"><ele></ele><time>2013-8-4T21:44:40Z</time></trkpt>
<trkpt lat="45.875919342041" lon="7.18002223968506"><ele></ele><time>2013-8-4T21:44:43Z</time></trkpt>
<trkpt lat="45.8759384155273" lon="7.18003702163696"><ele></ele><time>2013-8-4T21:44:46Z</time></trkpt>
<trkpt lat="45.8760223388672" lon="7.18008995056152"><ele></ele><time>2013-8-4T21:44:49Z</time></trkpt>
<trkpt lat="45.876163482666" lon="7.18016910552978"><ele></ele><time>2013-8-4T21:44:52Z</time></trkpt>
<trkpt lat="45.8761825561523" lon="7.18018102645874"><ele></ele><time>2013-8-4T21:44:55Z</time></trkpt>
<trkpt lat="45.8762054443359" lon="7.18018865585327"><ele></ele><time>2013-8-4T21:44:58Z</time></trkpt>
<trkpt lat="45.8762283325195" lon="7.18019723892212"><ele></ele><time>2013-8-4T21:45:1Z</time></trkpt>
<trkpt lat="45.8762512207031" lon="7.18020629882812"><ele></ele><time>2013-8-4T21:45:4Z</time></trkpt>
<trkpt lat="45.8762741088867" lon="7.18021392822266"><ele></ele><time>2013-8-4T21:45:7Z</time></trkpt>
<trkpt lat="45.8763389587402" lon="7.18023586273193"><ele></ele><time>2013-8-4T21:45:10Z</time></trkpt>
<trkpt lat="45.8763885498047" lon="7.18024110794067"><ele></ele><time>2013-8-4T21:45:13Z</time></trkpt>
<trkpt lat="45.8764114379883" lon="7.18025159835815"><ele></ele><time>2013-8-4T21:45:16Z</time></trkpt>
<trkpt lat="45.8764305114746" lon="7.180260181427"><ele></ele><time>2013-8-4T21:45:19Z</time></trkpt>
<trkpt lat="45.8764572143555" lon="7.18026542663574"><ele></ele><time>2013-8-4T21:45:22Z</time></trkpt>
<trkpt lat="45.8764839172363" lon="7.1802659034729"><ele></ele><time>2013-8-4T21:45:25Z</time></trkpt>
<trkpt lat="45.8765068054199" lon="7.1802659034729"><ele></ele><time>2013-8-4T21:45:28Z</time></trkpt>
<trkpt lat="45.8766403198242" lon="7.1802659034729"><ele></ele><time>2013-8-4T21:45:31Z</time></trkpt>
<trkpt lat="45.8766670227051" lon="7.18027067184448"><ele></ele><time>2013-8-4T21:45:34Z</time></trkpt>
<trkpt lat="45.8766937255859" lon="7.18027353286743"><ele></ele><time>2013-8-4T21:45:37Z</time></trkpt>
<trkpt lat="45.8767204284668" lon="7.18027782440186"><ele></ele><time>2013-8-4T21:45:40Z</time></trkpt>
<trkpt lat="45.8767509460449" lon="7.18027830123901"><ele></ele><time>2013-8-4T21:45:43Z</time></trkpt>
<trkpt lat="45.876781463623" lon="7.18027210235596"><ele></ele><time>2013-8-4T21:45:46Z</time></trkpt>
<trkpt lat="45.8768043518066" lon="7.18025922775268"><ele></ele><time>2013-8-4T21:45:49Z</time></trkpt>
<trkpt lat="45.876823425293" lon="7.18023872375488"><ele></ele><time>2013-8-4T21:45:52Z</time></trkpt>
<trkpt lat="45.8768348693848" lon="7.18021583557129"><ele></ele><time>2013-8-4T21:45:55Z</time></trkpt>
<trkpt lat="45.8768272399902" lon="7.18008089065552"><ele></ele><time>2013-8-4T21:45:58Z</time></trkpt>
<trkpt lat="45.8767356872559" lon="7.18002128601074"><ele></ele><time>2013-8-4T21:46:1Z</time></trkpt>
<trkpt lat="45.876708984375" lon="7.18001651763916"><ele></ele><time>2013-8-4T21:46:4Z</time></trkpt>
<trkpt lat="45.8765525817871" lon="7.18003988265991"><ele></ele><time>2013-8-4T21:46:7Z</time></trkpt>
<trkpt lat="45.8765258789062" lon="7.18004179000854"><ele></ele><time>2013-8-4T21:46:10Z</time></trkpt>
<trkpt lat="45.8765029907227" lon="7.18003797531128"><ele></ele><time>2013-8-4T21:46:13Z</time></trkpt>
<trkpt lat="45.8764724731445" lon="7.18003511428833"><ele></ele><time>2013-8-4T21:46:16Z</time></trkpt>
<trkpt lat="45.8764457702637" lon="7.18002653121948"><ele></ele><time>2013-8-4T21:46:19Z</time></trkpt>
<trkpt lat="45.8764228820801" lon="7.18001651763916"><ele></ele><time>2013-8-4T21:46:22Z</time></trkpt>
<trkpt lat="45.8763999938965" lon="7.1800012588501"><ele></ele><time>2013-8-4T21:46:25Z</time></trkpt>
<trkpt lat="45.8763771057129" lon="7.17998838424683"><ele></ele><time>2013-8-4T21:46:28Z</time></trkpt>
<trkpt lat="45.8763542175293" lon="7.17997598648071"><ele></ele><time>2013-8-4T21:46:31Z</time></trkpt>
<trkpt lat="45.876335144043" lon="7.17996120452881"><ele></ele><time>2013-8-4T21:46:34Z</time></trkpt>
<trkpt lat="45.8762893676758" lon="7.17993831634522"><ele></ele><time>2013-8-4T21:46:37Z</time></trkpt>
<trkpt lat="45.876220703125" lon="7.1798825263977"><ele></ele><time>2013-8-4T21:46:40Z</time></trkpt>
<trkpt lat="45.8761978149414" lon="7.1798677444458"><ele></ele><time>2013-8-4T21:46:43Z</time></trkpt>
<trkpt lat="45.8761711120606" lon="7.17985677719116"><ele></ele><time>2013-8-4T21:46:46Z</time></trkpt>
<trkpt lat="45.8761520385742" lon="7.17984533309936"><ele></ele><time>2013-8-4T21:46:49Z</time></trkpt>
<trkpt lat="45.8761329650879" lon="7.1798300743103"><ele></ele><time>2013-8-4T21:46:52Z</time></trkpt>
<trkpt lat="45.876033782959" lon="7.17972326278686"><ele></ele><time>2013-8-4T21:46:55Z</time></trkpt>
<trkpt lat="45.8760223388672" lon="7.17970561981201"><ele></ele><time>2013-8-4T21:46:58Z</time></trkpt>
<trkpt lat="45.8760070800781" lon="7.17967987060547"><ele></ele><time>2013-8-4T21:47:1Z</time></trkpt>
<trkpt lat="45.8759841918945" lon="7.17965459823608"><ele></ele><time>2013-8-4T21:47:4Z</time></trkpt>
<trkpt lat="45.8759651184082" lon="7.1796350479126"><ele></ele><time>2013-8-4T21:47:7Z</time></trkpt>
<trkpt lat="45.8759498596191" lon="7.17960786819458"><ele></ele><time>2013-8-4T21:47:10Z</time></trkpt>
<trkpt lat="45.8758659362793" lon="7.1794548034668"><ele></ele><time>2013-8-4T21:47:13Z</time></trkpt>
<trkpt lat="45.8758506774902" lon="7.17943525314331"><ele></ele><time>2013-8-4T21:47:16Z</time></trkpt>
<trkpt lat="45.8758354187012" lon="7.17941570281982"><ele></ele><time>2013-8-4T21:47:19Z</time></trkpt>
<trkpt lat="45.8758163452148" lon="7.1794023513794"><ele></ele><time>2013-8-4T21:47:22Z</time></trkpt>
<trkpt lat="45.8758010864258" lon="7.17938470840454"><ele></ele><time>2013-8-4T21:47:25Z</time></trkpt>
<trkpt lat="45.875732421875" lon="7.17931270599365"><ele></ele><time>2013-8-4T21:47:28Z</time></trkpt>
<trkpt lat="45.8756675720215" lon="7.17927551269531"><ele></ele><time>2013-8-4T21:47:31Z</time></trkpt>
<trkpt lat="45.8756484985352" lon="7.17926406860352"><ele></ele><time>2013-8-4T21:47:34Z</time></trkpt>
<trkpt lat="45.8756256103516" lon="7.17925357818604"><ele></ele><time>2013-8-4T21:47:37Z</time></trkpt>
<trkpt lat="45.875602722168" lon="7.17924642562866"><ele></ele><time>2013-8-4T21:47:40Z</time></trkpt>
<trkpt lat="45.8755798339844" lon="7.17924118041992"><ele></ele><time>2013-8-4T21:47:43Z</time></trkpt>
<trkpt lat="45.8755073547363" lon="7.17922401428223"><ele></ele><time>2013-8-4T21:47:46Z</time></trkpt>
<trkpt lat="45.8754844665527" lon="7.17922496795654"><ele></ele><time>2013-8-4T21:47:49Z</time></trkpt>
<trkpt lat="45.8754348754883" lon="7.17922067642212"><ele></ele><time>2013-8-4T21:47:52Z</time></trkpt>
<trkpt lat="45.875415802002" lon="7.17922592163086"><ele></ele><time>2013-8-4T21:47:55Z</time></trkpt>
<trkpt lat="45.8753929138184" lon="7.17923164367676"><ele></ele><time>2013-8-4T21:47:58Z</time></trkpt>
<trkpt lat="45.8753662109375" lon="7.17923450469971"><ele></ele><time>2013-8-4T21:48:1Z</time></trkpt>
<trkpt lat="45.8753356933594" lon="7.17923927307129"><ele></ele><time>2013-8-4T21:48:4Z</time></trkpt>
<trkpt lat="45.8752632141113" lon="7.17925930023193"><ele></ele><time>2013-8-4T21:48:7Z</time></trkpt>
<trkpt lat="45.8752174377441" lon="7.17926597595215"><ele></ele><time>2013-8-4T21:48:10Z</time></trkpt>
<trkpt lat="45.8751907348633" lon="7.17926692962646"><ele></ele><time>2013-8-4T21:48:13Z</time></trkpt>
<trkpt lat="45.8751678466797" lon="7.17927265167236"><ele></ele><time>2013-8-4T21:48:16Z</time></trkpt>
<trkpt lat="45.8751449584961" lon="7.17927598953247"><ele></ele><time>2013-8-4T21:48:19Z</time></trkpt>
<trkpt lat="45.8751258850098" lon="7.17927360534668"><ele></ele><time>2013-8-4T21:48:22Z</time></trkpt>
<trkpt lat="45.8751029968262" lon="7.17927169799805"><ele></ele><time>2013-8-4T21:48:25Z</time></trkpt>
<trkpt lat="45.8749847412109" lon="7.17920303344726"><ele></ele><time>2013-8-4T21:48:28Z</time></trkpt>
<trkpt lat="45.8749656677246" lon="7.17918729782104"><ele></ele><time>2013-8-4T21:48:31Z</time></trkpt>
<trkpt lat="45.8749465942383" lon="7.17917680740356"><ele></ele><time>2013-8-4T21:48:34Z</time></trkpt>
<trkpt lat="45.874927520752" lon="7.17916345596314"><ele></ele><time>2013-8-4T21:48:37Z</time></trkpt>
<trkpt lat="45.8748664855957" lon="7.17912483215332"><ele></ele><time>2013-8-4T21:48:40Z</time></trkpt>
<trkpt lat="45.8748474121094" lon="7.17911100387573"><ele></ele><time>2013-8-4T21:48:43Z</time></trkpt>
<trkpt lat="45.874828338623" lon="7.17910194396973"><ele></ele><time>2013-8-4T21:48:46Z</time></trkpt>
<trkpt lat="45.8748054504394" lon="7.17909049987793"><ele></ele><time>2013-8-4T21:48:49Z</time></trkpt>
<trkpt lat="45.8747863769531" lon="7.17908239364624"><ele></ele><time>2013-8-4T21:48:52Z</time></trkpt>
<trkpt lat="45.8746719360352" lon="7.17906522750854"><ele></ele><time>2013-8-4T21:48:55Z</time></trkpt>
<trkpt lat="45.8746452331543" lon="7.17907619476318"><ele></ele><time>2013-8-4T21:48:58Z</time></trkpt>
<trkpt lat="45.8746223449707" lon="7.17908382415772"><ele></ele><time>2013-8-4T21:49:1Z</time></trkpt>
<trkpt lat="45.8745994567871" lon="7.1790943145752"><ele></ele><time>2013-8-4T21:49:4Z</time></trkpt>
<trkpt lat="45.8745803833008" lon="7.17911052703857"><ele></ele><time>2013-8-4T21:49:7Z</time></trkpt>
<trkpt lat="45.8745079040527" lon="7.17916965484619"><ele></ele><time>2013-8-4T21:49:10Z</time></trkpt>
<trkpt lat="45.8744850158691" lon="7.1791877746582"><ele></ele><time>2013-8-4T21:49:13Z</time></trkpt>
<trkpt lat="45.8744621276856" lon="7.17920637130737"><ele></ele><time>2013-8-4T21:49:16Z</time></trkpt>
<trkpt lat="45.874439239502" lon="7.17922401428223"><ele></ele><time>2013-8-4T21:49:19Z</time></trkpt>
<trkpt lat="45.8744163513184" lon="7.17923831939697"><ele></ele><time>2013-8-4T21:49:22Z</time></trkpt>
<trkpt lat="45.8743934631348" lon="7.17925596237183"><ele></ele><time>2013-8-4T21:49:25Z</time></trkpt>
<trkpt lat="45.8743705749512" lon="7.17926788330078"><ele></ele><time>2013-8-4T21:49:28Z</time></trkpt>
<trkpt lat="45.8743438720703" lon="7.17927694320679"><ele></ele><time>2013-8-4T21:49:31Z</time></trkpt>
<trkpt lat="45.874324798584" lon="7.17927742004394"><ele></ele><time>2013-8-4T21:49:34Z</time></trkpt>
<trkpt lat="45.8743019104004" lon="7.17927694320679"><ele></ele><time>2013-8-4T21:49:37Z</time></trkpt>
<trkpt lat="45.8742828369141" lon="7.17927360534668"><ele></ele><time>2013-8-4T21:49:40Z</time></trkpt>
<trkpt lat="45.874210357666" lon="7.17924737930298"><ele></ele><time>2013-8-4T21:49:43Z</time></trkpt>
<trkpt lat="45.8740615844727" lon="7.17918109893799"><ele></ele><time>2013-8-4T21:49:46Z</time></trkpt>
<trkpt lat="45.8740425109863" lon="7.17916631698608"><ele></ele><time>2013-8-4T21:49:49Z</time></trkpt>
<trkpt lat="45.8740196228027" lon="7.17915105819702"><ele></ele><time>2013-8-4T21:49:52Z</time></trkpt>
<trkpt lat="45.8740005493164" lon="7.17913770675659"><ele></ele><time>2013-8-4T21:49:55Z</time></trkpt>
<trkpt lat="45.8739776611328" lon="7.17912912368774"><ele></ele><time>2013-8-4T21:49:58Z</time></trkpt>
<trkpt lat="45.873908996582" lon="7.17911434173584"><ele></ele><time>2013-8-4T21:50:1Z</time></trkpt>
<trkpt lat="45.8738861083984" lon="7.17910385131836"><ele></ele><time>2013-8-4T21:50:4Z</time></trkpt>
<trkpt lat="45.8738670349121" lon="7.17909240722656"><ele></ele><time>2013-8-4T21:50:7Z</time></trkpt>
<trkpt lat="45.873851776123" lon="7.17908096313476"><ele></ele><time>2013-8-4T21:50:10Z</time></trkpt>
<trkpt lat="45.8738288879394" lon="7.1790714263916"><ele></ele><time>2013-8-4T21:50:13Z</time></trkpt>
<trkpt lat="45.8738098144531" lon="7.17906379699707"><ele></ele><time>2013-8-4T21:50:16Z</time></trkpt>
<trkpt lat="45.8736763000488" lon="7.17904567718506"><ele></ele><time>2013-8-4T21:50:19Z</time></trkpt>
<trkpt lat="45.8736534118652" lon="7.17904901504517"><ele></ele><time>2013-8-4T21:50:22Z</time></trkpt>
<trkpt lat="45.8736267089844" lon="7.17905712127686"><ele></ele><time>2013-8-4T21:50:25Z</time></trkpt>
<trkpt lat="45.8736038208008" lon="7.17905378341675"><ele></ele><time>2013-8-4T21:50:28Z</time></trkpt>
<trkpt lat="45.8735771179199" lon="7.17905521392822"><ele></ele><time>2013-8-4T21:50:31Z</time></trkpt>
<trkpt lat="45.8735313415527" lon="7.17906808853149"><ele></ele><time>2013-8-4T21:50:34Z</time></trkpt>
<trkpt lat="45.8734588623047" lon="7.17908811569214"><ele></ele><time>2013-8-4T21:50:37Z</time></trkpt>
<trkpt lat="45.8734359741211" lon="7.17910051345825"><ele></ele><time>2013-8-4T21:50:40Z</time></trkpt>
<trkpt lat="45.8734130859375" lon="7.17910242080688"><ele></ele><time>2013-8-4T21:50:43Z</time></trkpt>
<trkpt lat="45.8733940124512" lon="7.17910766601562"><ele></ele><time>2013-8-4T21:50:46Z</time></trkpt>
<trkpt lat="45.8733711242676" lon="7.17911434173584"><ele></ele><time>2013-8-4T21:50:49Z</time></trkpt>
<trkpt lat="45.8732833862305" lon="7.17912435531616"><ele></ele><time>2013-8-4T21:50:52Z</time></trkpt>
<trkpt lat="45.8732604980469" lon="7.17912530899048"><ele></ele><time>2013-8-4T21:50:55Z</time></trkpt>
<trkpt lat="45.8732376098633" lon="7.17913150787354"><ele></ele><time>2013-8-4T21:50:58Z</time></trkpt>
<trkpt lat="45.873218536377" lon="7.17913389205933"><ele></ele><time>2013-8-4T21:51:1Z</time></trkpt>
<trkpt lat="45.8731956481934" lon="7.17913484573364"><ele></ele><time>2013-8-4T21:51:4Z</time></trkpt>
<trkpt lat="45.8731536865234" lon="7.17913055419922"><ele></ele><time>2013-8-4T21:51:7Z</time></trkpt>
<trkpt lat="45.8731346130371" lon="7.17912340164185"><ele></ele><time>2013-8-4T21:51:10Z</time></trkpt>
<trkpt lat="45.8731117248535" lon="7.17912435531616"><ele></ele><time>2013-8-4T21:51:13Z</time></trkpt>
<trkpt lat="45.8730926513672" lon="7.1791181564331"><ele></ele><time>2013-8-4T21:51:16Z</time></trkpt>
<trkpt lat="45.8730659484863" lon="7.17911243438721"><ele></ele><time>2013-8-4T21:51:19Z</time></trkpt>
<trkpt lat="45.8729820251465" lon="7.17910671234131"><ele></ele><time>2013-8-4T21:51:22Z</time></trkpt>
<trkpt lat="45.8729591369629" lon="7.17910146713257"><ele></ele><time>2013-8-4T21:51:25Z</time></trkpt>
<trkpt lat="45.8729400634766" lon="7.1790919303894"><ele></ele><time>2013-8-4T21:51:28Z</time></trkpt>
<trkpt lat="45.8729209899902" lon="7.1790771484375"><ele></ele><time>2013-8-4T21:51:31Z</time></trkpt>
<trkpt lat="45.8729019165039" lon="7.17906379699707"><ele></ele><time>2013-8-4T21:51:34Z</time></trkpt>
<trkpt lat="45.8728408813477" lon="7.17902755737305"><ele></ele><time>2013-8-4T21:51:37Z</time></trkpt>
<trkpt lat="45.8728218078613" lon="7.17902135848999"><ele></ele><time>2013-8-4T21:51:40Z</time></trkpt>
<trkpt lat="45.872802734375" lon="7.17901468276978"><ele></ele><time>2013-8-4T21:51:43Z</time></trkpt>
<trkpt lat="45.8727836608887" lon="7.17901277542114"><ele></ele><time>2013-8-4T21:51:46Z</time></trkpt>
<trkpt lat="45.8727607727051" lon="7.17901372909546"><ele></ele><time>2013-8-4T21:51:49Z</time></trkpt>
<trkpt lat="45.8727378845215" lon="7.17901611328125"><ele></ele><time>2013-8-4T21:51:52Z</time></trkpt>
<trkpt lat="45.8727149963379" lon="7.17901420593262"><ele></ele><time>2013-8-4T21:51:55Z</time></trkpt>
<trkpt lat="45.8725891113281" lon="7.17907238006592"><ele></ele><time>2013-8-4T21:51:58Z</time></trkpt>
<trkpt lat="45.8725624084473" lon="7.17908573150635"><ele></ele><time>2013-8-4T21:52:1Z</time></trkpt>
<trkpt lat="45.8725395202637" lon="7.17909812927246"><ele></ele><time>2013-8-4T21:52:4Z</time></trkpt>
<trkpt lat="45.8725204467773" lon="7.17911100387573"><ele></ele><time>2013-8-4T21:52:7Z</time></trkpt>
<trkpt lat="45.8725051879883" lon="7.17913198471069"><ele></ele><time>2013-8-4T21:52:10Z</time></trkpt>
<trkpt lat="45.8724670410156" lon="7.17916536331177"><ele></ele><time>2013-8-4T21:52:13Z</time></trkpt>
<trkpt lat="45.8723831176758" lon="7.17924404144287"><ele></ele><time>2013-8-4T21:52:16Z</time></trkpt>
<trkpt lat="45.8723678588867" lon="7.17926502227783"><ele></ele><time>2013-8-4T21:52:19Z</time></trkpt>
<trkpt lat="45.8723487854004" lon="7.17928314208984"><ele></ele><time>2013-8-4T21:52:22Z</time></trkpt>
<trkpt lat="45.8723335266113" lon="7.17929744720459"><ele></ele><time>2013-8-4T21:52:25Z</time></trkpt>
<trkpt lat="45.8722648620606" lon="7.17937326431274"><ele></ele><time>2013-8-4T21:52:28Z</time></trkpt>
<trkpt lat="45.8722457885742" lon="7.17939519882202"><ele></ele><time>2013-8-4T21:52:31Z</time></trkpt>
<trkpt lat="45.8722305297852" lon="7.17941427230835"><ele></ele><time>2013-8-4T21:52:34Z</time></trkpt>
<trkpt lat="45.8722152709961" lon="7.1794319152832"><ele></ele><time>2013-8-4T21:52:37Z</time></trkpt>
<trkpt lat="45.872200012207" lon="7.17944812774658"><ele></ele><time>2013-8-4T21:52:40Z</time></trkpt>
<trkpt lat="45.8721580505371" lon="7.17947578430176"><ele></ele><time>2013-8-4T21:52:43Z</time></trkpt>
<trkpt lat="45.8721389770508" lon="7.17948913574219"><ele></ele><time>2013-8-4T21:52:46Z</time></trkpt>
<trkpt lat="45.8721199035644" lon="7.17950105667114"><ele></ele><time>2013-8-4T21:52:49Z</time></trkpt>
<trkpt lat="45.8720970153809" lon="7.17951154708862"><ele></ele><time>2013-8-4T21:52:52Z</time></trkpt>
<trkpt lat="45.8720741271973" lon="7.17951726913452"><ele></ele><time>2013-8-4T21:52:55Z</time></trkpt>
<trkpt lat="45.8720512390137" lon="7.1795129776001"><ele></ele><time>2013-8-4T21:52:58Z</time></trkpt>
<trkpt lat="45.8720283508301" lon="7.17950868606567"><ele></ele><time>2013-8-4T21:53:1Z</time></trkpt>
<trkpt lat="45.8720092773438" lon="7.17950296401978"><ele></ele><time>2013-8-4T21:53:4Z</time></trkpt>
<trkpt lat="45.8719902038574" lon="7.17949390411377"><ele></ele><time>2013-8-4T21:53:7Z</time></trkpt>
<trkpt lat="45.8718681335449" lon="7.17937421798706"><ele></ele><time>2013-8-4T21:53:10Z</time></trkpt>
<trkpt lat="45.8718490600586" lon="7.17935562133789"><ele></ele><time>2013-8-4T21:53:13Z</time></trkpt>
<trkpt lat="45.8718299865723" lon="7.17934036254883"><ele></ele><time>2013-8-4T21:53:16Z</time></trkpt>
<trkpt lat="45.8718109130859" lon="7.17932033538818"><ele></ele><time>2013-8-4T21:53:19Z</time></trkpt>
<trkpt lat="45.8717918395996" lon="7.17930030822754"><ele></ele><time>2013-8-4T21:53:22Z</time></trkpt>
<trkpt lat="45.8717727661133" lon="7.17927932739258"><ele></ele><time>2013-8-4T21:53:25Z</time></trkpt>
<trkpt lat="45.8717422485352" lon="7.17923879623413"><ele></ele><time>2013-8-4T21:53:28Z</time></trkpt>
<trkpt lat="45.871639251709" lon="7.17912817001343"><ele></ele><time>2013-8-4T21:53:31Z</time></trkpt>
<trkpt lat="45.8716201782227" lon="7.17911052703857"><ele></ele><time>2013-8-4T21:53:34Z</time></trkpt>
<trkpt lat="45.8716049194336" lon="7.17909479141235"><ele></ele><time>2013-8-4T21:53:37Z</time></trkpt>
<trkpt lat="45.8715896606445" lon="7.17907238006592"><ele></ele><time>2013-8-4T21:53:40Z</time></trkpt>
<trkpt lat="45.8715744018555" lon="7.17905473709106"><ele></ele><time>2013-8-4T21:53:43Z</time></trkpt>
<trkpt lat="45.8715057373047" lon="7.17896032333374"><ele></ele><time>2013-8-4T21:53:46Z</time></trkpt>
<trkpt lat="45.8714714050293" lon="7.17892265319824"><ele></ele><time>2013-8-4T21:53:49Z</time></trkpt>
<trkpt lat="45.8714561462402" lon="7.17890214920044"><ele></ele><time>2013-8-4T21:53:52Z</time></trkpt>
<trkpt lat="45.8714332580566" lon="7.1788821220398"><ele></ele><time>2013-8-4T21:53:55Z</time></trkpt>
<trkpt lat="45.8714179992676" lon="7.17886114120483"><ele></ele><time>2013-8-4T21:53:58Z</time></trkpt>
<trkpt lat="45.8714065551758" lon="7.17884206771851"><ele></ele><time>2013-8-4T21:54:1Z</time></trkpt>
<trkpt lat="45.8713836669922" lon="7.17878723144531"><ele></ele><time>2013-8-4T21:54:4Z</time></trkpt>
<trkpt lat="45.8713722229004" lon="7.17875623703003"><ele></ele><time>2013-8-4T21:54:7Z</time></trkpt>
<trkpt lat="45.8713531494141" lon="7.17872428894043"><ele></ele><time>2013-8-4T21:54:10Z</time></trkpt>
<trkpt lat="45.8713340759277" lon="7.17870569229126"><ele></ele><time>2013-8-4T21:54:13Z</time></trkpt>
<trkpt lat="45.8713150024414" lon="7.17868947982788"><ele></ele><time>2013-8-4T21:54:16Z</time></trkpt>
<trkpt lat="45.8712425231934" lon="7.17852354049683"><ele></ele><time>2013-8-4T21:54:19Z</time></trkpt>
<trkpt lat="45.8712272644043" lon="7.1784930229187"><ele></ele><time>2013-8-4T21:54:22Z</time></trkpt>
<trkpt lat="45.8712120056152" lon="7.17847728729248"><ele></ele><time>2013-8-4T21:54:25Z</time></trkpt>
<trkpt lat="45.8712005615234" lon="7.17845439910889"><ele></ele><time>2013-8-4T21:54:28Z</time></trkpt>
<trkpt lat="45.8711814880371" lon="7.17843961715698"><ele></ele><time>2013-8-4T21:54:31Z</time></trkpt>
<trkpt lat="45.871166229248" lon="7.17841577529907"><ele></ele><time>2013-8-4T21:54:34Z</time></trkpt>
<trkpt lat="45.8711166381836" lon="7.17835521697998"><ele></ele><time>2013-8-4T21:54:37Z</time></trkpt>
<trkpt lat="45.8710975646973" lon="7.17833566665649"><ele></ele><time>2013-8-4T21:54:40Z</time></trkpt>
<trkpt lat="45.8710784912109" lon="7.17831611633301"><ele></ele><time>2013-8-4T21:54:43Z</time></trkpt>
<trkpt lat="45.8710632324219" lon="7.17830085754394"><ele></ele><time>2013-8-4T21:54:46Z</time></trkpt>
<trkpt lat="45.871021270752" lon="7.17824172973633"><ele></ele><time>2013-8-4T21:54:49Z</time></trkpt>
<trkpt lat="45.8710098266602" lon="7.17821788787842"><ele></ele><time>2013-8-4T21:54:52Z</time></trkpt>
<trkpt lat="45.8709945678711" lon="7.17819929122925"><ele></ele><time>2013-8-4T21:54:55Z</time></trkpt>
<trkpt lat="45.8709831237793" lon="7.17818069458008"><ele></ele><time>2013-8-4T21:54:58Z</time></trkpt>
<trkpt lat="45.8709678649902" lon="7.1781530380249"><ele></ele><time>2013-8-4T21:55:1Z</time></trkpt>
<trkpt lat="45.8708648681641" lon="7.17800235748291"><ele></ele><time>2013-8-4T21:55:4Z</time></trkpt>
<trkpt lat="45.8708381652832" lon="7.17795610427856"><ele></ele><time>2013-8-4T21:55:7Z</time></trkpt>
<trkpt lat="45.8708229064941" lon="7.17793321609497"><ele></ele><time>2013-8-4T21:55:10Z</time></trkpt>
<trkpt lat="45.8708076477051" lon="7.17791318893433"><ele></ele><time>2013-8-4T21:55:13Z</time></trkpt>
<trkpt lat="45.870792388916" lon="7.17789316177368"><ele></ele><time>2013-8-4T21:55:16Z</time></trkpt>
<trkpt lat="45.870777130127" lon="7.17786693572998"><ele></ele><time>2013-8-4T21:55:19Z</time></trkpt>
<trkpt lat="45.8707427978516" lon="7.17782020568848"><ele></ele><time>2013-8-4T21:55:22Z</time></trkpt>
<trkpt lat="45.8706932067871" lon="7.1777458190918"><ele></ele><time>2013-8-4T21:55:25Z</time></trkpt>
<trkpt lat="45.870677947998" lon="7.17772245407104"><ele></ele><time>2013-8-4T21:55:28Z</time></trkpt>
<trkpt lat="45.870662689209" lon="7.17770004272461"><ele></ele><time>2013-8-4T21:55:31Z</time></trkpt>
<trkpt lat="45.8706512451172" lon="7.17767906188965"><ele></ele><time>2013-8-4T21:55:34Z</time></trkpt>
<trkpt lat="45.8706359863281" lon="7.17765426635742"><ele></ele><time>2013-8-4T21:55:37Z</time></trkpt>
<trkpt lat="45.8705863952637" lon="7.17759466171265"><ele></ele><time>2013-8-4T21:55:40Z</time></trkpt>
<trkpt lat="45.8705711364746" lon="7.17757368087768"><ele></ele><time>2013-8-4T21:55:43Z</time></trkpt>
<trkpt lat="45.8705558776856" lon="7.17755222320557"><ele></ele><time>2013-8-4T21:55:46Z</time></trkpt>
<trkpt lat="45.8705406188965" lon="7.17752981185913"><ele></ele><time>2013-8-4T21:55:49Z</time></trkpt>
<trkpt lat="45.8705291748047" lon="7.1775107383728"><ele></ele><time>2013-8-4T21:55:52Z</time></trkpt>
<trkpt lat="45.8704605102539" lon="7.17735147476196"><ele></ele><time>2013-8-4T21:55:55Z</time></trkpt>
<trkpt lat="45.8704490661621" lon="7.17732334136963"><ele></ele><time>2013-8-4T21:55:58Z</time></trkpt>
<trkpt lat="45.870433807373" lon="7.17728900909424"><ele></ele><time>2013-8-4T21:56:1Z</time></trkpt>
<trkpt lat="45.870418548584" lon="7.17726278305054"><ele></ele><time>2013-8-4T21:56:4Z</time></trkpt>
<trkpt lat="45.8704032897949" lon="7.17723417282104"><ele></ele><time>2013-8-4T21:56:7Z</time></trkpt>
<trkpt lat="45.8703880310059" lon="7.17720556259155"><ele></ele><time>2013-8-4T21:56:10Z</time></trkpt>
<trkpt lat="45.8703536987305" lon="7.17711591720581"><ele></ele><time>2013-8-4T21:56:13Z</time></trkpt>
<trkpt lat="45.8703536987305" lon="7.17703008651733"><ele></ele><time>2013-8-4T21:56:16Z</time></trkpt>
<trkpt lat="45.8703765869141" lon="7.17702341079712"><ele></ele><time>2013-8-4T21:56:19Z</time></trkpt>
<trkpt lat="45.8704032897949" lon="7.17702865600586"><ele></ele><time>2013-8-4T21:56:22Z</time></trkpt>
<trkpt lat="45.8704223632812" lon="7.17705631256104"><ele></ele><time>2013-8-4T21:56:25Z</time></trkpt>
<trkpt lat="45.8704414367676" lon="7.17708587646484"><ele></ele><time>2013-8-4T21:56:28Z</time></trkpt>
<trkpt lat="45.870532989502" lon="7.17727947235107"><ele></ele><time>2013-8-4T21:56:31Z</time></trkpt>
<trkpt lat="45.8706703186035" lon="7.17745494842529"><ele></ele><time>2013-8-4T21:56:34Z</time></trkpt>
<trkpt lat="45.8706932067871" lon="7.17748594284058"><ele></ele><time>2013-8-4T21:56:37Z</time></trkpt>
<trkpt lat="45.8707160949707" lon="7.17751407623291"><ele></ele><time>2013-8-4T21:56:40Z</time></trkpt>
<trkpt lat="45.8707427978516" lon="7.17754507064819"><ele></ele><time>2013-8-4T21:56:43Z</time></trkpt>
<trkpt lat="45.8707618713379" lon="7.17757511138916"><ele></ele><time>2013-8-4T21:56:46Z</time></trkpt>
<trkpt lat="45.8708229064941" lon="7.17765474319458"><ele></ele><time>2013-8-4T21:56:49Z</time></trkpt>
<trkpt lat="45.8708457946777" lon="7.17767572402954"><ele></ele><time>2013-8-4T21:56:52Z</time></trkpt>
<trkpt lat="45.8708724975586" lon="7.1776967048645"><ele></ele><time>2013-8-4T21:56:55Z</time></trkpt>
<trkpt lat="45.8708953857422" lon="7.17771863937378"><ele></ele><time>2013-8-4T21:56:58Z</time></trkpt>
<trkpt lat="45.870922088623" lon="7.17773628234863"><ele></ele><time>2013-8-4T21:57:1Z</time></trkpt>
<trkpt lat="45.8710479736328" lon="7.17783164978027"><ele></ele><time>2013-8-4T21:57:4Z</time></trkpt>
<trkpt lat="45.8711433410644" lon="7.1778974533081"><ele></ele><time>2013-8-4T21:57:7Z</time></trkpt>
<trkpt lat="45.871166229248" lon="7.17792177200317"><ele></ele><time>2013-8-4T21:57:10Z</time></trkpt>
<trkpt lat="45.8711891174316" lon="7.17794418334961"><ele></ele><time>2013-8-4T21:57:13Z</time></trkpt>
<trkpt lat="45.8712120056152" lon="7.17796468734741"><ele></ele><time>2013-8-4T21:57:16Z</time></trkpt>
<trkpt lat="45.8712310791016" lon="7.17798662185669"><ele></ele><time>2013-8-4T21:57:19Z</time></trkpt>
<trkpt lat="45.8713417053223" lon="7.17810964584351"><ele></ele><time>2013-8-4T21:57:22Z</time></trkpt>
<trkpt lat="45.8713874816894" lon="7.17817115783691"><ele></ele><time>2013-8-4T21:57:25Z</time></trkpt>
<trkpt lat="45.8714065551758" lon="7.17820262908936"><ele></ele><time>2013-8-4T21:57:28Z</time></trkpt>
<trkpt lat="45.8714294433594" lon="7.17822885513306"><ele></ele><time>2013-8-4T21:57:31Z</time></trkpt>
<trkpt lat="45.871452331543" lon="7.17825651168823"><ele></ele><time>2013-8-4T21:57:34Z</time></trkpt>
<trkpt lat="45.8714714050293" lon="7.17828369140625"><ele></ele><time>2013-8-4T21:57:37Z</time></trkpt>
<trkpt lat="45.8715438842773" lon="7.17835569381714"><ele></ele><time>2013-8-4T21:57:40Z</time></trkpt>
<trkpt lat="45.8715972900391" lon="7.17839336395264"><ele></ele><time>2013-8-4T21:57:43Z</time></trkpt>
<trkpt lat="45.8716239929199" lon="7.1784086227417"><ele></ele><time>2013-8-4T21:57:46Z</time></trkpt>
<trkpt lat="45.871654510498" lon="7.1784200668335"><ele></ele><time>2013-8-4T21:57:49Z</time></trkpt>
<trkpt lat="45.8716850280762" lon="7.1784200668335"><ele></ele><time>2013-8-4T21:57:52Z</time></trkpt>
<trkpt lat="45.8717193603516" lon="7.17841529846191"><ele></ele><time>2013-8-4T21:57:55Z</time></trkpt>
<trkpt lat="45.8718032836914" lon="7.17831325531006"><ele></ele><time>2013-8-4T21:57:58Z</time></trkpt>
<trkpt lat="45.8718109130859" lon="7.17827320098877"><ele></ele><time>2013-8-4T21:58:1Z</time></trkpt>
<trkpt lat="45.8718109130859" lon="7.17823314666748"><ele></ele><time>2013-8-4T21:58:4Z</time></trkpt>
<trkpt lat="45.8718070983887" lon="7.17819213867188"><ele></ele><time>2013-8-4T21:58:7Z</time></trkpt>
<trkpt lat="45.8717994689941" lon="7.1781497001648"><ele></ele><time>2013-8-4T21:58:10Z</time></trkpt>
<trkpt lat="45.8717880249023" lon="7.17811250686646"><ele></ele><time>2013-8-4T21:58:13Z</time></trkpt>
<trkpt lat="45.8717079162598" lon="7.17799711227417"><ele></ele><time>2013-8-4T21:58:16Z</time></trkpt>
<trkpt lat="45.8716659545898" lon="7.17794609069824"><ele></ele><time>2013-8-4T21:58:19Z</time></trkpt>
<trkpt lat="45.871639251709" lon="7.17792844772339"><ele></ele><time>2013-8-4T21:58:22Z</time></trkpt>
<trkpt lat="45.8716163635254" lon="7.17791032791138"><ele></ele><time>2013-8-4T21:58:25Z</time></trkpt>
<trkpt lat="45.8715934753418" lon="7.177894115448"><ele></ele><time>2013-8-4T21:58:28Z</time></trkpt>
<trkpt lat="45.8715744018555" lon="7.17788124084473"><ele></ele><time>2013-8-4T21:58:31Z</time></trkpt>
<trkpt lat="45.8715553283691" lon="7.17785787582398"><ele></ele><time>2013-8-4T21:58:34Z</time></trkpt>
<trkpt lat="45.871467590332" lon="7.17778301239014"><ele></ele><time>2013-8-4T21:58:37Z</time></trkpt>
<trkpt lat="45.8714485168457" lon="7.17776584625244"><ele></ele><time>2013-8-4T21:58:40Z</time></trkpt>
<trkpt lat="45.8714294433594" lon="7.17775011062622"><ele></ele><time>2013-8-4T21:58:43Z</time></trkpt>
<trkpt lat="45.8714065551758" lon="7.177734375"><ele></ele><time>2013-8-4T21:58:46Z</time></trkpt>
<trkpt lat="45.8713836669922" lon="7.17772102355957"><ele></ele><time>2013-8-4T21:58:49Z</time></trkpt>
<trkpt lat="45.8713073730469" lon="7.17765808105469"><ele></ele><time>2013-8-4T21:58:52Z</time></trkpt>
<trkpt lat="45.8712882995606" lon="7.17764711380005"><ele></ele><time>2013-8-4T21:58:55Z</time></trkpt>
<trkpt lat="45.8712692260742" lon="7.1776328086853"><ele></ele><time>2013-8-4T21:58:58Z</time></trkpt>
<trkpt lat="45.8712501525879" lon="7.17761611938476"><ele></ele><time>2013-8-4T21:59:1Z</time></trkpt>
<trkpt lat="45.8711547851562" lon="7.1775369644165"><ele></ele><time>2013-8-4T21:59:4Z</time></trkpt>
<trkpt lat="45.8711357116699" lon="7.17751598358154"><ele></ele><time>2013-8-4T21:59:7Z</time></trkpt>
<trkpt lat="45.8711204528809" lon="7.17749214172363"><ele></ele><time>2013-8-4T21:59:10Z</time></trkpt>
<trkpt lat="45.8711051940918" lon="7.17747020721436"><ele></ele><time>2013-8-4T21:59:13Z</time></trkpt>
<trkpt lat="45.8710899353027" lon="7.17744493484497"><ele></ele><time>2013-8-4T21:59:16Z</time></trkpt>
<trkpt lat="45.871021270752" lon="7.17734432220459"><ele></ele><time>2013-8-4T21:59:19Z</time></trkpt>
<trkpt lat="45.8710098266602" lon="7.17731618881226"><ele></ele><time>2013-8-4T21:59:22Z</time></trkpt>
<trkpt lat="45.8709945678711" lon="7.1772928237915"><ele></ele><time>2013-8-4T21:59:25Z</time></trkpt>
<trkpt lat="45.8709754943848" lon="7.17726945877075"><ele></ele><time>2013-8-4T21:59:28Z</time></trkpt>
<trkpt lat="45.8709602355957" lon="7.17724752426148"><ele></ele><time>2013-8-4T21:59:31Z</time></trkpt>
<trkpt lat="45.8709449768066" lon="7.17722511291504"><ele></ele><time>2013-8-4T21:59:34Z</time></trkpt>
<trkpt lat="45.8708992004394" lon="7.1771502494812"><ele></ele><time>2013-8-4T21:59:37Z</time></trkpt>
<trkpt lat="45.8708610534668" lon="7.17707204818726"><ele></ele><time>2013-8-4T21:59:40Z</time></trkpt>
<trkpt lat="45.8708457946777" lon="7.1770429611206"><ele></ele><time>2013-8-4T21:59:43Z</time></trkpt>
<trkpt lat="45.8708343505859" lon="7.17701578140259"><ele></ele><time>2013-8-4T21:59:46Z</time></trkpt>
<trkpt lat="45.8708267211914" lon="7.1769871711731"><ele></ele><time>2013-8-4T21:59:49Z</time></trkpt>
<trkpt lat="45.8708152770996" lon="7.17693138122559"><ele></ele><time>2013-8-4T21:59:52Z</time></trkpt>
<trkpt lat="45.870792388916" lon="7.17684412002564"><ele></ele><time>2013-8-4T21:59:55Z</time></trkpt>
<trkpt lat="45.8707885742188" lon="7.17681169509888"><ele></ele><time>2013-8-4T21:59:58Z</time></trkpt>
<trkpt lat="45.8707809448242" lon="7.17678165435791"><ele></ele><time>2013-8-4T22:0:1Z</time></trkpt>
<trkpt lat="45.8707809448242" lon="7.17674970626831"><ele></ele><time>2013-8-4T22:0:4Z</time></trkpt>
<trkpt lat="45.8707733154297" lon="7.1767201423645"><ele></ele><time>2013-8-4T22:0:7Z</time></trkpt>
<trkpt lat="45.8707504272461" lon="7.1765947341919"><ele></ele><time>2013-8-4T22:0:10Z</time></trkpt>
<trkpt lat="45.8707427978516" lon="7.17656183242798"><ele></ele><time>2013-8-4T22:0:13Z</time></trkpt>
<trkpt lat="45.8707389831543" lon="7.17653512954712"><ele></ele><time>2013-8-4T22:0:16Z</time></trkpt>
<trkpt lat="45.8707313537598" lon="7.17650413513184"><ele></ele><time>2013-8-4T22:0:19Z</time></trkpt>
<trkpt lat="45.8707275390625" lon="7.17648124694824"><ele></ele><time>2013-8-4T22:0:22Z</time></trkpt>
<trkpt lat="45.8706970214844" lon="7.17641115188599"><ele></ele><time>2013-8-4T22:0:25Z</time></trkpt>
<trkpt lat="45.8706588745117" lon="7.17632389068604"><ele></ele><time>2013-8-4T22:0:28Z</time></trkpt>
<trkpt lat="45.8706398010254" lon="7.17629718780518"><ele></ele><time>2013-8-4T22:0:31Z</time></trkpt>
<trkpt lat="45.8706283569336" lon="7.17627763748169"><ele></ele><time>2013-8-4T22:0:34Z</time></trkpt>
<trkpt lat="45.8706092834473" lon="7.17624759674072"><ele></ele><time>2013-8-4T22:0:37Z</time></trkpt>
<trkpt lat="45.8705749511719" lon="7.17617416381836"><ele></ele><time>2013-8-4T22:0:40Z</time></trkpt>
<trkpt lat="45.8705596923828" lon="7.17614555358887"><ele></ele><time>2013-8-4T22:0:43Z</time></trkpt>
<trkpt lat="45.8705406188965" lon="7.17611455917358"><ele></ele><time>2013-8-4T22:0:46Z</time></trkpt>
<trkpt lat="45.8705253601074" lon="7.17609071731567"><ele></ele><time>2013-8-4T22:0:49Z</time></trkpt>
<trkpt lat="45.8705062866211" lon="7.17606449127197"><ele></ele><time>2013-8-4T22:0:52Z</time></trkpt>
<trkpt lat="45.8704643249512" lon="7.17602729797363"><ele></ele><time>2013-8-4T22:0:55Z</time></trkpt>
<trkpt lat="45.8704490661621" lon="7.17600631713867"><ele></ele><time>2013-8-4T22:0:58Z</time></trkpt>
<trkpt lat="45.8704299926758" lon="7.1759819984436"><ele></ele><time>2013-8-4T22:1:1Z</time></trkpt>
<trkpt lat="45.8704109191894" lon="7.17595958709717"><ele></ele><time>2013-8-4T22:1:4Z</time></trkpt>
<trkpt lat="45.8703918457031" lon="7.17593669891357"><ele></ele><time>2013-8-4T22:1:7Z</time></trkpt>
<trkpt lat="45.8703727722168" lon="7.17591667175293"><ele></ele><time>2013-8-4T22:1:10Z</time></trkpt>
<trkpt lat="45.8703460693359" lon="7.17587375640869"><ele></ele><time>2013-8-4T22:1:13Z</time></trkpt>
<trkpt lat="45.8703002929688" lon="7.17580556869507"><ele></ele><time>2013-8-4T22:1:16Z</time></trkpt>
<trkpt lat="45.8702812194824" lon="7.17578125"><ele></ele><time>2013-8-4T22:1:19Z</time></trkpt>
<trkpt lat="45.8702697753906" lon="7.17575740814209"><ele></ele><time>2013-8-4T22:1:22Z</time></trkpt>
<trkpt lat="45.8702583312988" lon="7.17572975158691"><ele></ele><time>2013-8-4T22:1:25Z</time></trkpt>
<trkpt lat="45.8702201843262" lon="7.1756477355957"><ele></ele><time>2013-8-4T22:1:28Z</time></trkpt>
<trkpt lat="45.8701972961426" lon="7.17559003829956"><ele></ele><time>2013-8-4T22:1:31Z</time></trkpt>
<trkpt lat="45.8701858520508" lon="7.17555856704712"><ele></ele><time>2013-8-4T22:1:34Z</time></trkpt>
<trkpt lat="45.8701820373535" lon="7.1755256652832"><ele></ele><time>2013-8-4T22:1:37Z</time></trkpt>
<trkpt lat="45.8701782226562" lon="7.17549848556518"><ele></ele><time>2013-8-4T22:1:40Z</time></trkpt>
<trkpt lat="45.870174407959" lon="7.17546892166138"><ele></ele><time>2013-8-4T22:1:43Z</time></trkpt>
<trkpt lat="45.8701667785644" lon="7.17544364929199"><ele></ele><time>2013-8-4T22:1:46Z</time></trkpt>
<trkpt lat="45.8701667785644" lon="7.17539596557617"><ele></ele><time>2013-8-4T22:1:49Z</time></trkpt>
<trkpt lat="45.8701667785644" lon="7.17536544799805"><ele></ele><time>2013-8-4T22:1:52Z</time></trkpt>
<trkpt lat="45.8701667785644" lon="7.17533016204834"><ele></ele><time>2013-8-4T22:1:55Z</time></trkpt>
<trkpt lat="45.8701667785644" lon="7.1752986907959"><ele></ele><time>2013-8-4T22:1:58Z</time></trkpt>
<trkpt lat="45.8701591491699" lon="7.17527103424072"><ele></ele><time>2013-8-4T22:2:1Z</time></trkpt>
<trkpt lat="45.8701629638672" lon="7.17518329620361"><ele></ele><time>2013-8-4T22:2:4Z</time></trkpt>
<trkpt lat="45.8701591491699" lon="7.1751594543457"><ele></ele><time>2013-8-4T22:2:7Z</time></trkpt>
<trkpt lat="45.8701553344727" lon="7.17513179779053"><ele></ele><time>2013-8-4T22:2:10Z</time></trkpt>
<trkpt lat="45.8701515197754" lon="7.17509841918945"><ele></ele><time>2013-8-4T22:2:13Z</time></trkpt>
<trkpt lat="45.8701515197754" lon="7.17506980895996"><ele></ele><time>2013-8-4T22:2:16Z</time></trkpt>
<trkpt lat="45.8701324462891" lon="7.17501068115234"><ele></ele><time>2013-8-4T22:2:19Z</time></trkpt>
<trkpt lat="45.8700981140137" lon="7.17488193511963"><ele></ele><time>2013-8-4T22:2:22Z</time></trkpt>
<trkpt lat="45.8700866699219" lon="7.17485427856445"><ele></ele><time>2013-8-4T22:2:25Z</time></trkpt>
<trkpt lat="45.8700752258301" lon="7.17482805252075"><ele></ele><time>2013-8-4T22:2:28Z</time></trkpt>
<trkpt lat="45.8700637817383" lon="7.17479705810547"><ele></ele><time>2013-8-4T22:2:31Z</time></trkpt>
<trkpt lat="45.8700523376465" lon="7.17477035522461"><ele></ele><time>2013-8-4T22:2:34Z</time></trkpt>
<trkpt lat="45.8700256347656" lon="7.17466974258423"><ele></ele><time>2013-8-4T22:2:37Z</time></trkpt>
<trkpt lat="45.8700141906738" lon="7.17464351654053"><ele></ele><time>2013-8-4T22:2:40Z</time></trkpt>
<trkpt lat="45.8700065612793" lon="7.17461538314819"><ele></ele><time>2013-8-4T22:2:43Z</time></trkpt>
<trkpt lat="45.8699951171875" lon="7.17459201812744"><ele></ele><time>2013-8-4T22:2:46Z</time></trkpt>
<trkpt lat="45.8699836730957" lon="7.174560546875"><ele></ele><time>2013-8-4T22:2:49Z</time></trkpt>
<trkpt lat="45.8699798583984" lon="7.17452812194824"><ele></ele><time>2013-8-4T22:2:52Z</time></trkpt>
<trkpt lat="45.8699798583984" lon="7.17449855804443"><ele></ele><time>2013-8-4T22:2:55Z</time></trkpt>
<trkpt lat="45.8699645996094" lon="7.17434597015381"><ele></ele><time>2013-8-4T22:2:58Z</time></trkpt>
<trkpt lat="45.8699607849121" lon="7.17431116104126"><ele></ele><time>2013-8-4T22:3:1Z</time></trkpt>
<trkpt lat="45.8699531555176" lon="7.17428731918335"><ele></ele><time>2013-8-4T22:3:4Z</time></trkpt>
<trkpt lat="45.869945526123" lon="7.17425680160522"><ele></ele><time>2013-8-4T22:3:7Z</time></trkpt>
<trkpt lat="45.8699378967285" lon="7.17422866821289"><ele></ele><time>2013-8-4T22:3:10Z</time></trkpt>
<trkpt lat="45.869930267334" lon="7.17416572570801"><ele></ele><time>2013-8-4T22:3:13Z</time></trkpt>
<trkpt lat="45.8699188232422" lon="7.17413330078125"><ele></ele><time>2013-8-4T22:3:16Z</time></trkpt>
<trkpt lat="45.8699150085449" lon="7.17409944534302"><ele></ele><time>2013-8-4T22:3:19Z</time></trkpt>
<trkpt lat="45.8699111938477" lon="7.17406702041626"><ele></ele><time>2013-8-4T22:3:22Z</time></trkpt>
<trkpt lat="45.8699035644531" lon="7.17403507232666"><ele></ele><time>2013-8-4T22:3:25Z</time></trkpt>
<trkpt lat="45.8698959350586" lon="7.17400407791138"><ele></ele><time>2013-8-4T22:3:28Z</time></trkpt>
<trkpt lat="45.8698844909668" lon="7.17397356033325"><ele></ele><time>2013-8-4T22:3:31Z</time></trkpt>
<trkpt lat="45.8698501586914" lon="7.1738920211792"><ele></ele><time>2013-8-4T22:3:34Z</time></trkpt>
<trkpt lat="45.8698387145996" lon="7.17386388778686"><ele></ele><time>2013-8-4T22:3:37Z</time></trkpt>
<trkpt lat="45.8698234558106" lon="7.17383670806885"><ele></ele><time>2013-8-4T22:3:40Z</time></trkpt>
<trkpt lat="45.8698081970215" lon="7.17381238937378"><ele></ele><time>2013-8-4T22:3:43Z</time></trkpt>
<trkpt lat="45.8697967529297" lon="7.17378568649292"><ele></ele><time>2013-8-4T22:3:46Z</time></trkpt>
<trkpt lat="45.8697814941406" lon="7.17376565933228"><ele></ele><time>2013-8-4T22:3:49Z</time></trkpt>
<trkpt lat="45.8697204589844" lon="7.17365264892578"><ele></ele><time>2013-8-4T22:3:52Z</time></trkpt>
<trkpt lat="45.8697052001953" lon="7.17363023757935"><ele></ele><time>2013-8-4T22:3:55Z</time></trkpt>
<trkpt lat="45.8696899414062" lon="7.17360734939575"><ele></ele><time>2013-8-4T22:3:58Z</time></trkpt>
<trkpt lat="45.8696746826172" lon="7.17358589172363"><ele></ele><time>2013-8-4T22:4:1Z</time></trkpt>
<trkpt lat="45.8696632385254" lon="7.17355632781982"><ele></ele><time>2013-8-4T22:4:4Z</time></trkpt>
<trkpt lat="45.8696022033691" lon="7.17342472076416"><ele></ele><time>2013-8-4T22:4:7Z</time></trkpt>
<trkpt lat="45.8695869445801" lon="7.17340183258057"><ele></ele><time>2013-8-4T22:4:10Z</time></trkpt>
<trkpt lat="45.8695793151856" lon="7.17336845397949"><ele></ele><time>2013-8-4T22:4:13Z</time></trkpt>
<trkpt lat="45.8695678710938" lon="7.17334175109863"><ele></ele><time>2013-8-4T22:4:16Z</time></trkpt>
<trkpt lat="45.8695526123047" lon="7.17331647872925"><ele></ele><time>2013-8-4T22:4:19Z</time></trkpt>
<trkpt lat="45.8695259094238" lon="7.1732668876648"><ele></ele><time>2013-8-4T22:4:22Z</time></trkpt>
<trkpt lat="45.8694953918457" lon="7.17321348190308"><ele></ele><time>2013-8-4T22:4:25Z</time></trkpt>
<trkpt lat="45.8694801330566" lon="7.17318677902222"><ele></ele><time>2013-8-4T22:4:28Z</time></trkpt>
<trkpt lat="45.8694648742676" lon="7.1731595993042"><ele></ele><time>2013-8-4T22:4:31Z</time></trkpt>
<trkpt lat="45.8694534301758" lon="7.17313003540039"><ele></ele><time>2013-8-4T22:4:34Z</time></trkpt>
<trkpt lat="45.8694381713867" lon="7.17310523986816"><ele></ele><time>2013-8-4T22:4:37Z</time></trkpt>
<trkpt lat="45.8694229125977" lon="7.17304611206055"><ele></ele><time>2013-8-4T22:4:40Z</time></trkpt>
<trkpt lat="45.8694229125977" lon="7.17300844192505"><ele></ele><time>2013-8-4T22:4:43Z</time></trkpt>
<trkpt lat="45.8694229125977" lon="7.17297267913818"><ele></ele><time>2013-8-4T22:4:46Z</time></trkpt>
<trkpt lat="45.8694229125977" lon="7.17294359207153"><ele></ele><time>2013-8-4T22:4:49Z</time></trkpt>
<trkpt lat="45.8694267272949" lon="7.17291116714478"><ele></ele><time>2013-8-4T22:4:52Z</time></trkpt>
<trkpt lat="45.8694267272949" lon="7.17288112640381"><ele></ele><time>2013-8-4T22:4:55Z</time></trkpt>
<trkpt lat="45.8694229125977" lon="7.17285203933716"><ele></ele><time>2013-8-4T22:4:58Z</time></trkpt>
<trkpt lat="45.8694343566894" lon="7.17278909683228"><ele></ele><time>2013-8-4T22:5:1Z</time></trkpt>
<trkpt lat="45.8694381713867" lon="7.17275857925415"><ele></ele><time>2013-8-4T22:5:4Z</time></trkpt>
<trkpt lat="45.869441986084" lon="7.17272567749024"><ele></ele><time>2013-8-4T22:5:7Z</time></trkpt>
<trkpt lat="45.8694458007812" lon="7.17269086837768"><ele></ele><time>2013-8-4T22:5:10Z</time></trkpt>
<trkpt lat="45.8694496154785" lon="7.17265892028809"><ele></ele><time>2013-8-4T22:5:13Z</time></trkpt>
<trkpt lat="45.8694534301758" lon="7.17262983322144"><ele></ele><time>2013-8-4T22:5:16Z</time></trkpt>
<trkpt lat="45.869457244873" lon="7.17248106002808"><ele></ele><time>2013-8-4T22:5:19Z</time></trkpt>
<trkpt lat="45.869457244873" lon="7.17244720458984"><ele></ele><time>2013-8-4T22:5:22Z</time></trkpt>
<trkpt lat="45.869457244873" lon="7.17241525650024"><ele></ele><time>2013-8-4T22:5:25Z</time></trkpt>
<trkpt lat="45.869457244873" lon="7.1723804473877"><ele></ele><time>2013-8-4T22:5:28Z</time></trkpt>
<trkpt lat="45.8694610595703" lon="7.17234516143799"><ele></ele><time>2013-8-4T22:5:31Z</time></trkpt>
<trkpt lat="45.8694343566894" lon="7.17218685150146"><ele></ele><time>2013-8-4T22:5:34Z</time></trkpt>
<trkpt lat="45.8694305419922" lon="7.17215394973755"><ele></ele><time>2013-8-4T22:5:37Z</time></trkpt>
<trkpt lat="45.8694229125977" lon="7.17212295532226"><ele></ele><time>2013-8-4T22:5:40Z</time></trkpt>
<trkpt lat="45.8694114685059" lon="7.1720929145813"><ele></ele><time>2013-8-4T22:5:43Z</time></trkpt>
<trkpt lat="45.8694038391113" lon="7.17206192016602"><ele></ele><time>2013-8-4T22:5:46Z</time></trkpt>
<trkpt lat="45.8693695068359" lon="7.17197608947754"><ele></ele><time>2013-8-4T22:5:49Z</time></trkpt>
<trkpt lat="45.8693504333496" lon="7.1719536781311"><ele></ele><time>2013-8-4T22:5:52Z</time></trkpt>
<trkpt lat="45.8693351745606" lon="7.1719274520874"><ele></ele><time>2013-8-4T22:5:55Z</time></trkpt>
<trkpt lat="45.8693161010742" lon="7.17190265655518"><ele></ele><time>2013-8-4T22:5:58Z</time></trkpt>
<trkpt lat="45.8692970275879" lon="7.17187738418579"><ele></ele><time>2013-8-4T22:6:1Z</time></trkpt>
<trkpt lat="45.8692626953125" lon="7.17181539535522"><ele></ele><time>2013-8-4T22:6:4Z</time></trkpt>
<trkpt lat="45.8691749572754" lon="7.17165756225586"><ele></ele><time>2013-8-4T22:6:7Z</time></trkpt>
<trkpt lat="45.8691520690918" lon="7.17160606384277"><ele></ele><time>2013-8-4T22:6:10Z</time></trkpt>
<trkpt lat="45.8691444396973" lon="7.17157411575317"><ele></ele><time>2013-8-4T22:6:13Z</time></trkpt>
<trkpt lat="45.8691329956055" lon="7.171546459198"><ele></ele><time>2013-8-4T22:6:16Z</time></trkpt>
<trkpt lat="45.8691177368164" lon="7.17151117324829"><ele></ele><time>2013-8-4T22:6:19Z</time></trkpt>
<trkpt lat="45.8690948486328" lon="7.17145490646362"><ele></ele><time>2013-8-4T22:6:22Z</time></trkpt>
<trkpt lat="45.8690567016602" lon="7.1713399887085"><ele></ele><time>2013-8-4T22:6:25Z</time></trkpt>
<trkpt lat="45.8690490722656" lon="7.1713080406189"><ele></ele><time>2013-8-4T22:6:28Z</time></trkpt>
<trkpt lat="45.8690414428711" lon="7.17127418518066"><ele></ele><time>2013-8-4T22:6:31Z</time></trkpt>
<trkpt lat="45.869026184082" lon="7.17124509811401"><ele></ele><time>2013-8-4T22:6:34Z</time></trkpt>
<trkpt lat="45.869010925293" lon="7.17121458053589"><ele></ele><time>2013-8-4T22:6:37Z</time></trkpt>
<trkpt lat="45.8690032958984" lon="7.17118263244629"><ele></ele><time>2013-8-4T22:6:40Z</time></trkpt>
<trkpt lat="45.8689804077148" lon="7.17105293273926"><ele></ele><time>2013-8-4T22:6:43Z</time></trkpt>
<trkpt lat="45.8689765930176" lon="7.17101764678955"><ele></ele><time>2013-8-4T22:6:46Z</time></trkpt>
<trkpt lat="45.868968963623" lon="7.17098808288574"><ele></ele><time>2013-8-4T22:6:49Z</time></trkpt>
<trkpt lat="45.868968963623" lon="7.17096757888794"><ele></ele><time>2013-8-4T22:6:52Z</time></trkpt>
<trkpt lat="45.868968963623" lon="7.17093896865845"><ele></ele><time>2013-8-4T22:6:55Z</time></trkpt>
<trkpt lat="45.8689422607422" lon="7.17085790634155"><ele></ele><time>2013-8-4T22:6:58Z</time></trkpt>
<trkpt lat="45.8689346313477" lon="7.17080736160278"><ele></ele><time>2013-8-4T22:7:1Z</time></trkpt>
<trkpt lat="45.8689422607422" lon="7.17077445983887"><ele></ele><time>2013-8-4T22:7:4Z</time></trkpt>
<trkpt lat="45.8689460754394" lon="7.17074108123779"><ele></ele><time>2013-8-4T22:7:7Z</time></trkpt>
<trkpt lat="45.8689575195312" lon="7.1707010269165"><ele></ele><time>2013-8-4T22:7:10Z</time></trkpt>
<trkpt lat="45.8689727783203" lon="7.17066669464111"><ele></ele><time>2013-8-4T22:7:13Z</time></trkpt>
<trkpt lat="45.8689804077148" lon="7.17064142227173"><ele></ele><time>2013-8-4T22:7:16Z</time></trkpt>
<trkpt lat="45.8689956665039" lon="7.17060422897339"><ele></ele><time>2013-8-4T22:7:19Z</time></trkpt>
<trkpt lat="45.8690071105957" lon="7.17057228088379"><ele></ele><time>2013-8-4T22:7:22Z</time></trkpt>
<trkpt lat="45.8690567016602" lon="7.17044687271118"><ele></ele><time>2013-8-4T22:7:25Z</time></trkpt>
<trkpt lat="45.8690910339356" lon="7.17038059234619"><ele></ele><time>2013-8-4T22:7:28Z</time></trkpt>
<trkpt lat="45.8691635131836" lon="7.17027425765991"><ele></ele><time>2013-8-4T22:7:31Z</time></trkpt>
<trkpt lat="45.8692588806152" lon="7.17009353637695"><ele></ele><time>2013-8-4T22:7:34Z</time></trkpt>
<trkpt lat="45.8692970275879" lon="7.17002487182617"><ele></ele><time>2013-8-4T22:7:37Z</time></trkpt>
<trkpt lat="45.869327545166" lon="7.16995763778686"><ele></ele><time>2013-8-4T22:7:40Z</time></trkpt>
<trkpt lat="45.8693618774414" lon="7.16987466812134"><ele></ele><time>2013-8-4T22:7:43Z</time></trkpt>
<trkpt lat="45.8693962097168" lon="7.16978788375854"><ele></ele><time>2013-8-4T22:7:46Z</time></trkpt>
<trkpt lat="45.8694305419922" lon="7.16969156265259"><ele></ele><time>2013-8-4T22:7:49Z</time></trkpt>
<trkpt lat="45.8694534301758" lon="7.16959524154663"><ele></ele><time>2013-8-4T22:7:52Z</time></trkpt>
<trkpt lat="45.8694763183594" lon="7.16948890686035"><ele></ele><time>2013-8-4T22:7:55Z</time></trkpt>
<trkpt lat="45.869499206543" lon="7.16937923431396"><ele></ele><time>2013-8-4T22:7:58Z</time></trkpt>
<trkpt lat="45.8695182800293" lon="7.16926431655884"><ele></ele><time>2013-8-4T22:8:1Z</time></trkpt>
<trkpt lat="45.8695373535156" lon="7.16914749145508"><ele></ele><time>2013-8-4T22:8:4Z</time></trkpt>
<trkpt lat="45.869556427002" lon="7.16902780532837"><ele></ele><time>2013-8-4T22:8:7Z</time></trkpt>
<trkpt lat="45.8695755004883" lon="7.1689076423645"><ele></ele><time>2013-8-4T22:8:10Z</time></trkpt>
<trkpt lat="45.8695907592773" lon="7.16878128051758"><ele></ele><time>2013-8-4T22:8:13Z</time></trkpt>
<trkpt lat="45.8696136474609" lon="7.16865539550781"><ele></ele><time>2013-8-4T22:8:16Z</time></trkpt>
<trkpt lat="45.8696174621582" lon="7.1683988571167"><ele></ele><time>2013-8-4T22:8:19Z</time></trkpt>
<trkpt lat="45.8695907592773" lon="7.16826868057251"><ele></ele><time>2013-8-4T22:8:22Z</time></trkpt>
<trkpt lat="45.8695640563965" lon="7.16814708709717"><ele></ele><time>2013-8-4T22:8:25Z</time></trkpt>
<trkpt lat="45.8695411682129" lon="7.16802215576172"><ele></ele><time>2013-8-4T22:8:28Z</time></trkpt>
<trkpt lat="45.869514465332" lon="7.16788339614868"><ele></ele><time>2013-8-4T22:8:31Z</time></trkpt>
<trkpt lat="45.8694801330566" lon="7.16774940490723"><ele></ele><time>2013-8-4T22:8:34Z</time></trkpt>
<trkpt lat="45.869441986084" lon="7.16762161254883"><ele></ele><time>2013-8-4T22:8:37Z</time></trkpt>
<trkpt lat="45.8694038391113" lon="7.16748809814453"><ele></ele><time>2013-8-4T22:8:40Z</time></trkpt>
<trkpt lat="45.8693695068359" lon="7.16735601425171"><ele></ele><time>2013-8-4T22:8:43Z</time></trkpt>
<trkpt lat="45.8693428039551" lon="7.16720628738403"><ele></ele><time>2013-8-4T22:8:46Z</time></trkpt>
<trkpt lat="45.8693199157715" lon="7.16705799102783"><ele></ele><time>2013-8-4T22:8:49Z</time></trkpt>
<trkpt lat="45.8693046569824" lon="7.16690826416016"><ele></ele><time>2013-8-4T22:8:52Z</time></trkpt>
<trkpt lat="45.8693008422852" lon="7.16675758361816"><ele></ele><time>2013-8-4T22:8:55Z</time></trkpt>
<trkpt lat="45.8693008422852" lon="7.16639375686646"><ele></ele><time>2013-8-4T22:8:58Z</time></trkpt>
<trkpt lat="45.8692588806152" lon="7.1660680770874"><ele></ele><time>2013-8-4T22:9:1Z</time></trkpt>
<trkpt lat="45.8692245483398" lon="7.16596508026123"><ele></ele><time>2013-8-4T22:9:4Z</time></trkpt>
<trkpt lat="45.8691864013672" lon="7.16586399078369"><ele></ele><time>2013-8-4T22:9:7Z</time></trkpt>
</trkseg></trk></gpx>